<?xml version="1.0" encoding="UTF-8" standalone="no" ?>
<gpx xmlns="http://www.topografix.com/GPX/1/1" xmlns:xsi="http://www.w3.org/2001/XMLSchema-instance" xsi:schemaLocation="http://www.topografix.com/GPX/1/1 http://www.topografix.com/GPX/1/1/gpx.xsd" version="1.1" creator="VisuGPX - https://www.visugpx.com">
  <metadata>
    <name>19-10-17 Boucle de l'Arcalod</name>
    <desc><![CDATA[Massif des Bauges

Itinéraire :
Parking du Nant Fourchu alt. 1014m
Rière Bellevaux (fontaine d'eau)
Le Couart
Les Furets
Le Chargieu alt. 1327m
La Croix d'Allant alt. 1582m
Plan de la Limace
Tré le Mollard alt. 2035m
Mont de la Coche alt. 2070m
Arcalod alt. 2217m
Pointe de Chaurionde alt. 2173m
Col du Drison alt. 1756m
Le Parc du Mouton
Col du Haut du Four alt. 1518m
Chalets de l'Aulp du Four
Retour au parking du Nant Fourchu alt. 1014m]]></desc>
  </metadata>
  <trk>
    <name><![CDATA[19-10-17 Boucle dans le massif des n Bauges]]></name>
    <desc><![CDATA[]]></desc>
    <trkseg>
      <trkpt lat="45.6456" lon="6.23688">
        <ele>1051</ele>
        <time>2019-10-17T06:05:47.350Z</time>
      </trkpt>
      <trkpt lat="45.64564" lon="6.23683">
        <ele>1052</ele>
        <time>2019-10-17T06:05:51.132Z</time>
      </trkpt>
      <trkpt lat="45.64567" lon="6.23678">
        <ele>1051</ele>
        <time>2019-10-17T06:05:58.000Z</time>
      </trkpt>
      <trkpt lat="45.64567" lon="6.23672">
        <ele>1050</ele>
        <time>2019-10-17T06:06:14.000Z</time>
      </trkpt>
      <trkpt lat="45.64564" lon="6.23666">
        <ele>1050</ele>
        <time>2019-10-17T06:06:19.224Z</time>
      </trkpt>
      <trkpt lat="45.6456" lon="6.23658">
        <ele>1048</ele>
        <time>2019-10-17T06:06:27.000Z</time>
      </trkpt>
      <trkpt lat="45.64556" lon="6.23653">
        <ele>1049</ele>
        <time>2019-10-17T06:06:29.381Z</time>
      </trkpt>
      <trkpt lat="45.64553" lon="6.23642">
        <ele>1050</ele>
        <time>2019-10-17T06:06:37.111Z</time>
      </trkpt>
      <trkpt lat="45.64557" lon="6.2363">
        <ele>1049</ele>
        <time>2019-10-17T06:06:44.118Z</time>
      </trkpt>
      <trkpt lat="45.64561" lon="6.23621">
        <ele>1046</ele>
        <time>2019-10-17T06:06:50.654Z</time>
      </trkpt>
      <trkpt lat="45.64567" lon="6.23612">
        <ele>1044</ele>
        <time>2019-10-17T06:07:01.000Z</time>
      </trkpt>
      <trkpt lat="45.64562" lon="6.23584">
        <ele>1043</ele>
        <time>2019-10-17T06:07:12.000Z</time>
      </trkpt>
      <trkpt lat="45.64566" lon="6.23571">
        <ele>1042</ele>
        <time>2019-10-17T06:07:19.000Z</time>
      </trkpt>
      <trkpt lat="45.64564" lon="6.23563">
        <ele>1042</ele>
        <time>2019-10-17T06:07:26.000Z</time>
      </trkpt>
      <trkpt lat="45.64563" lon="6.23552">
        <ele>1040</ele>
        <time>2019-10-17T06:07:33.000Z</time>
      </trkpt>
      <trkpt lat="45.64564" lon="6.23544">
        <ele>1039</ele>
        <time>2019-10-17T06:07:35.922Z</time>
      </trkpt>
      <trkpt lat="45.64563" lon="6.23535">
        <ele>1038</ele>
        <time>2019-10-17T06:07:43.000Z</time>
      </trkpt>
      <trkpt lat="45.64558" lon="6.2353">
        <ele>1040</ele>
        <time>2019-10-17T06:07:49.137Z</time>
      </trkpt>
      <trkpt lat="45.64557" lon="6.23523">
        <ele>1040</ele>
        <time>2019-10-17T06:07:53.118Z</time>
      </trkpt>
      <trkpt lat="45.64557" lon="6.23504">
        <ele>1037</ele>
        <time>2019-10-17T06:08:01.000Z</time>
      </trkpt>
      <trkpt lat="45.6456" lon="6.23496">
        <ele>1038</ele>
        <time>2019-10-17T06:08:03.435Z</time>
      </trkpt>
      <trkpt lat="45.64562" lon="6.23482">
        <ele>1039</ele>
        <time>2019-10-17T06:08:10.021Z</time>
      </trkpt>
      <trkpt lat="45.6456" lon="6.23475">
        <ele>1040</ele>
        <time>2019-10-17T06:08:14.000Z</time>
      </trkpt>
      <trkpt lat="45.64557" lon="6.23468">
        <ele>1039</ele>
        <time>2019-10-17T06:08:16.338Z</time>
      </trkpt>
      <trkpt lat="45.64553" lon="6.23462">
        <ele>1037</ele>
        <time>2019-10-17T06:08:19.562Z</time>
      </trkpt>
      <trkpt lat="45.64549" lon="6.23451">
        <ele>1036</ele>
        <time>2019-10-17T06:08:27.000Z</time>
      </trkpt>
      <trkpt lat="45.64544" lon="6.2343">
        <ele>1035</ele>
        <time>2019-10-17T06:08:37.000Z</time>
      </trkpt>
      <trkpt lat="45.64546" lon="6.2342">
        <ele>1034</ele>
        <time>2019-10-17T06:08:44.000Z</time>
      </trkpt>
      <trkpt lat="45.64546" lon="6.23412">
        <ele>1035</ele>
        <time>2019-10-17T06:08:46.683Z</time>
      </trkpt>
      <trkpt lat="45.64544" lon="6.23404">
        <ele>1036</ele>
        <time>2019-10-17T06:08:51.000Z</time>
      </trkpt>
      <trkpt lat="45.64539" lon="6.23393">
        <ele>1036</ele>
        <time>2019-10-17T06:08:56.584Z</time>
      </trkpt>
      <trkpt lat="45.64536" lon="6.23379">
        <ele>1036</ele>
        <time>2019-10-17T06:09:01.000Z</time>
      </trkpt>
      <trkpt lat="45.64533" lon="6.23366">
        <ele>1039</ele>
        <time>2019-10-17T06:09:05.000Z</time>
      </trkpt>
      <trkpt lat="45.64529" lon="6.2336">
        <ele>1039</ele>
        <time>2019-10-17T06:09:08.000Z</time>
      </trkpt>
      <trkpt lat="45.64528" lon="6.23354">
        <ele>1037</ele>
        <time>2019-10-17T06:09:14.000Z</time>
      </trkpt>
      <trkpt lat="45.64526" lon="6.23346">
        <ele>1036</ele>
        <time>2019-10-17T06:09:28.000Z</time>
      </trkpt>
      <trkpt lat="45.64524" lon="6.23337">
        <ele>1035</ele>
        <time>2019-10-17T06:09:34.000Z</time>
      </trkpt>
      <trkpt lat="45.64517" lon="6.23327">
        <ele>1035</ele>
        <time>2019-10-17T06:09:39.623Z</time>
      </trkpt>
      <trkpt lat="45.64513" lon="6.23322">
        <ele>1034</ele>
        <time>2019-10-17T06:09:44.000Z</time>
      </trkpt>
      <trkpt lat="45.64514" lon="6.23311">
        <ele>1034</ele>
        <time>2019-10-17T06:09:49.857Z</time>
      </trkpt>
      <trkpt lat="45.64518" lon="6.23304">
        <ele>1032</ele>
        <time>2019-10-17T06:10:01.000Z</time>
      </trkpt>
      <trkpt lat="45.64518" lon="6.23295">
        <ele>1031</ele>
        <time>2019-10-17T06:10:03.678Z</time>
      </trkpt>
      <trkpt lat="45.64517" lon="6.23289">
        <ele>1032</ele>
        <time>2019-10-17T06:10:06.899Z</time>
      </trkpt>
      <trkpt lat="45.64506" lon="6.23262">
        <ele>1033</ele>
        <time>2019-10-17T06:10:14.082Z</time>
      </trkpt>
      <trkpt lat="45.64504" lon="6.23255">
        <ele>1033</ele>
        <time>2019-10-17T06:10:18.000Z</time>
      </trkpt>
      <trkpt lat="45.64503" lon="6.23243">
        <ele>1035</ele>
        <time>2019-10-17T06:10:25.000Z</time>
      </trkpt>
      <trkpt lat="45.64506" lon="6.23231">
        <ele>1034</ele>
        <time>2019-10-17T06:10:28.167Z</time>
      </trkpt>
      <trkpt lat="45.64507" lon="6.23223">
        <ele>1034</ele>
        <time>2019-10-17T06:10:31.476Z</time>
      </trkpt>
      <trkpt lat="45.64507" lon="6.23214">
        <ele>1034</ele>
        <time>2019-10-17T06:10:36.000Z</time>
      </trkpt>
      <trkpt lat="45.64506" lon="6.23206">
        <ele>1034</ele>
        <time>2019-10-17T06:10:39.000Z</time>
      </trkpt>
      <trkpt lat="45.64504" lon="6.23198">
        <ele>1034</ele>
        <time>2019-10-17T06:10:41.703Z</time>
      </trkpt>
      <trkpt lat="45.64505" lon="6.23187">
        <ele>1033</ele>
        <time>2019-10-17T06:10:48.212Z</time>
      </trkpt>
      <trkpt lat="45.64504" lon="6.23177">
        <ele>1034</ele>
        <time>2019-10-17T06:10:53.000Z</time>
      </trkpt>
      <trkpt lat="45.64506" lon="6.2317">
        <ele>1034</ele>
        <time>2019-10-17T06:10:55.325Z</time>
      </trkpt>
      <trkpt lat="45.64511" lon="6.23165">
        <ele>1032</ele>
        <time>2019-10-17T06:10:58.584Z</time>
      </trkpt>
      <trkpt lat="45.64515" lon="6.23157">
        <ele>1032</ele>
        <time>2019-10-17T06:11:05.122Z</time>
      </trkpt>
      <trkpt lat="45.64518" lon="6.23144">
        <ele>1029</ele>
        <time>2019-10-17T06:11:13.000Z</time>
      </trkpt>
      <trkpt lat="45.64519" lon="6.23132">
        <ele>1029</ele>
        <time>2019-10-17T06:11:16.101Z</time>
      </trkpt>
      <trkpt lat="45.64522" lon="6.23121">
        <ele>1029</ele>
        <time>2019-10-17T06:11:22.642Z</time>
      </trkpt>
      <trkpt lat="45.64525" lon="6.23111">
        <ele>1027</ele>
        <time>2019-10-17T06:11:29.069Z</time>
      </trkpt>
      <trkpt lat="45.64524" lon="6.23099">
        <ele>1025</ele>
        <time>2019-10-17T06:11:35.546Z</time>
      </trkpt>
      <trkpt lat="45.6452" lon="6.23088">
        <ele>1024</ele>
        <time>2019-10-17T06:11:40.000Z</time>
      </trkpt>
      <trkpt lat="45.64518" lon="6.23082">
        <ele>1023</ele>
        <time>2019-10-17T06:11:42.436Z</time>
      </trkpt>
      <trkpt lat="45.64517" lon="6.23073">
        <ele>1023</ele>
        <time>2019-10-17T06:11:45.744Z</time>
      </trkpt>
      <trkpt lat="45.64516" lon="6.23062">
        <ele>1023</ele>
        <time>2019-10-17T06:11:52.180Z</time>
      </trkpt>
      <trkpt lat="45.64517" lon="6.23056">
        <ele>1022</ele>
        <time>2019-10-17T06:11:55.180Z</time>
      </trkpt>
      <trkpt lat="45.64519" lon="6.23044">
        <ele>1021</ele>
        <time>2019-10-17T06:11:59.000Z</time>
      </trkpt>
      <trkpt lat="45.64519" lon="6.23038">
        <ele>1022</ele>
        <time>2019-10-17T06:12:01.605Z</time>
      </trkpt>
      <trkpt lat="45.64519" lon="6.23027">
        <ele>1022</ele>
        <time>2019-10-17T06:12:08.132Z</time>
      </trkpt>
      <trkpt lat="45.64518" lon="6.2302">
        <ele>1022</ele>
        <time>2019-10-17T06:12:11.443Z</time>
      </trkpt>
      <trkpt lat="45.64517" lon="6.23007">
        <ele>1021</ele>
        <time>2019-10-17T06:12:16.000Z</time>
      </trkpt>
      <trkpt lat="45.64516" lon="6.22996">
        <ele>1020</ele>
        <time>2019-10-17T06:12:23.000Z</time>
      </trkpt>
      <trkpt lat="45.64518" lon="6.2299">
        <ele>1020</ele>
        <time>2019-10-17T06:12:26.000Z</time>
      </trkpt>
      <trkpt lat="45.64521" lon="6.22982">
        <ele>1018</ele>
        <time>2019-10-17T06:12:28.658Z</time>
      </trkpt>
      <trkpt lat="45.64523" lon="6.2297">
        <ele>1016</ele>
        <time>2019-10-17T06:12:33.000Z</time>
      </trkpt>
      <trkpt lat="45.64523" lon="6.22959">
        <ele>1013</ele>
        <time>2019-10-17T06:12:36.135Z</time>
      </trkpt>
      <trkpt lat="45.64519" lon="6.22951">
        <ele>1012</ele>
        <time>2019-10-17T06:12:40.000Z</time>
      </trkpt>
      <trkpt lat="45.64515" lon="6.22942">
        <ele>1013</ele>
        <time>2019-10-17T06:12:47.000Z</time>
      </trkpt>
      <trkpt lat="45.64507" lon="6.22937">
        <ele>1012</ele>
        <time>2019-10-17T06:12:54.000Z</time>
      </trkpt>
      <trkpt lat="45.64506" lon="6.22925">
        <ele>1014</ele>
        <time>2019-10-17T06:12:56.724Z</time>
      </trkpt>
      <trkpt lat="45.64502" lon="6.2292">
        <ele>1013</ele>
        <time>2019-10-17T06:13:01.000Z</time>
      </trkpt>
      <trkpt lat="45.64501" lon="6.22912">
        <ele>1012</ele>
        <time>2019-10-17T06:13:04.000Z</time>
      </trkpt>
      <trkpt lat="45.64504" lon="6.22903">
        <ele>1011</ele>
        <time>2019-10-17T06:13:07.102Z</time>
      </trkpt>
      <trkpt lat="45.64505" lon="6.22891">
        <ele>1007</ele>
        <time>2019-10-17T06:13:17.112Z</time>
      </trkpt>
      <trkpt lat="45.64505" lon="6.22883">
        <ele>1008</ele>
        <time>2019-10-17T06:13:21.000Z</time>
      </trkpt>
      <trkpt lat="45.64509" lon="6.2287">
        <ele>1009</ele>
        <time>2019-10-17T06:13:28.000Z</time>
      </trkpt>
      <trkpt lat="45.64512" lon="6.22863">
        <ele>1012</ele>
        <time>2019-10-17T06:13:35.000Z</time>
      </trkpt>
      <trkpt lat="45.64514" lon="6.22856">
        <ele>1014</ele>
        <time>2019-10-17T06:13:39.876Z</time>
      </trkpt>
      <trkpt lat="45.64516" lon="6.2285">
        <ele>1015</ele>
        <time>2019-10-17T06:13:45.000Z</time>
      </trkpt>
      <trkpt lat="45.64516" lon="6.22842">
        <ele>1015</ele>
        <time>2019-10-17T06:13:47.594Z</time>
      </trkpt>
      <trkpt lat="45.64516" lon="6.22834">
        <ele>1014</ele>
        <time>2019-10-17T06:13:52.000Z</time>
      </trkpt>
      <trkpt lat="45.64517" lon="6.22827">
        <ele>1012</ele>
        <time>2019-10-17T06:13:54.679Z</time>
      </trkpt>
      <trkpt lat="45.64518" lon="6.22816">
        <ele>1010</ele>
        <time>2019-10-17T06:14:02.000Z</time>
      </trkpt>
      <trkpt lat="45.64519" lon="6.22809">
        <ele>1008</ele>
        <time>2019-10-17T06:14:04.677Z</time>
      </trkpt>
      <trkpt lat="45.6452" lon="6.22793">
        <ele>1007</ele>
        <time>2019-10-17T06:14:12.000Z</time>
      </trkpt>
      <trkpt lat="45.64518" lon="6.22772">
        <ele>1005</ele>
        <time>2019-10-17T06:14:19.000Z</time>
      </trkpt>
      <trkpt lat="45.64515" lon="6.22764">
        <ele>1005</ele>
        <time>2019-10-17T06:14:24.549Z</time>
      </trkpt>
      <trkpt lat="45.64514" lon="6.22754">
        <ele>1004</ele>
        <time>2019-10-17T06:14:32.000Z</time>
      </trkpt>
      <trkpt lat="45.64516" lon="6.22747">
        <ele>1003</ele>
        <time>2019-10-17T06:14:34.740Z</time>
      </trkpt>
      <trkpt lat="45.64518" lon="6.22726">
        <ele>1003</ele>
        <time>2019-10-17T06:14:42.000Z</time>
      </trkpt>
      <trkpt lat="45.64518" lon="6.22719">
        <ele>1003</ele>
        <time>2019-10-17T06:14:44.304Z</time>
      </trkpt>
      <trkpt lat="45.64513" lon="6.22711">
        <ele>1003</ele>
        <time>2019-10-17T06:14:51.002Z</time>
      </trkpt>
      <trkpt lat="45.64511" lon="6.22699">
        <ele>1004</ele>
        <time>2019-10-17T06:15:09.000Z</time>
      </trkpt>
      <trkpt lat="45.6451" lon="6.2268">
        <ele>1001</ele>
        <time>2019-10-17T06:15:14.336Z</time>
      </trkpt>
      <trkpt lat="45.64507" lon="6.22669">
        <ele>999</ele>
        <time>2019-10-17T06:15:21.147Z</time>
      </trkpt>
      <trkpt lat="45.64507" lon="6.22662">
        <ele>999</ele>
        <time>2019-10-17T06:15:24.761Z</time>
      </trkpt>
      <trkpt lat="45.64509" lon="6.22653">
        <ele>998</ele>
        <time>2019-10-17T06:15:27.944Z</time>
      </trkpt>
      <trkpt lat="45.64512" lon="6.22647">
        <ele>998</ele>
        <time>2019-10-17T06:15:31.076Z</time>
      </trkpt>
      <trkpt lat="45.64512" lon="6.2264">
        <ele>998</ele>
        <time>2019-10-17T06:15:35.000Z</time>
      </trkpt>
      <trkpt lat="45.64513" lon="6.22629">
        <ele>996</ele>
        <time>2019-10-17T06:15:40.885Z</time>
      </trkpt>
      <trkpt lat="45.64518" lon="6.22618">
        <ele>997</ele>
        <time>2019-10-17T06:15:47.458Z</time>
      </trkpt>
      <trkpt lat="45.64535" lon="6.22608">
        <ele>1000</ele>
        <time>2019-10-17T06:15:58.000Z</time>
      </trkpt>
      <trkpt lat="45.64539" lon="6.22599">
        <ele>1003</ele>
        <time>2019-10-17T06:16:05.000Z</time>
      </trkpt>
      <trkpt lat="45.64538" lon="6.22592">
        <ele>1001</ele>
        <time>2019-10-17T06:16:10.788Z</time>
      </trkpt>
      <trkpt lat="45.64545" lon="6.22581">
        <ele>998</ele>
        <time>2019-10-17T06:16:17.044Z</time>
      </trkpt>
      <trkpt lat="45.64551" lon="6.22573">
        <ele>997</ele>
        <time>2019-10-17T06:16:20.563Z</time>
      </trkpt>
      <trkpt lat="45.64558" lon="6.22558">
        <ele>999</ele>
        <time>2019-10-17T06:16:32.000Z</time>
      </trkpt>
      <trkpt lat="45.64566" lon="6.22549">
        <ele>999</ele>
        <time>2019-10-17T06:16:35.100Z</time>
      </trkpt>
      <trkpt lat="45.64569" lon="6.22542">
        <ele>999</ele>
        <time>2019-10-17T06:16:40.000Z</time>
      </trkpt>
      <trkpt lat="45.6457" lon="6.22533">
        <ele>1001</ele>
        <time>2019-10-17T06:16:42.262Z</time>
      </trkpt>
      <trkpt lat="45.64575" lon="6.22519">
        <ele>1000</ele>
        <time>2019-10-17T06:16:48.959Z</time>
      </trkpt>
      <trkpt lat="45.64575" lon="6.22511">
        <ele>998</ele>
        <time>2019-10-17T06:16:53.000Z</time>
      </trkpt>
      <trkpt lat="45.64576" lon="6.22503">
        <ele>997</ele>
        <time>2019-10-17T06:16:56.072Z</time>
      </trkpt>
      <trkpt lat="45.64576" lon="6.22497">
        <ele>996</ele>
        <time>2019-10-17T06:17:00.000Z</time>
      </trkpt>
      <trkpt lat="45.64574" lon="6.22488">
        <ele>995</ele>
        <time>2019-10-17T06:17:05.680Z</time>
      </trkpt>
      <trkpt lat="45.64573" lon="6.22481">
        <ele>994</ele>
        <time>2019-10-17T06:17:10.000Z</time>
      </trkpt>
      <trkpt lat="45.64573" lon="6.22474">
        <ele>994</ele>
        <time>2019-10-17T06:17:13.042Z</time>
      </trkpt>
      <trkpt lat="45.64575" lon="6.22465">
        <ele>991</ele>
        <time>2019-10-17T06:17:17.000Z</time>
      </trkpt>
      <trkpt lat="45.64576" lon="6.22458">
        <ele>990</ele>
        <time>2019-10-17T06:17:20.000Z</time>
      </trkpt>
      <trkpt lat="45.64579" lon="6.22448">
        <ele>989</ele>
        <time>2019-10-17T06:17:22.603Z</time>
      </trkpt>
      <trkpt lat="45.64579" lon="6.22441">
        <ele>989</ele>
        <time>2019-10-17T06:17:25.882Z</time>
      </trkpt>
      <trkpt lat="45.64579" lon="6.22429">
        <ele>989</ele>
        <time>2019-10-17T06:17:32.026Z</time>
      </trkpt>
      <trkpt lat="45.64579" lon="6.22418">
        <ele>989</ele>
        <time>2019-10-17T06:17:36.000Z</time>
      </trkpt>
      <trkpt lat="45.64577" lon="6.22408">
        <ele>989</ele>
        <time>2019-10-17T06:17:39.074Z</time>
      </trkpt>
      <trkpt lat="45.64574" lon="6.22397">
        <ele>990</ele>
        <time>2019-10-17T06:17:47.000Z</time>
      </trkpt>
      <trkpt lat="45.64571" lon="6.22383">
        <ele>988</ele>
        <time>2019-10-17T06:17:53.105Z</time>
      </trkpt>
      <trkpt lat="45.64572" lon="6.22373">
        <ele>989</ele>
        <time>2019-10-17T06:17:56.703Z</time>
      </trkpt>
      <trkpt lat="45.64574" lon="6.22366">
        <ele>989</ele>
        <time>2019-10-17T06:18:01.000Z</time>
      </trkpt>
      <trkpt lat="45.64572" lon="6.22356">
        <ele>988</ele>
        <time>2019-10-17T06:18:04.042Z</time>
      </trkpt>
      <trkpt lat="45.64568" lon="6.2235">
        <ele>987</ele>
        <time>2019-10-17T06:18:08.000Z</time>
      </trkpt>
      <trkpt lat="45.64566" lon="6.22343">
        <ele>987</ele>
        <time>2019-10-17T06:18:10.257Z</time>
      </trkpt>
      <trkpt lat="45.64563" lon="6.22332">
        <ele>987</ele>
        <time>2019-10-17T06:18:13.598Z</time>
      </trkpt>
      <trkpt lat="45.64559" lon="6.22324">
        <ele>988</ele>
        <time>2019-10-17T06:18:18.000Z</time>
      </trkpt>
      <trkpt lat="45.64556" lon="6.22317">
        <ele>989</ele>
        <time>2019-10-17T06:18:21.020Z</time>
      </trkpt>
      <trkpt lat="45.64552" lon="6.2231">
        <ele>987</ele>
        <time>2019-10-17T06:18:25.127Z</time>
      </trkpt>
      <trkpt lat="45.64548" lon="6.22297">
        <ele>988</ele>
        <time>2019-10-17T06:18:33.000Z</time>
      </trkpt>
      <trkpt lat="45.64545" lon="6.2229">
        <ele>987</ele>
        <time>2019-10-17T06:18:36.000Z</time>
      </trkpt>
      <trkpt lat="45.64539" lon="6.22284">
        <ele>987</ele>
        <time>2019-10-17T06:18:40.000Z</time>
      </trkpt>
      <trkpt lat="45.64532" lon="6.22277">
        <ele>987</ele>
        <time>2019-10-17T06:18:42.694Z</time>
      </trkpt>
      <trkpt lat="45.64528" lon="6.22273">
        <ele>987</ele>
        <time>2019-10-17T06:18:47.000Z</time>
      </trkpt>
      <trkpt lat="45.64525" lon="6.22264">
        <ele>988</ele>
        <time>2019-10-17T06:18:53.000Z</time>
      </trkpt>
      <trkpt lat="45.64523" lon="6.22256">
        <ele>988</ele>
        <time>2019-10-17T06:18:55.384Z</time>
      </trkpt>
      <trkpt lat="45.6452" lon="6.2225">
        <ele>987</ele>
        <time>2019-10-17T06:18:59.076Z</time>
      </trkpt>
      <trkpt lat="45.6452" lon="6.22239">
        <ele>986</ele>
        <time>2019-10-17T06:19:05.696Z</time>
      </trkpt>
      <trkpt lat="45.64527" lon="6.22226">
        <ele>985</ele>
        <time>2019-10-17T06:19:13.000Z</time>
      </trkpt>
      <trkpt lat="45.64528" lon="6.22218">
        <ele>985</ele>
        <time>2019-10-17T06:19:19.081Z</time>
      </trkpt>
      <trkpt lat="45.64529" lon="6.22209">
        <ele>985</ele>
        <time>2019-10-17T06:19:45.902Z</time>
      </trkpt>
      <trkpt lat="45.6453" lon="6.22202">
        <ele>986</ele>
        <time>2019-10-17T06:20:00.000Z</time>
      </trkpt>
      <trkpt lat="45.64534" lon="6.22199">
        <ele>987</ele>
        <time>2019-10-17T06:20:15.000Z</time>
      </trkpt>
      <trkpt lat="45.64538" lon="6.22194">
        <ele>988</ele>
        <time>2019-10-17T06:20:24.000Z</time>
      </trkpt>
      <trkpt lat="45.64543" lon="6.2219">
        <ele>987</ele>
        <time>2019-10-17T06:20:42.000Z</time>
      </trkpt>
      <trkpt lat="45.64549" lon="6.22189">
        <ele>988</ele>
        <time>2019-10-17T06:20:46.000Z</time>
      </trkpt>
      <trkpt lat="45.64559" lon="6.22184">
        <ele>988</ele>
        <time>2019-10-17T06:20:53.000Z</time>
      </trkpt>
      <trkpt lat="45.64565" lon="6.22178">
        <ele>990</ele>
        <time>2019-10-17T06:20:58.560Z</time>
      </trkpt>
      <trkpt lat="45.64568" lon="6.22169">
        <ele>991</ele>
        <time>2019-10-17T06:21:07.000Z</time>
      </trkpt>
      <trkpt lat="45.64569" lon="6.2215">
        <ele>992</ele>
        <time>2019-10-17T06:21:12.517Z</time>
      </trkpt>
      <trkpt lat="45.6457" lon="6.22142">
        <ele>992</ele>
        <time>2019-10-17T06:21:17.000Z</time>
      </trkpt>
      <trkpt lat="45.6457" lon="6.22132">
        <ele>993</ele>
        <time>2019-10-17T06:21:23.146Z</time>
      </trkpt>
      <trkpt lat="45.64569" lon="6.2212">
        <ele>993</ele>
        <time>2019-10-17T06:21:31.000Z</time>
      </trkpt>
      <trkpt lat="45.64569" lon="6.22111">
        <ele>994</ele>
        <time>2019-10-17T06:21:38.000Z</time>
      </trkpt>
      <trkpt lat="45.64571" lon="6.22101">
        <ele>994</ele>
        <time>2019-10-17T06:21:41.000Z</time>
      </trkpt>
      <trkpt lat="45.64579" lon="6.22091">
        <ele>995</ele>
        <time>2019-10-17T06:21:48.073Z</time>
      </trkpt>
      <trkpt lat="45.64582" lon="6.22083">
        <ele>996</ele>
        <time>2019-10-17T06:21:55.000Z</time>
      </trkpt>
      <trkpt lat="45.64587" lon="6.2208">
        <ele>997</ele>
        <time>2019-10-17T06:22:00.952Z</time>
      </trkpt>
      <trkpt lat="45.64593" lon="6.22087">
        <ele>999</ele>
        <time>2019-10-17T06:22:08.000Z</time>
      </trkpt>
      <trkpt lat="45.64599" lon="6.22089">
        <ele>1000</ele>
        <time>2019-10-17T06:22:10.816Z</time>
      </trkpt>
      <trkpt lat="45.64605" lon="6.22091">
        <ele>1000</ele>
        <time>2019-10-17T06:22:18.076Z</time>
      </trkpt>
      <trkpt lat="45.6461" lon="6.22095">
        <ele>1002</ele>
        <time>2019-10-17T06:22:25.576Z</time>
      </trkpt>
      <trkpt lat="45.64617" lon="6.22095">
        <ele>1004</ele>
        <time>2019-10-17T06:22:31.962Z</time>
      </trkpt>
      <trkpt lat="45.64623" lon="6.22092">
        <ele>1007</ele>
        <time>2019-10-17T06:22:35.038Z</time>
      </trkpt>
      <trkpt lat="45.64629" lon="6.22088">
        <ele>1007</ele>
        <time>2019-10-17T06:22:38.073Z</time>
      </trkpt>
      <trkpt lat="45.64635" lon="6.22087">
        <ele>1007</ele>
        <time>2019-10-17T06:22:42.000Z</time>
      </trkpt>
      <trkpt lat="45.64639" lon="6.22088">
        <ele>1008</ele>
        <time>2019-10-17T06:22:44.258Z</time>
      </trkpt>
      <trkpt lat="45.64643" lon="6.22094">
        <ele>1009</ele>
        <time>2019-10-17T06:22:51.155Z</time>
      </trkpt>
      <trkpt lat="45.64647" lon="6.22089">
        <ele>1010</ele>
        <time>2019-10-17T06:23:01.255Z</time>
      </trkpt>
      <trkpt lat="45.64643" lon="6.22075">
        <ele>1012</ele>
        <time>2019-10-17T06:23:04.800Z</time>
      </trkpt>
      <trkpt lat="45.64639" lon="6.2207">
        <ele>1012</ele>
        <time>2019-10-17T06:23:09.000Z</time>
      </trkpt>
      <trkpt lat="45.6463" lon="6.22066">
        <ele>1015</ele>
        <time>2019-10-17T06:23:16.000Z</time>
      </trkpt>
      <trkpt lat="45.64623" lon="6.22066">
        <ele>1019</ele>
        <time>2019-10-17T06:23:25.434Z</time>
      </trkpt>
      <trkpt lat="45.64617" lon="6.2206">
        <ele>1020</ele>
        <time>2019-10-17T06:23:32.822Z</time>
      </trkpt>
      <trkpt lat="45.64609" lon="6.22051">
        <ele>1022</ele>
        <time>2019-10-17T06:23:39.480Z</time>
      </trkpt>
      <trkpt lat="45.64605" lon="6.22045">
        <ele>1022</ele>
        <time>2019-10-17T06:23:42.705Z</time>
      </trkpt>
      <trkpt lat="45.64599" lon="6.22039">
        <ele>1024</ele>
        <time>2019-10-17T06:23:51.000Z</time>
      </trkpt>
      <trkpt lat="45.64591" lon="6.22034">
        <ele>1027</ele>
        <time>2019-10-17T06:23:56.539Z</time>
      </trkpt>
      <trkpt lat="45.64585" lon="6.22029">
        <ele>1027</ele>
        <time>2019-10-17T06:24:04.000Z</time>
      </trkpt>
      <trkpt lat="45.64581" lon="6.22022">
        <ele>1029</ele>
        <time>2019-10-17T06:24:10.078Z</time>
      </trkpt>
      <trkpt lat="45.64578" lon="6.22013">
        <ele>1032</ele>
        <time>2019-10-17T06:24:17.000Z</time>
      </trkpt>
      <trkpt lat="45.64577" lon="6.22005">
        <ele>1033</ele>
        <time>2019-10-17T06:24:24.000Z</time>
      </trkpt>
      <trkpt lat="45.64578" lon="6.21997">
        <ele>1033</ele>
        <time>2019-10-17T06:24:47.000Z</time>
      </trkpt>
      <trkpt lat="45.64577" lon="6.21989">
        <ele>1035</ele>
        <time>2019-10-17T06:25:17.577Z</time>
      </trkpt>
      <trkpt lat="45.64577" lon="6.2198">
        <ele>1035</ele>
        <time>2019-10-17T06:25:23.666Z</time>
      </trkpt>
      <trkpt lat="45.64576" lon="6.21973">
        <ele>1035</ele>
        <time>2019-10-17T06:25:31.000Z</time>
      </trkpt>
      <trkpt lat="45.64573" lon="6.21968">
        <ele>1035</ele>
        <time>2019-10-17T06:25:51.000Z</time>
      </trkpt>
      <trkpt lat="45.6458" lon="6.21963">
        <ele>1034</ele>
        <time>2019-10-17T06:26:10.658Z</time>
      </trkpt>
      <trkpt lat="45.64581" lon="6.21952">
        <ele>1034</ele>
        <time>2019-10-17T06:26:17.498Z</time>
      </trkpt>
      <trkpt lat="45.64586" lon="6.21948">
        <ele>1033</ele>
        <time>2019-10-17T06:26:24.318Z</time>
      </trkpt>
      <trkpt lat="45.64591" lon="6.21939">
        <ele>1031</ele>
        <time>2019-10-17T06:26:32.000Z</time>
      </trkpt>
      <trkpt lat="45.6459" lon="6.21928">
        <ele>1031</ele>
        <time>2019-10-17T06:26:35.000Z</time>
      </trkpt>
      <trkpt lat="45.64584" lon="6.21908">
        <ele>1031</ele>
        <time>2019-10-17T06:26:40.717Z</time>
      </trkpt>
      <trkpt lat="45.64583" lon="6.21895">
        <ele>1031</ele>
        <time>2019-10-17T06:26:48.099Z</time>
      </trkpt>
      <trkpt lat="45.64578" lon="6.21888">
        <ele>1030</ele>
        <time>2019-10-17T06:26:54.679Z</time>
      </trkpt>
      <trkpt lat="45.64577" lon="6.21877">
        <ele>1029</ele>
        <time>2019-10-17T06:27:01.511Z</time>
      </trkpt>
      <trkpt lat="45.64575" lon="6.21869">
        <ele>1026</ele>
        <time>2019-10-17T06:27:21.000Z</time>
      </trkpt>
      <trkpt lat="45.64574" lon="6.21862">
        <ele>1028</ele>
        <time>2019-10-17T06:28:01.000Z</time>
      </trkpt>
      <trkpt lat="45.64575" lon="6.21856">
        <ele>1027</ele>
        <time>2019-10-17T06:28:06.758Z</time>
      </trkpt>
      <trkpt lat="45.64574" lon="6.21845">
        <ele>1026</ele>
        <time>2019-10-17T06:28:13.309Z</time>
      </trkpt>
      <trkpt lat="45.6457" lon="6.21838">
        <ele>1026</ele>
        <time>2019-10-17T06:28:18.000Z</time>
      </trkpt>
      <trkpt lat="45.64567" lon="6.21831">
        <ele>1025</ele>
        <time>2019-10-17T06:28:21.000Z</time>
      </trkpt>
      <trkpt lat="45.64563" lon="6.21818">
        <ele>1025</ele>
        <time>2019-10-17T06:28:27.000Z</time>
      </trkpt>
      <trkpt lat="45.64561" lon="6.21811">
        <ele>1024</ele>
        <time>2019-10-17T06:28:30.118Z</time>
      </trkpt>
      <trkpt lat="45.64563" lon="6.21803">
        <ele>1025</ele>
        <time>2019-10-17T06:28:33.143Z</time>
      </trkpt>
      <trkpt lat="45.64562" lon="6.21796">
        <ele>1025</ele>
        <time>2019-10-17T06:28:36.343Z</time>
      </trkpt>
      <trkpt lat="45.64559" lon="6.21788">
        <ele>1024</ele>
        <time>2019-10-17T06:28:41.000Z</time>
      </trkpt>
      <trkpt lat="45.64556" lon="6.21783">
        <ele>1022</ele>
        <time>2019-10-17T06:28:44.000Z</time>
      </trkpt>
      <trkpt lat="45.64555" lon="6.21775">
        <ele>1021</ele>
        <time>2019-10-17T06:28:46.680Z</time>
      </trkpt>
      <trkpt lat="45.64553" lon="6.21762">
        <ele>1020</ele>
        <time>2019-10-17T06:28:53.058Z</time>
      </trkpt>
      <trkpt lat="45.64552" lon="6.21752">
        <ele>1018</ele>
        <time>2019-10-17T06:29:01.000Z</time>
      </trkpt>
      <trkpt lat="45.6455" lon="6.2174">
        <ele>1017</ele>
        <time>2019-10-17T06:29:07.077Z</time>
      </trkpt>
      <trkpt lat="45.64548" lon="6.21724">
        <ele>1016</ele>
        <time>2019-10-17T06:29:42.424Z</time>
      </trkpt>
      <trkpt lat="45.64544" lon="6.21716">
        <ele>1016</ele>
        <time>2019-10-17T06:29:46.083Z</time>
      </trkpt>
      <trkpt lat="45.6454" lon="6.21711">
        <ele>1014</ele>
        <time>2019-10-17T06:29:56.081Z</time>
      </trkpt>
      <trkpt lat="45.64539" lon="6.21698">
        <ele>1014</ele>
        <time>2019-10-17T06:29:59.848Z</time>
      </trkpt>
      <trkpt lat="45.64535" lon="6.21691">
        <ele>1014</ele>
        <time>2019-10-17T06:30:03.217Z</time>
      </trkpt>
      <trkpt lat="45.64532" lon="6.21685">
        <ele>1014</ele>
        <time>2019-10-17T06:30:07.000Z</time>
      </trkpt>
      <trkpt lat="45.64527" lon="6.21673">
        <ele>1014</ele>
        <time>2019-10-17T06:30:13.084Z</time>
      </trkpt>
      <trkpt lat="45.64523" lon="6.21666">
        <ele>1013</ele>
        <time>2019-10-17T06:30:17.000Z</time>
      </trkpt>
      <trkpt lat="45.64518" lon="6.21658">
        <ele>1013</ele>
        <time>2019-10-17T06:30:24.000Z</time>
      </trkpt>
      <trkpt lat="45.64514" lon="6.21649">
        <ele>1013</ele>
        <time>2019-10-17T06:30:28.000Z</time>
      </trkpt>
      <trkpt lat="45.64512" lon="6.21641">
        <ele>1014</ele>
        <time>2019-10-17T06:30:35.000Z</time>
      </trkpt>
      <trkpt lat="45.64515" lon="6.21622">
        <ele>1014</ele>
        <time>2019-10-17T06:30:42.000Z</time>
      </trkpt>
      <trkpt lat="45.64516" lon="6.21612">
        <ele>1013</ele>
        <time>2019-10-17T06:30:44.795Z</time>
      </trkpt>
      <trkpt lat="45.64516" lon="6.21605">
        <ele>1013</ele>
        <time>2019-10-17T06:30:48.038Z</time>
      </trkpt>
      <trkpt lat="45.64515" lon="6.21599">
        <ele>1013</ele>
        <time>2019-10-17T06:30:52.000Z</time>
      </trkpt>
      <trkpt lat="45.64514" lon="6.21591">
        <ele>1012</ele>
        <time>2019-10-17T06:30:55.077Z</time>
      </trkpt>
      <trkpt lat="45.64507" lon="6.21585">
        <ele>1013</ele>
        <time>2019-10-17T06:31:03.000Z</time>
      </trkpt>
      <trkpt lat="45.64511" lon="6.21592">
        <ele>1014</ele>
        <time>2019-10-17T06:31:16.859Z</time>
      </trkpt>
      <trkpt lat="45.64516" lon="6.21601">
        <ele>1013</ele>
        <time>2019-10-17T06:31:23.484Z</time>
      </trkpt>
      <trkpt lat="45.64518" lon="6.2161">
        <ele>1012</ele>
        <time>2019-10-17T06:31:31.000Z</time>
      </trkpt>
      <trkpt lat="45.64514" lon="6.21629">
        <ele>1012</ele>
        <time>2019-10-17T06:31:38.000Z</time>
      </trkpt>
      <trkpt lat="45.64511" lon="6.21637">
        <ele>1013</ele>
        <time>2019-10-17T06:31:41.000Z</time>
      </trkpt>
      <trkpt lat="45.64508" lon="6.21645">
        <ele>1012</ele>
        <time>2019-10-17T06:31:48.000Z</time>
      </trkpt>
      <trkpt lat="45.64513" lon="6.21654">
        <ele>1013</ele>
        <time>2019-10-17T06:31:51.000Z</time>
      </trkpt>
      <trkpt lat="45.64517" lon="6.21663">
        <ele>1012</ele>
        <time>2019-10-17T06:31:53.712Z</time>
      </trkpt>
      <trkpt lat="45.64522" lon="6.21675">
        <ele>1012</ele>
        <time>2019-10-17T06:32:00.527Z</time>
      </trkpt>
      <trkpt lat="45.64527" lon="6.21684">
        <ele>1011</ele>
        <time>2019-10-17T06:32:08.000Z</time>
      </trkpt>
      <trkpt lat="45.64533" lon="6.21692">
        <ele>1012</ele>
        <time>2019-10-17T06:32:15.000Z</time>
      </trkpt>
      <trkpt lat="45.64536" lon="6.21709">
        <ele>1012</ele>
        <time>2019-10-17T06:32:22.000Z</time>
      </trkpt>
      <trkpt lat="45.64539" lon="6.21717">
        <ele>1013</ele>
        <time>2019-10-17T06:32:24.494Z</time>
      </trkpt>
      <trkpt lat="45.64541" lon="6.21723">
        <ele>1013</ele>
        <time>2019-10-17T06:32:27.776Z</time>
      </trkpt>
      <trkpt lat="45.64544" lon="6.2173">
        <ele>1014</ele>
        <time>2019-10-17T06:32:31.078Z</time>
      </trkpt>
      <trkpt lat="45.6455" lon="6.21743">
        <ele>1015</ele>
        <time>2019-10-17T06:32:37.834Z</time>
      </trkpt>
      <trkpt lat="45.64553" lon="6.21753">
        <ele>1014</ele>
        <time>2019-10-17T06:32:44.780Z</time>
      </trkpt>
      <trkpt lat="45.64554" lon="6.21764">
        <ele>1014</ele>
        <time>2019-10-17T06:32:52.074Z</time>
      </trkpt>
      <trkpt lat="45.64551" lon="6.21775">
        <ele>1015</ele>
        <time>2019-10-17T06:32:58.827Z</time>
      </trkpt>
      <trkpt lat="45.64553" lon="6.21786">
        <ele>1017</ele>
        <time>2019-10-17T06:33:05.073Z</time>
      </trkpt>
      <trkpt lat="45.64554" lon="6.21792">
        <ele>1017</ele>
        <time>2019-10-17T06:33:08.411Z</time>
      </trkpt>
      <trkpt lat="45.64557" lon="6.21804">
        <ele>1020</ele>
        <time>2019-10-17T06:33:15.130Z</time>
      </trkpt>
      <trkpt lat="45.6456" lon="6.21812">
        <ele>1019</ele>
        <time>2019-10-17T06:33:23.000Z</time>
      </trkpt>
      <trkpt lat="45.64561" lon="6.21833">
        <ele>1019</ele>
        <time>2019-10-17T06:33:29.642Z</time>
      </trkpt>
      <trkpt lat="45.64564" lon="6.21842">
        <ele>1022</ele>
        <time>2019-10-17T06:33:35.839Z</time>
      </trkpt>
      <trkpt lat="45.64565" lon="6.21852">
        <ele>1024</ele>
        <time>2019-10-17T06:33:42.365Z</time>
      </trkpt>
      <trkpt lat="45.64568" lon="6.21863">
        <ele>1025</ele>
        <time>2019-10-17T06:33:50.000Z</time>
      </trkpt>
      <trkpt lat="45.64573" lon="6.21871">
        <ele>1027</ele>
        <time>2019-10-17T06:33:57.000Z</time>
      </trkpt>
      <trkpt lat="45.64586" lon="6.21874">
        <ele>1029</ele>
        <time>2019-10-17T06:34:04.000Z</time>
      </trkpt>
      <trkpt lat="45.64594" lon="6.21877">
        <ele>1029</ele>
        <time>2019-10-17T06:34:06.880Z</time>
      </trkpt>
      <trkpt lat="45.64599" lon="6.21878">
        <ele>1030</ele>
        <time>2019-10-17T06:34:10.521Z</time>
      </trkpt>
      <trkpt lat="45.64603" lon="6.2188">
        <ele>1029</ele>
        <time>2019-10-17T06:34:14.034Z</time>
      </trkpt>
      <trkpt lat="45.6461" lon="6.21883">
        <ele>1029</ele>
        <time>2019-10-17T06:34:17.576Z</time>
      </trkpt>
      <trkpt lat="45.64616" lon="6.21886">
        <ele>1032</ele>
        <time>2019-10-17T06:34:24.715Z</time>
      </trkpt>
      <trkpt lat="45.64617" lon="6.21896">
        <ele>1032</ele>
        <time>2019-10-17T06:34:28.098Z</time>
      </trkpt>
      <trkpt lat="45.6462" lon="6.21902">
        <ele>1034</ele>
        <time>2019-10-17T06:34:31.231Z</time>
      </trkpt>
      <trkpt lat="45.6462" lon="6.21913">
        <ele>1035</ele>
        <time>2019-10-17T06:34:38.082Z</time>
      </trkpt>
      <trkpt lat="45.64625" lon="6.21923">
        <ele>1033</ele>
        <time>2019-10-17T06:34:44.834Z</time>
      </trkpt>
      <trkpt lat="45.64628" lon="6.21934">
        <ele>1031</ele>
        <time>2019-10-17T06:34:52.000Z</time>
      </trkpt>
      <trkpt lat="45.64632" lon="6.21942">
        <ele>1029</ele>
        <time>2019-10-17T06:34:57.782Z</time>
      </trkpt>
      <trkpt lat="45.64633" lon="6.2195">
        <ele>1031</ele>
        <time>2019-10-17T06:35:05.000Z</time>
      </trkpt>
      <trkpt lat="45.64638" lon="6.21955">
        <ele>1032</ele>
        <time>2019-10-17T06:35:12.000Z</time>
      </trkpt>
      <trkpt lat="45.64643" lon="6.21954">
        <ele>1032</ele>
        <time>2019-10-17T06:35:18.000Z</time>
      </trkpt>
      <trkpt lat="45.64647" lon="6.2195">
        <ele>1029</ele>
        <time>2019-10-17T06:35:21.000Z</time>
      </trkpt>
      <trkpt lat="45.64653" lon="6.21951">
        <ele>1033</ele>
        <time>2019-10-17T06:35:26.383Z</time>
      </trkpt>
      <trkpt lat="45.64657" lon="6.21961">
        <ele>1035</ele>
        <time>2019-10-17T06:35:34.000Z</time>
      </trkpt>
      <trkpt lat="45.64656" lon="6.21971">
        <ele>1036</ele>
        <time>2019-10-17T06:35:38.000Z</time>
      </trkpt>
      <trkpt lat="45.64654" lon="6.21979">
        <ele>1037</ele>
        <time>2019-10-17T06:35:40.573Z</time>
      </trkpt>
      <trkpt lat="45.64652" lon="6.21988">
        <ele>1038</ele>
        <time>2019-10-17T06:35:48.000Z</time>
      </trkpt>
      <trkpt lat="45.64648" lon="6.22001">
        <ele>1040</ele>
        <time>2019-10-17T06:35:53.918Z</time>
      </trkpt>
      <trkpt lat="45.64644" lon="6.22006">
        <ele>1040</ele>
        <time>2019-10-17T06:36:09.000Z</time>
      </trkpt>
      <trkpt lat="45.64645" lon="6.22014">
        <ele>1042</ele>
        <time>2019-10-17T06:36:35.097Z</time>
      </trkpt>
      <trkpt lat="45.64649" lon="6.22019">
        <ele>1046</ele>
        <time>2019-10-17T06:36:41.533Z</time>
      </trkpt>
      <trkpt lat="45.64655" lon="6.22024">
        <ele>1048</ele>
        <time>2019-10-17T06:36:53.000Z</time>
      </trkpt>
      <trkpt lat="45.64663" lon="6.22022">
        <ele>1051</ele>
        <time>2019-10-17T06:37:00.000Z</time>
      </trkpt>
      <trkpt lat="45.64669" lon="6.2202">
        <ele>1053</ele>
        <time>2019-10-17T06:37:06.000Z</time>
      </trkpt>
      <trkpt lat="45.64674" lon="6.22019">
        <ele>1053</ele>
        <time>2019-10-17T06:37:11.694Z</time>
      </trkpt>
      <trkpt lat="45.6468" lon="6.22022">
        <ele>1057</ele>
        <time>2019-10-17T06:37:23.000Z</time>
      </trkpt>
      <trkpt lat="45.64684" lon="6.22026">
        <ele>1060</ele>
        <time>2019-10-17T06:37:30.000Z</time>
      </trkpt>
      <trkpt lat="45.64689" lon="6.2203">
        <ele>1062</ele>
        <time>2019-10-17T06:37:39.041Z</time>
      </trkpt>
      <trkpt lat="45.64695" lon="6.22029">
        <ele>1063</ele>
        <time>2019-10-17T06:37:45.704Z</time>
      </trkpt>
      <trkpt lat="45.64702" lon="6.22027">
        <ele>1062</ele>
        <time>2019-10-17T06:37:55.872Z</time>
      </trkpt>
      <trkpt lat="45.64708" lon="6.22031">
        <ele>1064</ele>
        <time>2019-10-17T06:38:03.000Z</time>
      </trkpt>
      <trkpt lat="45.64713" lon="6.22035">
        <ele>1066</ele>
        <time>2019-10-17T06:38:12.098Z</time>
      </trkpt>
      <trkpt lat="45.64718" lon="6.22038">
        <ele>1069</ele>
        <time>2019-10-17T06:38:22.000Z</time>
      </trkpt>
      <trkpt lat="45.64724" lon="6.22041">
        <ele>1073</ele>
        <time>2019-10-17T06:38:32.000Z</time>
      </trkpt>
      <trkpt lat="45.64728" lon="6.22044">
        <ele>1073</ele>
        <time>2019-10-17T06:38:38.109Z</time>
      </trkpt>
      <trkpt lat="45.64732" lon="6.22047">
        <ele>1075</ele>
        <time>2019-10-17T06:38:46.000Z</time>
      </trkpt>
      <trkpt lat="45.64737" lon="6.22054">
        <ele>1077</ele>
        <time>2019-10-17T06:38:53.000Z</time>
      </trkpt>
      <trkpt lat="45.64741" lon="6.22059">
        <ele>1079</ele>
        <time>2019-10-17T06:39:00.000Z</time>
      </trkpt>
      <trkpt lat="45.64744" lon="6.22065">
        <ele>1080</ele>
        <time>2019-10-17T06:39:07.000Z</time>
      </trkpt>
      <trkpt lat="45.64747" lon="6.22073">
        <ele>1083</ele>
        <time>2019-10-17T06:39:16.953Z</time>
      </trkpt>
      <trkpt lat="45.64751" lon="6.2208">
        <ele>1085</ele>
        <time>2019-10-17T06:39:24.000Z</time>
      </trkpt>
      <trkpt lat="45.64759" lon="6.22076">
        <ele>1085</ele>
        <time>2019-10-17T06:39:27.000Z</time>
      </trkpt>
      <trkpt lat="45.64766" lon="6.22072">
        <ele>1085</ele>
        <time>2019-10-17T06:39:29.428Z</time>
      </trkpt>
      <trkpt lat="45.64772" lon="6.2207">
        <ele>1084</ele>
        <time>2019-10-17T06:39:37.000Z</time>
      </trkpt>
      <trkpt lat="45.64782" lon="6.22078">
        <ele>1083</ele>
        <time>2019-10-17T06:39:42.879Z</time>
      </trkpt>
      <trkpt lat="45.64789" lon="6.22078">
        <ele>1085</ele>
        <time>2019-10-17T06:39:50.000Z</time>
      </trkpt>
      <trkpt lat="45.64795" lon="6.22076">
        <ele>1088</ele>
        <time>2019-10-17T06:39:57.000Z</time>
      </trkpt>
      <trkpt lat="45.648" lon="6.22076">
        <ele>1089</ele>
        <time>2019-10-17T06:40:03.000Z</time>
      </trkpt>
      <trkpt lat="45.64808" lon="6.22076">
        <ele>1091</ele>
        <time>2019-10-17T06:40:09.851Z</time>
      </trkpt>
      <trkpt lat="45.64816" lon="6.22076">
        <ele>1088</ele>
        <time>2019-10-17T06:40:16.742Z</time>
      </trkpt>
      <trkpt lat="45.64822" lon="6.22069">
        <ele>1089</ele>
        <time>2019-10-17T06:40:25.000Z</time>
      </trkpt>
      <trkpt lat="45.64824" lon="6.22061">
        <ele>1092</ele>
        <time>2019-10-17T06:40:35.000Z</time>
      </trkpt>
      <trkpt lat="45.64829" lon="6.22058">
        <ele>1093</ele>
        <time>2019-10-17T06:40:40.618Z</time>
      </trkpt>
      <trkpt lat="45.64836" lon="6.22058">
        <ele>1095</ele>
        <time>2019-10-17T06:40:48.000Z</time>
      </trkpt>
      <trkpt lat="45.6484" lon="6.22063">
        <ele>1095</ele>
        <time>2019-10-17T06:40:51.000Z</time>
      </trkpt>
      <trkpt lat="45.64847" lon="6.22065">
        <ele>1098</ele>
        <time>2019-10-17T06:40:58.000Z</time>
      </trkpt>
      <trkpt lat="45.64851" lon="6.22062">
        <ele>1101</ele>
        <time>2019-10-17T06:41:00.626Z</time>
      </trkpt>
      <trkpt lat="45.64858" lon="6.22056">
        <ele>1100</ele>
        <time>2019-10-17T06:41:07.502Z</time>
      </trkpt>
      <trkpt lat="45.64862" lon="6.22054">
        <ele>1100</ele>
        <time>2019-10-17T06:41:12.000Z</time>
      </trkpt>
      <trkpt lat="45.64867" lon="6.22052">
        <ele>1101</ele>
        <time>2019-10-17T06:41:15.102Z</time>
      </trkpt>
      <trkpt lat="45.64876" lon="6.22052">
        <ele>1101</ele>
        <time>2019-10-17T06:41:19.000Z</time>
      </trkpt>
      <trkpt lat="45.64883" lon="6.22054">
        <ele>1101</ele>
        <time>2019-10-17T06:41:26.000Z</time>
      </trkpt>
      <trkpt lat="45.64888" lon="6.2205">
        <ele>1101</ele>
        <time>2019-10-17T06:41:29.000Z</time>
      </trkpt>
      <trkpt lat="45.64896" lon="6.22048">
        <ele>1100</ele>
        <time>2019-10-17T06:41:36.000Z</time>
      </trkpt>
      <trkpt lat="45.64903" lon="6.22041">
        <ele>1100</ele>
        <time>2019-10-17T06:41:41.653Z</time>
      </trkpt>
      <trkpt lat="45.64908" lon="6.22032">
        <ele>1098</ele>
        <time>2019-10-17T06:41:49.000Z</time>
      </trkpt>
      <trkpt lat="45.64912" lon="6.22025">
        <ele>1100</ele>
        <time>2019-10-17T06:41:55.075Z</time>
      </trkpt>
      <trkpt lat="45.64915" lon="6.22019">
        <ele>1101</ele>
        <time>2019-10-17T06:41:58.596Z</time>
      </trkpt>
      <trkpt lat="45.6492" lon="6.22014">
        <ele>1103</ele>
        <time>2019-10-17T06:42:06.000Z</time>
      </trkpt>
      <trkpt lat="45.64923" lon="6.22009">
        <ele>1102</ele>
        <time>2019-10-17T06:42:17.000Z</time>
      </trkpt>
      <trkpt lat="45.64927" lon="6.22">
        <ele>1105</ele>
        <time>2019-10-17T06:42:27.000Z</time>
      </trkpt>
      <trkpt lat="45.64927" lon="6.21993">
        <ele>1104</ele>
        <time>2019-10-17T06:42:30.000Z</time>
      </trkpt>
      <trkpt lat="45.64927" lon="6.21986">
        <ele>1104</ele>
        <time>2019-10-17T06:42:32.777Z</time>
      </trkpt>
      <trkpt lat="45.64922" lon="6.21974">
        <ele>1107</ele>
        <time>2019-10-17T06:42:39.755Z</time>
      </trkpt>
      <trkpt lat="45.64916" lon="6.21966">
        <ele>1104</ele>
        <time>2019-10-17T06:42:48.000Z</time>
      </trkpt>
      <trkpt lat="45.64914" lon="6.21957">
        <ele>1101</ele>
        <time>2019-10-17T06:42:55.000Z</time>
      </trkpt>
      <trkpt lat="45.64912" lon="6.2195">
        <ele>1108</ele>
        <time>2019-10-17T06:43:16.000Z</time>
      </trkpt>
      <trkpt lat="45.64912" lon="6.21942">
        <ele>1110</ele>
        <time>2019-10-17T06:43:22.074Z</time>
      </trkpt>
      <trkpt lat="45.64914" lon="6.21933">
        <ele>1110</ele>
        <time>2019-10-17T06:43:30.000Z</time>
      </trkpt>
      <trkpt lat="45.64918" lon="6.21922">
        <ele>1111</ele>
        <time>2019-10-17T06:43:37.079Z</time>
      </trkpt>
      <trkpt lat="45.64921" lon="6.21912">
        <ele>1114</ele>
        <time>2019-10-17T06:43:44.002Z</time>
      </trkpt>
      <trkpt lat="45.64926" lon="6.21903">
        <ele>1116</ele>
        <time>2019-10-17T06:43:52.000Z</time>
      </trkpt>
      <trkpt lat="45.64929" lon="6.21898">
        <ele>1119</ele>
        <time>2019-10-17T06:43:59.000Z</time>
      </trkpt>
      <trkpt lat="45.64934" lon="6.21899">
        <ele>1119</ele>
        <time>2019-10-17T06:44:19.000Z</time>
      </trkpt>
      <trkpt lat="45.64931" lon="6.21893">
        <ele>1126</ele>
        <time>2019-10-17T06:44:52.345Z</time>
      </trkpt>
      <trkpt lat="45.64926" lon="6.21887">
        <ele>1131</ele>
        <time>2019-10-17T06:44:59.556Z</time>
      </trkpt>
      <trkpt lat="45.6492" lon="6.21884">
        <ele>1133</ele>
        <time>2019-10-17T06:45:07.000Z</time>
      </trkpt>
      <trkpt lat="45.64914" lon="6.21885">
        <ele>1136</ele>
        <time>2019-10-17T06:45:13.072Z</time>
      </trkpt>
      <trkpt lat="45.64909" lon="6.21885">
        <ele>1139</ele>
        <time>2019-10-17T06:45:19.462Z</time>
      </trkpt>
      <trkpt lat="45.64903" lon="6.21888">
        <ele>1141</ele>
        <time>2019-10-17T06:45:26.083Z</time>
      </trkpt>
      <trkpt lat="45.64899" lon="6.21892">
        <ele>1144</ele>
        <time>2019-10-17T06:45:32.401Z</time>
      </trkpt>
      <trkpt lat="45.64895" lon="6.21895">
        <ele>1145</ele>
        <time>2019-10-17T06:45:40.000Z</time>
      </trkpt>
      <trkpt lat="45.64889" lon="6.21903">
        <ele>1146</ele>
        <time>2019-10-17T06:45:46.118Z</time>
      </trkpt>
      <trkpt lat="45.64886" lon="6.21911">
        <ele>1148</ele>
        <time>2019-10-17T06:45:52.383Z</time>
      </trkpt>
      <trkpt lat="45.64885" lon="6.21918">
        <ele>1152</ele>
        <time>2019-10-17T06:46:02.542Z</time>
      </trkpt>
      <trkpt lat="45.64879" lon="6.2192">
        <ele>1152</ele>
        <time>2019-10-17T06:46:10.000Z</time>
      </trkpt>
      <trkpt lat="45.64874" lon="6.21918">
        <ele>1153</ele>
        <time>2019-10-17T06:46:16.000Z</time>
      </trkpt>
      <trkpt lat="45.64869" lon="6.21917">
        <ele>1155</ele>
        <time>2019-10-17T06:46:19.078Z</time>
      </trkpt>
      <trkpt lat="45.64865" lon="6.21918">
        <ele>1155</ele>
        <time>2019-10-17T06:46:22.577Z</time>
      </trkpt>
      <trkpt lat="45.64861" lon="6.2192">
        <ele>1155</ele>
        <time>2019-10-17T06:46:25.684Z</time>
      </trkpt>
      <trkpt lat="45.64857" lon="6.21924">
        <ele>1155</ele>
        <time>2019-10-17T06:46:30.000Z</time>
      </trkpt>
      <trkpt lat="45.6485" lon="6.21929">
        <ele>1155</ele>
        <time>2019-10-17T06:46:34.000Z</time>
      </trkpt>
      <trkpt lat="45.64845" lon="6.21932">
        <ele>1155</ele>
        <time>2019-10-17T06:46:36.635Z</time>
      </trkpt>
      <trkpt lat="45.6484" lon="6.21931">
        <ele>1157</ele>
        <time>2019-10-17T06:46:43.440Z</time>
      </trkpt>
      <trkpt lat="45.64837" lon="6.21924">
        <ele>1160</ele>
        <time>2019-10-17T06:46:51.000Z</time>
      </trkpt>
      <trkpt lat="45.64837" lon="6.21915">
        <ele>1162</ele>
        <time>2019-10-17T06:46:56.694Z</time>
      </trkpt>
      <trkpt lat="45.64838" lon="6.21908">
        <ele>1162</ele>
        <time>2019-10-17T06:47:03.759Z</time>
      </trkpt>
      <trkpt lat="45.64842" lon="6.219">
        <ele>1163</ele>
        <time>2019-10-17T06:47:13.675Z</time>
      </trkpt>
      <trkpt lat="45.64839" lon="6.21893">
        <ele>1168</ele>
        <time>2019-10-17T06:47:27.195Z</time>
      </trkpt>
      <trkpt lat="45.64843" lon="6.21883">
        <ele>1168</ele>
        <time>2019-10-17T06:47:33.676Z</time>
      </trkpt>
      <trkpt lat="45.64846" lon="6.21877">
        <ele>1170</ele>
        <time>2019-10-17T06:47:36.851Z</time>
      </trkpt>
      <trkpt lat="45.64848" lon="6.21869">
        <ele>1169</ele>
        <time>2019-10-17T06:47:43.323Z</time>
      </trkpt>
      <trkpt lat="45.64846" lon="6.2186">
        <ele>1170</ele>
        <time>2019-10-17T06:47:50.002Z</time>
      </trkpt>
      <trkpt lat="45.64841" lon="6.21853">
        <ele>1171</ele>
        <time>2019-10-17T06:47:57.000Z</time>
      </trkpt>
      <trkpt lat="45.64836" lon="6.21847">
        <ele>1172</ele>
        <time>2019-10-17T06:48:04.027Z</time>
      </trkpt>
      <trkpt lat="45.64831" lon="6.21842">
        <ele>1174</ele>
        <time>2019-10-17T06:48:10.543Z</time>
      </trkpt>
      <trkpt lat="45.64825" lon="6.21837">
        <ele>1175</ele>
        <time>2019-10-17T06:48:17.221Z</time>
      </trkpt>
      <trkpt lat="45.64818" lon="6.21834">
        <ele>1178</ele>
        <time>2019-10-17T06:48:24.000Z</time>
      </trkpt>
      <trkpt lat="45.64815" lon="6.2183">
        <ele>1180</ele>
        <time>2019-10-17T06:49:10.000Z</time>
      </trkpt>
      <trkpt lat="45.6482" lon="6.21824">
        <ele>1183</ele>
        <time>2019-10-17T06:49:45.000Z</time>
      </trkpt>
      <trkpt lat="45.64825" lon="6.21821">
        <ele>1183</ele>
        <time>2019-10-17T06:49:47.772Z</time>
      </trkpt>
      <trkpt lat="45.64829" lon="6.21817">
        <ele>1184</ele>
        <time>2019-10-17T06:49:55.000Z</time>
      </trkpt>
      <trkpt lat="45.64835" lon="6.21812">
        <ele>1184</ele>
        <time>2019-10-17T06:50:02.000Z</time>
      </trkpt>
      <trkpt lat="45.64839" lon="6.21808">
        <ele>1186</ele>
        <time>2019-10-17T06:50:07.948Z</time>
      </trkpt>
      <trkpt lat="45.64844" lon="6.21804">
        <ele>1188</ele>
        <time>2019-10-17T06:50:15.000Z</time>
      </trkpt>
      <trkpt lat="45.64849" lon="6.21801">
        <ele>1191</ele>
        <time>2019-10-17T06:50:22.000Z</time>
      </trkpt>
      <trkpt lat="45.64855" lon="6.21795">
        <ele>1190</ele>
        <time>2019-10-17T06:50:29.000Z</time>
      </trkpt>
      <trkpt lat="45.64862" lon="6.21791">
        <ele>1193</ele>
        <time>2019-10-17T06:50:36.000Z</time>
      </trkpt>
      <trkpt lat="45.64867" lon="6.21788">
        <ele>1195</ele>
        <time>2019-10-17T06:50:45.951Z</time>
      </trkpt>
      <trkpt lat="45.64862" lon="6.2178">
        <ele>1197</ele>
        <time>2019-10-17T06:50:56.168Z</time>
      </trkpt>
      <trkpt lat="45.64854" lon="6.21771">
        <ele>1199</ele>
        <time>2019-10-17T06:51:03.271Z</time>
      </trkpt>
      <trkpt lat="45.64849" lon="6.21767">
        <ele>1201</ele>
        <time>2019-10-17T06:51:09.780Z</time>
      </trkpt>
      <trkpt lat="45.64851" lon="6.21761">
        <ele>1201</ele>
        <time>2019-10-17T06:51:17.000Z</time>
      </trkpt>
      <trkpt lat="45.64855" lon="6.21756">
        <ele>1202</ele>
        <time>2019-10-17T06:51:20.124Z</time>
      </trkpt>
      <trkpt lat="45.64859" lon="6.21754">
        <ele>1204</ele>
        <time>2019-10-17T06:51:23.240Z</time>
      </trkpt>
      <trkpt lat="45.64868" lon="6.21752">
        <ele>1206</ele>
        <time>2019-10-17T06:51:30.105Z</time>
      </trkpt>
      <trkpt lat="45.64873" lon="6.21753">
        <ele>1207</ele>
        <time>2019-10-17T06:51:33.705Z</time>
      </trkpt>
      <trkpt lat="45.64879" lon="6.21753">
        <ele>1207</ele>
        <time>2019-10-17T06:51:41.000Z</time>
      </trkpt>
      <trkpt lat="45.64884" lon="6.21748">
        <ele>1209</ele>
        <time>2019-10-17T06:51:50.927Z</time>
      </trkpt>
      <trkpt lat="45.64881" lon="6.21742">
        <ele>1209</ele>
        <time>2019-10-17T06:52:00.765Z</time>
      </trkpt>
      <trkpt lat="45.64873" lon="6.21733">
        <ele>1213</ele>
        <time>2019-10-17T06:52:08.000Z</time>
      </trkpt>
      <trkpt lat="45.64868" lon="6.2173">
        <ele>1216</ele>
        <time>2019-10-17T06:52:11.001Z</time>
      </trkpt>
      <trkpt lat="45.64873" lon="6.21725">
        <ele>1218</ele>
        <time>2019-10-17T06:52:23.648Z</time>
      </trkpt>
      <trkpt lat="45.64879" lon="6.21723">
        <ele>1218</ele>
        <time>2019-10-17T06:52:27.022Z</time>
      </trkpt>
      <trkpt lat="45.64885" lon="6.21722">
        <ele>1219</ele>
        <time>2019-10-17T06:52:31.000Z</time>
      </trkpt>
      <trkpt lat="45.64893" lon="6.2172">
        <ele>1221</ele>
        <time>2019-10-17T06:52:34.105Z</time>
      </trkpt>
      <trkpt lat="45.64901" lon="6.2172">
        <ele>1223</ele>
        <time>2019-10-17T06:52:40.886Z</time>
      </trkpt>
      <trkpt lat="45.64905" lon="6.21718">
        <ele>1223</ele>
        <time>2019-10-17T06:52:47.286Z</time>
      </trkpt>
      <trkpt lat="45.6491" lon="6.2171">
        <ele>1223</ele>
        <time>2019-10-17T06:52:54.042Z</time>
      </trkpt>
      <trkpt lat="45.64912" lon="6.21704">
        <ele>1223</ele>
        <time>2019-10-17T06:52:57.045Z</time>
      </trkpt>
      <trkpt lat="45.64914" lon="6.21692">
        <ele>1225</ele>
        <time>2019-10-17T06:53:04.000Z</time>
      </trkpt>
      <trkpt lat="45.64915" lon="6.21685">
        <ele>1224</ele>
        <time>2019-10-17T06:53:08.000Z</time>
      </trkpt>
      <trkpt lat="45.64916" lon="6.21677">
        <ele>1224</ele>
        <time>2019-10-17T06:54:50.000Z</time>
      </trkpt>
      <trkpt lat="45.64918" lon="6.21668">
        <ele>1223</ele>
        <time>2019-10-17T06:54:59.224Z</time>
      </trkpt>
      <trkpt lat="45.64922" lon="6.21656">
        <ele>1223</ele>
        <time>2019-10-17T06:55:05.681Z</time>
      </trkpt>
      <trkpt lat="45.64924" lon="6.21649">
        <ele>1223</ele>
        <time>2019-10-17T06:55:08.963Z</time>
      </trkpt>
      <trkpt lat="45.64926" lon="6.21643">
        <ele>1221</ele>
        <time>2019-10-17T06:55:12.277Z</time>
      </trkpt>
      <trkpt lat="45.64931" lon="6.21633">
        <ele>1219</ele>
        <time>2019-10-17T06:55:19.000Z</time>
      </trkpt>
      <trkpt lat="45.64935" lon="6.21628">
        <ele>1219</ele>
        <time>2019-10-17T06:55:22.302Z</time>
      </trkpt>
      <trkpt lat="45.64939" lon="6.21619">
        <ele>1219</ele>
        <time>2019-10-17T06:55:28.882Z</time>
      </trkpt>
      <trkpt lat="45.64941" lon="6.21612">
        <ele>1218</ele>
        <time>2019-10-17T06:55:50.000Z</time>
      </trkpt>
      <trkpt lat="45.64938" lon="6.21607">
        <ele>1218</ele>
        <time>2019-10-17T06:55:59.075Z</time>
      </trkpt>
      <trkpt lat="45.64935" lon="6.21596">
        <ele>1221</ele>
        <time>2019-10-17T06:56:11.000Z</time>
      </trkpt>
      <trkpt lat="45.64936" lon="6.21589">
        <ele>1225</ele>
        <time>2019-10-17T06:56:17.000Z</time>
      </trkpt>
      <trkpt lat="45.64936" lon="6.21582">
        <ele>1226</ele>
        <time>2019-10-17T06:56:23.013Z</time>
      </trkpt>
      <trkpt lat="45.64938" lon="6.21573">
        <ele>1225</ele>
        <time>2019-10-17T06:56:29.724Z</time>
      </trkpt>
      <trkpt lat="45.64943" lon="6.21569">
        <ele>1226</ele>
        <time>2019-10-17T06:56:33.000Z</time>
      </trkpt>
      <trkpt lat="45.64947" lon="6.21562">
        <ele>1228</ele>
        <time>2019-10-17T06:56:40.000Z</time>
      </trkpt>
      <trkpt lat="45.64948" lon="6.21554">
        <ele>1228</ele>
        <time>2019-10-17T06:56:47.000Z</time>
      </trkpt>
      <trkpt lat="45.6495" lon="6.21546">
        <ele>1231</ele>
        <time>2019-10-17T06:56:53.061Z</time>
      </trkpt>
      <trkpt lat="45.6495" lon="6.21533">
        <ele>1233</ele>
        <time>2019-10-17T06:57:00.000Z</time>
      </trkpt>
      <trkpt lat="45.64947" lon="6.21524">
        <ele>1233</ele>
        <time>2019-10-17T06:57:07.000Z</time>
      </trkpt>
      <trkpt lat="45.64947" lon="6.21517">
        <ele>1232</ele>
        <time>2019-10-17T06:57:17.000Z</time>
      </trkpt>
      <trkpt lat="45.64948" lon="6.2151">
        <ele>1232</ele>
        <time>2019-10-17T06:57:24.000Z</time>
      </trkpt>
      <trkpt lat="45.6495" lon="6.21504">
        <ele>1230</ele>
        <time>2019-10-17T06:57:30.000Z</time>
      </trkpt>
      <trkpt lat="45.64952" lon="6.21493">
        <ele>1231</ele>
        <time>2019-10-17T06:57:37.000Z</time>
      </trkpt>
      <trkpt lat="45.64954" lon="6.21483">
        <ele>1232</ele>
        <time>2019-10-17T06:57:43.000Z</time>
      </trkpt>
      <trkpt lat="45.64955" lon="6.21477">
        <ele>1232</ele>
        <time>2019-10-17T06:57:47.000Z</time>
      </trkpt>
      <trkpt lat="45.64957" lon="6.2147">
        <ele>1232</ele>
        <time>2019-10-17T06:57:50.100Z</time>
      </trkpt>
      <trkpt lat="45.64959" lon="6.2146">
        <ele>1233</ele>
        <time>2019-10-17T06:57:56.362Z</time>
      </trkpt>
      <trkpt lat="45.64961" lon="6.21447">
        <ele>1233</ele>
        <time>2019-10-17T06:58:04.000Z</time>
      </trkpt>
      <trkpt lat="45.64963" lon="6.21435">
        <ele>1234</ele>
        <time>2019-10-17T06:58:11.000Z</time>
      </trkpt>
      <trkpt lat="45.64963" lon="6.21424">
        <ele>1237</ele>
        <time>2019-10-17T06:58:18.000Z</time>
      </trkpt>
      <trkpt lat="45.64964" lon="6.21413">
        <ele>1240</ele>
        <time>2019-10-17T06:58:25.000Z</time>
      </trkpt>
      <trkpt lat="45.64962" lon="6.21403">
        <ele>1242</ele>
        <time>2019-10-17T06:58:32.000Z</time>
      </trkpt>
      <trkpt lat="45.6496" lon="6.21395">
        <ele>1245</ele>
        <time>2019-10-17T06:58:37.742Z</time>
      </trkpt>
      <trkpt lat="45.6496" lon="6.21388">
        <ele>1249</ele>
        <time>2019-10-17T06:58:45.081Z</time>
      </trkpt>
      <trkpt lat="45.64963" lon="6.21382">
        <ele>1252</ele>
        <time>2019-10-17T06:58:53.000Z</time>
      </trkpt>
      <trkpt lat="45.64967" lon="6.21376">
        <ele>1254</ele>
        <time>2019-10-17T06:59:00.000Z</time>
      </trkpt>
      <trkpt lat="45.64971" lon="6.21372">
        <ele>1254</ele>
        <time>2019-10-17T06:59:07.000Z</time>
      </trkpt>
      <trkpt lat="45.64976" lon="6.21367">
        <ele>1258</ele>
        <time>2019-10-17T06:59:14.000Z</time>
      </trkpt>
      <trkpt lat="45.6498" lon="6.21362">
        <ele>1259</ele>
        <time>2019-10-17T06:59:24.000Z</time>
      </trkpt>
      <trkpt lat="45.64986" lon="6.21362">
        <ele>1259</ele>
        <time>2019-10-17T06:59:31.000Z</time>
      </trkpt>
      <trkpt lat="45.64991" lon="6.21361">
        <ele>1262</ele>
        <time>2019-10-17T06:59:38.000Z</time>
      </trkpt>
      <trkpt lat="45.64997" lon="6.21361">
        <ele>1264</ele>
        <time>2019-10-17T06:59:47.146Z</time>
      </trkpt>
      <trkpt lat="45.65004" lon="6.21359">
        <ele>1266</ele>
        <time>2019-10-17T06:59:53.879Z</time>
      </trkpt>
      <trkpt lat="45.6501" lon="6.21354">
        <ele>1268</ele>
        <time>2019-10-17T07:00:04.497Z</time>
      </trkpt>
      <trkpt lat="45.65013" lon="6.21349">
        <ele>1269</ele>
        <time>2019-10-17T07:00:09.000Z</time>
      </trkpt>
      <trkpt lat="45.65015" lon="6.21341">
        <ele>1269</ele>
        <time>2019-10-17T07:00:11.700Z</time>
      </trkpt>
      <trkpt lat="45.65018" lon="6.21332">
        <ele>1270</ele>
        <time>2019-10-17T07:00:19.000Z</time>
      </trkpt>
      <trkpt lat="45.65024" lon="6.21331">
        <ele>1273</ele>
        <time>2019-10-17T07:00:24.813Z</time>
      </trkpt>
      <trkpt lat="45.6503" lon="6.21326">
        <ele>1274</ele>
        <time>2019-10-17T07:00:32.121Z</time>
      </trkpt>
      <trkpt lat="45.65032" lon="6.21317">
        <ele>1274</ele>
        <time>2019-10-17T07:00:38.438Z</time>
      </trkpt>
      <trkpt lat="45.6503" lon="6.2131">
        <ele>1275</ele>
        <time>2019-10-17T07:00:48.497Z</time>
      </trkpt>
      <trkpt lat="45.65036" lon="6.21302">
        <ele>1279</ele>
        <time>2019-10-17T07:00:58.494Z</time>
      </trkpt>
      <trkpt lat="45.65044" lon="6.21297">
        <ele>1280</ele>
        <time>2019-10-17T07:01:03.000Z</time>
      </trkpt>
      <trkpt lat="45.65052" lon="6.21294">
        <ele>1280</ele>
        <time>2019-10-17T07:01:10.000Z</time>
      </trkpt>
      <trkpt lat="45.65056" lon="6.21294">
        <ele>1280</ele>
        <time>2019-10-17T07:01:23.000Z</time>
      </trkpt>
      <trkpt lat="45.65062" lon="6.21289">
        <ele>1282</ele>
        <time>2019-10-17T07:01:39.860Z</time>
      </trkpt>
      <trkpt lat="45.65068" lon="6.21283">
        <ele>1281</ele>
        <time>2019-10-17T07:01:51.000Z</time>
      </trkpt>
      <trkpt lat="45.6507" lon="6.21277">
        <ele>1282</ele>
        <time>2019-10-17T07:01:55.000Z</time>
      </trkpt>
      <trkpt lat="45.6507" lon="6.21267">
        <ele>1282</ele>
        <time>2019-10-17T07:02:00.466Z</time>
      </trkpt>
      <trkpt lat="45.6507" lon="6.2126">
        <ele>1282</ele>
        <time>2019-10-17T07:02:08.000Z</time>
      </trkpt>
      <trkpt lat="45.65068" lon="6.21251">
        <ele>1285</ele>
        <time>2019-10-17T07:02:13.807Z</time>
      </trkpt>
      <trkpt lat="45.65064" lon="6.21244">
        <ele>1287</ele>
        <time>2019-10-17T07:02:20.742Z</time>
      </trkpt>
      <trkpt lat="45.65061" lon="6.21236">
        <ele>1287</ele>
        <time>2019-10-17T07:02:27.501Z</time>
      </trkpt>
      <trkpt lat="45.65059" lon="6.21227">
        <ele>1288</ele>
        <time>2019-10-17T07:02:35.000Z</time>
      </trkpt>
      <trkpt lat="45.65058" lon="6.21218">
        <ele>1290</ele>
        <time>2019-10-17T07:02:42.000Z</time>
      </trkpt>
      <trkpt lat="45.65057" lon="6.21211">
        <ele>1291</ele>
        <time>2019-10-17T07:02:48.000Z</time>
      </trkpt>
      <trkpt lat="45.6505" lon="6.21207">
        <ele>1290</ele>
        <time>2019-10-17T07:02:52.000Z</time>
      </trkpt>
      <trkpt lat="45.65045" lon="6.21205">
        <ele>1291</ele>
        <time>2019-10-17T07:02:56.000Z</time>
      </trkpt>
      <trkpt lat="45.65041" lon="6.21198">
        <ele>1292</ele>
        <time>2019-10-17T07:03:03.000Z</time>
      </trkpt>
      <trkpt lat="45.65038" lon="6.21191">
        <ele>1295</ele>
        <time>2019-10-17T07:03:09.000Z</time>
      </trkpt>
      <trkpt lat="45.65042" lon="6.21186">
        <ele>1298</ele>
        <time>2019-10-17T07:03:38.000Z</time>
      </trkpt>
      <trkpt lat="45.65044" lon="6.21177">
        <ele>1295</ele>
        <time>2019-10-17T07:03:45.000Z</time>
      </trkpt>
      <trkpt lat="45.65045" lon="6.2117">
        <ele>1296</ele>
        <time>2019-10-17T07:03:48.000Z</time>
      </trkpt>
      <trkpt lat="45.65046" lon="6.21163">
        <ele>1298</ele>
        <time>2019-10-17T07:03:52.000Z</time>
      </trkpt>
      <trkpt lat="45.65049" lon="6.21153">
        <ele>1300</ele>
        <time>2019-10-17T07:03:57.666Z</time>
      </trkpt>
      <trkpt lat="45.65049" lon="6.21144">
        <ele>1305</ele>
        <time>2019-10-17T07:04:05.000Z</time>
      </trkpt>
      <trkpt lat="45.65048" lon="6.21134">
        <ele>1305</ele>
        <time>2019-10-17T07:04:12.000Z</time>
      </trkpt>
      <trkpt lat="45.65047" lon="6.21125">
        <ele>1308</ele>
        <time>2019-10-17T07:04:19.000Z</time>
      </trkpt>
      <trkpt lat="45.65046" lon="6.21115">
        <ele>1310</ele>
        <time>2019-10-17T07:04:27.000Z</time>
      </trkpt>
      <trkpt lat="45.65044" lon="6.21106">
        <ele>1310</ele>
        <time>2019-10-17T07:04:33.195Z</time>
      </trkpt>
      <trkpt lat="45.65043" lon="6.21098">
        <ele>1310</ele>
        <time>2019-10-17T07:04:37.000Z</time>
      </trkpt>
      <trkpt lat="45.65043" lon="6.21088">
        <ele>1312</ele>
        <time>2019-10-17T07:04:41.000Z</time>
      </trkpt>
      <trkpt lat="45.65045" lon="6.21081">
        <ele>1311</ele>
        <time>2019-10-17T07:04:44.000Z</time>
      </trkpt>
      <trkpt lat="45.65043" lon="6.21071">
        <ele>1311</ele>
        <time>2019-10-17T07:04:49.585Z</time>
      </trkpt>
      <trkpt lat="45.65041" lon="6.21064">
        <ele>1312</ele>
        <time>2019-10-17T07:04:54.000Z</time>
      </trkpt>
      <trkpt lat="45.65038" lon="6.21058">
        <ele>1311</ele>
        <time>2019-10-17T07:04:56.493Z</time>
      </trkpt>
      <trkpt lat="45.65035" lon="6.21051">
        <ele>1312</ele>
        <time>2019-10-17T07:05:00.149Z</time>
      </trkpt>
      <trkpt lat="45.6503" lon="6.21041">
        <ele>1311</ele>
        <time>2019-10-17T07:05:07.015Z</time>
      </trkpt>
      <trkpt lat="45.65025" lon="6.21037">
        <ele>1311</ele>
        <time>2019-10-17T07:05:11.000Z</time>
      </trkpt>
      <trkpt lat="45.6502" lon="6.2104">
        <ele>1312</ele>
        <time>2019-10-17T07:05:26.000Z</time>
      </trkpt>
      <trkpt lat="45.65018" lon="6.21032">
        <ele>1313</ele>
        <time>2019-10-17T07:05:33.000Z</time>
      </trkpt>
      <trkpt lat="45.65009" lon="6.21024">
        <ele>1312</ele>
        <time>2019-10-17T07:05:38.900Z</time>
      </trkpt>
      <trkpt lat="45.65004" lon="6.2102">
        <ele>1313</ele>
        <time>2019-10-17T07:05:43.000Z</time>
      </trkpt>
      <trkpt lat="45.64998" lon="6.21013">
        <ele>1313</ele>
        <time>2019-10-17T07:05:49.140Z</time>
      </trkpt>
      <trkpt lat="45.64995" lon="6.21005">
        <ele>1314</ele>
        <time>2019-10-17T07:05:57.000Z</time>
      </trkpt>
      <trkpt lat="45.6499" lon="6.20999">
        <ele>1314</ele>
        <time>2019-10-17T07:06:00.000Z</time>
      </trkpt>
      <trkpt lat="45.64986" lon="6.2099">
        <ele>1315</ele>
        <time>2019-10-17T07:06:05.604Z</time>
      </trkpt>
      <trkpt lat="45.64986" lon="6.20981">
        <ele>1315</ele>
        <time>2019-10-17T07:06:13.000Z</time>
      </trkpt>
      <trkpt lat="45.64987" lon="6.20972">
        <ele>1316</ele>
        <time>2019-10-17T07:06:19.000Z</time>
      </trkpt>
      <trkpt lat="45.6499" lon="6.20962">
        <ele>1319</ele>
        <time>2019-10-17T07:06:26.000Z</time>
      </trkpt>
      <trkpt lat="45.64991" lon="6.20955">
        <ele>1322</ele>
        <time>2019-10-17T07:07:36.000Z</time>
      </trkpt>
      <trkpt lat="45.6499" lon="6.20948">
        <ele>1322</ele>
        <time>2019-10-17T07:07:46.000Z</time>
      </trkpt>
      <trkpt lat="45.64989" lon="6.2094">
        <ele>1322</ele>
        <time>2019-10-17T07:07:52.080Z</time>
      </trkpt>
      <trkpt lat="45.64989" lon="6.20933">
        <ele>1324</ele>
        <time>2019-10-17T07:08:00.000Z</time>
      </trkpt>
      <trkpt lat="45.6499" lon="6.20927">
        <ele>1325</ele>
        <time>2019-10-17T07:08:02.580Z</time>
      </trkpt>
      <trkpt lat="45.64993" lon="6.20918">
        <ele>1326</ele>
        <time>2019-10-17T07:08:10.000Z</time>
      </trkpt>
      <trkpt lat="45.64995" lon="6.2091">
        <ele>1327</ele>
        <time>2019-10-17T07:08:15.839Z</time>
      </trkpt>
      <trkpt lat="45.64999" lon="6.20903">
        <ele>1328</ele>
        <time>2019-10-17T07:08:23.121Z</time>
      </trkpt>
      <trkpt lat="45.64995" lon="6.209">
        <ele>1331</ele>
        <time>2019-10-17T07:08:27.019Z</time>
      </trkpt>
      <trkpt lat="45.6499" lon="6.20897">
        <ele>1331</ele>
        <time>2019-10-17T07:08:37.682Z</time>
      </trkpt>
      <trkpt lat="45.64992" lon="6.20885">
        <ele>1334</ele>
        <time>2019-10-17T07:08:45.205Z</time>
      </trkpt>
      <trkpt lat="45.64994" lon="6.20879">
        <ele>1336</ele>
        <time>2019-10-17T07:08:49.000Z</time>
      </trkpt>
      <trkpt lat="45.64998" lon="6.20875">
        <ele>1337</ele>
        <time>2019-10-17T07:09:10.000Z</time>
      </trkpt>
      <trkpt lat="45.64997" lon="6.20867">
        <ele>1336</ele>
        <time>2019-10-17T07:10:12.000Z</time>
      </trkpt>
      <trkpt lat="45.65001" lon="6.20864">
        <ele>1334</ele>
        <time>2019-10-17T07:10:22.000Z</time>
      </trkpt>
      <trkpt lat="45.6501" lon="6.2086">
        <ele>1335</ele>
        <time>2019-10-17T07:10:28.270Z</time>
      </trkpt>
      <trkpt lat="45.65014" lon="6.20858">
        <ele>1336</ele>
        <time>2019-10-17T07:10:31.844Z</time>
      </trkpt>
      <trkpt lat="45.65022" lon="6.20858">
        <ele>1337</ele>
        <time>2019-10-17T07:10:40.000Z</time>
      </trkpt>
      <trkpt lat="45.65027" lon="6.20858">
        <ele>1336</ele>
        <time>2019-10-17T07:10:42.203Z</time>
      </trkpt>
      <trkpt lat="45.65033" lon="6.20857">
        <ele>1337</ele>
        <time>2019-10-17T07:10:47.000Z</time>
      </trkpt>
      <trkpt lat="45.65038" lon="6.20859">
        <ele>1337</ele>
        <time>2019-10-17T07:10:51.000Z</time>
      </trkpt>
      <trkpt lat="45.65043" lon="6.20853">
        <ele>1336</ele>
        <time>2019-10-17T07:10:56.781Z</time>
      </trkpt>
      <trkpt lat="45.65047" lon="6.20847">
        <ele>1337</ele>
        <time>2019-10-17T07:11:04.000Z</time>
      </trkpt>
      <trkpt lat="45.65055" lon="6.20843">
        <ele>1338</ele>
        <time>2019-10-17T07:11:11.000Z</time>
      </trkpt>
      <trkpt lat="45.6506" lon="6.2084">
        <ele>1338</ele>
        <time>2019-10-17T07:11:16.557Z</time>
      </trkpt>
      <trkpt lat="45.65067" lon="6.20836">
        <ele>1340</ele>
        <time>2019-10-17T07:11:23.593Z</time>
      </trkpt>
      <trkpt lat="45.65071" lon="6.2083">
        <ele>1340</ele>
        <time>2019-10-17T07:11:32.000Z</time>
      </trkpt>
      <trkpt lat="45.65075" lon="6.20824">
        <ele>1340</ele>
        <time>2019-10-17T07:11:37.999Z</time>
      </trkpt>
      <trkpt lat="45.65079" lon="6.20818">
        <ele>1341</ele>
        <time>2019-10-17T07:11:45.000Z</time>
      </trkpt>
      <trkpt lat="45.65084" lon="6.20813">
        <ele>1341</ele>
        <time>2019-10-17T07:11:50.523Z</time>
      </trkpt>
      <trkpt lat="45.65088" lon="6.20803">
        <ele>1343</ele>
        <time>2019-10-17T07:11:58.000Z</time>
      </trkpt>
      <trkpt lat="45.6509" lon="6.20793">
        <ele>1345</ele>
        <time>2019-10-17T07:12:05.000Z</time>
      </trkpt>
      <trkpt lat="45.65094" lon="6.20784">
        <ele>1347</ele>
        <time>2019-10-17T07:12:10.911Z</time>
      </trkpt>
      <trkpt lat="45.65098" lon="6.20773">
        <ele>1350</ele>
        <time>2019-10-17T07:12:17.896Z</time>
      </trkpt>
      <trkpt lat="45.651" lon="6.20762">
        <ele>1351</ele>
        <time>2019-10-17T07:12:26.000Z</time>
      </trkpt>
      <trkpt lat="45.65097" lon="6.20753">
        <ele>1351</ele>
        <time>2019-10-17T07:12:31.197Z</time>
      </trkpt>
      <trkpt lat="45.65095" lon="6.20743">
        <ele>1352</ele>
        <time>2019-10-17T07:12:38.757Z</time>
      </trkpt>
      <trkpt lat="45.65093" lon="6.20731">
        <ele>1354</ele>
        <time>2019-10-17T07:12:43.000Z</time>
      </trkpt>
      <trkpt lat="45.6509" lon="6.20726">
        <ele>1353</ele>
        <time>2019-10-17T07:12:46.000Z</time>
      </trkpt>
      <trkpt lat="45.65085" lon="6.20718">
        <ele>1355</ele>
        <time>2019-10-17T07:12:51.775Z</time>
      </trkpt>
      <trkpt lat="45.65083" lon="6.2071">
        <ele>1356</ele>
        <time>2019-10-17T07:12:59.000Z</time>
      </trkpt>
      <trkpt lat="45.65084" lon="6.20702">
        <ele>1360</ele>
        <time>2019-10-17T07:13:06.000Z</time>
      </trkpt>
      <trkpt lat="45.65084" lon="6.20694">
        <ele>1363</ele>
        <time>2019-10-17T07:13:37.000Z</time>
      </trkpt>
      <trkpt lat="45.65083" lon="6.20685">
        <ele>1364</ele>
        <time>2019-10-17T07:13:43.060Z</time>
      </trkpt>
      <trkpt lat="45.65077" lon="6.2068">
        <ele>1365</ele>
        <time>2019-10-17T07:13:49.603Z</time>
      </trkpt>
      <trkpt lat="45.65075" lon="6.20671">
        <ele>1366</ele>
        <time>2019-10-17T07:13:57.000Z</time>
      </trkpt>
      <trkpt lat="45.65073" lon="6.2066">
        <ele>1368</ele>
        <time>2019-10-17T07:14:02.848Z</time>
      </trkpt>
      <trkpt lat="45.65072" lon="6.2065">
        <ele>1369</ele>
        <time>2019-10-17T07:14:11.000Z</time>
      </trkpt>
      <trkpt lat="45.6507" lon="6.20643">
        <ele>1369</ele>
        <time>2019-10-17T07:14:16.759Z</time>
      </trkpt>
      <trkpt lat="45.65071" lon="6.20636">
        <ele>1371</ele>
        <time>2019-10-17T07:14:20.697Z</time>
      </trkpt>
      <trkpt lat="45.65072" lon="6.20627">
        <ele>1371</ele>
        <time>2019-10-17T07:14:28.000Z</time>
      </trkpt>
      <trkpt lat="45.65071" lon="6.20614">
        <ele>1372</ele>
        <time>2019-10-17T07:14:33.427Z</time>
      </trkpt>
      <trkpt lat="45.65068" lon="6.20609">
        <ele>1373</ele>
        <time>2019-10-17T07:14:36.550Z</time>
      </trkpt>
      <trkpt lat="45.65065" lon="6.20604">
        <ele>1373</ele>
        <time>2019-10-17T07:14:41.000Z</time>
      </trkpt>
      <trkpt lat="45.65062" lon="6.20598">
        <ele>1373</ele>
        <time>2019-10-17T07:14:43.679Z</time>
      </trkpt>
      <trkpt lat="45.65059" lon="6.2059">
        <ele>1374</ele>
        <time>2019-10-17T07:14:49.815Z</time>
      </trkpt>
      <trkpt lat="45.65062" lon="6.20582">
        <ele>1376</ele>
        <time>2019-10-17T07:14:58.000Z</time>
      </trkpt>
      <trkpt lat="45.65058" lon="6.20572">
        <ele>1376</ele>
        <time>2019-10-17T07:15:01.000Z</time>
      </trkpt>
      <trkpt lat="45.65058" lon="6.20562">
        <ele>1376</ele>
        <time>2019-10-17T07:15:08.000Z</time>
      </trkpt>
      <trkpt lat="45.65054" lon="6.20557">
        <ele>1376</ele>
        <time>2019-10-17T07:15:33.000Z</time>
      </trkpt>
      <trkpt lat="45.65052" lon="6.20546">
        <ele>1377</ele>
        <time>2019-10-17T07:16:49.000Z</time>
      </trkpt>
      <trkpt lat="45.65054" lon="6.2054">
        <ele>1378</ele>
        <time>2019-10-17T07:17:00.000Z</time>
      </trkpt>
      <trkpt lat="45.65059" lon="6.20533">
        <ele>1378</ele>
        <time>2019-10-17T07:17:08.000Z</time>
      </trkpt>
      <trkpt lat="45.65065" lon="6.2053">
        <ele>1381</ele>
        <time>2019-10-17T07:17:16.494Z</time>
      </trkpt>
      <trkpt lat="45.65071" lon="6.20533">
        <ele>1382</ele>
        <time>2019-10-17T07:17:21.000Z</time>
      </trkpt>
      <trkpt lat="45.65079" lon="6.20534">
        <ele>1383</ele>
        <time>2019-10-17T07:17:28.000Z</time>
      </trkpt>
      <trkpt lat="45.65085" lon="6.20533">
        <ele>1383</ele>
        <time>2019-10-17T07:17:33.376Z</time>
      </trkpt>
      <trkpt lat="45.65093" lon="6.20534">
        <ele>1383</ele>
        <time>2019-10-17T07:17:39.617Z</time>
      </trkpt>
      <trkpt lat="45.65098" lon="6.20536">
        <ele>1383</ele>
        <time>2019-10-17T07:17:45.902Z</time>
      </trkpt>
      <trkpt lat="45.65104" lon="6.2054">
        <ele>1384</ele>
        <time>2019-10-17T07:17:52.126Z</time>
      </trkpt>
      <trkpt lat="45.65111" lon="6.20539">
        <ele>1388</ele>
        <time>2019-10-17T07:18:03.000Z</time>
      </trkpt>
      <trkpt lat="45.6512" lon="6.2054">
        <ele>1390</ele>
        <time>2019-10-17T07:18:10.000Z</time>
      </trkpt>
      <trkpt lat="45.65127" lon="6.20545">
        <ele>1390</ele>
        <time>2019-10-17T07:18:12.541Z</time>
      </trkpt>
      <trkpt lat="45.65131" lon="6.20549">
        <ele>1390</ele>
        <time>2019-10-17T07:18:15.803Z</time>
      </trkpt>
      <trkpt lat="45.65135" lon="6.20553">
        <ele>1392</ele>
        <time>2019-10-17T07:18:19.685Z</time>
      </trkpt>
      <trkpt lat="45.65142" lon="6.20557">
        <ele>1395</ele>
        <time>2019-10-17T07:18:26.761Z</time>
      </trkpt>
      <trkpt lat="45.65148" lon="6.20561">
        <ele>1395</ele>
        <time>2019-10-17T07:18:33.683Z</time>
      </trkpt>
      <trkpt lat="45.65158" lon="6.20558">
        <ele>1396</ele>
        <time>2019-10-17T07:18:36.883Z</time>
      </trkpt>
      <trkpt lat="45.65163" lon="6.20559">
        <ele>1397</ele>
        <time>2019-10-17T07:18:40.224Z</time>
      </trkpt>
      <trkpt lat="45.65168" lon="6.20561">
        <ele>1396</ele>
        <time>2019-10-17T07:18:43.941Z</time>
      </trkpt>
      <trkpt lat="45.65172" lon="6.20566">
        <ele>1396</ele>
        <time>2019-10-17T07:18:48.000Z</time>
      </trkpt>
      <trkpt lat="45.65176" lon="6.2057">
        <ele>1397</ele>
        <time>2019-10-17T07:20:54.335Z</time>
      </trkpt>
      <trkpt lat="45.65181" lon="6.20575">
        <ele>1399</ele>
        <time>2019-10-17T07:21:04.580Z</time>
      </trkpt>
      <trkpt lat="45.65187" lon="6.20582">
        <ele>1401</ele>
        <time>2019-10-17T07:21:11.880Z</time>
      </trkpt>
      <trkpt lat="45.65192" lon="6.2059">
        <ele>1403</ele>
        <time>2019-10-17T07:21:20.000Z</time>
      </trkpt>
      <trkpt lat="45.65195" lon="6.20597">
        <ele>1403</ele>
        <time>2019-10-17T07:21:27.000Z</time>
      </trkpt>
      <trkpt lat="45.652" lon="6.20605">
        <ele>1404</ele>
        <time>2019-10-17T07:21:33.496Z</time>
      </trkpt>
      <trkpt lat="45.65207" lon="6.20614">
        <ele>1405</ele>
        <time>2019-10-17T07:21:40.717Z</time>
      </trkpt>
      <trkpt lat="45.65212" lon="6.20617">
        <ele>1405</ele>
        <time>2019-10-17T07:21:43.886Z</time>
      </trkpt>
      <trkpt lat="45.65217" lon="6.2062">
        <ele>1405</ele>
        <time>2019-10-17T07:21:48.000Z</time>
      </trkpt>
      <trkpt lat="45.65224" lon="6.20622">
        <ele>1407</ele>
        <time>2019-10-17T07:21:54.000Z</time>
      </trkpt>
      <trkpt lat="45.6523" lon="6.2063">
        <ele>1410</ele>
        <time>2019-10-17T07:22:01.000Z</time>
      </trkpt>
      <trkpt lat="45.65233" lon="6.20636">
        <ele>1411</ele>
        <time>2019-10-17T07:22:05.000Z</time>
      </trkpt>
      <trkpt lat="45.6524" lon="6.20643">
        <ele>1411</ele>
        <time>2019-10-17T07:22:10.522Z</time>
      </trkpt>
      <trkpt lat="45.65246" lon="6.20648">
        <ele>1411</ele>
        <time>2019-10-17T07:22:14.003Z</time>
      </trkpt>
      <trkpt lat="45.65251" lon="6.20653">
        <ele>1412</ele>
        <time>2019-10-17T07:22:18.000Z</time>
      </trkpt>
      <trkpt lat="45.65257" lon="6.20659">
        <ele>1413</ele>
        <time>2019-10-17T07:22:24.122Z</time>
      </trkpt>
      <trkpt lat="45.65264" lon="6.20663">
        <ele>1414</ele>
        <time>2019-10-17T07:22:30.739Z</time>
      </trkpt>
      <trkpt lat="45.6527" lon="6.20666">
        <ele>1415</ele>
        <time>2019-10-17T07:22:38.000Z</time>
      </trkpt>
      <trkpt lat="45.65277" lon="6.20664">
        <ele>1416</ele>
        <time>2019-10-17T07:22:45.000Z</time>
      </trkpt>
      <trkpt lat="45.6528" lon="6.20654">
        <ele>1418</ele>
        <time>2019-10-17T07:22:51.013Z</time>
      </trkpt>
      <trkpt lat="45.6528" lon="6.20645">
        <ele>1418</ele>
        <time>2019-10-17T07:22:58.000Z</time>
      </trkpt>
      <trkpt lat="45.65279" lon="6.20638">
        <ele>1421</ele>
        <time>2019-10-17T07:23:03.661Z</time>
      </trkpt>
      <trkpt lat="45.65277" lon="6.2063">
        <ele>1424</ele>
        <time>2019-10-17T07:23:13.652Z</time>
      </trkpt>
      <trkpt lat="45.65277" lon="6.2062">
        <ele>1426</ele>
        <time>2019-10-17T07:23:21.000Z</time>
      </trkpt>
      <trkpt lat="45.65275" lon="6.20614">
        <ele>1426</ele>
        <time>2019-10-17T07:23:24.000Z</time>
      </trkpt>
      <trkpt lat="45.65273" lon="6.20607">
        <ele>1426</ele>
        <time>2019-10-17T07:23:27.000Z</time>
      </trkpt>
      <trkpt lat="45.6527" lon="6.20599">
        <ele>1427</ele>
        <time>2019-10-17T07:23:31.000Z</time>
      </trkpt>
      <trkpt lat="45.65264" lon="6.20592">
        <ele>1428</ele>
        <time>2019-10-17T07:23:33.600Z</time>
      </trkpt>
      <trkpt lat="45.65259" lon="6.20589">
        <ele>1428</ele>
        <time>2019-10-17T07:23:37.077Z</time>
      </trkpt>
      <trkpt lat="45.65254" lon="6.20586">
        <ele>1428</ele>
        <time>2019-10-17T07:23:40.680Z</time>
      </trkpt>
      <trkpt lat="45.65249" lon="6.20579">
        <ele>1428</ele>
        <time>2019-10-17T07:23:48.000Z</time>
      </trkpt>
      <trkpt lat="45.65253" lon="6.20567">
        <ele>1427</ele>
        <time>2019-10-17T07:23:55.000Z</time>
      </trkpt>
      <trkpt lat="45.6526" lon="6.20562">
        <ele>1430</ele>
        <time>2019-10-17T07:24:03.871Z</time>
      </trkpt>
      <trkpt lat="45.65268" lon="6.20568">
        <ele>1432</ele>
        <time>2019-10-17T07:24:10.356Z</time>
      </trkpt>
      <trkpt lat="45.65271" lon="6.20573">
        <ele>1433</ele>
        <time>2019-10-17T07:24:13.760Z</time>
      </trkpt>
      <trkpt lat="45.65275" lon="6.20579">
        <ele>1434</ele>
        <time>2019-10-17T07:24:18.000Z</time>
      </trkpt>
      <trkpt lat="45.65278" lon="6.20584">
        <ele>1435</ele>
        <time>2019-10-17T07:24:21.000Z</time>
      </trkpt>
      <trkpt lat="45.65286" lon="6.20589">
        <ele>1435</ele>
        <time>2019-10-17T07:24:26.631Z</time>
      </trkpt>
      <trkpt lat="45.65291" lon="6.20586">
        <ele>1436</ele>
        <time>2019-10-17T07:24:34.000Z</time>
      </trkpt>
      <trkpt lat="45.65296" lon="6.20586">
        <ele>1437</ele>
        <time>2019-10-17T07:24:36.454Z</time>
      </trkpt>
      <trkpt lat="45.65301" lon="6.2059">
        <ele>1437</ele>
        <time>2019-10-17T07:24:39.506Z</time>
      </trkpt>
      <trkpt lat="45.65305" lon="6.20594">
        <ele>1438</ele>
        <time>2019-10-17T07:24:42.530Z</time>
      </trkpt>
      <trkpt lat="45.65309" lon="6.20599">
        <ele>1437</ele>
        <time>2019-10-17T07:24:45.672Z</time>
      </trkpt>
      <trkpt lat="45.65312" lon="6.20604">
        <ele>1437</ele>
        <time>2019-10-17T07:24:50.000Z</time>
      </trkpt>
      <trkpt lat="45.6532" lon="6.2061">
        <ele>1439</ele>
        <time>2019-10-17T07:24:55.339Z</time>
      </trkpt>
      <trkpt lat="45.65327" lon="6.20613">
        <ele>1441</ele>
        <time>2019-10-17T07:25:03.000Z</time>
      </trkpt>
      <trkpt lat="45.65334" lon="6.20615">
        <ele>1441</ele>
        <time>2019-10-17T07:25:08.721Z</time>
      </trkpt>
      <trkpt lat="45.65342" lon="6.20618">
        <ele>1441</ele>
        <time>2019-10-17T07:25:16.000Z</time>
      </trkpt>
      <trkpt lat="45.65347" lon="6.20619">
        <ele>1442</ele>
        <time>2019-10-17T07:25:20.000Z</time>
      </trkpt>
      <trkpt lat="45.65354" lon="6.20624">
        <ele>1444</ele>
        <time>2019-10-17T07:25:25.758Z</time>
      </trkpt>
      <trkpt lat="45.65364" lon="6.20627">
        <ele>1445</ele>
        <time>2019-10-17T07:25:34.000Z</time>
      </trkpt>
      <trkpt lat="45.65372" lon="6.20627">
        <ele>1447</ele>
        <time>2019-10-17T07:25:39.741Z</time>
      </trkpt>
      <trkpt lat="45.65377" lon="6.2063">
        <ele>1449</ele>
        <time>2019-10-17T07:25:45.908Z</time>
      </trkpt>
      <trkpt lat="45.65384" lon="6.20631">
        <ele>1447</ele>
        <time>2019-10-17T07:26:06.000Z</time>
      </trkpt>
      <trkpt lat="45.65391" lon="6.20626">
        <ele>1448</ele>
        <time>2019-10-17T07:26:13.000Z</time>
      </trkpt>
      <trkpt lat="45.65397" lon="6.20621">
        <ele>1449</ele>
        <time>2019-10-17T07:26:18.798Z</time>
      </trkpt>
      <trkpt lat="45.65403" lon="6.20616">
        <ele>1450</ele>
        <time>2019-10-17T07:26:25.081Z</time>
      </trkpt>
      <trkpt lat="45.6541" lon="6.20618">
        <ele>1450</ele>
        <time>2019-10-17T07:26:31.577Z</time>
      </trkpt>
      <trkpt lat="45.65414" lon="6.20622">
        <ele>1451</ele>
        <time>2019-10-17T07:26:36.000Z</time>
      </trkpt>
      <trkpt lat="45.65419" lon="6.2063">
        <ele>1451</ele>
        <time>2019-10-17T07:26:54.000Z</time>
      </trkpt>
      <trkpt lat="45.65423" lon="6.20636">
        <ele>1454</ele>
        <time>2019-10-17T07:27:03.000Z</time>
      </trkpt>
      <trkpt lat="45.65427" lon="6.2063">
        <ele>1454</ele>
        <time>2019-10-17T07:27:08.926Z</time>
      </trkpt>
      <trkpt lat="45.65427" lon="6.20623">
        <ele>1455</ele>
        <time>2019-10-17T07:27:17.000Z</time>
      </trkpt>
      <trkpt lat="45.65424" lon="6.20616">
        <ele>1457</ele>
        <time>2019-10-17T07:27:23.000Z</time>
      </trkpt>
      <trkpt lat="45.65416" lon="6.20609">
        <ele>1458</ele>
        <time>2019-10-17T07:27:30.000Z</time>
      </trkpt>
      <trkpt lat="45.65409" lon="6.20606">
        <ele>1459</ele>
        <time>2019-10-17T07:27:35.487Z</time>
      </trkpt>
      <trkpt lat="45.65405" lon="6.20601">
        <ele>1460</ele>
        <time>2019-10-17T07:27:43.000Z</time>
      </trkpt>
      <trkpt lat="45.654" lon="6.20593">
        <ele>1462</ele>
        <time>2019-10-17T07:27:49.144Z</time>
      </trkpt>
      <trkpt lat="45.65394" lon="6.20589">
        <ele>1463</ele>
        <time>2019-10-17T07:27:57.000Z</time>
      </trkpt>
      <trkpt lat="45.65389" lon="6.20585">
        <ele>1464</ele>
        <time>2019-10-17T07:28:04.000Z</time>
      </trkpt>
      <trkpt lat="45.65386" lon="6.2058">
        <ele>1463</ele>
        <time>2019-10-17T07:28:06.734Z</time>
      </trkpt>
      <trkpt lat="45.65382" lon="6.20575">
        <ele>1464</ele>
        <time>2019-10-17T07:28:09.777Z</time>
      </trkpt>
      <trkpt lat="45.65378" lon="6.20568">
        <ele>1466</ele>
        <time>2019-10-17T07:28:14.000Z</time>
      </trkpt>
      <trkpt lat="45.65371" lon="6.20559">
        <ele>1466</ele>
        <time>2019-10-17T07:28:19.793Z</time>
      </trkpt>
      <trkpt lat="45.65368" lon="6.20554">
        <ele>1466</ele>
        <time>2019-10-17T07:28:24.000Z</time>
      </trkpt>
      <trkpt lat="45.65364" lon="6.20549">
        <ele>1466</ele>
        <time>2019-10-17T07:28:28.000Z</time>
      </trkpt>
      <trkpt lat="45.65354" lon="6.20534">
        <ele>1468</ele>
        <time>2019-10-17T07:28:38.000Z</time>
      </trkpt>
      <trkpt lat="45.65348" lon="6.20527">
        <ele>1470</ele>
        <time>2019-10-17T07:28:44.000Z</time>
      </trkpt>
      <trkpt lat="45.65345" lon="6.20516">
        <ele>1471</ele>
        <time>2019-10-17T07:28:50.055Z</time>
      </trkpt>
      <trkpt lat="45.65348" lon="6.20503">
        <ele>1473</ele>
        <time>2019-10-17T07:28:56.738Z</time>
      </trkpt>
      <trkpt lat="45.65356" lon="6.20492">
        <ele>1473</ele>
        <time>2019-10-17T07:29:04.000Z</time>
      </trkpt>
      <trkpt lat="45.65359" lon="6.20488">
        <ele>1474</ele>
        <time>2019-10-17T07:29:06.858Z</time>
      </trkpt>
      <trkpt lat="45.65366" lon="6.20484">
        <ele>1474</ele>
        <time>2019-10-17T07:29:14.000Z</time>
      </trkpt>
      <trkpt lat="45.65371" lon="6.20483">
        <ele>1473</ele>
        <time>2019-10-17T07:29:17.000Z</time>
      </trkpt>
      <trkpt lat="45.65377" lon="6.20482">
        <ele>1475</ele>
        <time>2019-10-17T07:29:24.000Z</time>
      </trkpt>
      <trkpt lat="45.65382" lon="6.20484">
        <ele>1476</ele>
        <time>2019-10-17T07:29:30.121Z</time>
      </trkpt>
      <trkpt lat="45.65387" lon="6.20487">
        <ele>1477</ele>
        <time>2019-10-17T07:29:36.733Z</time>
      </trkpt>
      <trkpt lat="45.65392" lon="6.20488">
        <ele>1477</ele>
        <time>2019-10-17T07:29:40.076Z</time>
      </trkpt>
      <trkpt lat="45.65399" lon="6.20488">
        <ele>1478</ele>
        <time>2019-10-17T07:29:47.000Z</time>
      </trkpt>
      <trkpt lat="45.65407" lon="6.20487">
        <ele>1480</ele>
        <time>2019-10-17T07:29:54.000Z</time>
      </trkpt>
      <trkpt lat="45.65414" lon="6.20488">
        <ele>1482</ele>
        <time>2019-10-17T07:30:01.000Z</time>
      </trkpt>
      <trkpt lat="45.6542" lon="6.20489">
        <ele>1484</ele>
        <time>2019-10-17T07:30:06.591Z</time>
      </trkpt>
      <trkpt lat="45.65427" lon="6.20491">
        <ele>1486</ele>
        <time>2019-10-17T07:30:14.000Z</time>
      </trkpt>
      <trkpt lat="45.65434" lon="6.20493">
        <ele>1488</ele>
        <time>2019-10-17T07:30:19.219Z</time>
      </trkpt>
      <trkpt lat="45.65441" lon="6.20496">
        <ele>1489</ele>
        <time>2019-10-17T07:30:27.000Z</time>
      </trkpt>
      <trkpt lat="45.65445" lon="6.20499">
        <ele>1490</ele>
        <time>2019-10-17T07:30:32.746Z</time>
      </trkpt>
      <trkpt lat="45.65453" lon="6.20502">
        <ele>1490</ele>
        <time>2019-10-17T07:30:39.915Z</time>
      </trkpt>
      <trkpt lat="45.65459" lon="6.20506">
        <ele>1491</ele>
        <time>2019-10-17T07:30:46.226Z</time>
      </trkpt>
      <trkpt lat="45.65467" lon="6.20516">
        <ele>1492</ele>
        <time>2019-10-17T07:30:52.461Z</time>
      </trkpt>
      <trkpt lat="45.65472" lon="6.20523">
        <ele>1493</ele>
        <time>2019-10-17T07:31:00.340Z</time>
      </trkpt>
      <trkpt lat="45.65478" lon="6.20528">
        <ele>1495</ele>
        <time>2019-10-17T07:31:07.015Z</time>
      </trkpt>
      <trkpt lat="45.65483" lon="6.20535">
        <ele>1498</ele>
        <time>2019-10-17T07:31:13.802Z</time>
      </trkpt>
      <trkpt lat="45.65488" lon="6.20543">
        <ele>1502</ele>
        <time>2019-10-17T07:31:21.000Z</time>
      </trkpt>
      <trkpt lat="45.65493" lon="6.20551">
        <ele>1501</ele>
        <time>2019-10-17T07:31:28.000Z</time>
      </trkpt>
      <trkpt lat="45.65497" lon="6.20559">
        <ele>1502</ele>
        <time>2019-10-17T07:31:35.000Z</time>
      </trkpt>
      <trkpt lat="45.65498" lon="6.20566">
        <ele>1500</ele>
        <time>2019-10-17T07:31:49.000Z</time>
      </trkpt>
      <trkpt lat="45.65503" lon="6.20563">
        <ele>1498</ele>
        <time>2019-10-17T07:32:08.000Z</time>
      </trkpt>
      <trkpt lat="45.65504" lon="6.20554">
        <ele>1499</ele>
        <time>2019-10-17T07:34:15.000Z</time>
      </trkpt>
      <trkpt lat="45.65502" lon="6.20542">
        <ele>1500</ele>
        <time>2019-10-17T07:34:22.000Z</time>
      </trkpt>
      <trkpt lat="45.655" lon="6.20534">
        <ele>1501</ele>
        <time>2019-10-17T07:34:27.755Z</time>
      </trkpt>
      <trkpt lat="45.65497" lon="6.20528">
        <ele>1503</ele>
        <time>2019-10-17T07:34:34.058Z</time>
      </trkpt>
      <trkpt lat="45.65497" lon="6.20521">
        <ele>1504</ele>
        <time>2019-10-17T07:34:38.000Z</time>
      </trkpt>
      <trkpt lat="45.65496" lon="6.20513">
        <ele>1505</ele>
        <time>2019-10-17T07:34:40.732Z</time>
      </trkpt>
      <trkpt lat="45.65497" lon="6.20505">
        <ele>1507</ele>
        <time>2019-10-17T07:34:45.000Z</time>
      </trkpt>
      <trkpt lat="45.65496" lon="6.20495">
        <ele>1509</ele>
        <time>2019-10-17T07:34:52.000Z</time>
      </trkpt>
      <trkpt lat="45.65493" lon="6.20487">
        <ele>1509</ele>
        <time>2019-10-17T07:34:57.802Z</time>
      </trkpt>
      <trkpt lat="45.65492" lon="6.20479">
        <ele>1511</ele>
        <time>2019-10-17T07:35:01.640Z</time>
      </trkpt>
      <trkpt lat="45.65489" lon="6.20467">
        <ele>1513</ele>
        <time>2019-10-17T07:35:08.120Z</time>
      </trkpt>
      <trkpt lat="45.65488" lon="6.20455">
        <ele>1512</ele>
        <time>2019-10-17T07:35:14.308Z</time>
      </trkpt>
      <trkpt lat="45.65485" lon="6.20447">
        <ele>1513</ele>
        <time>2019-10-17T07:35:22.000Z</time>
      </trkpt>
      <trkpt lat="45.65486" lon="6.20439">
        <ele>1515</ele>
        <time>2019-10-17T07:35:30.160Z</time>
      </trkpt>
      <trkpt lat="45.65482" lon="6.20428">
        <ele>1519</ele>
        <time>2019-10-17T07:35:38.000Z</time>
      </trkpt>
      <trkpt lat="45.65471" lon="6.20413">
        <ele>1520</ele>
        <time>2019-10-17T07:35:44.000Z</time>
      </trkpt>
      <trkpt lat="45.65469" lon="6.20406">
        <ele>1522</ele>
        <time>2019-10-17T07:35:50.075Z</time>
      </trkpt>
      <trkpt lat="45.65487" lon="6.20418">
        <ele>1521</ele>
        <time>2019-10-17T07:35:59.496Z</time>
      </trkpt>
      <trkpt lat="45.65492" lon="6.20418">
        <ele>1521</ele>
        <time>2019-10-17T07:36:08.000Z</time>
      </trkpt>
      <trkpt lat="45.65499" lon="6.20421">
        <ele>1521</ele>
        <time>2019-10-17T07:36:14.053Z</time>
      </trkpt>
      <trkpt lat="45.65504" lon="6.20425">
        <ele>1523</ele>
        <time>2019-10-17T07:36:20.538Z</time>
      </trkpt>
      <trkpt lat="45.65513" lon="6.20428">
        <ele>1523</ele>
        <time>2019-10-17T07:36:27.074Z</time>
      </trkpt>
      <trkpt lat="45.65519" lon="6.20434">
        <ele>1525</ele>
        <time>2019-10-17T07:36:34.000Z</time>
      </trkpt>
      <trkpt lat="45.65529" lon="6.20442">
        <ele>1526</ele>
        <time>2019-10-17T07:36:41.000Z</time>
      </trkpt>
      <trkpt lat="45.65535" lon="6.20446">
        <ele>1527</ele>
        <time>2019-10-17T07:36:43.778Z</time>
      </trkpt>
      <trkpt lat="45.65542" lon="6.20449">
        <ele>1527</ele>
        <time>2019-10-17T07:36:50.754Z</time>
      </trkpt>
      <trkpt lat="45.65547" lon="6.20459">
        <ele>1530</ele>
        <time>2019-10-17T07:36:59.000Z</time>
      </trkpt>
      <trkpt lat="45.6555" lon="6.20469">
        <ele>1530</ele>
        <time>2019-10-17T07:37:06.000Z</time>
      </trkpt>
      <trkpt lat="45.65552" lon="6.20477">
        <ele>1531</ele>
        <time>2019-10-17T07:37:08.629Z</time>
      </trkpt>
      <trkpt lat="45.65555" lon="6.20485">
        <ele>1531</ele>
        <time>2019-10-17T07:37:11.703Z</time>
      </trkpt>
      <trkpt lat="45.65559" lon="6.20494">
        <ele>1532</ele>
        <time>2019-10-17T07:37:18.289Z</time>
      </trkpt>
      <trkpt lat="45.65565" lon="6.205">
        <ele>1534</ele>
        <time>2019-10-17T07:37:25.174Z</time>
      </trkpt>
      <trkpt lat="45.65571" lon="6.20509">
        <ele>1535</ele>
        <time>2019-10-17T07:37:33.000Z</time>
      </trkpt>
      <trkpt lat="45.65576" lon="6.20516">
        <ele>1537</ele>
        <time>2019-10-17T07:37:40.000Z</time>
      </trkpt>
      <trkpt lat="45.65581" lon="6.20524">
        <ele>1536</ele>
        <time>2019-10-17T07:37:47.000Z</time>
      </trkpt>
      <trkpt lat="45.65584" lon="6.20531">
        <ele>1537</ele>
        <time>2019-10-17T07:37:53.000Z</time>
      </trkpt>
      <trkpt lat="45.65587" lon="6.20538">
        <ele>1539</ele>
        <time>2019-10-17T07:38:00.000Z</time>
      </trkpt>
      <trkpt lat="45.6559" lon="6.20544">
        <ele>1539</ele>
        <time>2019-10-17T07:38:03.301Z</time>
      </trkpt>
      <trkpt lat="45.65596" lon="6.20547">
        <ele>1539</ele>
        <time>2019-10-17T07:38:07.000Z</time>
      </trkpt>
      <trkpt lat="45.65602" lon="6.2055">
        <ele>1541</ele>
        <time>2019-10-17T07:38:09.594Z</time>
      </trkpt>
      <trkpt lat="45.65608" lon="6.20551">
        <ele>1541</ele>
        <time>2019-10-17T07:38:12.834Z</time>
      </trkpt>
      <trkpt lat="45.65616" lon="6.20552">
        <ele>1540</ele>
        <time>2019-10-17T07:38:20.000Z</time>
      </trkpt>
      <trkpt lat="45.65622" lon="6.20551">
        <ele>1541</ele>
        <time>2019-10-17T07:38:27.000Z</time>
      </trkpt>
      <trkpt lat="45.65628" lon="6.20553">
        <ele>1541</ele>
        <time>2019-10-17T07:38:32.644Z</time>
      </trkpt>
      <trkpt lat="45.65632" lon="6.20557">
        <ele>1541</ele>
        <time>2019-10-17T07:38:36.145Z</time>
      </trkpt>
      <trkpt lat="45.65636" lon="6.20564">
        <ele>1542</ele>
        <time>2019-10-17T07:38:39.595Z</time>
      </trkpt>
      <trkpt lat="45.65638" lon="6.2057">
        <ele>1543</ele>
        <time>2019-10-17T07:38:42.880Z</time>
      </trkpt>
      <trkpt lat="45.65642" lon="6.20582">
        <ele>1544</ele>
        <time>2019-10-17T07:38:49.482Z</time>
      </trkpt>
      <trkpt lat="45.65645" lon="6.20587">
        <ele>1544</ele>
        <time>2019-10-17T07:38:52.743Z</time>
      </trkpt>
      <trkpt lat="45.65651" lon="6.2059">
        <ele>1544</ele>
        <time>2019-10-17T07:39:00.000Z</time>
      </trkpt>
      <trkpt lat="45.65655" lon="6.20586">
        <ele>1545</ele>
        <time>2019-10-17T07:39:20.000Z</time>
      </trkpt>
      <trkpt lat="45.6566" lon="6.20589">
        <ele>1546</ele>
        <time>2019-10-17T07:39:48.000Z</time>
      </trkpt>
      <trkpt lat="45.65657" lon="6.20577">
        <ele>1551</ele>
        <time>2019-10-17T07:42:01.000Z</time>
      </trkpt>
      <trkpt lat="45.65657" lon="6.2057">
        <ele>1554</ele>
        <time>2019-10-17T07:42:11.137Z</time>
      </trkpt>
      <trkpt lat="45.65651" lon="6.2056">
        <ele>1553</ele>
        <time>2019-10-17T07:42:19.000Z</time>
      </trkpt>
      <trkpt lat="45.65644" lon="6.20552">
        <ele>1553</ele>
        <time>2019-10-17T07:42:24.730Z</time>
      </trkpt>
      <trkpt lat="45.65641" lon="6.20542">
        <ele>1553</ele>
        <time>2019-10-17T07:42:32.000Z</time>
      </trkpt>
      <trkpt lat="45.65641" lon="6.20531">
        <ele>1554</ele>
        <time>2019-10-17T07:42:39.000Z</time>
      </trkpt>
      <trkpt lat="45.65638" lon="6.20522">
        <ele>1555</ele>
        <time>2019-10-17T07:42:45.000Z</time>
      </trkpt>
      <trkpt lat="45.65637" lon="6.20504">
        <ele>1556</ele>
        <time>2019-10-17T07:42:52.000Z</time>
      </trkpt>
      <trkpt lat="45.65639" lon="6.20494">
        <ele>1557</ele>
        <time>2019-10-17T07:42:58.716Z</time>
      </trkpt>
      <trkpt lat="45.65642" lon="6.20485">
        <ele>1555</ele>
        <time>2019-10-17T07:43:06.000Z</time>
      </trkpt>
      <trkpt lat="45.65642" lon="6.20474">
        <ele>1557</ele>
        <time>2019-10-17T07:43:13.000Z</time>
      </trkpt>
      <trkpt lat="45.65638" lon="6.20466">
        <ele>1560</ele>
        <time>2019-10-17T07:43:20.000Z</time>
      </trkpt>
      <trkpt lat="45.65636" lon="6.20456">
        <ele>1560</ele>
        <time>2019-10-17T07:43:27.000Z</time>
      </trkpt>
      <trkpt lat="45.65635" lon="6.20445">
        <ele>1562</ele>
        <time>2019-10-17T07:43:34.000Z</time>
      </trkpt>
      <trkpt lat="45.65635" lon="6.20434">
        <ele>1563</ele>
        <time>2019-10-17T07:43:39.724Z</time>
      </trkpt>
      <trkpt lat="45.65633" lon="6.20428">
        <ele>1563</ele>
        <time>2019-10-17T07:43:43.696Z</time>
      </trkpt>
      <trkpt lat="45.65631" lon="6.20419">
        <ele>1566</ele>
        <time>2019-10-17T07:43:51.000Z</time>
      </trkpt>
      <trkpt lat="45.65629" lon="6.20407">
        <ele>1569</ele>
        <time>2019-10-17T07:43:56.344Z</time>
      </trkpt>
      <trkpt lat="45.65627" lon="6.20399">
        <ele>1570</ele>
        <time>2019-10-17T07:44:02.980Z</time>
      </trkpt>
      <trkpt lat="45.65625" lon="6.2039">
        <ele>1572</ele>
        <time>2019-10-17T07:44:09.793Z</time>
      </trkpt>
      <trkpt lat="45.65623" lon="6.2038">
        <ele>1573</ele>
        <time>2019-10-17T07:44:16.551Z</time>
      </trkpt>
      <trkpt lat="45.65622" lon="6.20369">
        <ele>1575</ele>
        <time>2019-10-17T07:44:24.000Z</time>
      </trkpt>
      <trkpt lat="45.65622" lon="6.20359">
        <ele>1575</ele>
        <time>2019-10-17T07:44:29.697Z</time>
      </trkpt>
      <trkpt lat="45.65618" lon="6.20347">
        <ele>1577</ele>
        <time>2019-10-17T07:44:36.062Z</time>
      </trkpt>
      <trkpt lat="45.65613" lon="6.20339">
        <ele>1578</ele>
        <time>2019-10-17T07:44:43.000Z</time>
      </trkpt>
      <trkpt lat="45.65607" lon="6.20333">
        <ele>1579</ele>
        <time>2019-10-17T07:44:49.074Z</time>
      </trkpt>
      <trkpt lat="45.65604" lon="6.20329">
        <ele>1580</ele>
        <time>2019-10-17T07:44:53.074Z</time>
      </trkpt>
      <trkpt lat="45.65599" lon="6.20322">
        <ele>1582</ele>
        <time>2019-10-17T07:45:01.000Z</time>
      </trkpt>
      <trkpt lat="45.65593" lon="6.20313">
        <ele>1583</ele>
        <time>2019-10-17T07:45:08.000Z</time>
      </trkpt>
      <trkpt lat="45.6559" lon="6.20307">
        <ele>1583</ele>
        <time>2019-10-17T07:45:11.117Z</time>
      </trkpt>
      <trkpt lat="45.65586" lon="6.20301">
        <ele>1584</ele>
        <time>2019-10-17T07:45:14.886Z</time>
      </trkpt>
      <trkpt lat="45.65581" lon="6.20293">
        <ele>1584</ele>
        <time>2019-10-17T07:45:21.417Z</time>
      </trkpt>
      <trkpt lat="45.65576" lon="6.20285">
        <ele>1584</ele>
        <time>2019-10-17T07:45:24.743Z</time>
      </trkpt>
      <trkpt lat="45.65572" lon="6.2028">
        <ele>1585</ele>
        <time>2019-10-17T07:45:29.000Z</time>
      </trkpt>
      <trkpt lat="45.65568" lon="6.20269">
        <ele>1586</ele>
        <time>2019-10-17T07:45:34.755Z</time>
      </trkpt>
      <trkpt lat="45.65564" lon="6.2026">
        <ele>1588</ele>
        <time>2019-10-17T07:45:42.000Z</time>
      </trkpt>
      <trkpt lat="45.65561" lon="6.20252">
        <ele>1589</ele>
        <time>2019-10-17T07:45:48.000Z</time>
      </trkpt>
      <trkpt lat="45.65557" lon="6.20243">
        <ele>1588</ele>
        <time>2019-10-17T07:45:55.115Z</time>
      </trkpt>
      <trkpt lat="45.65556" lon="6.20235">
        <ele>1589</ele>
        <time>2019-10-17T07:46:10.000Z</time>
      </trkpt>
      <trkpt lat="45.65557" lon="6.20228">
        <ele>1589</ele>
        <time>2019-10-17T07:46:20.000Z</time>
      </trkpt>
      <trkpt lat="45.65562" lon="6.20225">
        <ele>1589</ele>
        <time>2019-10-17T07:46:39.000Z</time>
      </trkpt>
      <trkpt lat="45.65567" lon="6.20222">
        <ele>1589</ele>
        <time>2019-10-17T07:47:03.748Z</time>
      </trkpt>
      <trkpt lat="45.65574" lon="6.20221">
        <ele>1588</ele>
        <time>2019-10-17T07:47:08.000Z</time>
      </trkpt>
      <trkpt lat="45.65582" lon="6.20221">
        <ele>1589</ele>
        <time>2019-10-17T07:47:15.000Z</time>
      </trkpt>
      <trkpt lat="45.65587" lon="6.20221">
        <ele>1589</ele>
        <time>2019-10-17T07:47:22.000Z</time>
      </trkpt>
      <trkpt lat="45.65595" lon="6.20225">
        <ele>1590</ele>
        <time>2019-10-17T07:47:28.000Z</time>
      </trkpt>
      <trkpt lat="45.65599" lon="6.20231">
        <ele>1590</ele>
        <time>2019-10-17T07:47:31.100Z</time>
      </trkpt>
      <trkpt lat="45.65603" lon="6.20236">
        <ele>1591</ele>
        <time>2019-10-17T07:47:35.000Z</time>
      </trkpt>
      <trkpt lat="45.65607" lon="6.20242">
        <ele>1591</ele>
        <time>2019-10-17T07:47:37.185Z</time>
      </trkpt>
      <trkpt lat="45.65614" lon="6.20246">
        <ele>1593</ele>
        <time>2019-10-17T07:47:45.000Z</time>
      </trkpt>
      <trkpt lat="45.6562" lon="6.20247">
        <ele>1594</ele>
        <time>2019-10-17T07:47:52.000Z</time>
      </trkpt>
      <trkpt lat="45.65625" lon="6.20244">
        <ele>1593</ele>
        <time>2019-10-17T07:47:55.000Z</time>
      </trkpt>
      <trkpt lat="45.65632" lon="6.20244">
        <ele>1594</ele>
        <time>2019-10-17T07:48:00.608Z</time>
      </trkpt>
      <trkpt lat="45.65639" lon="6.20247">
        <ele>1595</ele>
        <time>2019-10-17T07:48:08.000Z</time>
      </trkpt>
      <trkpt lat="45.65645" lon="6.20253">
        <ele>1596</ele>
        <time>2019-10-17T07:48:15.000Z</time>
      </trkpt>
      <trkpt lat="45.6565" lon="6.2026">
        <ele>1598</ele>
        <time>2019-10-17T07:48:22.000Z</time>
      </trkpt>
      <trkpt lat="45.65656" lon="6.20268">
        <ele>1597</ele>
        <time>2019-10-17T07:48:27.501Z</time>
      </trkpt>
      <trkpt lat="45.6566" lon="6.20273">
        <ele>1598</ele>
        <time>2019-10-17T07:48:31.043Z</time>
      </trkpt>
      <trkpt lat="45.65663" lon="6.20278">
        <ele>1598</ele>
        <time>2019-10-17T07:48:35.000Z</time>
      </trkpt>
      <trkpt lat="45.65667" lon="6.20283">
        <ele>1600</ele>
        <time>2019-10-17T07:48:38.251Z</time>
      </trkpt>
      <trkpt lat="45.6567" lon="6.20289">
        <ele>1600</ele>
        <time>2019-10-17T07:48:43.000Z</time>
      </trkpt>
      <trkpt lat="45.65677" lon="6.20293">
        <ele>1601</ele>
        <time>2019-10-17T07:48:48.534Z</time>
      </trkpt>
      <trkpt lat="45.65682" lon="6.20296">
        <ele>1602</ele>
        <time>2019-10-17T07:48:56.000Z</time>
      </trkpt>
      <trkpt lat="45.65685" lon="6.20304">
        <ele>1602</ele>
        <time>2019-10-17T07:48:58.556Z</time>
      </trkpt>
      <trkpt lat="45.65687" lon="6.20312">
        <ele>1604</ele>
        <time>2019-10-17T07:49:01.880Z</time>
      </trkpt>
      <trkpt lat="45.65691" lon="6.20322">
        <ele>1606</ele>
        <time>2019-10-17T07:49:08.496Z</time>
      </trkpt>
      <trkpt lat="45.65695" lon="6.2033">
        <ele>1607</ele>
        <time>2019-10-17T07:49:15.021Z</time>
      </trkpt>
      <trkpt lat="45.65701" lon="6.20338">
        <ele>1608</ele>
        <time>2019-10-17T07:49:22.284Z</time>
      </trkpt>
      <trkpt lat="45.65707" lon="6.20343">
        <ele>1610</ele>
        <time>2019-10-17T07:49:28.676Z</time>
      </trkpt>
      <trkpt lat="45.65712" lon="6.20346">
        <ele>1611</ele>
        <time>2019-10-17T07:49:31.741Z</time>
      </trkpt>
      <trkpt lat="45.65718" lon="6.20351">
        <ele>1611</ele>
        <time>2019-10-17T07:49:39.000Z</time>
      </trkpt>
      <trkpt lat="45.65724" lon="6.20353">
        <ele>1611</ele>
        <time>2019-10-17T07:49:43.000Z</time>
      </trkpt>
      <trkpt lat="45.65726" lon="6.20361">
        <ele>1613</ele>
        <time>2019-10-17T07:49:45.369Z</time>
      </trkpt>
      <trkpt lat="45.65729" lon="6.20369">
        <ele>1614</ele>
        <time>2019-10-17T07:49:52.337Z</time>
      </trkpt>
      <trkpt lat="45.65736" lon="6.20373">
        <ele>1615</ele>
        <time>2019-10-17T07:49:59.425Z</time>
      </trkpt>
      <trkpt lat="45.65743" lon="6.20376">
        <ele>1617</ele>
        <time>2019-10-17T07:50:06.077Z</time>
      </trkpt>
      <trkpt lat="45.65748" lon="6.20382">
        <ele>1618</ele>
        <time>2019-10-17T07:50:13.000Z</time>
      </trkpt>
      <trkpt lat="45.65756" lon="6.20386">
        <ele>1618</ele>
        <time>2019-10-17T07:50:20.000Z</time>
      </trkpt>
      <trkpt lat="45.65762" lon="6.20385">
        <ele>1618</ele>
        <time>2019-10-17T07:50:26.090Z</time>
      </trkpt>
      <trkpt lat="45.65769" lon="6.20378">
        <ele>1621</ele>
        <time>2019-10-17T07:50:34.000Z</time>
      </trkpt>
      <trkpt lat="45.65776" lon="6.20374">
        <ele>1622</ele>
        <time>2019-10-17T07:50:40.067Z</time>
      </trkpt>
      <trkpt lat="45.65786" lon="6.2037">
        <ele>1622</ele>
        <time>2019-10-17T07:50:46.823Z</time>
      </trkpt>
      <trkpt lat="45.65793" lon="6.20367">
        <ele>1622</ele>
        <time>2019-10-17T07:50:55.000Z</time>
      </trkpt>
      <trkpt lat="45.65799" lon="6.20362">
        <ele>1621</ele>
        <time>2019-10-17T07:50:58.000Z</time>
      </trkpt>
      <trkpt lat="45.65805" lon="6.20359">
        <ele>1622</ele>
        <time>2019-10-17T07:51:02.000Z</time>
      </trkpt>
      <trkpt lat="45.65812" lon="6.20355">
        <ele>1623</ele>
        <time>2019-10-17T07:51:09.000Z</time>
      </trkpt>
      <trkpt lat="45.65817" lon="6.20349">
        <ele>1625</ele>
        <time>2019-10-17T07:51:32.205Z</time>
      </trkpt>
      <trkpt lat="45.65821" lon="6.20345">
        <ele>1627</ele>
        <time>2019-10-17T07:51:43.000Z</time>
      </trkpt>
      <trkpt lat="45.65827" lon="6.20341">
        <ele>1627</ele>
        <time>2019-10-17T07:51:45.602Z</time>
      </trkpt>
      <trkpt lat="45.65831" lon="6.20337">
        <ele>1626</ele>
        <time>2019-10-17T07:51:50.000Z</time>
      </trkpt>
      <trkpt lat="45.6584" lon="6.20335">
        <ele>1627</ele>
        <time>2019-10-17T07:51:55.918Z</time>
      </trkpt>
      <trkpt lat="45.65844" lon="6.20331">
        <ele>1627</ele>
        <time>2019-10-17T07:51:59.684Z</time>
      </trkpt>
      <trkpt lat="45.65848" lon="6.20326">
        <ele>1627</ele>
        <time>2019-10-17T07:52:02.749Z</time>
      </trkpt>
      <trkpt lat="45.65854" lon="6.20321">
        <ele>1628</ele>
        <time>2019-10-17T07:52:11.000Z</time>
      </trkpt>
      <trkpt lat="45.65853" lon="6.20328">
        <ele>1630</ele>
        <time>2019-10-17T07:57:24.000Z</time>
      </trkpt>
      <trkpt lat="45.65854" lon="6.20339">
        <ele>1629</ele>
        <time>2019-10-17T08:13:00.903Z</time>
      </trkpt>
      <trkpt lat="45.65853" lon="6.20351">
        <ele>1629</ele>
        <time>2019-10-17T08:13:07.261Z</time>
      </trkpt>
      <trkpt lat="45.65855" lon="6.20364">
        <ele>1629</ele>
        <time>2019-10-17T08:13:13.972Z</time>
      </trkpt>
      <trkpt lat="45.65855" lon="6.20374">
        <ele>1628</ele>
        <time>2019-10-17T08:13:20.179Z</time>
      </trkpt>
      <trkpt lat="45.65858" lon="6.20385">
        <ele>1630</ele>
        <time>2019-10-17T08:13:28.000Z</time>
      </trkpt>
      <trkpt lat="45.6586" lon="6.20392">
        <ele>1630</ele>
        <time>2019-10-17T08:13:32.000Z</time>
      </trkpt>
      <trkpt lat="45.65863" lon="6.20405">
        <ele>1632</ele>
        <time>2019-10-17T08:13:39.000Z</time>
      </trkpt>
      <trkpt lat="45.65865" lon="6.20419">
        <ele>1631</ele>
        <time>2019-10-17T08:13:44.201Z</time>
      </trkpt>
      <trkpt lat="45.65866" lon="6.20425">
        <ele>1631</ele>
        <time>2019-10-17T08:13:47.282Z</time>
      </trkpt>
      <trkpt lat="45.65867" lon="6.20432">
        <ele>1630</ele>
        <time>2019-10-17T08:13:50.767Z</time>
      </trkpt>
      <trkpt lat="45.6587" lon="6.2044">
        <ele>1630</ele>
        <time>2019-10-17T08:13:56.000Z</time>
      </trkpt>
      <trkpt lat="45.65874" lon="6.20449">
        <ele>1629</ele>
        <time>2019-10-17T08:14:00.000Z</time>
      </trkpt>
      <trkpt lat="45.65871" lon="6.20455">
        <ele>1629</ele>
        <time>2019-10-17T08:14:05.229Z</time>
      </trkpt>
      <trkpt lat="45.65871" lon="6.20465">
        <ele>1630</ele>
        <time>2019-10-17T08:14:12.217Z</time>
      </trkpt>
      <trkpt lat="45.65875" lon="6.20474">
        <ele>1630</ele>
        <time>2019-10-17T08:14:15.399Z</time>
      </trkpt>
      <trkpt lat="45.65881" lon="6.20482">
        <ele>1630</ele>
        <time>2019-10-17T08:14:18.637Z</time>
      </trkpt>
      <trkpt lat="45.65886" lon="6.20489">
        <ele>1630</ele>
        <time>2019-10-17T08:14:22.324Z</time>
      </trkpt>
      <trkpt lat="45.65888" lon="6.20496">
        <ele>1630</ele>
        <time>2019-10-17T08:14:26.448Z</time>
      </trkpt>
      <trkpt lat="45.65889" lon="6.20503">
        <ele>1632</ele>
        <time>2019-10-17T08:14:33.478Z</time>
      </trkpt>
      <trkpt lat="45.65893" lon="6.20518">
        <ele>1633</ele>
        <time>2019-10-17T08:14:40.179Z</time>
      </trkpt>
      <trkpt lat="45.65895" lon="6.20528">
        <ele>1634</ele>
        <time>2019-10-17T08:14:46.457Z</time>
      </trkpt>
      <trkpt lat="45.659" lon="6.20536">
        <ele>1636</ele>
        <time>2019-10-17T08:14:53.139Z</time>
      </trkpt>
      <trkpt lat="45.65904" lon="6.20544">
        <ele>1639</ele>
        <time>2019-10-17T08:15:01.000Z</time>
      </trkpt>
      <trkpt lat="45.65908" lon="6.20552">
        <ele>1641</ele>
        <time>2019-10-17T08:15:08.000Z</time>
      </trkpt>
      <trkpt lat="45.65912" lon="6.2056">
        <ele>1641</ele>
        <time>2019-10-17T08:15:10.260Z</time>
      </trkpt>
      <trkpt lat="45.65919" lon="6.20567">
        <ele>1642</ele>
        <time>2019-10-17T08:15:17.084Z</time>
      </trkpt>
      <trkpt lat="45.65924" lon="6.20572">
        <ele>1643</ele>
        <time>2019-10-17T08:15:25.000Z</time>
      </trkpt>
      <trkpt lat="45.6593" lon="6.20573">
        <ele>1644</ele>
        <time>2019-10-17T08:15:32.000Z</time>
      </trkpt>
      <trkpt lat="45.65944" lon="6.20588">
        <ele>1645</ele>
        <time>2019-10-17T08:15:49.000Z</time>
      </trkpt>
      <trkpt lat="45.6596" lon="6.20602">
        <ele>1647</ele>
        <time>2019-10-17T08:15:54.943Z</time>
      </trkpt>
      <trkpt lat="45.65965" lon="6.20604">
        <ele>1647</ele>
        <time>2019-10-17T08:15:58.443Z</time>
      </trkpt>
      <trkpt lat="45.65969" lon="6.20607">
        <ele>1646</ele>
        <time>2019-10-17T08:16:01.875Z</time>
      </trkpt>
      <trkpt lat="45.65977" lon="6.20616">
        <ele>1647</ele>
        <time>2019-10-17T08:16:08.462Z</time>
      </trkpt>
      <trkpt lat="45.65981" lon="6.20618">
        <ele>1647</ele>
        <time>2019-10-17T08:16:11.560Z</time>
      </trkpt>
      <trkpt lat="45.65987" lon="6.20623">
        <ele>1647</ele>
        <time>2019-10-17T08:16:17.976Z</time>
      </trkpt>
      <trkpt lat="45.65993" lon="6.20625">
        <ele>1647</ele>
        <time>2019-10-17T08:16:26.000Z</time>
      </trkpt>
      <trkpt lat="45.66" lon="6.2063">
        <ele>1649</ele>
        <time>2019-10-17T08:16:30.756Z</time>
      </trkpt>
      <trkpt lat="45.66006" lon="6.20635">
        <ele>1649</ele>
        <time>2019-10-17T08:16:33.879Z</time>
      </trkpt>
      <trkpt lat="45.6601" lon="6.20638">
        <ele>1649</ele>
        <time>2019-10-17T08:16:36.924Z</time>
      </trkpt>
      <trkpt lat="45.6602" lon="6.20645">
        <ele>1649</ele>
        <time>2019-10-17T08:16:46.954Z</time>
      </trkpt>
      <trkpt lat="45.66025" lon="6.20646">
        <ele>1647</ele>
        <time>2019-10-17T08:16:52.000Z</time>
      </trkpt>
      <trkpt lat="45.66038" lon="6.20653">
        <ele>1648</ele>
        <time>2019-10-17T08:17:02.000Z</time>
      </trkpt>
      <trkpt lat="45.66044" lon="6.20654">
        <ele>1647</ele>
        <time>2019-10-17T08:17:08.000Z</time>
      </trkpt>
      <trkpt lat="45.66048" lon="6.2066">
        <ele>1647</ele>
        <time>2019-10-17T08:17:14.000Z</time>
      </trkpt>
      <trkpt lat="45.66051" lon="6.20665">
        <ele>1647</ele>
        <time>2019-10-17T08:17:16.329Z</time>
      </trkpt>
      <trkpt lat="45.66055" lon="6.20671">
        <ele>1649</ele>
        <time>2019-10-17T08:17:24.000Z</time>
      </trkpt>
      <trkpt lat="45.66057" lon="6.2068">
        <ele>1649</ele>
        <time>2019-10-17T08:17:46.000Z</time>
      </trkpt>
      <trkpt lat="45.66063" lon="6.20687">
        <ele>1650</ele>
        <time>2019-10-17T08:17:51.510Z</time>
      </trkpt>
      <trkpt lat="45.66067" lon="6.20689">
        <ele>1649</ele>
        <time>2019-10-17T08:17:57.000Z</time>
      </trkpt>
      <trkpt lat="45.66071" lon="6.20694">
        <ele>1650</ele>
        <time>2019-10-17T08:18:02.075Z</time>
      </trkpt>
      <trkpt lat="45.66074" lon="6.20701">
        <ele>1651</ele>
        <time>2019-10-17T08:18:10.000Z</time>
      </trkpt>
      <trkpt lat="45.66081" lon="6.20706">
        <ele>1652</ele>
        <time>2019-10-17T08:18:14.999Z</time>
      </trkpt>
      <trkpt lat="45.66086" lon="6.20709">
        <ele>1653</ele>
        <time>2019-10-17T08:18:18.498Z</time>
      </trkpt>
      <trkpt lat="45.66093" lon="6.20712">
        <ele>1655</ele>
        <time>2019-10-17T08:18:25.161Z</time>
      </trkpt>
      <trkpt lat="45.661" lon="6.20716">
        <ele>1655</ele>
        <time>2019-10-17T08:18:34.000Z</time>
      </trkpt>
      <trkpt lat="45.66105" lon="6.20724">
        <ele>1655</ele>
        <time>2019-10-17T08:18:38.533Z</time>
      </trkpt>
      <trkpt lat="45.66109" lon="6.20726">
        <ele>1656</ele>
        <time>2019-10-17T08:18:41.762Z</time>
      </trkpt>
      <trkpt lat="45.66113" lon="6.20733">
        <ele>1656</ele>
        <time>2019-10-17T08:18:44.825Z</time>
      </trkpt>
      <trkpt lat="45.66117" lon="6.20741">
        <ele>1656</ele>
        <time>2019-10-17T08:18:51.434Z</time>
      </trkpt>
      <trkpt lat="45.66123" lon="6.20747">
        <ele>1658</ele>
        <time>2019-10-17T08:19:00.000Z</time>
      </trkpt>
      <trkpt lat="45.66129" lon="6.2075">
        <ele>1658</ele>
        <time>2019-10-17T08:19:06.000Z</time>
      </trkpt>
      <trkpt lat="45.66135" lon="6.20754">
        <ele>1659</ele>
        <time>2019-10-17T08:19:10.778Z</time>
      </trkpt>
      <trkpt lat="45.66139" lon="6.20758">
        <ele>1659</ele>
        <time>2019-10-17T08:19:13.958Z</time>
      </trkpt>
      <trkpt lat="45.66144" lon="6.20766">
        <ele>1661</ele>
        <time>2019-10-17T08:19:19.000Z</time>
      </trkpt>
      <trkpt lat="45.66149" lon="6.20771">
        <ele>1661</ele>
        <time>2019-10-17T08:19:23.757Z</time>
      </trkpt>
      <trkpt lat="45.66153" lon="6.20777">
        <ele>1660</ele>
        <time>2019-10-17T08:19:30.286Z</time>
      </trkpt>
      <trkpt lat="45.66157" lon="6.20787">
        <ele>1661</ele>
        <time>2019-10-17T08:19:37.219Z</time>
      </trkpt>
      <trkpt lat="45.66161" lon="6.20795">
        <ele>1662</ele>
        <time>2019-10-17T08:19:46.000Z</time>
      </trkpt>
      <trkpt lat="45.66162" lon="6.20803">
        <ele>1664</ele>
        <time>2019-10-17T08:19:53.000Z</time>
      </trkpt>
      <trkpt lat="45.66168" lon="6.20811">
        <ele>1666</ele>
        <time>2019-10-17T08:19:58.190Z</time>
      </trkpt>
      <trkpt lat="45.66172" lon="6.20816">
        <ele>1666</ele>
        <time>2019-10-17T08:20:01.273Z</time>
      </trkpt>
      <trkpt lat="45.66178" lon="6.20822">
        <ele>1666</ele>
        <time>2019-10-17T08:20:07.967Z</time>
      </trkpt>
      <trkpt lat="45.66184" lon="6.2083">
        <ele>1668</ele>
        <time>2019-10-17T08:20:16.000Z</time>
      </trkpt>
      <trkpt lat="45.66189" lon="6.20835">
        <ele>1670</ele>
        <time>2019-10-17T08:20:21.289Z</time>
      </trkpt>
      <trkpt lat="45.66198" lon="6.20839">
        <ele>1672</ele>
        <time>2019-10-17T08:20:27.986Z</time>
      </trkpt>
      <trkpt lat="45.66206" lon="6.20842">
        <ele>1674</ele>
        <time>2019-10-17T08:20:34.158Z</time>
      </trkpt>
      <trkpt lat="45.66214" lon="6.20846">
        <ele>1675</ele>
        <time>2019-10-17T08:20:41.253Z</time>
      </trkpt>
      <trkpt lat="45.66219" lon="6.20848">
        <ele>1676</ele>
        <time>2019-10-17T08:20:49.000Z</time>
      </trkpt>
      <trkpt lat="45.66225" lon="6.20856">
        <ele>1676</ele>
        <time>2019-10-17T08:20:54.285Z</time>
      </trkpt>
      <trkpt lat="45.6623" lon="6.20859">
        <ele>1677</ele>
        <time>2019-10-17T08:21:00.598Z</time>
      </trkpt>
      <trkpt lat="45.66236" lon="6.20861">
        <ele>1677</ele>
        <time>2019-10-17T08:21:05.000Z</time>
      </trkpt>
      <trkpt lat="45.66243" lon="6.2086">
        <ele>1678</ele>
        <time>2019-10-17T08:21:10.503Z</time>
      </trkpt>
      <trkpt lat="45.66249" lon="6.20861">
        <ele>1679</ele>
        <time>2019-10-17T08:21:18.000Z</time>
      </trkpt>
      <trkpt lat="45.66256" lon="6.20867">
        <ele>1680</ele>
        <time>2019-10-17T08:21:23.146Z</time>
      </trkpt>
      <trkpt lat="45.66261" lon="6.20869">
        <ele>1682</ele>
        <time>2019-10-17T08:21:31.000Z</time>
      </trkpt>
      <trkpt lat="45.66267" lon="6.20872">
        <ele>1682</ele>
        <time>2019-10-17T08:21:36.377Z</time>
      </trkpt>
      <trkpt lat="45.66274" lon="6.20875">
        <ele>1684</ele>
        <time>2019-10-17T08:21:45.000Z</time>
      </trkpt>
      <trkpt lat="45.66283" lon="6.20875">
        <ele>1685</ele>
        <time>2019-10-17T08:21:50.186Z</time>
      </trkpt>
      <trkpt lat="45.6629" lon="6.20872">
        <ele>1686</ele>
        <time>2019-10-17T08:21:56.355Z</time>
      </trkpt>
      <trkpt lat="45.66297" lon="6.2087">
        <ele>1686</ele>
        <time>2019-10-17T08:22:01.000Z</time>
      </trkpt>
      <trkpt lat="45.66305" lon="6.20872">
        <ele>1687</ele>
        <time>2019-10-17T08:22:06.452Z</time>
      </trkpt>
      <trkpt lat="45.66313" lon="6.20877">
        <ele>1689</ele>
        <time>2019-10-17T08:22:15.000Z</time>
      </trkpt>
      <trkpt lat="45.66317" lon="6.20879">
        <ele>1692</ele>
        <time>2019-10-17T08:22:22.000Z</time>
      </trkpt>
      <trkpt lat="45.66317" lon="6.20889">
        <ele>1695</ele>
        <time>2019-10-17T08:22:34.709Z</time>
      </trkpt>
      <trkpt lat="45.66316" lon="6.20898">
        <ele>1696</ele>
        <time>2019-10-17T08:22:41.403Z</time>
      </trkpt>
      <trkpt lat="45.66316" lon="6.20906">
        <ele>1698</ele>
        <time>2019-10-17T08:22:47.703Z</time>
      </trkpt>
      <trkpt lat="45.66318" lon="6.20914">
        <ele>1700</ele>
        <time>2019-10-17T08:22:53.811Z</time>
      </trkpt>
      <trkpt lat="45.66324" lon="6.20922">
        <ele>1701</ele>
        <time>2019-10-17T08:23:02.000Z</time>
      </trkpt>
      <trkpt lat="45.66331" lon="6.20926">
        <ele>1702</ele>
        <time>2019-10-17T08:23:07.191Z</time>
      </trkpt>
      <trkpt lat="45.66336" lon="6.2093">
        <ele>1703</ele>
        <time>2019-10-17T08:23:15.000Z</time>
      </trkpt>
      <trkpt lat="45.66335" lon="6.20936">
        <ele>1707</ele>
        <time>2019-10-17T08:45:15.000Z</time>
      </trkpt>
      <trkpt lat="45.66338" lon="6.20941">
        <ele>1710</ele>
        <time>2019-10-17T08:48:54.790Z</time>
      </trkpt>
      <trkpt lat="45.66341" lon="6.20946">
        <ele>1712</ele>
        <time>2019-10-17T08:49:04.457Z</time>
      </trkpt>
      <trkpt lat="45.66349" lon="6.20951">
        <ele>1713</ele>
        <time>2019-10-17T08:49:11.226Z</time>
      </trkpt>
      <trkpt lat="45.66354" lon="6.20952">
        <ele>1714</ele>
        <time>2019-10-17T08:49:17.774Z</time>
      </trkpt>
      <trkpt lat="45.66358" lon="6.20957">
        <ele>1717</ele>
        <time>2019-10-17T08:49:29.000Z</time>
      </trkpt>
      <trkpt lat="45.66359" lon="6.20966">
        <ele>1721</ele>
        <time>2019-10-17T08:49:36.000Z</time>
      </trkpt>
      <trkpt lat="45.66358" lon="6.20979">
        <ele>1723</ele>
        <time>2019-10-17T08:49:42.000Z</time>
      </trkpt>
      <trkpt lat="45.66357" lon="6.20987">
        <ele>1723</ele>
        <time>2019-10-17T08:49:47.075Z</time>
      </trkpt>
      <trkpt lat="45.66358" lon="6.20995">
        <ele>1726</ele>
        <time>2019-10-17T08:49:56.864Z</time>
      </trkpt>
      <trkpt lat="45.66359" lon="6.21004">
        <ele>1727</ele>
        <time>2019-10-17T08:50:03.619Z</time>
      </trkpt>
      <trkpt lat="45.66359" lon="6.21012">
        <ele>1729</ele>
        <time>2019-10-17T08:50:13.703Z</time>
      </trkpt>
      <trkpt lat="45.66365" lon="6.21019">
        <ele>1729</ele>
        <time>2019-10-17T08:50:20.884Z</time>
      </trkpt>
      <trkpt lat="45.66372" lon="6.21021">
        <ele>1731</ele>
        <time>2019-10-17T08:50:29.000Z</time>
      </trkpt>
      <trkpt lat="45.66378" lon="6.21023">
        <ele>1732</ele>
        <time>2019-10-17T08:50:36.000Z</time>
      </trkpt>
      <trkpt lat="45.66382" lon="6.21028">
        <ele>1734</ele>
        <time>2019-10-17T08:50:43.000Z</time>
      </trkpt>
      <trkpt lat="45.66386" lon="6.21034">
        <ele>1736</ele>
        <time>2019-10-17T08:50:49.000Z</time>
      </trkpt>
      <trkpt lat="45.66389" lon="6.2104">
        <ele>1736</ele>
        <time>2019-10-17T08:50:51.447Z</time>
      </trkpt>
      <trkpt lat="45.66394" lon="6.21048">
        <ele>1736</ele>
        <time>2019-10-17T08:51:00.000Z</time>
      </trkpt>
      <trkpt lat="45.66397" lon="6.21056">
        <ele>1738</ele>
        <time>2019-10-17T08:51:07.000Z</time>
      </trkpt>
      <trkpt lat="45.66402" lon="6.21063">
        <ele>1740</ele>
        <time>2019-10-17T08:51:12.338Z</time>
      </trkpt>
      <trkpt lat="45.66405" lon="6.2107">
        <ele>1741</ele>
        <time>2019-10-17T08:51:19.141Z</time>
      </trkpt>
      <trkpt lat="45.66411" lon="6.21074">
        <ele>1743</ele>
        <time>2019-10-17T08:51:25.883Z</time>
      </trkpt>
      <trkpt lat="45.66416" lon="6.21081">
        <ele>1744</ele>
        <time>2019-10-17T08:51:34.000Z</time>
      </trkpt>
      <trkpt lat="45.66422" lon="6.21089">
        <ele>1745</ele>
        <time>2019-10-17T08:51:40.000Z</time>
      </trkpt>
      <trkpt lat="45.66429" lon="6.21094">
        <ele>1745</ele>
        <time>2019-10-17T08:51:46.013Z</time>
      </trkpt>
      <trkpt lat="45.66433" lon="6.21098">
        <ele>1747</ele>
        <time>2019-10-17T08:51:54.000Z</time>
      </trkpt>
      <trkpt lat="45.66436" lon="6.21105">
        <ele>1748</ele>
        <time>2019-10-17T08:51:56.038Z</time>
      </trkpt>
      <trkpt lat="45.66441" lon="6.21109">
        <ele>1748</ele>
        <time>2019-10-17T08:52:04.000Z</time>
      </trkpt>
      <trkpt lat="45.66446" lon="6.21113">
        <ele>1750</ele>
        <time>2019-10-17T08:52:08.754Z</time>
      </trkpt>
      <trkpt lat="45.66454" lon="6.21115">
        <ele>1752</ele>
        <time>2019-10-17T08:52:16.261Z</time>
      </trkpt>
      <trkpt lat="45.66461" lon="6.21117">
        <ele>1752</ele>
        <time>2019-10-17T08:52:22.689Z</time>
      </trkpt>
      <trkpt lat="45.66468" lon="6.21121">
        <ele>1753</ele>
        <time>2019-10-17T08:52:29.142Z</time>
      </trkpt>
      <trkpt lat="45.66472" lon="6.21126">
        <ele>1754</ele>
        <time>2019-10-17T08:52:37.000Z</time>
      </trkpt>
      <trkpt lat="45.6648" lon="6.21124">
        <ele>1755</ele>
        <time>2019-10-17T08:52:40.000Z</time>
      </trkpt>
      <trkpt lat="45.66487" lon="6.21125">
        <ele>1755</ele>
        <time>2019-10-17T08:52:47.000Z</time>
      </trkpt>
      <trkpt lat="45.66492" lon="6.21125">
        <ele>1756</ele>
        <time>2019-10-17T08:52:52.112Z</time>
      </trkpt>
      <trkpt lat="45.66498" lon="6.21134">
        <ele>1757</ele>
        <time>2019-10-17T08:53:00.000Z</time>
      </trkpt>
      <trkpt lat="45.66502" lon="6.21144">
        <ele>1757</ele>
        <time>2019-10-17T08:53:07.000Z</time>
      </trkpt>
      <trkpt lat="45.66505" lon="6.2115">
        <ele>1757</ele>
        <time>2019-10-17T08:53:10.000Z</time>
      </trkpt>
      <trkpt lat="45.66511" lon="6.21167">
        <ele>1757</ele>
        <time>2019-10-17T08:53:18.218Z</time>
      </trkpt>
      <trkpt lat="45.66515" lon="6.21173">
        <ele>1758</ele>
        <time>2019-10-17T08:53:24.635Z</time>
      </trkpt>
      <trkpt lat="45.66523" lon="6.21179">
        <ele>1758</ele>
        <time>2019-10-17T08:53:31.233Z</time>
      </trkpt>
      <trkpt lat="45.66531" lon="6.21178">
        <ele>1758</ele>
        <time>2019-10-17T08:53:34.309Z</time>
      </trkpt>
      <trkpt lat="45.66536" lon="6.2118">
        <ele>1758</ele>
        <time>2019-10-17T08:53:38.290Z</time>
      </trkpt>
      <trkpt lat="45.66542" lon="6.21184">
        <ele>1759</ele>
        <time>2019-10-17T08:53:44.408Z</time>
      </trkpt>
      <trkpt lat="45.66547" lon="6.21187">
        <ele>1760</ele>
        <time>2019-10-17T08:53:52.000Z</time>
      </trkpt>
      <trkpt lat="45.66552" lon="6.21193">
        <ele>1762</ele>
        <time>2019-10-17T08:53:57.350Z</time>
      </trkpt>
      <trkpt lat="45.66558" lon="6.21201">
        <ele>1762</ele>
        <time>2019-10-17T08:54:04.135Z</time>
      </trkpt>
      <trkpt lat="45.66562" lon="6.21208">
        <ele>1764</ele>
        <time>2019-10-17T08:54:10.878Z</time>
      </trkpt>
      <trkpt lat="45.66568" lon="6.21213">
        <ele>1766</ele>
        <time>2019-10-17T08:54:17.722Z</time>
      </trkpt>
      <trkpt lat="45.66574" lon="6.21214">
        <ele>1764</ele>
        <time>2019-10-17T08:54:21.505Z</time>
      </trkpt>
      <trkpt lat="45.66581" lon="6.21216">
        <ele>1764</ele>
        <time>2019-10-17T08:54:30.000Z</time>
      </trkpt>
      <trkpt lat="45.66585" lon="6.2122">
        <ele>1766</ele>
        <time>2019-10-17T08:54:38.359Z</time>
      </trkpt>
      <trkpt lat="45.6659" lon="6.21224">
        <ele>1765</ele>
        <time>2019-10-17T08:54:44.607Z</time>
      </trkpt>
      <trkpt lat="45.66594" lon="6.21232">
        <ele>1764</ele>
        <time>2019-10-17T08:54:51.577Z</time>
      </trkpt>
      <trkpt lat="45.66597" lon="6.2124">
        <ele>1764</ele>
        <time>2019-10-17T08:54:58.159Z</time>
      </trkpt>
      <trkpt lat="45.66601" lon="6.21245">
        <ele>1764</ele>
        <time>2019-10-17T08:55:06.000Z</time>
      </trkpt>
      <trkpt lat="45.66609" lon="6.21247">
        <ele>1762</ele>
        <time>2019-10-17T08:55:11.516Z</time>
      </trkpt>
      <trkpt lat="45.66614" lon="6.21247">
        <ele>1762</ele>
        <time>2019-10-17T08:55:16.000Z</time>
      </trkpt>
      <trkpt lat="45.66621" lon="6.21246">
        <ele>1761</ele>
        <time>2019-10-17T08:55:18.488Z</time>
      </trkpt>
      <trkpt lat="45.66626" lon="6.2125">
        <ele>1763</ele>
        <time>2019-10-17T08:55:26.000Z</time>
      </trkpt>
      <trkpt lat="45.66632" lon="6.21251">
        <ele>1763</ele>
        <time>2019-10-17T08:55:33.000Z</time>
      </trkpt>
      <trkpt lat="45.66638" lon="6.21247">
        <ele>1763</ele>
        <time>2019-10-17T08:55:40.000Z</time>
      </trkpt>
      <trkpt lat="45.66644" lon="6.21248">
        <ele>1761</ele>
        <time>2019-10-17T08:56:01.000Z</time>
      </trkpt>
      <trkpt lat="45.66653" lon="6.21246">
        <ele>1761</ele>
        <time>2019-10-17T08:56:11.000Z</time>
      </trkpt>
      <trkpt lat="45.66657" lon="6.21246">
        <ele>1761</ele>
        <time>2019-10-17T08:56:13.614Z</time>
      </trkpt>
      <trkpt lat="45.66667" lon="6.21249">
        <ele>1763</ele>
        <time>2019-10-17T08:56:27.086Z</time>
      </trkpt>
      <trkpt lat="45.66674" lon="6.2125">
        <ele>1762</ele>
        <time>2019-10-17T08:56:35.000Z</time>
      </trkpt>
      <trkpt lat="45.66679" lon="6.21255">
        <ele>1760</ele>
        <time>2019-10-17T08:56:42.000Z</time>
      </trkpt>
      <trkpt lat="45.66683" lon="6.21261">
        <ele>1760</ele>
        <time>2019-10-17T08:56:49.000Z</time>
      </trkpt>
      <trkpt lat="45.66689" lon="6.21261">
        <ele>1759</ele>
        <time>2019-10-17T08:56:59.000Z</time>
      </trkpt>
      <trkpt lat="45.66688" lon="6.21255">
        <ele>1759</ele>
        <time>2019-10-17T08:57:17.000Z</time>
      </trkpt>
      <trkpt lat="45.66681" lon="6.21254">
        <ele>1759</ele>
        <time>2019-10-17T08:57:25.426Z</time>
      </trkpt>
      <trkpt lat="45.66673" lon="6.21252">
        <ele>1761</ele>
        <time>2019-10-17T08:57:32.467Z</time>
      </trkpt>
      <trkpt lat="45.66667" lon="6.21248">
        <ele>1762</ele>
        <time>2019-10-17T08:57:38.818Z</time>
      </trkpt>
      <trkpt lat="45.66662" lon="6.21247">
        <ele>1764</ele>
        <time>2019-10-17T08:57:47.000Z</time>
      </trkpt>
      <trkpt lat="45.66657" lon="6.21244">
        <ele>1763</ele>
        <time>2019-10-17T08:57:52.151Z</time>
      </trkpt>
      <trkpt lat="45.66652" lon="6.21242">
        <ele>1762</ele>
        <time>2019-10-17T08:58:00.000Z</time>
      </trkpt>
      <trkpt lat="45.66646" lon="6.21243">
        <ele>1763</ele>
        <time>2019-10-17T08:58:07.000Z</time>
      </trkpt>
      <trkpt lat="45.66641" lon="6.21246">
        <ele>1765</ele>
        <time>2019-10-17T08:58:11.000Z</time>
      </trkpt>
      <trkpt lat="45.66638" lon="6.21255">
        <ele>1764</ele>
        <time>2019-10-17T08:58:17.000Z</time>
      </trkpt>
      <trkpt lat="45.66637" lon="6.21263">
        <ele>1765</ele>
        <time>2019-10-17T08:58:25.736Z</time>
      </trkpt>
      <trkpt lat="45.66642" lon="6.21267">
        <ele>1764</ele>
        <time>2019-10-17T08:58:34.000Z</time>
      </trkpt>
      <trkpt lat="45.66648" lon="6.21268">
        <ele>1764</ele>
        <time>2019-10-17T08:58:41.000Z</time>
      </trkpt>
      <trkpt lat="45.66652" lon="6.21271">
        <ele>1764</ele>
        <time>2019-10-17T08:58:43.596Z</time>
      </trkpt>
      <trkpt lat="45.6666" lon="6.21272">
        <ele>1763</ele>
        <time>2019-10-17T08:58:50.082Z</time>
      </trkpt>
      <trkpt lat="45.66667" lon="6.21275">
        <ele>1764</ele>
        <time>2019-10-17T08:58:56.603Z</time>
      </trkpt>
      <trkpt lat="45.66673" lon="6.21281">
        <ele>1763</ele>
        <time>2019-10-17T08:59:04.598Z</time>
      </trkpt>
      <trkpt lat="45.66676" lon="6.21292">
        <ele>1765</ele>
        <time>2019-10-17T08:59:11.492Z</time>
      </trkpt>
      <trkpt lat="45.66679" lon="6.21298">
        <ele>1765</ele>
        <time>2019-10-17T08:59:17.000Z</time>
      </trkpt>
      <trkpt lat="45.6668" lon="6.21306">
        <ele>1764</ele>
        <time>2019-10-17T08:59:19.324Z</time>
      </trkpt>
      <trkpt lat="45.66682" lon="6.21314">
        <ele>1764</ele>
        <time>2019-10-17T08:59:24.000Z</time>
      </trkpt>
      <trkpt lat="45.66685" lon="6.21325">
        <ele>1764</ele>
        <time>2019-10-17T08:59:31.000Z</time>
      </trkpt>
      <trkpt lat="45.66688" lon="6.21334">
        <ele>1762</ele>
        <time>2019-10-17T08:59:36.375Z</time>
      </trkpt>
      <trkpt lat="45.6669" lon="6.2134">
        <ele>1762</ele>
        <time>2019-10-17T08:59:39.818Z</time>
      </trkpt>
      <trkpt lat="45.66693" lon="6.21351">
        <ele>1762</ele>
        <time>2019-10-17T08:59:48.000Z</time>
      </trkpt>
      <trkpt lat="45.66695" lon="6.21359">
        <ele>1762</ele>
        <time>2019-10-17T08:59:49.989Z</time>
      </trkpt>
      <trkpt lat="45.66699" lon="6.21367">
        <ele>1763</ele>
        <time>2019-10-17T08:59:58.000Z</time>
      </trkpt>
      <trkpt lat="45.66703" lon="6.21373">
        <ele>1762</ele>
        <time>2019-10-17T09:00:05.000Z</time>
      </trkpt>
      <trkpt lat="45.66708" lon="6.21377">
        <ele>1763</ele>
        <time>2019-10-17T09:00:11.016Z</time>
      </trkpt>
      <trkpt lat="45.66714" lon="6.21379">
        <ele>1765</ele>
        <time>2019-10-17T09:00:18.611Z</time>
      </trkpt>
      <trkpt lat="45.6672" lon="6.2138">
        <ele>1766</ele>
        <time>2019-10-17T09:00:25.081Z</time>
      </trkpt>
      <trkpt lat="45.66727" lon="6.21382">
        <ele>1768</ele>
        <time>2019-10-17T09:00:34.000Z</time>
      </trkpt>
      <trkpt lat="45.66733" lon="6.21388">
        <ele>1767</ele>
        <time>2019-10-17T09:00:39.360Z</time>
      </trkpt>
      <trkpt lat="45.66739" lon="6.21393">
        <ele>1767</ele>
        <time>2019-10-17T09:00:45.616Z</time>
      </trkpt>
      <trkpt lat="45.66745" lon="6.214">
        <ele>1767</ele>
        <time>2019-10-17T09:00:55.000Z</time>
      </trkpt>
      <trkpt lat="45.66752" lon="6.21402">
        <ele>1768</ele>
        <time>2019-10-17T09:01:02.000Z</time>
      </trkpt>
      <trkpt lat="45.66756" lon="6.21403">
        <ele>1769</ele>
        <time>2019-10-17T09:01:03.662Z</time>
      </trkpt>
      <trkpt lat="45.66763" lon="6.21405">
        <ele>1770</ele>
        <time>2019-10-17T09:01:10.080Z</time>
      </trkpt>
      <trkpt lat="45.6677" lon="6.21406">
        <ele>1771</ele>
        <time>2019-10-17T09:01:18.000Z</time>
      </trkpt>
      <trkpt lat="45.66775" lon="6.21409">
        <ele>1773</ele>
        <time>2019-10-17T09:01:23.692Z</time>
      </trkpt>
      <trkpt lat="45.66781" lon="6.21409">
        <ele>1775</ele>
        <time>2019-10-17T09:01:32.000Z</time>
      </trkpt>
      <trkpt lat="45.66786" lon="6.21408">
        <ele>1777</ele>
        <time>2019-10-17T09:01:37.149Z</time>
      </trkpt>
      <trkpt lat="45.66791" lon="6.21405">
        <ele>1777</ele>
        <time>2019-10-17T09:01:45.000Z</time>
      </trkpt>
      <trkpt lat="45.66796" lon="6.21401">
        <ele>1779</ele>
        <time>2019-10-17T09:01:50.180Z</time>
      </trkpt>
      <trkpt lat="45.66801" lon="6.21397">
        <ele>1782</ele>
        <time>2019-10-17T09:02:02.000Z</time>
      </trkpt>
      <trkpt lat="45.66807" lon="6.21397">
        <ele>1783</ele>
        <time>2019-10-17T09:02:07.153Z</time>
      </trkpt>
      <trkpt lat="45.66813" lon="6.21401">
        <ele>1783</ele>
        <time>2019-10-17T09:02:13.908Z</time>
      </trkpt>
      <trkpt lat="45.66819" lon="6.21406">
        <ele>1785</ele>
        <time>2019-10-17T09:02:22.000Z</time>
      </trkpt>
      <trkpt lat="45.66824" lon="6.21411">
        <ele>1788</ele>
        <time>2019-10-17T09:02:27.215Z</time>
      </trkpt>
      <trkpt lat="45.6683" lon="6.21415">
        <ele>1792</ele>
        <time>2019-10-17T09:02:34.157Z</time>
      </trkpt>
      <trkpt lat="45.66834" lon="6.21416">
        <ele>1793</ele>
        <time>2019-10-17T09:02:41.520Z</time>
      </trkpt>
      <trkpt lat="45.66841" lon="6.21421">
        <ele>1797</ele>
        <time>2019-10-17T09:02:52.036Z</time>
      </trkpt>
      <trkpt lat="45.66846" lon="6.21425">
        <ele>1801</ele>
        <time>2019-10-17T09:03:02.078Z</time>
      </trkpt>
      <trkpt lat="45.66849" lon="6.21433">
        <ele>1802</ele>
        <time>2019-10-17T09:03:11.377Z</time>
      </trkpt>
      <trkpt lat="45.6685" lon="6.21442">
        <ele>1805</ele>
        <time>2019-10-17T09:03:18.386Z</time>
      </trkpt>
      <trkpt lat="45.66852" lon="6.21448">
        <ele>1808</ele>
        <time>2019-10-17T09:03:28.658Z</time>
      </trkpt>
      <trkpt lat="45.66852" lon="6.21455">
        <ele>1808</ele>
        <time>2019-10-17T09:03:37.000Z</time>
      </trkpt>
      <trkpt lat="45.66849" lon="6.2145">
        <ele>1811</ele>
        <time>2019-10-17T09:04:47.000Z</time>
      </trkpt>
      <trkpt lat="45.66847" lon="6.21457">
        <ele>1809</ele>
        <time>2019-10-17T09:06:29.000Z</time>
      </trkpt>
      <trkpt lat="45.66845" lon="6.21464">
        <ele>1811</ele>
        <time>2019-10-17T09:06:36.000Z</time>
      </trkpt>
      <trkpt lat="45.66841" lon="6.2147">
        <ele>1811</ele>
        <time>2019-10-17T09:06:40.734Z</time>
      </trkpt>
      <trkpt lat="45.66837" lon="6.21476">
        <ele>1811</ele>
        <time>2019-10-17T09:06:50.000Z</time>
      </trkpt>
      <trkpt lat="45.66832" lon="6.21487">
        <ele>1811</ele>
        <time>2019-10-17T09:06:55.080Z</time>
      </trkpt>
      <trkpt lat="45.66829" lon="6.21498">
        <ele>1812</ele>
        <time>2019-10-17T09:07:01.960Z</time>
      </trkpt>
      <trkpt lat="45.66827" lon="6.21511">
        <ele>1815</ele>
        <time>2019-10-17T09:07:10.000Z</time>
      </trkpt>
      <trkpt lat="45.66827" lon="6.21518">
        <ele>1816</ele>
        <time>2019-10-17T09:07:14.761Z</time>
      </trkpt>
      <trkpt lat="45.66823" lon="6.21524">
        <ele>1817</ele>
        <time>2019-10-17T09:07:21.863Z</time>
      </trkpt>
      <trkpt lat="45.66818" lon="6.21531">
        <ele>1820</ele>
        <time>2019-10-17T09:07:28.441Z</time>
      </trkpt>
      <trkpt lat="45.66815" lon="6.21537">
        <ele>1821</ele>
        <time>2019-10-17T09:07:35.294Z</time>
      </trkpt>
      <trkpt lat="45.66812" lon="6.21543">
        <ele>1823</ele>
        <time>2019-10-17T09:07:41.602Z</time>
      </trkpt>
      <trkpt lat="45.66808" lon="6.21549">
        <ele>1825</ele>
        <time>2019-10-17T09:07:48.969Z</time>
      </trkpt>
      <trkpt lat="45.66803" lon="6.21553">
        <ele>1826</ele>
        <time>2019-10-17T09:07:55.507Z</time>
      </trkpt>
      <trkpt lat="45.66799" lon="6.21558">
        <ele>1828</ele>
        <time>2019-10-17T09:08:04.000Z</time>
      </trkpt>
      <trkpt lat="45.66796" lon="6.21565">
        <ele>1828</ele>
        <time>2019-10-17T09:08:09.834Z</time>
      </trkpt>
      <trkpt lat="45.66791" lon="6.21569">
        <ele>1831</ele>
        <time>2019-10-17T09:08:22.000Z</time>
      </trkpt>
      <trkpt lat="45.6679" lon="6.21577">
        <ele>1834</ele>
        <time>2019-10-17T09:08:30.496Z</time>
      </trkpt>
      <trkpt lat="45.66789" lon="6.21584">
        <ele>1836</ele>
        <time>2019-10-17T09:08:39.000Z</time>
      </trkpt>
      <trkpt lat="45.66783" lon="6.21589">
        <ele>1837</ele>
        <time>2019-10-17T09:08:47.465Z</time>
      </trkpt>
      <trkpt lat="45.66778" lon="6.21594">
        <ele>1838</ele>
        <time>2019-10-17T09:08:59.000Z</time>
      </trkpt>
      <trkpt lat="45.66772" lon="6.21599">
        <ele>1840</ele>
        <time>2019-10-17T09:09:19.000Z</time>
      </trkpt>
      <trkpt lat="45.66768" lon="6.21604">
        <ele>1841</ele>
        <time>2019-10-17T09:09:26.000Z</time>
      </trkpt>
      <trkpt lat="45.66764" lon="6.21608">
        <ele>1843</ele>
        <time>2019-10-17T09:09:31.373Z</time>
      </trkpt>
      <trkpt lat="45.66765" lon="6.21614">
        <ele>1843</ele>
        <time>2019-10-17T09:09:36.000Z</time>
      </trkpt>
      <trkpt lat="45.66765" lon="6.21622">
        <ele>1842</ele>
        <time>2019-10-17T09:09:40.869Z</time>
      </trkpt>
      <trkpt lat="45.66762" lon="6.21628">
        <ele>1843</ele>
        <time>2019-10-17T09:09:48.078Z</time>
      </trkpt>
      <trkpt lat="45.66759" lon="6.21632">
        <ele>1843</ele>
        <time>2019-10-17T09:09:54.454Z</time>
      </trkpt>
      <trkpt lat="45.66759" lon="6.2164">
        <ele>1841</ele>
        <time>2019-10-17T09:10:02.000Z</time>
      </trkpt>
      <trkpt lat="45.66757" lon="6.21649">
        <ele>1843</ele>
        <time>2019-10-17T09:10:12.000Z</time>
      </trkpt>
      <trkpt lat="45.6676" lon="6.21654">
        <ele>1841</ele>
        <time>2019-10-17T09:10:23.000Z</time>
      </trkpt>
      <trkpt lat="45.66764" lon="6.21658">
        <ele>1841</ele>
        <time>2019-10-17T09:10:28.479Z</time>
      </trkpt>
      <trkpt lat="45.6677" lon="6.21662">
        <ele>1839</ele>
        <time>2019-10-17T09:10:40.000Z</time>
      </trkpt>
      <trkpt lat="45.66775" lon="6.21661">
        <ele>1838</ele>
        <time>2019-10-17T09:10:47.000Z</time>
      </trkpt>
      <trkpt lat="45.6678" lon="6.21662">
        <ele>1842</ele>
        <time>2019-10-17T09:10:54.000Z</time>
      </trkpt>
      <trkpt lat="45.66784" lon="6.2167">
        <ele>1842</ele>
        <time>2019-10-17T09:11:01.000Z</time>
      </trkpt>
      <trkpt lat="45.66786" lon="6.21678">
        <ele>1843</ele>
        <time>2019-10-17T09:11:06.349Z</time>
      </trkpt>
      <trkpt lat="45.66793" lon="6.21687">
        <ele>1844</ele>
        <time>2019-10-17T09:11:16.888Z</time>
      </trkpt>
      <trkpt lat="45.66797" lon="6.21695">
        <ele>1846</ele>
        <time>2019-10-17T09:11:24.162Z</time>
      </trkpt>
      <trkpt lat="45.66802" lon="6.21699">
        <ele>1845</ele>
        <time>2019-10-17T09:11:31.598Z</time>
      </trkpt>
      <trkpt lat="45.66807" lon="6.21701">
        <ele>1848</ele>
        <time>2019-10-17T09:11:40.000Z</time>
      </trkpt>
      <trkpt lat="45.66813" lon="6.21708">
        <ele>1850</ele>
        <time>2019-10-17T09:11:47.000Z</time>
      </trkpt>
      <trkpt lat="45.66817" lon="6.21713">
        <ele>1850</ele>
        <time>2019-10-17T09:11:52.254Z</time>
      </trkpt>
      <trkpt lat="45.66823" lon="6.21716">
        <ele>1852</ele>
        <time>2019-10-17T09:12:00.000Z</time>
      </trkpt>
      <trkpt lat="45.66828" lon="6.21721">
        <ele>1852</ele>
        <time>2019-10-17T09:12:08.000Z</time>
      </trkpt>
      <trkpt lat="45.66831" lon="6.21727">
        <ele>1854</ele>
        <time>2019-10-17T09:12:13.229Z</time>
      </trkpt>
      <trkpt lat="45.66834" lon="6.21737">
        <ele>1855</ele>
        <time>2019-10-17T09:12:22.000Z</time>
      </trkpt>
      <trkpt lat="45.66835" lon="6.21743">
        <ele>1856</ele>
        <time>2019-10-17T09:12:26.574Z</time>
      </trkpt>
      <trkpt lat="45.66837" lon="6.21749">
        <ele>1858</ele>
        <time>2019-10-17T09:12:38.000Z</time>
      </trkpt>
      <trkpt lat="45.66841" lon="6.2176">
        <ele>1859</ele>
        <time>2019-10-17T09:14:19.000Z</time>
      </trkpt>
      <trkpt lat="45.66846" lon="6.21767">
        <ele>1862</ele>
        <time>2019-10-17T09:14:24.587Z</time>
      </trkpt>
      <trkpt lat="45.66851" lon="6.21772">
        <ele>1864</ele>
        <time>2019-10-17T09:14:36.000Z</time>
      </trkpt>
      <trkpt lat="45.66853" lon="6.21779">
        <ele>1864</ele>
        <time>2019-10-17T09:14:43.000Z</time>
      </trkpt>
      <trkpt lat="45.66851" lon="6.21787">
        <ele>1866</ele>
        <time>2019-10-17T09:14:48.236Z</time>
      </trkpt>
      <trkpt lat="45.66849" lon="6.21794">
        <ele>1867</ele>
        <time>2019-10-17T09:14:56.000Z</time>
      </trkpt>
      <trkpt lat="45.66848" lon="6.21803">
        <ele>1868</ele>
        <time>2019-10-17T09:15:00.675Z</time>
      </trkpt>
      <trkpt lat="45.66848" lon="6.2181">
        <ele>1869</ele>
        <time>2019-10-17T09:15:07.317Z</time>
      </trkpt>
      <trkpt lat="45.66846" lon="6.21818">
        <ele>1869</ele>
        <time>2019-10-17T09:15:15.000Z</time>
      </trkpt>
      <trkpt lat="45.66844" lon="6.21825">
        <ele>1871</ele>
        <time>2019-10-17T09:15:21.036Z</time>
      </trkpt>
      <trkpt lat="45.66841" lon="6.21831">
        <ele>1872</ele>
        <time>2019-10-17T09:15:29.000Z</time>
      </trkpt>
      <trkpt lat="45.66837" lon="6.21836">
        <ele>1873</ele>
        <time>2019-10-17T09:15:34.981Z</time>
      </trkpt>
      <trkpt lat="45.66834" lon="6.21842">
        <ele>1877</ele>
        <time>2019-10-17T09:15:43.000Z</time>
      </trkpt>
      <trkpt lat="45.66831" lon="6.21849">
        <ele>1877</ele>
        <time>2019-10-17T09:15:48.820Z</time>
      </trkpt>
      <trkpt lat="45.66831" lon="6.21855">
        <ele>1879</ele>
        <time>2019-10-17T09:15:59.523Z</time>
      </trkpt>
      <trkpt lat="45.6683" lon="6.21862">
        <ele>1880</ele>
        <time>2019-10-17T09:16:13.220Z</time>
      </trkpt>
      <trkpt lat="45.66835" lon="6.21864">
        <ele>1882</ele>
        <time>2019-10-17T09:16:25.000Z</time>
      </trkpt>
      <trkpt lat="45.6684" lon="6.21868">
        <ele>1886</ele>
        <time>2019-10-17T09:16:38.000Z</time>
      </trkpt>
      <trkpt lat="45.66843" lon="6.21874">
        <ele>1888</ele>
        <time>2019-10-17T09:16:47.156Z</time>
      </trkpt>
      <trkpt lat="45.66845" lon="6.2188">
        <ele>1891</ele>
        <time>2019-10-17T09:17:02.709Z</time>
      </trkpt>
      <trkpt lat="45.66843" lon="6.21887">
        <ele>1897</ele>
        <time>2019-10-17T09:17:17.000Z</time>
      </trkpt>
      <trkpt lat="45.66844" lon="6.21894">
        <ele>1900</ele>
        <time>2019-10-17T09:17:34.000Z</time>
      </trkpt>
      <trkpt lat="45.66844" lon="6.21902">
        <ele>1903</ele>
        <time>2019-10-17T09:17:42.033Z</time>
      </trkpt>
      <trkpt lat="45.66844" lon="6.2191">
        <ele>1903</ele>
        <time>2019-10-17T09:17:50.000Z</time>
      </trkpt>
      <trkpt lat="45.66843" lon="6.21916">
        <ele>1906</ele>
        <time>2019-10-17T09:17:57.000Z</time>
      </trkpt>
      <trkpt lat="45.66842" lon="6.21923">
        <ele>1906</ele>
        <time>2019-10-17T09:18:04.000Z</time>
      </trkpt>
      <trkpt lat="45.66842" lon="6.21931">
        <ele>1907</ele>
        <time>2019-10-17T09:18:09.146Z</time>
      </trkpt>
      <trkpt lat="45.66844" lon="6.21937">
        <ele>1908</ele>
        <time>2019-10-17T09:18:21.000Z</time>
      </trkpt>
      <trkpt lat="45.66844" lon="6.21946">
        <ele>1913</ele>
        <time>2019-10-17T09:18:34.177Z</time>
      </trkpt>
      <trkpt lat="45.66845" lon="6.21952">
        <ele>1916</ele>
        <time>2019-10-17T09:18:50.000Z</time>
      </trkpt>
      <trkpt lat="45.66843" lon="6.21959">
        <ele>1918</ele>
        <time>2019-10-17T09:19:00.000Z</time>
      </trkpt>
      <trkpt lat="45.66842" lon="6.21966">
        <ele>1918</ele>
        <time>2019-10-17T09:19:07.642Z</time>
      </trkpt>
      <trkpt lat="45.66842" lon="6.21976">
        <ele>1919</ele>
        <time>2019-10-17T09:19:19.000Z</time>
      </trkpt>
      <trkpt lat="45.6684" lon="6.21983">
        <ele>1920</ele>
        <time>2019-10-17T09:19:27.000Z</time>
      </trkpt>
      <trkpt lat="45.66843" lon="6.21988">
        <ele>1922</ele>
        <time>2019-10-17T09:19:40.079Z</time>
      </trkpt>
      <trkpt lat="45.66846" lon="6.21995">
        <ele>1925</ele>
        <time>2019-10-17T09:19:54.000Z</time>
      </trkpt>
      <trkpt lat="45.66849" lon="6.22001">
        <ele>1928</ele>
        <time>2019-10-17T09:20:05.000Z</time>
      </trkpt>
      <trkpt lat="45.66851" lon="6.22008">
        <ele>1932</ele>
        <time>2019-10-17T09:20:19.000Z</time>
      </trkpt>
      <trkpt lat="45.66854" lon="6.22014">
        <ele>1934</ele>
        <time>2019-10-17T09:20:27.299Z</time>
      </trkpt>
      <trkpt lat="45.66854" lon="6.22021">
        <ele>1937</ele>
        <time>2019-10-17T09:20:34.419Z</time>
      </trkpt>
      <trkpt lat="45.66852" lon="6.2203">
        <ele>1939</ele>
        <time>2019-10-17T09:20:46.000Z</time>
      </trkpt>
      <trkpt lat="45.6685" lon="6.22037">
        <ele>1941</ele>
        <time>2019-10-17T09:20:56.000Z</time>
      </trkpt>
      <trkpt lat="45.66849" lon="6.22045">
        <ele>1943</ele>
        <time>2019-10-17T09:21:00.794Z</time>
      </trkpt>
      <trkpt lat="45.6685" lon="6.22053">
        <ele>1946</ele>
        <time>2019-10-17T09:21:11.075Z</time>
      </trkpt>
      <trkpt lat="45.66851" lon="6.22061">
        <ele>1949</ele>
        <time>2019-10-17T09:21:25.573Z</time>
      </trkpt>
      <trkpt lat="45.6685" lon="6.2207">
        <ele>1949</ele>
        <time>2019-10-17T09:23:50.000Z</time>
      </trkpt>
      <trkpt lat="45.66847" lon="6.22075">
        <ele>1952</ele>
        <time>2019-10-17T09:24:00.000Z</time>
      </trkpt>
      <trkpt lat="45.66845" lon="6.22082">
        <ele>1953</ele>
        <time>2019-10-17T09:24:05.257Z</time>
      </trkpt>
      <trkpt lat="45.66844" lon="6.22092">
        <ele>1958</ele>
        <time>2019-10-17T09:24:15.206Z</time>
      </trkpt>
      <trkpt lat="45.66844" lon="6.22099">
        <ele>1957</ele>
        <time>2019-10-17T09:24:24.538Z</time>
      </trkpt>
      <trkpt lat="45.66843" lon="6.22109">
        <ele>1960</ele>
        <time>2019-10-17T09:24:36.000Z</time>
      </trkpt>
      <trkpt lat="45.66843" lon="6.22116">
        <ele>1964</ele>
        <time>2019-10-17T09:24:46.000Z</time>
      </trkpt>
      <trkpt lat="45.66841" lon="6.22123">
        <ele>1966</ele>
        <time>2019-10-17T09:24:53.000Z</time>
      </trkpt>
      <trkpt lat="45.6684" lon="6.22131">
        <ele>1970</ele>
        <time>2019-10-17T09:25:00.947Z</time>
      </trkpt>
      <trkpt lat="45.66837" lon="6.22139">
        <ele>1972</ele>
        <time>2019-10-17T09:25:11.325Z</time>
      </trkpt>
      <trkpt lat="45.66834" lon="6.22146">
        <ele>1975</ele>
        <time>2019-10-17T09:25:24.000Z</time>
      </trkpt>
      <trkpt lat="45.66832" lon="6.22152">
        <ele>1975</ele>
        <time>2019-10-17T09:25:32.457Z</time>
      </trkpt>
      <trkpt lat="45.6683" lon="6.22159">
        <ele>1979</ele>
        <time>2019-10-17T09:25:45.000Z</time>
      </trkpt>
      <trkpt lat="45.6683" lon="6.22168">
        <ele>1982</ele>
        <time>2019-10-17T09:25:56.000Z</time>
      </trkpt>
      <trkpt lat="45.66829" lon="6.22176">
        <ele>1985</ele>
        <time>2019-10-17T09:26:10.154Z</time>
      </trkpt>
      <trkpt lat="45.66828" lon="6.22183">
        <ele>1986</ele>
        <time>2019-10-17T09:26:23.734Z</time>
      </trkpt>
      <trkpt lat="45.66825" lon="6.2219">
        <ele>1991</ele>
        <time>2019-10-17T09:26:44.000Z</time>
      </trkpt>
      <trkpt lat="45.66825" lon="6.222">
        <ele>2002</ele>
        <time>2019-10-17T09:27:27.461Z</time>
      </trkpt>
      <trkpt lat="45.66823" lon="6.22208">
        <ele>2002</ele>
        <time>2019-10-17T09:27:34.115Z</time>
      </trkpt>
      <trkpt lat="45.66825" lon="6.22216">
        <ele>2005</ele>
        <time>2019-10-17T09:27:51.202Z</time>
      </trkpt>
      <trkpt lat="45.66828" lon="6.22222">
        <ele>2006</ele>
        <time>2019-10-17T09:28:00.000Z</time>
      </trkpt>
      <trkpt lat="45.66829" lon="6.22228">
        <ele>2009</ele>
        <time>2019-10-17T09:28:08.081Z</time>
      </trkpt>
      <trkpt lat="45.66827" lon="6.22235">
        <ele>2016</ele>
        <time>2019-10-17T09:28:23.000Z</time>
      </trkpt>
      <trkpt lat="45.66825" lon="6.22242">
        <ele>2018</ele>
        <time>2019-10-17T09:28:39.000Z</time>
      </trkpt>
      <trkpt lat="45.66822" lon="6.22247">
        <ele>2022</ele>
        <time>2019-10-17T09:29:02.000Z</time>
      </trkpt>
      <trkpt lat="45.66816" lon="6.22249">
        <ele>2023</ele>
        <time>2019-10-17T09:30:10.922Z</time>
      </trkpt>
      <trkpt lat="45.66811" lon="6.22253">
        <ele>2023</ele>
        <time>2019-10-17T09:30:20.654Z</time>
      </trkpt>
      <trkpt lat="45.66806" lon="6.22251">
        <ele>2023</ele>
        <time>2019-10-17T09:30:26.000Z</time>
      </trkpt>
      <trkpt lat="45.668" lon="6.22255">
        <ele>2024</ele>
        <time>2019-10-17T09:30:34.616Z</time>
      </trkpt>
      <trkpt lat="45.66795" lon="6.22263">
        <ele>2025</ele>
        <time>2019-10-17T09:30:41.883Z</time>
      </trkpt>
      <trkpt lat="45.66792" lon="6.2227">
        <ele>2024</ele>
        <time>2019-10-17T09:30:51.000Z</time>
      </trkpt>
      <trkpt lat="45.66788" lon="6.22273">
        <ele>2025</ele>
        <time>2019-10-17T09:31:02.331Z</time>
      </trkpt>
      <trkpt lat="45.66781" lon="6.22268">
        <ele>2024</ele>
        <time>2019-10-17T09:31:09.165Z</time>
      </trkpt>
      <trkpt lat="45.66781" lon="6.22279">
        <ele>2023</ele>
        <time>2019-10-17T09:31:35.000Z</time>
      </trkpt>
      <trkpt lat="45.66776" lon="6.22283">
        <ele>2024</ele>
        <time>2019-10-17T09:31:42.826Z</time>
      </trkpt>
      <trkpt lat="45.66771" lon="6.22289">
        <ele>2026</ele>
        <time>2019-10-17T09:31:49.192Z</time>
      </trkpt>
      <trkpt lat="45.6677" lon="6.22297">
        <ele>2026</ele>
        <time>2019-10-17T09:31:56.567Z</time>
      </trkpt>
      <trkpt lat="45.6677" lon="6.22305">
        <ele>2027</ele>
        <time>2019-10-17T09:32:13.172Z</time>
      </trkpt>
      <trkpt lat="45.66765" lon="6.22309">
        <ele>2028</ele>
        <time>2019-10-17T09:32:20.078Z</time>
      </trkpt>
      <trkpt lat="45.66763" lon="6.22315">
        <ele>2028</ele>
        <time>2019-10-17T09:32:25.000Z</time>
      </trkpt>
      <trkpt lat="45.6676" lon="6.22325">
        <ele>2026</ele>
        <time>2019-10-17T09:32:33.000Z</time>
      </trkpt>
      <trkpt lat="45.66759" lon="6.22335">
        <ele>2027</ele>
        <time>2019-10-17T09:32:40.000Z</time>
      </trkpt>
      <trkpt lat="45.66755" lon="6.22346">
        <ele>2029</ele>
        <time>2019-10-17T09:32:47.000Z</time>
      </trkpt>
      <trkpt lat="45.66753" lon="6.22353">
        <ele>2029</ele>
        <time>2019-10-17T09:32:51.000Z</time>
      </trkpt>
      <trkpt lat="45.6675" lon="6.22362">
        <ele>2028</ele>
        <time>2019-10-17T09:32:58.000Z</time>
      </trkpt>
      <trkpt lat="45.66749" lon="6.22369">
        <ele>2026</ele>
        <time>2019-10-17T09:33:18.000Z</time>
      </trkpt>
      <trkpt lat="45.66752" lon="6.22378">
        <ele>2025</ele>
        <time>2019-10-17T09:33:33.719Z</time>
      </trkpt>
      <trkpt lat="45.66755" lon="6.22386">
        <ele>2024</ele>
        <time>2019-10-17T09:33:40.170Z</time>
      </trkpt>
      <trkpt lat="45.66761" lon="6.22387">
        <ele>2029</ele>
        <time>2019-10-17T09:33:53.000Z</time>
      </trkpt>
      <trkpt lat="45.66765" lon="6.22381">
        <ele>2032</ele>
        <time>2019-10-17T09:33:57.824Z</time>
      </trkpt>
      <trkpt lat="45.66767" lon="6.22372">
        <ele>2036</ele>
        <time>2019-10-17T09:34:07.583Z</time>
      </trkpt>
      <trkpt lat="45.66767" lon="6.22364">
        <ele>2039</ele>
        <time>2019-10-17T09:34:14.750Z</time>
      </trkpt>
      <trkpt lat="45.66771" lon="6.2236">
        <ele>2041</ele>
        <time>2019-10-17T09:34:23.000Z</time>
      </trkpt>
      <trkpt lat="45.66777" lon="6.22359">
        <ele>2042</ele>
        <time>2019-10-17T09:34:28.023Z</time>
      </trkpt>
      <trkpt lat="45.66782" lon="6.22357">
        <ele>2043</ele>
        <time>2019-10-17T09:34:37.000Z</time>
      </trkpt>
      <trkpt lat="45.66788" lon="6.22355">
        <ele>2048</ele>
        <time>2019-10-17T09:34:47.000Z</time>
      </trkpt>
      <trkpt lat="45.66794" lon="6.22354">
        <ele>2049</ele>
        <time>2019-10-17T09:34:54.943Z</time>
      </trkpt>
      <trkpt lat="45.66799" lon="6.22349">
        <ele>2053</ele>
        <time>2019-10-17T09:35:07.000Z</time>
      </trkpt>
      <trkpt lat="45.66802" lon="6.22343">
        <ele>2056</ele>
        <time>2019-10-17T09:35:15.245Z</time>
      </trkpt>
      <trkpt lat="45.66806" lon="6.22339">
        <ele>2058</ele>
        <time>2019-10-17T09:35:27.000Z</time>
      </trkpt>
      <trkpt lat="45.66807" lon="6.22331">
        <ele>2060</ele>
        <time>2019-10-17T09:35:34.000Z</time>
      </trkpt>
      <trkpt lat="45.66809" lon="6.22324">
        <ele>2062</ele>
        <time>2019-10-17T09:35:49.152Z</time>
      </trkpt>
      <trkpt lat="45.66811" lon="6.22317">
        <ele>2067</ele>
        <time>2019-10-17T09:36:13.431Z</time>
      </trkpt>
      <trkpt lat="45.66811" lon="6.22309">
        <ele>2067</ele>
        <time>2019-10-17T09:36:32.087Z</time>
      </trkpt>
      <trkpt lat="45.66816" lon="6.22309">
        <ele>2078</ele>
        <time>2019-10-17T09:37:01.000Z</time>
      </trkpt>
      <trkpt lat="45.66821" lon="6.22311">
        <ele>2079</ele>
        <time>2019-10-17T09:37:08.000Z</time>
      </trkpt>
      <trkpt lat="45.66826" lon="6.22312">
        <ele>2078</ele>
        <time>2019-10-17T09:37:13.074Z</time>
      </trkpt>
      <trkpt lat="45.6683" lon="6.22316">
        <ele>2083</ele>
        <time>2019-10-17T09:37:21.000Z</time>
      </trkpt>
      <trkpt lat="45.66831" lon="6.22323">
        <ele>2084</ele>
        <time>2019-10-17T09:37:29.015Z</time>
      </trkpt>
      <trkpt lat="45.66835" lon="6.22327">
        <ele>2084</ele>
        <time>2019-10-17T09:37:52.000Z</time>
      </trkpt>
      <trkpt lat="45.66831" lon="6.22322">
        <ele>2086</ele>
        <time>2019-10-17T09:47:19.000Z</time>
      </trkpt>
      <trkpt lat="45.66827" lon="6.22316">
        <ele>2087</ele>
        <time>2019-10-17T09:47:20.738Z</time>
      </trkpt>
      <trkpt lat="45.66823" lon="6.2231">
        <ele>2086</ele>
        <time>2019-10-17T09:47:29.000Z</time>
      </trkpt>
      <trkpt lat="45.66818" lon="6.22307">
        <ele>2085</ele>
        <time>2019-10-17T09:47:33.758Z</time>
      </trkpt>
      <trkpt lat="45.66813" lon="6.22308">
        <ele>2082</ele>
        <time>2019-10-17T09:47:42.000Z</time>
      </trkpt>
      <trkpt lat="45.66811" lon="6.22314">
        <ele>2081</ele>
        <time>2019-10-17T09:48:15.494Z</time>
      </trkpt>
      <trkpt lat="45.66809" lon="6.22322">
        <ele>2077</ele>
        <time>2019-10-17T09:48:31.000Z</time>
      </trkpt>
      <trkpt lat="45.66805" lon="6.22325">
        <ele>2073</ele>
        <time>2019-10-17T09:48:51.000Z</time>
      </trkpt>
      <trkpt lat="45.66808" lon="6.22334">
        <ele>2071</ele>
        <time>2019-10-17T09:49:02.000Z</time>
      </trkpt>
      <trkpt lat="45.66802" lon="6.22339">
        <ele>2067</ele>
        <time>2019-10-17T09:49:18.000Z</time>
      </trkpt>
      <trkpt lat="45.66799" lon="6.22343">
        <ele>2063</ele>
        <time>2019-10-17T09:49:25.000Z</time>
      </trkpt>
      <trkpt lat="45.66791" lon="6.22357">
        <ele>2059</ele>
        <time>2019-10-17T09:49:33.160Z</time>
      </trkpt>
      <trkpt lat="45.66786" lon="6.22361">
        <ele>2056</ele>
        <time>2019-10-17T09:49:41.000Z</time>
      </trkpt>
      <trkpt lat="45.66779" lon="6.22359">
        <ele>2053</ele>
        <time>2019-10-17T09:49:48.000Z</time>
      </trkpt>
      <trkpt lat="45.66771" lon="6.22364">
        <ele>2051</ele>
        <time>2019-10-17T09:49:55.000Z</time>
      </trkpt>
      <trkpt lat="45.66762" lon="6.22376">
        <ele>2048</ele>
        <time>2019-10-17T09:50:03.030Z</time>
      </trkpt>
      <trkpt lat="45.66759" lon="6.22382">
        <ele>2042</ele>
        <time>2019-10-17T09:50:14.000Z</time>
      </trkpt>
      <trkpt lat="45.66759" lon="6.22392">
        <ele>2039</ele>
        <time>2019-10-17T09:50:22.799Z</time>
      </trkpt>
      <trkpt lat="45.66748" lon="6.22397">
        <ele>2038</ele>
        <time>2019-10-17T09:50:29.539Z</time>
      </trkpt>
      <trkpt lat="45.66745" lon="6.22406">
        <ele>2039</ele>
        <time>2019-10-17T09:50:36.581Z</time>
      </trkpt>
      <trkpt lat="45.6674" lon="6.22412">
        <ele>2039</ele>
        <time>2019-10-17T09:50:48.000Z</time>
      </trkpt>
      <trkpt lat="45.66735" lon="6.22413">
        <ele>2043</ele>
        <time>2019-10-17T09:50:53.082Z</time>
      </trkpt>
      <trkpt lat="45.66733" lon="6.22422">
        <ele>2043</ele>
        <time>2019-10-17T09:51:02.832Z</time>
      </trkpt>
      <trkpt lat="45.66729" lon="6.22418">
        <ele>2041</ele>
        <time>2019-10-17T09:51:15.636Z</time>
      </trkpt>
      <trkpt lat="45.66724" lon="6.22417">
        <ele>2043</ele>
        <time>2019-10-17T09:51:22.739Z</time>
      </trkpt>
      <trkpt lat="45.66725" lon="6.22425">
        <ele>2053</ele>
        <time>2019-10-17T09:51:47.660Z</time>
      </trkpt>
      <trkpt lat="45.66726" lon="6.22432">
        <ele>2057</ele>
        <time>2019-10-17T09:52:03.000Z</time>
      </trkpt>
      <trkpt lat="45.66719" lon="6.22435">
        <ele>2059</ele>
        <time>2019-10-17T09:52:10.000Z</time>
      </trkpt>
      <trkpt lat="45.66715" lon="6.22438">
        <ele>2067</ele>
        <time>2019-10-17T09:52:28.577Z</time>
      </trkpt>
      <trkpt lat="45.66711" lon="6.22445">
        <ele>2070</ele>
        <time>2019-10-17T09:52:45.859Z</time>
      </trkpt>
      <trkpt lat="45.66711" lon="6.22452">
        <ele>2072</ele>
        <time>2019-10-17T09:52:55.000Z</time>
      </trkpt>
      <trkpt lat="45.66711" lon="6.22459">
        <ele>2074</ele>
        <time>2019-10-17T09:53:05.000Z</time>
      </trkpt>
      <trkpt lat="45.6671" lon="6.22466">
        <ele>2076</ele>
        <time>2019-10-17T09:53:12.804Z</time>
      </trkpt>
      <trkpt lat="45.66707" lon="6.22473">
        <ele>2080</ele>
        <time>2019-10-17T09:53:31.225Z</time>
      </trkpt>
      <trkpt lat="45.66704" lon="6.2248">
        <ele>2084</ele>
        <time>2019-10-17T09:53:51.000Z</time>
      </trkpt>
      <trkpt lat="45.66704" lon="6.22488">
        <ele>2085</ele>
        <time>2019-10-17T09:53:59.848Z</time>
      </trkpt>
      <trkpt lat="45.66702" lon="6.22496">
        <ele>2089</ele>
        <time>2019-10-17T09:54:09.517Z</time>
      </trkpt>
      <trkpt lat="45.66706" lon="6.22501">
        <ele>2093</ele>
        <time>2019-10-17T09:54:25.739Z</time>
      </trkpt>
      <trkpt lat="45.66704" lon="6.22508">
        <ele>2103</ele>
        <time>2019-10-17T09:54:59.640Z</time>
      </trkpt>
      <trkpt lat="45.66703" lon="6.22517">
        <ele>2105</ele>
        <time>2019-10-17T09:55:07.185Z</time>
      </trkpt>
      <trkpt lat="45.66704" lon="6.22525">
        <ele>2107</ele>
        <time>2019-10-17T09:55:13.916Z</time>
      </trkpt>
      <trkpt lat="45.66703" lon="6.22532">
        <ele>2109</ele>
        <time>2019-10-17T09:55:26.000Z</time>
      </trkpt>
      <trkpt lat="45.66699" lon="6.22537">
        <ele>2115</ele>
        <time>2019-10-17T09:55:39.000Z</time>
      </trkpt>
      <trkpt lat="45.66696" lon="6.22544">
        <ele>2115</ele>
        <time>2019-10-17T09:55:44.771Z</time>
      </trkpt>
      <trkpt lat="45.66695" lon="6.2255">
        <ele>2116</ele>
        <time>2019-10-17T09:55:57.000Z</time>
      </trkpt>
      <trkpt lat="45.66701" lon="6.2255">
        <ele>2116</ele>
        <time>2019-10-17T09:56:22.000Z</time>
      </trkpt>
      <trkpt lat="45.66695" lon="6.22542">
        <ele>2117</ele>
        <time>2019-10-17T10:20:01.401Z</time>
      </trkpt>
      <trkpt lat="45.66699" lon="6.22537">
        <ele>2116</ele>
        <time>2019-10-17T10:20:11.822Z</time>
      </trkpt>
      <trkpt lat="45.66703" lon="6.22527">
        <ele>2113</ele>
        <time>2019-10-17T10:20:21.385Z</time>
      </trkpt>
      <trkpt lat="45.66701" lon="6.22519">
        <ele>2109</ele>
        <time>2019-10-17T10:20:28.036Z</time>
      </trkpt>
      <trkpt lat="45.667" lon="6.22513">
        <ele>2108</ele>
        <time>2019-10-17T10:20:34.821Z</time>
      </trkpt>
      <trkpt lat="45.66701" lon="6.22505">
        <ele>2103</ele>
        <time>2019-10-17T10:20:45.076Z</time>
      </trkpt>
      <trkpt lat="45.66705" lon="6.22498">
        <ele>2096</ele>
        <time>2019-10-17T10:21:00.000Z</time>
      </trkpt>
      <trkpt lat="45.66703" lon="6.22488">
        <ele>2094</ele>
        <time>2019-10-17T10:21:11.000Z</time>
      </trkpt>
      <trkpt lat="45.66704" lon="6.22482">
        <ele>2091</ele>
        <time>2019-10-17T10:21:17.838Z</time>
      </trkpt>
      <trkpt lat="45.66706" lon="6.22476">
        <ele>2085</ele>
        <time>2019-10-17T10:21:37.000Z</time>
      </trkpt>
      <trkpt lat="45.66709" lon="6.2247">
        <ele>2083</ele>
        <time>2019-10-17T10:21:46.808Z</time>
      </trkpt>
      <trkpt lat="45.66711" lon="6.22463">
        <ele>2078</ele>
        <time>2019-10-17T10:22:00.915Z</time>
      </trkpt>
      <trkpt lat="45.66709" lon="6.22457">
        <ele>2074</ele>
        <time>2019-10-17T10:22:15.668Z</time>
      </trkpt>
      <trkpt lat="45.66712" lon="6.2245">
        <ele>2071</ele>
        <time>2019-10-17T10:22:29.000Z</time>
      </trkpt>
      <trkpt lat="45.66715" lon="6.22443">
        <ele>2067</ele>
        <time>2019-10-17T10:22:41.472Z</time>
      </trkpt>
      <trkpt lat="45.6672" lon="6.2244">
        <ele>2064</ele>
        <time>2019-10-17T10:22:53.000Z</time>
      </trkpt>
      <trkpt lat="45.66723" lon="6.22434">
        <ele>2060</ele>
        <time>2019-10-17T10:23:10.000Z</time>
      </trkpt>
      <trkpt lat="45.66723" lon="6.22427">
        <ele>2058</ele>
        <time>2019-10-17T10:23:24.000Z</time>
      </trkpt>
      <trkpt lat="45.66726" lon="6.22421">
        <ele>2056</ele>
        <time>2019-10-17T10:23:33.126Z</time>
      </trkpt>
      <trkpt lat="45.6673" lon="6.22418">
        <ele>2051</ele>
        <time>2019-10-17T10:23:45.000Z</time>
      </trkpt>
      <trkpt lat="45.66731" lon="6.22412">
        <ele>2049</ele>
        <time>2019-10-17T10:23:57.771Z</time>
      </trkpt>
      <trkpt lat="45.66736" lon="6.2242">
        <ele>2044</ele>
        <time>2019-10-17T10:24:07.847Z</time>
      </trkpt>
      <trkpt lat="45.66737" lon="6.22426">
        <ele>2040</ele>
        <time>2019-10-17T10:24:14.144Z</time>
      </trkpt>
      <trkpt lat="45.66742" lon="6.22419">
        <ele>2035</ele>
        <time>2019-10-17T10:24:28.297Z</time>
      </trkpt>
      <trkpt lat="45.66751" lon="6.22397">
        <ele>2033</ele>
        <time>2019-10-17T10:24:36.000Z</time>
      </trkpt>
      <trkpt lat="45.66748" lon="6.22393">
        <ele>2032</ele>
        <time>2019-10-17T10:24:46.000Z</time>
      </trkpt>
      <trkpt lat="45.6676" lon="6.224">
        <ele>2028</ele>
        <time>2019-10-17T10:25:00.000Z</time>
      </trkpt>
      <trkpt lat="45.66765" lon="6.22404">
        <ele>2028</ele>
        <time>2019-10-17T10:25:05.567Z</time>
      </trkpt>
      <trkpt lat="45.66763" lon="6.22415">
        <ele>2026</ele>
        <time>2019-10-17T10:25:14.000Z</time>
      </trkpt>
      <trkpt lat="45.66769" lon="6.22423">
        <ele>2023</ele>
        <time>2019-10-17T10:25:19.599Z</time>
      </trkpt>
      <trkpt lat="45.66776" lon="6.22426">
        <ele>2019</ele>
        <time>2019-10-17T10:25:27.000Z</time>
      </trkpt>
      <trkpt lat="45.66782" lon="6.22432">
        <ele>2018</ele>
        <time>2019-10-17T10:25:34.000Z</time>
      </trkpt>
      <trkpt lat="45.66789" lon="6.22438">
        <ele>2014</ele>
        <time>2019-10-17T10:25:42.000Z</time>
      </trkpt>
      <trkpt lat="45.66792" lon="6.22443">
        <ele>2011</ele>
        <time>2019-10-17T10:25:47.796Z</time>
      </trkpt>
      <trkpt lat="45.66798" lon="6.22444">
        <ele>2011</ele>
        <time>2019-10-17T10:25:59.000Z</time>
      </trkpt>
      <trkpt lat="45.66799" lon="6.22453">
        <ele>2008</ele>
        <time>2019-10-17T10:27:07.000Z</time>
      </trkpt>
      <trkpt lat="45.66804" lon="6.22462">
        <ele>2006</ele>
        <time>2019-10-17T10:27:14.000Z</time>
      </trkpt>
      <trkpt lat="45.66808" lon="6.22471">
        <ele>2005</ele>
        <time>2019-10-17T10:27:19.459Z</time>
      </trkpt>
      <trkpt lat="45.66811" lon="6.22481">
        <ele>2003</ele>
        <time>2019-10-17T10:27:27.000Z</time>
      </trkpt>
      <trkpt lat="45.66816" lon="6.22485">
        <ele>2001</ele>
        <time>2019-10-17T10:27:33.501Z</time>
      </trkpt>
      <trkpt lat="45.66822" lon="6.22484">
        <ele>1995</ele>
        <time>2019-10-17T10:27:45.000Z</time>
      </trkpt>
      <trkpt lat="45.66823" lon="6.22473">
        <ele>1992</ele>
        <time>2019-10-17T10:27:51.000Z</time>
      </trkpt>
      <trkpt lat="45.66826" lon="6.22467">
        <ele>1989</ele>
        <time>2019-10-17T10:27:56.702Z</time>
      </trkpt>
      <trkpt lat="45.66831" lon="6.22466">
        <ele>1987</ele>
        <time>2019-10-17T10:28:04.000Z</time>
      </trkpt>
      <trkpt lat="45.66836" lon="6.22466">
        <ele>1987</ele>
        <time>2019-10-17T10:28:10.423Z</time>
      </trkpt>
      <trkpt lat="45.6684" lon="6.22462">
        <ele>1984</ele>
        <time>2019-10-17T10:28:17.076Z</time>
      </trkpt>
      <trkpt lat="45.66845" lon="6.22456">
        <ele>1978</ele>
        <time>2019-10-17T10:28:51.641Z</time>
      </trkpt>
      <trkpt lat="45.66849" lon="6.22452">
        <ele>1976</ele>
        <time>2019-10-17T10:28:58.104Z</time>
      </trkpt>
      <trkpt lat="45.66854" lon="6.2245">
        <ele>1976</ele>
        <time>2019-10-17T10:29:02.000Z</time>
      </trkpt>
      <trkpt lat="45.66858" lon="6.22445">
        <ele>1972</ele>
        <time>2019-10-17T10:29:08.022Z</time>
      </trkpt>
      <trkpt lat="45.66863" lon="6.22443">
        <ele>1971</ele>
        <time>2019-10-17T10:29:14.806Z</time>
      </trkpt>
      <trkpt lat="45.66868" lon="6.22449">
        <ele>1967</ele>
        <time>2019-10-17T10:29:21.734Z</time>
      </trkpt>
      <trkpt lat="45.66871" lon="6.22456">
        <ele>1962</ele>
        <time>2019-10-17T10:29:29.000Z</time>
      </trkpt>
      <trkpt lat="45.66875" lon="6.22452">
        <ele>1961</ele>
        <time>2019-10-17T10:29:34.592Z</time>
      </trkpt>
      <trkpt lat="45.66881" lon="6.22453">
        <ele>1962</ele>
        <time>2019-10-17T10:29:40.712Z</time>
      </trkpt>
      <trkpt lat="45.66887" lon="6.22453">
        <ele>1962</ele>
        <time>2019-10-17T10:29:49.000Z</time>
      </trkpt>
      <trkpt lat="45.66892" lon="6.22448">
        <ele>1960</ele>
        <time>2019-10-17T10:29:59.000Z</time>
      </trkpt>
      <trkpt lat="45.66896" lon="6.22448">
        <ele>1960</ele>
        <time>2019-10-17T10:30:08.581Z</time>
      </trkpt>
      <trkpt lat="45.66903" lon="6.22449">
        <ele>1959</ele>
        <time>2019-10-17T10:30:20.000Z</time>
      </trkpt>
      <trkpt lat="45.66909" lon="6.22452">
        <ele>1957</ele>
        <time>2019-10-17T10:30:28.000Z</time>
      </trkpt>
      <trkpt lat="45.66914" lon="6.22449">
        <ele>1953</ele>
        <time>2019-10-17T10:30:35.000Z</time>
      </trkpt>
      <trkpt lat="45.6692" lon="6.22448">
        <ele>1950</ele>
        <time>2019-10-17T10:30:41.954Z</time>
      </trkpt>
      <trkpt lat="45.66925" lon="6.22451">
        <ele>1954</ele>
        <time>2019-10-17T10:30:50.000Z</time>
      </trkpt>
      <trkpt lat="45.6693" lon="6.22454">
        <ele>1949</ele>
        <time>2019-10-17T10:30:55.900Z</time>
      </trkpt>
      <trkpt lat="45.66937" lon="6.22456">
        <ele>1947</ele>
        <time>2019-10-17T10:31:02.650Z</time>
      </trkpt>
      <trkpt lat="45.66942" lon="6.22459">
        <ele>1944</ele>
        <time>2019-10-17T10:31:09.080Z</time>
      </trkpt>
      <trkpt lat="45.66949" lon="6.22455">
        <ele>1943</ele>
        <time>2019-10-17T10:31:16.099Z</time>
      </trkpt>
      <trkpt lat="45.66957" lon="6.22452">
        <ele>1943</ele>
        <time>2019-10-17T10:31:22.595Z</time>
      </trkpt>
      <trkpt lat="45.66966" lon="6.22452">
        <ele>1942</ele>
        <time>2019-10-17T10:31:29.923Z</time>
      </trkpt>
      <trkpt lat="45.6697" lon="6.22455">
        <ele>1943</ele>
        <time>2019-10-17T10:31:38.000Z</time>
      </trkpt>
      <trkpt lat="45.66976" lon="6.22453">
        <ele>1939</ele>
        <time>2019-10-17T10:31:51.562Z</time>
      </trkpt>
      <trkpt lat="45.66983" lon="6.22452">
        <ele>1939</ele>
        <time>2019-10-17T10:32:03.000Z</time>
      </trkpt>
      <trkpt lat="45.6699" lon="6.22454">
        <ele>1940</ele>
        <time>2019-10-17T10:32:10.000Z</time>
      </trkpt>
      <trkpt lat="45.66998" lon="6.22455">
        <ele>1941</ele>
        <time>2019-10-17T10:32:20.000Z</time>
      </trkpt>
      <trkpt lat="45.67005" lon="6.2246">
        <ele>1943</ele>
        <time>2019-10-17T10:32:25.659Z</time>
      </trkpt>
      <trkpt lat="45.67009" lon="6.22461">
        <ele>1944</ele>
        <time>2019-10-17T10:32:30.000Z</time>
      </trkpt>
      <trkpt lat="45.67015" lon="6.22464">
        <ele>1943</ele>
        <time>2019-10-17T10:32:35.418Z</time>
      </trkpt>
      <trkpt lat="45.6702" lon="6.22468">
        <ele>1942</ele>
        <time>2019-10-17T10:32:42.401Z</time>
      </trkpt>
      <trkpt lat="45.67024" lon="6.22464">
        <ele>1940</ele>
        <time>2019-10-17T10:32:48.706Z</time>
      </trkpt>
      <trkpt lat="45.6703" lon="6.22462">
        <ele>1940</ele>
        <time>2019-10-17T10:32:56.000Z</time>
      </trkpt>
      <trkpt lat="45.67034" lon="6.22464">
        <ele>1939</ele>
        <time>2019-10-17T10:33:01.894Z</time>
      </trkpt>
      <trkpt lat="45.6704" lon="6.22469">
        <ele>1938</ele>
        <time>2019-10-17T10:33:10.000Z</time>
      </trkpt>
      <trkpt lat="45.67045" lon="6.22473">
        <ele>1936</ele>
        <time>2019-10-17T10:33:16.103Z</time>
      </trkpt>
      <trkpt lat="45.6705" lon="6.22475">
        <ele>1935</ele>
        <time>2019-10-17T10:33:24.000Z</time>
      </trkpt>
      <trkpt lat="45.67055" lon="6.22477">
        <ele>1934</ele>
        <time>2019-10-17T10:33:31.000Z</time>
      </trkpt>
      <trkpt lat="45.67059" lon="6.22476">
        <ele>1933</ele>
        <time>2019-10-17T10:33:41.000Z</time>
      </trkpt>
      <trkpt lat="45.67063" lon="6.2248">
        <ele>1929</ele>
        <time>2019-10-17T10:33:47.618Z</time>
      </trkpt>
      <trkpt lat="45.67066" lon="6.22486">
        <ele>1928</ele>
        <time>2019-10-17T10:33:55.000Z</time>
      </trkpt>
      <trkpt lat="45.67069" lon="6.2249">
        <ele>1926</ele>
        <time>2019-10-17T10:34:00.656Z</time>
      </trkpt>
      <trkpt lat="45.67074" lon="6.22493">
        <ele>1926</ele>
        <time>2019-10-17T10:34:08.000Z</time>
      </trkpt>
      <trkpt lat="45.67079" lon="6.22497">
        <ele>1923</ele>
        <time>2019-10-17T10:34:17.028Z</time>
      </trkpt>
      <trkpt lat="45.67085" lon="6.225">
        <ele>1917</ele>
        <time>2019-10-17T10:34:30.065Z</time>
      </trkpt>
      <trkpt lat="45.67089" lon="6.225">
        <ele>1912</ele>
        <time>2019-10-17T10:34:40.778Z</time>
      </trkpt>
      <trkpt lat="45.67094" lon="6.22505">
        <ele>1911</ele>
        <time>2019-10-17T10:34:53.958Z</time>
      </trkpt>
      <trkpt lat="45.67098" lon="6.22508">
        <ele>1907</ele>
        <time>2019-10-17T10:35:13.000Z</time>
      </trkpt>
      <trkpt lat="45.67103" lon="6.22511">
        <ele>1908</ele>
        <time>2019-10-17T10:35:19.530Z</time>
      </trkpt>
      <trkpt lat="45.67107" lon="6.22515">
        <ele>1908</ele>
        <time>2019-10-17T10:35:27.000Z</time>
      </trkpt>
      <trkpt lat="45.67111" lon="6.22522">
        <ele>1904</ele>
        <time>2019-10-17T10:35:37.000Z</time>
      </trkpt>
      <trkpt lat="45.67115" lon="6.22529">
        <ele>1903</ele>
        <time>2019-10-17T10:35:44.000Z</time>
      </trkpt>
      <trkpt lat="45.67119" lon="6.22536">
        <ele>1901</ele>
        <time>2019-10-17T10:35:46.798Z</time>
      </trkpt>
      <trkpt lat="45.67125" lon="6.22541">
        <ele>1898</ele>
        <time>2019-10-17T10:35:54.684Z</time>
      </trkpt>
      <trkpt lat="45.67131" lon="6.22545">
        <ele>1898</ele>
        <time>2019-10-17T10:36:02.000Z</time>
      </trkpt>
      <trkpt lat="45.67133" lon="6.2255">
        <ele>1898</ele>
        <time>2019-10-17T10:36:05.000Z</time>
      </trkpt>
      <trkpt lat="45.67139" lon="6.22555">
        <ele>1897</ele>
        <time>2019-10-17T10:36:14.538Z</time>
      </trkpt>
      <trkpt lat="45.67145" lon="6.22554">
        <ele>1897</ele>
        <time>2019-10-17T10:36:23.000Z</time>
      </trkpt>
      <trkpt lat="45.67156" lon="6.22556">
        <ele>1902</ele>
        <time>2019-10-17T10:39:06.579Z</time>
      </trkpt>
      <trkpt lat="45.67163" lon="6.22559">
        <ele>1902</ele>
        <time>2019-10-17T10:39:13.074Z</time>
      </trkpt>
      <trkpt lat="45.67168" lon="6.22559">
        <ele>1900</ele>
        <time>2019-10-17T10:39:19.819Z</time>
      </trkpt>
      <trkpt lat="45.67175" lon="6.22558">
        <ele>1903</ele>
        <time>2019-10-17T10:39:26.311Z</time>
      </trkpt>
      <trkpt lat="45.6718" lon="6.22558">
        <ele>1905</ele>
        <time>2019-10-17T10:39:34.000Z</time>
      </trkpt>
      <trkpt lat="45.67186" lon="6.22562">
        <ele>1904</ele>
        <time>2019-10-17T10:39:40.465Z</time>
      </trkpt>
      <trkpt lat="45.67191" lon="6.22567">
        <ele>1907</ele>
        <time>2019-10-17T10:39:47.381Z</time>
      </trkpt>
      <trkpt lat="45.67198" lon="6.2257">
        <ele>1908</ele>
        <time>2019-10-17T10:39:54.075Z</time>
      </trkpt>
      <trkpt lat="45.67202" lon="6.22576">
        <ele>1909</ele>
        <time>2019-10-17T10:40:00.813Z</time>
      </trkpt>
      <trkpt lat="45.67206" lon="6.22583">
        <ele>1908</ele>
        <time>2019-10-17T10:40:07.430Z</time>
      </trkpt>
      <trkpt lat="45.6721" lon="6.22589">
        <ele>1909</ele>
        <time>2019-10-17T10:40:13.746Z</time>
      </trkpt>
      <trkpt lat="45.67214" lon="6.22594">
        <ele>1910</ele>
        <time>2019-10-17T10:40:20.312Z</time>
      </trkpt>
      <trkpt lat="45.67218" lon="6.22601">
        <ele>1911</ele>
        <time>2019-10-17T10:40:27.536Z</time>
      </trkpt>
      <trkpt lat="45.67222" lon="6.22609">
        <ele>1912</ele>
        <time>2019-10-17T10:40:34.074Z</time>
      </trkpt>
      <trkpt lat="45.67223" lon="6.22616">
        <ele>1910</ele>
        <time>2019-10-17T10:40:39.000Z</time>
      </trkpt>
      <trkpt lat="45.67225" lon="6.22623">
        <ele>1910</ele>
        <time>2019-10-17T10:40:41.875Z</time>
      </trkpt>
      <trkpt lat="45.67228" lon="6.2263">
        <ele>1911</ele>
        <time>2019-10-17T10:40:49.000Z</time>
      </trkpt>
      <trkpt lat="45.67233" lon="6.2264">
        <ele>1911</ele>
        <time>2019-10-17T10:40:58.776Z</time>
      </trkpt>
      <trkpt lat="45.67235" lon="6.2265">
        <ele>1914</ele>
        <time>2019-10-17T10:41:05.594Z</time>
      </trkpt>
      <trkpt lat="45.67234" lon="6.22656">
        <ele>1915</ele>
        <time>2019-10-17T10:41:13.000Z</time>
      </trkpt>
      <trkpt lat="45.67236" lon="6.22664">
        <ele>1914</ele>
        <time>2019-10-17T10:41:20.000Z</time>
      </trkpt>
      <trkpt lat="45.67244" lon="6.22676">
        <ele>1914</ele>
        <time>2019-10-17T10:41:25.823Z</time>
      </trkpt>
      <trkpt lat="45.67248" lon="6.22682">
        <ele>1913</ele>
        <time>2019-10-17T10:41:37.000Z</time>
      </trkpt>
      <trkpt lat="45.67251" lon="6.22691">
        <ele>1913</ele>
        <time>2019-10-17T10:41:44.000Z</time>
      </trkpt>
      <trkpt lat="45.67255" lon="6.22698">
        <ele>1910</ele>
        <time>2019-10-17T10:41:51.000Z</time>
      </trkpt>
      <trkpt lat="45.67259" lon="6.22705">
        <ele>1913</ele>
        <time>2019-10-17T10:41:56.781Z</time>
      </trkpt>
      <trkpt lat="45.67262" lon="6.22714">
        <ele>1915</ele>
        <time>2019-10-17T10:42:04.000Z</time>
      </trkpt>
      <trkpt lat="45.67262" lon="6.22724">
        <ele>1917</ele>
        <time>2019-10-17T10:42:07.000Z</time>
      </trkpt>
      <trkpt lat="45.67264" lon="6.2273">
        <ele>1916</ele>
        <time>2019-10-17T10:42:14.000Z</time>
      </trkpt>
      <trkpt lat="45.67267" lon="6.22737">
        <ele>1915</ele>
        <time>2019-10-17T10:42:19.499Z</time>
      </trkpt>
      <trkpt lat="45.67271" lon="6.22741">
        <ele>1915</ele>
        <time>2019-10-17T10:42:24.000Z</time>
      </trkpt>
      <trkpt lat="45.67276" lon="6.22749">
        <ele>1915</ele>
        <time>2019-10-17T10:42:30.065Z</time>
      </trkpt>
      <trkpt lat="45.67279" lon="6.22758">
        <ele>1915</ele>
        <time>2019-10-17T10:42:38.000Z</time>
      </trkpt>
      <trkpt lat="45.67282" lon="6.22765">
        <ele>1915</ele>
        <time>2019-10-17T10:42:44.104Z</time>
      </trkpt>
      <trkpt lat="45.67284" lon="6.22772">
        <ele>1918</ele>
        <time>2019-10-17T10:42:50.702Z</time>
      </trkpt>
      <trkpt lat="45.67289" lon="6.22779">
        <ele>1919</ele>
        <time>2019-10-17T10:42:58.000Z</time>
      </trkpt>
      <trkpt lat="45.67291" lon="6.22785">
        <ele>1920</ele>
        <time>2019-10-17T10:43:03.604Z</time>
      </trkpt>
      <trkpt lat="45.67296" lon="6.22787">
        <ele>1921</ele>
        <time>2019-10-17T10:43:11.000Z</time>
      </trkpt>
      <trkpt lat="45.67304" lon="6.22787">
        <ele>1922</ele>
        <time>2019-10-17T10:43:55.613Z</time>
      </trkpt>
      <trkpt lat="45.67311" lon="6.22788">
        <ele>1921</ele>
        <time>2019-10-17T10:44:02.960Z</time>
      </trkpt>
      <trkpt lat="45.67315" lon="6.22797">
        <ele>1919</ele>
        <time>2019-10-17T10:44:10.000Z</time>
      </trkpt>
      <trkpt lat="45.67322" lon="6.22793">
        <ele>1917</ele>
        <time>2019-10-17T10:44:21.000Z</time>
      </trkpt>
      <trkpt lat="45.6734" lon="6.22806">
        <ele>1917</ele>
        <time>2019-10-17T10:44:30.435Z</time>
      </trkpt>
      <trkpt lat="45.67346" lon="6.22808">
        <ele>1917</ele>
        <time>2019-10-17T10:44:36.782Z</time>
      </trkpt>
      <trkpt lat="45.67351" lon="6.22808">
        <ele>1917</ele>
        <time>2019-10-17T10:44:41.000Z</time>
      </trkpt>
      <trkpt lat="45.67357" lon="6.2281">
        <ele>1919</ele>
        <time>2019-10-17T10:44:45.000Z</time>
      </trkpt>
      <trkpt lat="45.67362" lon="6.22808">
        <ele>1918</ele>
        <time>2019-10-17T10:44:47.888Z</time>
      </trkpt>
      <trkpt lat="45.67368" lon="6.22811">
        <ele>1918</ele>
        <time>2019-10-17T10:44:56.000Z</time>
      </trkpt>
      <trkpt lat="45.67372" lon="6.22816">
        <ele>1918</ele>
        <time>2019-10-17T10:45:02.000Z</time>
      </trkpt>
      <trkpt lat="45.6738" lon="6.22817">
        <ele>1918</ele>
        <time>2019-10-17T10:45:07.890Z</time>
      </trkpt>
      <trkpt lat="45.67384" lon="6.22819">
        <ele>1918</ele>
        <time>2019-10-17T10:45:12.000Z</time>
      </trkpt>
      <trkpt lat="45.67391" lon="6.22825">
        <ele>1918</ele>
        <time>2019-10-17T10:45:17.924Z</time>
      </trkpt>
      <trkpt lat="45.67397" lon="6.22834">
        <ele>1920</ele>
        <time>2019-10-17T10:45:25.193Z</time>
      </trkpt>
      <trkpt lat="45.67401" lon="6.22843">
        <ele>1919</ele>
        <time>2019-10-17T10:45:32.098Z</time>
      </trkpt>
      <trkpt lat="45.67402" lon="6.22851">
        <ele>1920</ele>
        <time>2019-10-17T10:45:37.000Z</time>
      </trkpt>
      <trkpt lat="45.67402" lon="6.22859">
        <ele>1919</ele>
        <time>2019-10-17T10:45:39.401Z</time>
      </trkpt>
      <trkpt lat="45.67401" lon="6.22871">
        <ele>1920</ele>
        <time>2019-10-17T10:45:46.593Z</time>
      </trkpt>
      <trkpt lat="45.67403" lon="6.22881">
        <ele>1923</ele>
        <time>2019-10-17T10:45:52.875Z</time>
      </trkpt>
      <trkpt lat="45.67409" lon="6.22891">
        <ele>1923</ele>
        <time>2019-10-17T10:45:56.355Z</time>
      </trkpt>
      <trkpt lat="45.67412" lon="6.229">
        <ele>1924</ele>
        <time>2019-10-17T10:46:04.000Z</time>
      </trkpt>
      <trkpt lat="45.67416" lon="6.22905">
        <ele>1923</ele>
        <time>2019-10-17T10:46:09.760Z</time>
      </trkpt>
      <trkpt lat="45.6742" lon="6.22912">
        <ele>1923</ele>
        <time>2019-10-17T10:46:17.000Z</time>
      </trkpt>
      <trkpt lat="45.67426" lon="6.22916">
        <ele>1923</ele>
        <time>2019-10-17T10:46:22.976Z</time>
      </trkpt>
      <trkpt lat="45.67433" lon="6.2292">
        <ele>1923</ele>
        <time>2019-10-17T10:46:30.000Z</time>
      </trkpt>
      <trkpt lat="45.67438" lon="6.22922">
        <ele>1924</ele>
        <time>2019-10-17T10:46:37.000Z</time>
      </trkpt>
      <trkpt lat="45.67444" lon="6.22921">
        <ele>1919</ele>
        <time>2019-10-17T10:46:46.124Z</time>
      </trkpt>
      <trkpt lat="45.67453" lon="6.22924">
        <ele>1918</ele>
        <time>2019-10-17T10:46:52.997Z</time>
      </trkpt>
      <trkpt lat="45.67458" lon="6.22929">
        <ele>1916</ele>
        <time>2019-10-17T10:47:01.000Z</time>
      </trkpt>
      <trkpt lat="45.67464" lon="6.22931">
        <ele>1912</ele>
        <time>2019-10-17T10:47:10.622Z</time>
      </trkpt>
      <trkpt lat="45.67465" lon="6.22938">
        <ele>1912</ele>
        <time>2019-10-17T10:47:18.000Z</time>
      </trkpt>
      <trkpt lat="45.67472" lon="6.22944">
        <ele>1911</ele>
        <time>2019-10-17T10:47:24.037Z</time>
      </trkpt>
      <trkpt lat="45.67476" lon="6.22951">
        <ele>1910</ele>
        <time>2019-10-17T10:47:32.000Z</time>
      </trkpt>
      <trkpt lat="45.6748" lon="6.22955">
        <ele>1907</ele>
        <time>2019-10-17T10:47:41.234Z</time>
      </trkpt>
      <trkpt lat="45.67485" lon="6.22956">
        <ele>1905</ele>
        <time>2019-10-17T10:47:52.074Z</time>
      </trkpt>
      <trkpt lat="45.6749" lon="6.2296">
        <ele>1901</ele>
        <time>2019-10-17T10:48:02.042Z</time>
      </trkpt>
      <trkpt lat="45.67494" lon="6.22966">
        <ele>1898</ele>
        <time>2019-10-17T10:48:08.727Z</time>
      </trkpt>
      <trkpt lat="45.67495" lon="6.22976">
        <ele>1894</ele>
        <time>2019-10-17T10:48:17.000Z</time>
      </trkpt>
      <trkpt lat="45.67495" lon="6.22983">
        <ele>1893</ele>
        <time>2019-10-17T10:48:24.000Z</time>
      </trkpt>
      <trkpt lat="45.67497" lon="6.22991">
        <ele>1892</ele>
        <time>2019-10-17T10:49:27.000Z</time>
      </trkpt>
      <trkpt lat="45.67502" lon="6.22996">
        <ele>1884</ele>
        <time>2019-10-17T10:49:40.678Z</time>
      </trkpt>
      <trkpt lat="45.67504" lon="6.23004">
        <ele>1881</ele>
        <time>2019-10-17T10:50:05.000Z</time>
      </trkpt>
      <trkpt lat="45.67505" lon="6.23015">
        <ele>1880</ele>
        <time>2019-10-17T10:50:18.000Z</time>
      </trkpt>
      <trkpt lat="45.67507" lon="6.23022">
        <ele>1879</ele>
        <time>2019-10-17T10:50:20.959Z</time>
      </trkpt>
      <trkpt lat="45.67512" lon="6.23027">
        <ele>1877</ele>
        <time>2019-10-17T10:51:53.000Z</time>
      </trkpt>
      <trkpt lat="45.67514" lon="6.23037">
        <ele>1873</ele>
        <time>2019-10-17T10:52:02.343Z</time>
      </trkpt>
      <trkpt lat="45.67515" lon="6.23043">
        <ele>1872</ele>
        <time>2019-10-17T10:52:05.646Z</time>
      </trkpt>
      <trkpt lat="45.67517" lon="6.2305">
        <ele>1871</ele>
        <time>2019-10-17T10:52:13.000Z</time>
      </trkpt>
      <trkpt lat="45.67517" lon="6.23061">
        <ele>1870</ele>
        <time>2019-10-17T10:52:29.000Z</time>
      </trkpt>
      <trkpt lat="45.67524" lon="6.23071">
        <ele>1869</ele>
        <time>2019-10-17T10:52:34.911Z</time>
      </trkpt>
      <trkpt lat="45.67531" lon="6.23077">
        <ele>1867</ele>
        <time>2019-10-17T10:52:42.000Z</time>
      </trkpt>
      <trkpt lat="45.67539" lon="6.23083">
        <ele>1866</ele>
        <time>2019-10-17T10:52:50.000Z</time>
      </trkpt>
      <trkpt lat="45.67543" lon="6.23089">
        <ele>1865</ele>
        <time>2019-10-17T10:52:52.599Z</time>
      </trkpt>
      <trkpt lat="45.6755" lon="6.23094">
        <ele>1864</ele>
        <time>2019-10-17T10:53:00.000Z</time>
      </trkpt>
      <trkpt lat="45.67554" lon="6.23101">
        <ele>1864</ele>
        <time>2019-10-17T10:53:05.562Z</time>
      </trkpt>
      <trkpt lat="45.67559" lon="6.23104">
        <ele>1862</ele>
        <time>2019-10-17T10:53:09.144Z</time>
      </trkpt>
      <trkpt lat="45.67566" lon="6.23102">
        <ele>1861</ele>
        <time>2019-10-17T10:53:16.001Z</time>
      </trkpt>
      <trkpt lat="45.67572" lon="6.23111">
        <ele>1858</ele>
        <time>2019-10-17T10:53:23.074Z</time>
      </trkpt>
      <trkpt lat="45.67574" lon="6.23121">
        <ele>1859</ele>
        <time>2019-10-17T10:53:26.763Z</time>
      </trkpt>
      <trkpt lat="45.67574" lon="6.23128">
        <ele>1859</ele>
        <time>2019-10-17T10:53:31.000Z</time>
      </trkpt>
      <trkpt lat="45.67573" lon="6.23135">
        <ele>1858</ele>
        <time>2019-10-17T10:53:33.121Z</time>
      </trkpt>
      <trkpt lat="45.67578" lon="6.2314">
        <ele>1856</ele>
        <time>2019-10-17T10:53:36.536Z</time>
      </trkpt>
      <trkpt lat="45.67583" lon="6.23143">
        <ele>1855</ele>
        <time>2019-10-17T10:53:39.740Z</time>
      </trkpt>
      <trkpt lat="45.67588" lon="6.23147">
        <ele>1856</ele>
        <time>2019-10-17T10:53:46.873Z</time>
      </trkpt>
      <trkpt lat="45.67593" lon="6.23155">
        <ele>1855</ele>
        <time>2019-10-17T10:53:54.000Z</time>
      </trkpt>
      <trkpt lat="45.67598" lon="6.2316">
        <ele>1854</ele>
        <time>2019-10-17T10:54:07.000Z</time>
      </trkpt>
      <trkpt lat="45.67601" lon="6.23165">
        <ele>1852</ele>
        <time>2019-10-17T10:54:14.000Z</time>
      </trkpt>
      <trkpt lat="45.67605" lon="6.23171">
        <ele>1852</ele>
        <time>2019-10-17T10:54:52.789Z</time>
      </trkpt>
      <trkpt lat="45.67611" lon="6.23173">
        <ele>1850</ele>
        <time>2019-10-17T10:55:01.000Z</time>
      </trkpt>
      <trkpt lat="45.67616" lon="6.23175">
        <ele>1849</ele>
        <time>2019-10-17T10:55:06.575Z</time>
      </trkpt>
      <trkpt lat="45.67622" lon="6.23181">
        <ele>1848</ele>
        <time>2019-10-17T10:55:13.389Z</time>
      </trkpt>
      <trkpt lat="45.67627" lon="6.23189">
        <ele>1846</ele>
        <time>2019-10-17T10:55:19.795Z</time>
      </trkpt>
      <trkpt lat="45.6763" lon="6.23195">
        <ele>1847</ele>
        <time>2019-10-17T10:55:24.000Z</time>
      </trkpt>
      <trkpt lat="45.67635" lon="6.23202">
        <ele>1848</ele>
        <time>2019-10-17T10:55:29.656Z</time>
      </trkpt>
      <trkpt lat="45.67637" lon="6.2321">
        <ele>1846</ele>
        <time>2019-10-17T10:55:37.000Z</time>
      </trkpt>
      <trkpt lat="45.67643" lon="6.23209">
        <ele>1844</ele>
        <time>2019-10-17T10:55:45.899Z</time>
      </trkpt>
      <trkpt lat="45.67649" lon="6.23218">
        <ele>1842</ele>
        <time>2019-10-17T10:55:57.000Z</time>
      </trkpt>
      <trkpt lat="45.67654" lon="6.23227">
        <ele>1840</ele>
        <time>2019-10-17T10:56:02.620Z</time>
      </trkpt>
      <trkpt lat="45.67658" lon="6.23236">
        <ele>1839</ele>
        <time>2019-10-17T10:56:09.436Z</time>
      </trkpt>
      <trkpt lat="45.67661" lon="6.23243">
        <ele>1838</ele>
        <time>2019-10-17T10:56:18.000Z</time>
      </trkpt>
      <trkpt lat="45.67662" lon="6.23251">
        <ele>1837</ele>
        <time>2019-10-17T10:56:23.623Z</time>
      </trkpt>
      <trkpt lat="45.67669" lon="6.23255">
        <ele>1833</ele>
        <time>2019-10-17T10:56:31.000Z</time>
      </trkpt>
      <trkpt lat="45.67673" lon="6.23257">
        <ele>1831</ele>
        <time>2019-10-17T10:56:38.000Z</time>
      </trkpt>
      <trkpt lat="45.67677" lon="6.23262">
        <ele>1828</ele>
        <time>2019-10-17T10:56:47.072Z</time>
      </trkpt>
      <trkpt lat="45.67681" lon="6.23265">
        <ele>1827</ele>
        <time>2019-10-17T10:56:53.538Z</time>
      </trkpt>
      <trkpt lat="45.67685" lon="6.23269">
        <ele>1823</ele>
        <time>2019-10-17T10:57:01.000Z</time>
      </trkpt>
      <trkpt lat="45.6769" lon="6.23272">
        <ele>1822</ele>
        <time>2019-10-17T10:57:08.000Z</time>
      </trkpt>
      <trkpt lat="45.67696" lon="6.23275">
        <ele>1818</ele>
        <time>2019-10-17T10:57:18.000Z</time>
      </trkpt>
      <trkpt lat="45.67702" lon="6.23281">
        <ele>1816</ele>
        <time>2019-10-17T10:57:28.000Z</time>
      </trkpt>
      <trkpt lat="45.67707" lon="6.23289">
        <ele>1812</ele>
        <time>2019-10-17T10:57:35.000Z</time>
      </trkpt>
      <trkpt lat="45.6771" lon="6.23294">
        <ele>1810</ele>
        <time>2019-10-17T10:57:40.565Z</time>
      </trkpt>
      <trkpt lat="45.67714" lon="6.23299">
        <ele>1807</ele>
        <time>2019-10-17T10:57:52.000Z</time>
      </trkpt>
      <trkpt lat="45.67717" lon="6.23306">
        <ele>1806</ele>
        <time>2019-10-17T10:58:03.000Z</time>
      </trkpt>
      <trkpt lat="45.67721" lon="6.23313">
        <ele>1804</ele>
        <time>2019-10-17T10:58:15.786Z</time>
      </trkpt>
      <trkpt lat="45.67722" lon="6.23319">
        <ele>1803</ele>
        <time>2019-10-17T10:58:23.000Z</time>
      </trkpt>
      <trkpt lat="45.67727" lon="6.23324">
        <ele>1803</ele>
        <time>2019-10-17T10:58:30.000Z</time>
      </trkpt>
      <trkpt lat="45.67731" lon="6.23328">
        <ele>1803</ele>
        <time>2019-10-17T10:58:35.832Z</time>
      </trkpt>
      <trkpt lat="45.67733" lon="6.23336">
        <ele>1804</ele>
        <time>2019-10-17T10:58:42.647Z</time>
      </trkpt>
      <trkpt lat="45.67735" lon="6.23343">
        <ele>1806</ele>
        <time>2019-10-17T10:58:53.000Z</time>
      </trkpt>
      <trkpt lat="45.6774" lon="6.23341">
        <ele>1806</ele>
        <time>2019-10-17T10:59:13.000Z</time>
      </trkpt>
      <trkpt lat="45.67746" lon="6.23341">
        <ele>1803</ele>
        <time>2019-10-17T10:59:25.068Z</time>
      </trkpt>
      <trkpt lat="45.67754" lon="6.23345">
        <ele>1805</ele>
        <time>2019-10-17T10:59:36.000Z</time>
      </trkpt>
      <trkpt lat="45.67754" lon="6.23353">
        <ele>1806</ele>
        <time>2019-10-17T10:59:42.865Z</time>
      </trkpt>
      <trkpt lat="45.67756" lon="6.2336">
        <ele>1806</ele>
        <time>2019-10-17T10:59:49.990Z</time>
      </trkpt>
      <trkpt lat="45.67759" lon="6.23368">
        <ele>1807</ele>
        <time>2019-10-17T10:59:56.742Z</time>
      </trkpt>
      <trkpt lat="45.67763" lon="6.23374">
        <ele>1807</ele>
        <time>2019-10-17T11:00:03.680Z</time>
      </trkpt>
      <trkpt lat="45.67763" lon="6.23384">
        <ele>1807</ele>
        <time>2019-10-17T11:00:11.000Z</time>
      </trkpt>
      <trkpt lat="45.67766" lon="6.23392">
        <ele>1807</ele>
        <time>2019-10-17T11:00:17.555Z</time>
      </trkpt>
      <trkpt lat="45.67771" lon="6.23396">
        <ele>1806</ele>
        <time>2019-10-17T11:00:23.934Z</time>
      </trkpt>
      <trkpt lat="45.67777" lon="6.23401">
        <ele>1807</ele>
        <time>2019-10-17T11:00:32.000Z</time>
      </trkpt>
      <trkpt lat="45.67785" lon="6.23404">
        <ele>1806</ele>
        <time>2019-10-17T11:00:38.938Z</time>
      </trkpt>
      <trkpt lat="45.6779" lon="6.23407">
        <ele>1804</ele>
        <time>2019-10-17T11:00:44.995Z</time>
      </trkpt>
      <trkpt lat="45.67795" lon="6.23413">
        <ele>1804</ele>
        <time>2019-10-17T11:00:51.750Z</time>
      </trkpt>
      <trkpt lat="45.67801" lon="6.23418">
        <ele>1803</ele>
        <time>2019-10-17T11:00:58.833Z</time>
      </trkpt>
      <trkpt lat="45.67807" lon="6.23418">
        <ele>1801</ele>
        <time>2019-10-17T11:01:06.000Z</time>
      </trkpt>
      <trkpt lat="45.67815" lon="6.2342">
        <ele>1801</ele>
        <time>2019-10-17T11:01:12.032Z</time>
      </trkpt>
      <trkpt lat="45.67822" lon="6.2342">
        <ele>1800</ele>
        <time>2019-10-17T11:01:19.000Z</time>
      </trkpt>
      <trkpt lat="45.67827" lon="6.23417">
        <ele>1800</ele>
        <time>2019-10-17T11:01:26.000Z</time>
      </trkpt>
      <trkpt lat="45.67832" lon="6.23409">
        <ele>1801</ele>
        <time>2019-10-17T11:01:31.642Z</time>
      </trkpt>
      <trkpt lat="45.67838" lon="6.23405">
        <ele>1800</ele>
        <time>2019-10-17T11:01:39.000Z</time>
      </trkpt>
      <trkpt lat="45.67846" lon="6.23405">
        <ele>1800</ele>
        <time>2019-10-17T11:01:45.081Z</time>
      </trkpt>
      <trkpt lat="45.67852" lon="6.23409">
        <ele>1800</ele>
        <time>2019-10-17T11:01:51.178Z</time>
      </trkpt>
      <trkpt lat="45.67861" lon="6.2341">
        <ele>1799</ele>
        <time>2019-10-17T11:01:58.131Z</time>
      </trkpt>
      <trkpt lat="45.67867" lon="6.23412">
        <ele>1799</ele>
        <time>2019-10-17T11:02:01.746Z</time>
      </trkpt>
      <trkpt lat="45.67874" lon="6.2341">
        <ele>1799</ele>
        <time>2019-10-17T11:02:08.280Z</time>
      </trkpt>
      <trkpt lat="45.67878" lon="6.23405">
        <ele>1799</ele>
        <time>2019-10-17T11:02:17.000Z</time>
      </trkpt>
      <trkpt lat="45.67873" lon="6.23406">
        <ele>1798</ele>
        <time>2019-10-17T11:02:38.000Z</time>
      </trkpt>
      <trkpt lat="45.67872" lon="6.23414">
        <ele>1797</ele>
        <time>2019-10-17T11:02:48.000Z</time>
      </trkpt>
      <trkpt lat="45.67876" lon="6.23422">
        <ele>1797</ele>
        <time>2019-10-17T11:02:53.926Z</time>
      </trkpt>
      <trkpt lat="45.67879" lon="6.23428">
        <ele>1797</ele>
        <time>2019-10-17T11:03:01.039Z</time>
      </trkpt>
      <trkpt lat="45.67879" lon="6.23435">
        <ele>1798</ele>
        <time>2019-10-17T11:03:09.000Z</time>
      </trkpt>
      <trkpt lat="45.67887" lon="6.2344">
        <ele>1801</ele>
        <time>2019-10-17T11:03:19.000Z</time>
      </trkpt>
      <trkpt lat="45.67891" lon="6.23439">
        <ele>1798</ele>
        <time>2019-10-17T11:03:24.967Z</time>
      </trkpt>
      <trkpt lat="45.67894" lon="6.23445">
        <ele>1800</ele>
        <time>2019-10-17T11:03:32.000Z</time>
      </trkpt>
      <trkpt lat="45.67895" lon="6.23451">
        <ele>1799</ele>
        <time>2019-10-17T11:03:39.000Z</time>
      </trkpt>
      <trkpt lat="45.67897" lon="6.23462">
        <ele>1800</ele>
        <time>2019-10-17T11:03:45.271Z</time>
      </trkpt>
      <trkpt lat="45.67902" lon="6.23463">
        <ele>1798</ele>
        <time>2019-10-17T11:03:52.695Z</time>
      </trkpt>
      <trkpt lat="45.67908" lon="6.23467">
        <ele>1797</ele>
        <time>2019-10-17T11:04:02.427Z</time>
      </trkpt>
      <trkpt lat="45.67914" lon="6.23476">
        <ele>1796</ele>
        <time>2019-10-17T11:04:09.360Z</time>
      </trkpt>
      <trkpt lat="45.67919" lon="6.23481">
        <ele>1795</ele>
        <time>2019-10-17T11:04:15.727Z</time>
      </trkpt>
      <trkpt lat="45.67929" lon="6.23484">
        <ele>1791</ele>
        <time>2019-10-17T11:04:24.000Z</time>
      </trkpt>
      <trkpt lat="45.67936" lon="6.23488">
        <ele>1791</ele>
        <time>2019-10-17T11:04:31.000Z</time>
      </trkpt>
      <trkpt lat="45.67944" lon="6.23494">
        <ele>1788</ele>
        <time>2019-10-17T11:04:36.552Z</time>
      </trkpt>
      <trkpt lat="45.6795" lon="6.23499">
        <ele>1786</ele>
        <time>2019-10-17T11:04:43.635Z</time>
      </trkpt>
      <trkpt lat="45.67955" lon="6.23509">
        <ele>1785</ele>
        <time>2019-10-17T11:04:50.580Z</time>
      </trkpt>
      <trkpt lat="45.67959" lon="6.23517">
        <ele>1783</ele>
        <time>2019-10-17T11:04:57.663Z</time>
      </trkpt>
      <trkpt lat="45.67966" lon="6.23515">
        <ele>1784</ele>
        <time>2019-10-17T11:05:01.972Z</time>
      </trkpt>
      <trkpt lat="45.67972" lon="6.23518">
        <ele>1782</ele>
        <time>2019-10-17T11:05:09.000Z</time>
      </trkpt>
      <trkpt lat="45.67977" lon="6.23517">
        <ele>1781</ele>
        <time>2019-10-17T11:05:11.594Z</time>
      </trkpt>
      <trkpt lat="45.67982" lon="6.23522">
        <ele>1782</ele>
        <time>2019-10-17T11:05:17.923Z</time>
      </trkpt>
      <trkpt lat="45.67987" lon="6.23528">
        <ele>1780</ele>
        <time>2019-10-17T11:05:26.000Z</time>
      </trkpt>
      <trkpt lat="45.67991" lon="6.23527">
        <ele>1781</ele>
        <time>2019-10-17T11:05:31.761Z</time>
      </trkpt>
      <trkpt lat="45.67996" lon="6.23527">
        <ele>1780</ele>
        <time>2019-10-17T11:05:39.000Z</time>
      </trkpt>
      <trkpt lat="45.68001" lon="6.23529">
        <ele>1780</ele>
        <time>2019-10-17T11:05:52.537Z</time>
      </trkpt>
      <trkpt lat="45.68006" lon="6.23533">
        <ele>1779</ele>
        <time>2019-10-17T11:06:06.944Z</time>
      </trkpt>
      <trkpt lat="45.68012" lon="6.23535">
        <ele>1780</ele>
        <time>2019-10-17T11:06:13.122Z</time>
      </trkpt>
      <trkpt lat="45.68018" lon="6.23532">
        <ele>1781</ele>
        <time>2019-10-17T11:06:25.000Z</time>
      </trkpt>
      <trkpt lat="45.68023" lon="6.23535">
        <ele>1781</ele>
        <time>2019-10-17T11:06:32.000Z</time>
      </trkpt>
      <trkpt lat="45.68028" lon="6.23541">
        <ele>1784</ele>
        <time>2019-10-17T11:06:43.000Z</time>
      </trkpt>
      <trkpt lat="45.68033" lon="6.23545">
        <ele>1786</ele>
        <time>2019-10-17T11:06:50.000Z</time>
      </trkpt>
      <trkpt lat="45.6804" lon="6.23543">
        <ele>1789</ele>
        <time>2019-10-17T11:06:57.000Z</time>
      </trkpt>
      <trkpt lat="45.68047" lon="6.23541">
        <ele>1789</ele>
        <time>2019-10-17T11:07:08.000Z</time>
      </trkpt>
      <trkpt lat="45.6805" lon="6.23533">
        <ele>1790</ele>
        <time>2019-10-17T11:07:14.867Z</time>
      </trkpt>
      <trkpt lat="45.68058" lon="6.23531">
        <ele>1790</ele>
        <time>2019-10-17T11:07:23.130Z</time>
      </trkpt>
      <trkpt lat="45.68063" lon="6.23533">
        <ele>1791</ele>
        <time>2019-10-17T11:07:26.422Z</time>
      </trkpt>
      <trkpt lat="45.68069" lon="6.23537">
        <ele>1791</ele>
        <time>2019-10-17T11:07:33.788Z</time>
      </trkpt>
      <trkpt lat="45.68075" lon="6.23533">
        <ele>1792</ele>
        <time>2019-10-17T11:07:45.000Z</time>
      </trkpt>
      <trkpt lat="45.68077" lon="6.23526">
        <ele>1794</ele>
        <time>2019-10-17T11:07:50.597Z</time>
      </trkpt>
      <trkpt lat="45.6808" lon="6.2352">
        <ele>1795</ele>
        <time>2019-10-17T11:08:00.600Z</time>
      </trkpt>
      <trkpt lat="45.68085" lon="6.2351">
        <ele>1798</ele>
        <time>2019-10-17T11:08:07.362Z</time>
      </trkpt>
      <trkpt lat="45.68085" lon="6.23502">
        <ele>1800</ele>
        <time>2019-10-17T11:08:11.081Z</time>
      </trkpt>
      <trkpt lat="45.68085" lon="6.23496">
        <ele>1801</ele>
        <time>2019-10-17T11:08:14.101Z</time>
      </trkpt>
      <trkpt lat="45.68086" lon="6.23487">
        <ele>1802</ele>
        <time>2019-10-17T11:08:21.000Z</time>
      </trkpt>
      <trkpt lat="45.68089" lon="6.2348">
        <ele>1802</ele>
        <time>2019-10-17T11:08:26.612Z</time>
      </trkpt>
      <trkpt lat="45.68093" lon="6.23477">
        <ele>1801</ele>
        <time>2019-10-17T11:08:33.129Z</time>
      </trkpt>
      <trkpt lat="45.68093" lon="6.23469">
        <ele>1804</ele>
        <time>2019-10-17T11:08:41.000Z</time>
      </trkpt>
      <trkpt lat="45.68097" lon="6.23464">
        <ele>1803</ele>
        <time>2019-10-17T11:08:49.678Z</time>
      </trkpt>
      <trkpt lat="45.68102" lon="6.23469">
        <ele>1805</ele>
        <time>2019-10-17T11:08:52.959Z</time>
      </trkpt>
      <trkpt lat="45.68108" lon="6.23469">
        <ele>1807</ele>
        <time>2019-10-17T11:09:05.984Z</time>
      </trkpt>
      <trkpt lat="45.68113" lon="6.23466">
        <ele>1811</ele>
        <time>2019-10-17T11:09:12.934Z</time>
      </trkpt>
      <trkpt lat="45.68117" lon="6.23459">
        <ele>1811</ele>
        <time>2019-10-17T11:09:23.743Z</time>
      </trkpt>
      <trkpt lat="45.68121" lon="6.23453">
        <ele>1813</ele>
        <time>2019-10-17T11:09:30.276Z</time>
      </trkpt>
      <trkpt lat="45.68123" lon="6.23444">
        <ele>1815</ele>
        <time>2019-10-17T11:09:37.553Z</time>
      </trkpt>
      <trkpt lat="45.68128" lon="6.23438">
        <ele>1817</ele>
        <time>2019-10-17T11:09:44.676Z</time>
      </trkpt>
      <trkpt lat="45.68131" lon="6.23433">
        <ele>1815</ele>
        <time>2019-10-17T11:09:52.000Z</time>
      </trkpt>
      <trkpt lat="45.68134" lon="6.23427">
        <ele>1821</ele>
        <time>2019-10-17T11:10:02.000Z</time>
      </trkpt>
      <trkpt lat="45.68138" lon="6.2342">
        <ele>1827</ele>
        <time>2019-10-17T11:10:14.619Z</time>
      </trkpt>
      <trkpt lat="45.68139" lon="6.23413">
        <ele>1833</ele>
        <time>2019-10-17T11:10:31.270Z</time>
      </trkpt>
      <trkpt lat="45.68142" lon="6.23408">
        <ele>1837</ele>
        <time>2019-10-17T11:10:44.879Z</time>
      </trkpt>
      <trkpt lat="45.68148" lon="6.23407">
        <ele>1838</ele>
        <time>2019-10-17T11:10:52.000Z</time>
      </trkpt>
      <trkpt lat="45.68153" lon="6.23405">
        <ele>1841</ele>
        <time>2019-10-17T11:10:57.614Z</time>
      </trkpt>
      <trkpt lat="45.68158" lon="6.23406">
        <ele>1842</ele>
        <time>2019-10-17T11:11:09.000Z</time>
      </trkpt>
      <trkpt lat="45.68161" lon="6.23415">
        <ele>1844</ele>
        <time>2019-10-17T11:11:14.691Z</time>
      </trkpt>
      <trkpt lat="45.68165" lon="6.23421">
        <ele>1846</ele>
        <time>2019-10-17T11:11:24.640Z</time>
      </trkpt>
      <trkpt lat="45.6817" lon="6.23425">
        <ele>1848</ele>
        <time>2019-10-17T11:11:34.770Z</time>
      </trkpt>
      <trkpt lat="45.68175" lon="6.23426">
        <ele>1853</ele>
        <time>2019-10-17T11:11:45.892Z</time>
      </trkpt>
      <trkpt lat="45.6818" lon="6.23422">
        <ele>1853</ele>
        <time>2019-10-17T11:11:55.572Z</time>
      </trkpt>
      <trkpt lat="45.68185" lon="6.23426">
        <ele>1856</ele>
        <time>2019-10-17T11:12:03.000Z</time>
      </trkpt>
      <trkpt lat="45.68191" lon="6.23427">
        <ele>1860</ele>
        <time>2019-10-17T11:14:09.000Z</time>
      </trkpt>
      <trkpt lat="45.68194" lon="6.2342">
        <ele>1857</ele>
        <time>2019-10-17T11:14:18.880Z</time>
      </trkpt>
      <trkpt lat="45.68197" lon="6.23412">
        <ele>1859</ele>
        <time>2019-10-17T11:14:25.278Z</time>
      </trkpt>
      <trkpt lat="45.68201" lon="6.23406">
        <ele>1857</ele>
        <time>2019-10-17T11:14:36.000Z</time>
      </trkpt>
      <trkpt lat="45.68203" lon="6.234">
        <ele>1856</ele>
        <time>2019-10-17T11:14:48.640Z</time>
      </trkpt>
      <trkpt lat="45.68205" lon="6.23394">
        <ele>1862</ele>
        <time>2019-10-17T11:15:02.737Z</time>
      </trkpt>
      <trkpt lat="45.68208" lon="6.23388">
        <ele>1866</ele>
        <time>2019-10-17T11:15:12.658Z</time>
      </trkpt>
      <trkpt lat="45.68211" lon="6.23383">
        <ele>1871</ele>
        <time>2019-10-17T11:15:29.071Z</time>
      </trkpt>
      <trkpt lat="45.68217" lon="6.23385">
        <ele>1875</ele>
        <time>2019-10-17T11:15:39.132Z</time>
      </trkpt>
      <trkpt lat="45.68219" lon="6.23378">
        <ele>1881</ele>
        <time>2019-10-17T11:15:56.000Z</time>
      </trkpt>
      <trkpt lat="45.68217" lon="6.2337">
        <ele>1883</ele>
        <time>2019-10-17T11:16:07.074Z</time>
      </trkpt>
      <trkpt lat="45.68213" lon="6.23365">
        <ele>1888</ele>
        <time>2019-10-17T11:16:20.335Z</time>
      </trkpt>
      <trkpt lat="45.68209" lon="6.23362">
        <ele>1893</ele>
        <time>2019-10-17T11:16:42.000Z</time>
      </trkpt>
      <trkpt lat="45.6821" lon="6.23354">
        <ele>1896</ele>
        <time>2019-10-17T11:16:55.375Z</time>
      </trkpt>
      <trkpt lat="45.68209" lon="6.23346">
        <ele>1898</ele>
        <time>2019-10-17T11:17:06.000Z</time>
      </trkpt>
      <trkpt lat="45.68213" lon="6.2334">
        <ele>1902</ele>
        <time>2019-10-17T11:17:18.730Z</time>
      </trkpt>
      <trkpt lat="45.68215" lon="6.23334">
        <ele>1904</ele>
        <time>2019-10-17T11:17:35.000Z</time>
      </trkpt>
      <trkpt lat="45.6822" lon="6.23328">
        <ele>1905</ele>
        <time>2019-10-17T11:17:52.000Z</time>
      </trkpt>
      <trkpt lat="45.68225" lon="6.23325">
        <ele>1909</ele>
        <time>2019-10-17T11:18:03.771Z</time>
      </trkpt>
      <trkpt lat="45.68223" lon="6.23318">
        <ele>1911</ele>
        <time>2019-10-17T11:18:12.000Z</time>
      </trkpt>
      <trkpt lat="45.68223" lon="6.23311">
        <ele>1912</ele>
        <time>2019-10-17T11:18:25.000Z</time>
      </trkpt>
      <trkpt lat="45.68224" lon="6.23303">
        <ele>1916</ele>
        <time>2019-10-17T11:18:39.000Z</time>
      </trkpt>
      <trkpt lat="45.68224" lon="6.23297">
        <ele>1918</ele>
        <time>2019-10-17T11:18:52.959Z</time>
      </trkpt>
      <trkpt lat="45.68226" lon="6.23287">
        <ele>1925</ele>
        <time>2019-10-17T11:19:08.000Z</time>
      </trkpt>
      <trkpt lat="45.6823" lon="6.23281">
        <ele>1925</ele>
        <time>2019-10-17T11:19:18.000Z</time>
      </trkpt>
      <trkpt lat="45.6823" lon="6.23272">
        <ele>1923</ele>
        <time>2019-10-17T11:19:51.000Z</time>
      </trkpt>
      <trkpt lat="45.68225" lon="6.23274">
        <ele>1926</ele>
        <time>2019-10-17T11:20:49.782Z</time>
      </trkpt>
      <trkpt lat="45.6822" lon="6.23274">
        <ele>1932</ele>
        <time>2019-10-17T11:21:02.000Z</time>
      </trkpt>
      <trkpt lat="45.68221" lon="6.23265">
        <ele>1932</ele>
        <time>2019-10-17T11:21:13.000Z</time>
      </trkpt>
      <trkpt lat="45.68225" lon="6.2326">
        <ele>1935</ele>
        <time>2019-10-17T11:21:23.000Z</time>
      </trkpt>
      <trkpt lat="45.68219" lon="6.23258">
        <ele>1936</ele>
        <time>2019-10-17T11:21:32.641Z</time>
      </trkpt>
      <trkpt lat="45.68216" lon="6.23253">
        <ele>1939</ele>
        <time>2019-10-17T11:21:47.000Z</time>
      </trkpt>
      <trkpt lat="45.68213" lon="6.23247">
        <ele>1941</ele>
        <time>2019-10-17T11:21:59.339Z</time>
      </trkpt>
      <trkpt lat="45.68214" lon="6.2324">
        <ele>1945</ele>
        <time>2019-10-17T11:22:16.000Z</time>
      </trkpt>
      <trkpt lat="45.68213" lon="6.23232">
        <ele>1950</ele>
        <time>2019-10-17T11:22:34.000Z</time>
      </trkpt>
      <trkpt lat="45.68208" lon="6.2323">
        <ele>1950</ele>
        <time>2019-10-17T11:22:42.841Z</time>
      </trkpt>
      <trkpt lat="45.68204" lon="6.23224">
        <ele>1955</ele>
        <time>2019-10-17T11:22:54.000Z</time>
      </trkpt>
      <trkpt lat="45.68198" lon="6.23224">
        <ele>1955</ele>
        <time>2019-10-17T11:23:06.013Z</time>
      </trkpt>
      <trkpt lat="45.68193" lon="6.23225">
        <ele>1958</ele>
        <time>2019-10-17T11:23:17.000Z</time>
      </trkpt>
      <trkpt lat="45.68191" lon="6.23219">
        <ele>1960</ele>
        <time>2019-10-17T11:23:25.880Z</time>
      </trkpt>
      <trkpt lat="45.68192" lon="6.23213">
        <ele>1962</ele>
        <time>2019-10-17T11:23:33.099Z</time>
      </trkpt>
      <trkpt lat="45.68191" lon="6.23204">
        <ele>1969</ele>
        <time>2019-10-17T11:23:50.000Z</time>
      </trkpt>
      <trkpt lat="45.68193" lon="6.23194">
        <ele>1972</ele>
        <time>2019-10-17T11:24:00.000Z</time>
      </trkpt>
      <trkpt lat="45.68196" lon="6.23187">
        <ele>1974</ele>
        <time>2019-10-17T11:24:07.000Z</time>
      </trkpt>
      <trkpt lat="45.68192" lon="6.23182">
        <ele>1979</ele>
        <time>2019-10-17T11:24:24.000Z</time>
      </trkpt>
      <trkpt lat="45.68197" lon="6.23183">
        <ele>1983</ele>
        <time>2019-10-17T11:25:40.000Z</time>
      </trkpt>
      <trkpt lat="45.68195" lon="6.23177">
        <ele>1991</ele>
        <time>2019-10-17T11:26:06.338Z</time>
      </trkpt>
      <trkpt lat="45.68196" lon="6.2317">
        <ele>1993</ele>
        <time>2019-10-17T11:26:21.000Z</time>
      </trkpt>
      <trkpt lat="45.68196" lon="6.23164">
        <ele>1993</ele>
        <time>2019-10-17T11:26:34.000Z</time>
      </trkpt>
      <trkpt lat="45.68193" lon="6.23157">
        <ele>1996</ele>
        <time>2019-10-17T11:26:47.000Z</time>
      </trkpt>
      <trkpt lat="45.68195" lon="6.23151">
        <ele>1998</ele>
        <time>2019-10-17T11:27:05.000Z</time>
      </trkpt>
      <trkpt lat="45.682" lon="6.23151">
        <ele>2002</ele>
        <time>2019-10-17T11:27:31.337Z</time>
      </trkpt>
      <trkpt lat="45.68204" lon="6.23153">
        <ele>2002</ele>
        <time>2019-10-17T11:27:43.000Z</time>
      </trkpt>
      <trkpt lat="45.68209" lon="6.23149">
        <ele>2009</ele>
        <time>2019-10-17T11:28:06.515Z</time>
      </trkpt>
      <trkpt lat="45.68208" lon="6.23141">
        <ele>2012</ele>
        <time>2019-10-17T11:29:05.000Z</time>
      </trkpt>
      <trkpt lat="45.68208" lon="6.23134">
        <ele>2017</ele>
        <time>2019-10-17T11:29:20.000Z</time>
      </trkpt>
      <trkpt lat="45.68211" lon="6.23129">
        <ele>2018</ele>
        <time>2019-10-17T11:29:37.000Z</time>
      </trkpt>
      <trkpt lat="45.68208" lon="6.23122">
        <ele>2022</ele>
        <time>2019-10-17T11:29:46.320Z</time>
      </trkpt>
      <trkpt lat="45.68212" lon="6.23116">
        <ele>2023</ele>
        <time>2019-10-17T11:29:56.992Z</time>
      </trkpt>
      <trkpt lat="45.68209" lon="6.23109">
        <ele>2027</ele>
        <time>2019-10-17T11:30:06.873Z</time>
      </trkpt>
      <trkpt lat="45.68205" lon="6.23104">
        <ele>2031</ele>
        <time>2019-10-17T11:30:28.000Z</time>
      </trkpt>
      <trkpt lat="45.68201" lon="6.23101">
        <ele>2032</ele>
        <time>2019-10-17T11:30:42.000Z</time>
      </trkpt>
      <trkpt lat="45.68197" lon="6.23101">
        <ele>2035</ele>
        <time>2019-10-17T11:31:00.000Z</time>
      </trkpt>
      <trkpt lat="45.68194" lon="6.23095">
        <ele>2034</ele>
        <time>2019-10-17T11:31:29.000Z</time>
      </trkpt>
      <trkpt lat="45.68195" lon="6.23088">
        <ele>2040</ele>
        <time>2019-10-17T11:32:04.000Z</time>
      </trkpt>
      <trkpt lat="45.6819" lon="6.23084">
        <ele>2043</ele>
        <time>2019-10-17T11:32:14.000Z</time>
      </trkpt>
      <trkpt lat="45.68184" lon="6.23084">
        <ele>2044</ele>
        <time>2019-10-17T11:32:22.000Z</time>
      </trkpt>
      <trkpt lat="45.68179" lon="6.23084">
        <ele>2048</ele>
        <time>2019-10-17T11:32:36.000Z</time>
      </trkpt>
      <trkpt lat="45.68177" lon="6.23078">
        <ele>2052</ele>
        <time>2019-10-17T11:32:53.000Z</time>
      </trkpt>
      <trkpt lat="45.68173" lon="6.23071">
        <ele>2056</ele>
        <time>2019-10-17T11:34:08.000Z</time>
      </trkpt>
      <trkpt lat="45.68168" lon="6.23072">
        <ele>2058</ele>
        <time>2019-10-17T11:34:22.000Z</time>
      </trkpt>
      <trkpt lat="45.6817" lon="6.23066">
        <ele>2062</ele>
        <time>2019-10-17T11:34:48.000Z</time>
      </trkpt>
      <trkpt lat="45.68172" lon="6.23059">
        <ele>2065</ele>
        <time>2019-10-17T11:34:58.000Z</time>
      </trkpt>
      <trkpt lat="45.68182" lon="6.23061">
        <ele>2065</ele>
        <time>2019-10-17T11:35:16.000Z</time>
      </trkpt>
      <trkpt lat="45.68187" lon="6.23064">
        <ele>2065</ele>
        <time>2019-10-17T11:35:21.860Z</time>
      </trkpt>
      <trkpt lat="45.68192" lon="6.23062">
        <ele>2067</ele>
        <time>2019-10-17T11:35:32.842Z</time>
      </trkpt>
      <trkpt lat="45.68196" lon="6.23058">
        <ele>2070</ele>
        <time>2019-10-17T11:35:47.000Z</time>
      </trkpt>
      <trkpt lat="45.68201" lon="6.23054">
        <ele>2073</ele>
        <time>2019-10-17T11:36:00.000Z</time>
      </trkpt>
      <trkpt lat="45.68197" lon="6.23049">
        <ele>2075</ele>
        <time>2019-10-17T11:36:16.483Z</time>
      </trkpt>
      <trkpt lat="45.68192" lon="6.23047">
        <ele>2076</ele>
        <time>2019-10-17T11:36:23.658Z</time>
      </trkpt>
      <trkpt lat="45.68185" lon="6.23045">
        <ele>2078</ele>
        <time>2019-10-17T11:36:35.000Z</time>
      </trkpt>
      <trkpt lat="45.68191" lon="6.2304">
        <ele>2081</ele>
        <time>2019-10-17T11:36:50.142Z</time>
      </trkpt>
      <trkpt lat="45.68191" lon="6.23033">
        <ele>2084</ele>
        <time>2019-10-17T11:36:57.362Z</time>
      </trkpt>
      <trkpt lat="45.68188" lon="6.23024">
        <ele>2086</ele>
        <time>2019-10-17T11:37:07.596Z</time>
      </trkpt>
      <trkpt lat="45.68182" lon="6.23022">
        <ele>2089</ele>
        <time>2019-10-17T11:37:21.082Z</time>
      </trkpt>
      <trkpt lat="45.68187" lon="6.23023">
        <ele>2089</ele>
        <time>2019-10-17T11:37:41.814Z</time>
      </trkpt>
      <trkpt lat="45.68191" lon="6.23019">
        <ele>2091</ele>
        <time>2019-10-17T11:37:48.900Z</time>
      </trkpt>
      <trkpt lat="45.68194" lon="6.23011">
        <ele>2096</ele>
        <time>2019-10-17T11:38:24.000Z</time>
      </trkpt>
      <trkpt lat="45.68196" lon="6.23004">
        <ele>2097</ele>
        <time>2019-10-17T11:38:30.120Z</time>
      </trkpt>
      <trkpt lat="45.682" lon="6.23">
        <ele>2100</ele>
        <time>2019-10-17T11:38:41.000Z</time>
      </trkpt>
      <trkpt lat="45.68205" lon="6.22994">
        <ele>2100</ele>
        <time>2019-10-17T11:38:48.000Z</time>
      </trkpt>
      <trkpt lat="45.68209" lon="6.22991">
        <ele>2101</ele>
        <time>2019-10-17T11:38:56.000Z</time>
      </trkpt>
      <trkpt lat="45.68215" lon="6.22991">
        <ele>2102</ele>
        <time>2019-10-17T11:39:09.000Z</time>
      </trkpt>
      <trkpt lat="45.68218" lon="6.22984">
        <ele>2103</ele>
        <time>2019-10-17T11:39:22.000Z</time>
      </trkpt>
      <trkpt lat="45.68214" lon="6.2298">
        <ele>2107</ele>
        <time>2019-10-17T11:39:54.000Z</time>
      </trkpt>
      <trkpt lat="45.68205" lon="6.22981">
        <ele>2109</ele>
        <time>2019-10-17T11:39:59.974Z</time>
      </trkpt>
      <trkpt lat="45.68201" lon="6.22983">
        <ele>2112</ele>
        <time>2019-10-17T11:40:08.000Z</time>
      </trkpt>
      <trkpt lat="45.68198" lon="6.22977">
        <ele>2116</ele>
        <time>2019-10-17T11:43:29.000Z</time>
      </trkpt>
      <trkpt lat="45.68194" lon="6.22976">
        <ele>2123</ele>
        <time>2019-10-17T11:44:15.000Z</time>
      </trkpt>
      <trkpt lat="45.68192" lon="6.2297">
        <ele>2129</ele>
        <time>2019-10-17T11:44:43.000Z</time>
      </trkpt>
      <trkpt lat="45.68191" lon="6.22963">
        <ele>2133</ele>
        <time>2019-10-17T11:45:01.000Z</time>
      </trkpt>
      <trkpt lat="45.68186" lon="6.2296">
        <ele>2135</ele>
        <time>2019-10-17T11:45:58.000Z</time>
      </trkpt>
      <trkpt lat="45.68181" lon="6.22956">
        <ele>2139</ele>
        <time>2019-10-17T11:46:09.000Z</time>
      </trkpt>
      <trkpt lat="45.68178" lon="6.22952">
        <ele>2142</ele>
        <time>2019-10-17T11:46:18.517Z</time>
      </trkpt>
      <trkpt lat="45.68174" lon="6.22946">
        <ele>2145</ele>
        <time>2019-10-17T11:46:33.000Z</time>
      </trkpt>
      <trkpt lat="45.68171" lon="6.22939">
        <ele>2148</ele>
        <time>2019-10-17T11:46:52.936Z</time>
      </trkpt>
      <trkpt lat="45.68166" lon="6.22937">
        <ele>2155</ele>
        <time>2019-10-17T11:47:10.073Z</time>
      </trkpt>
      <trkpt lat="45.68168" lon="6.2293">
        <ele>2157</ele>
        <time>2019-10-17T11:47:30.000Z</time>
      </trkpt>
      <trkpt lat="45.68167" lon="6.22923">
        <ele>2164</ele>
        <time>2019-10-17T11:48:09.004Z</time>
      </trkpt>
      <trkpt lat="45.6817" lon="6.22917">
        <ele>2167</ele>
        <time>2019-10-17T11:48:26.524Z</time>
      </trkpt>
      <trkpt lat="45.68166" lon="6.22921">
        <ele>2172</ele>
        <time>2019-10-17T11:48:53.000Z</time>
      </trkpt>
      <trkpt lat="45.68164" lon="6.22913">
        <ele>2176</ele>
        <time>2019-10-17T11:49:16.000Z</time>
      </trkpt>
      <trkpt lat="45.68166" lon="6.22905">
        <ele>2176</ele>
        <time>2019-10-17T11:49:27.121Z</time>
      </trkpt>
      <trkpt lat="45.68171" lon="6.22898">
        <ele>2182</ele>
        <time>2019-10-17T11:50:16.000Z</time>
      </trkpt>
      <trkpt lat="45.68176" lon="6.22893">
        <ele>2183</ele>
        <time>2019-10-17T11:50:38.000Z</time>
      </trkpt>
      <trkpt lat="45.68179" lon="6.22888">
        <ele>2184</ele>
        <time>2019-10-17T11:50:45.000Z</time>
      </trkpt>
      <trkpt lat="45.68182" lon="6.22883">
        <ele>2188</ele>
        <time>2019-10-17T11:50:58.000Z</time>
      </trkpt>
      <trkpt lat="45.68176" lon="6.22881">
        <ele>2189</ele>
        <time>2019-10-17T11:51:09.000Z</time>
      </trkpt>
      <trkpt lat="45.68171" lon="6.22882">
        <ele>2190</ele>
        <time>2019-10-17T11:51:16.000Z</time>
      </trkpt>
      <trkpt lat="45.68166" lon="6.22883">
        <ele>2195</ele>
        <time>2019-10-17T11:51:27.000Z</time>
      </trkpt>
      <trkpt lat="45.68162" lon="6.22879">
        <ele>2196</ele>
        <time>2019-10-17T11:51:46.228Z</time>
      </trkpt>
      <trkpt lat="45.68164" lon="6.22871">
        <ele>2198</ele>
        <time>2019-10-17T11:51:53.478Z</time>
      </trkpt>
      <trkpt lat="45.68168" lon="6.22865">
        <ele>2200</ele>
        <time>2019-10-17T11:52:06.000Z</time>
      </trkpt>
      <trkpt lat="45.68166" lon="6.22858">
        <ele>2202</ele>
        <time>2019-10-17T11:52:43.000Z</time>
      </trkpt>
      <trkpt lat="45.68161" lon="6.22856">
        <ele>2204</ele>
        <time>2019-10-17T11:52:48.862Z</time>
      </trkpt>
      <trkpt lat="45.68157" lon="6.22853">
        <ele>2206</ele>
        <time>2019-10-17T11:53:00.000Z</time>
      </trkpt>
      <trkpt lat="45.6815" lon="6.22855">
        <ele>2210</ele>
        <time>2019-10-17T11:53:14.000Z</time>
      </trkpt>
      <trkpt lat="45.68146" lon="6.22854">
        <ele>2213</ele>
        <time>2019-10-17T11:53:24.000Z</time>
      </trkpt>
      <trkpt lat="45.6814" lon="6.22848">
        <ele>2217</ele>
        <time>2019-10-17T11:53:38.000Z</time>
      </trkpt>
      <trkpt lat="45.68141" lon="6.2284">
        <ele>2218</ele>
        <time>2019-10-17T11:53:52.000Z</time>
      </trkpt>
      <trkpt lat="45.68137" lon="6.22834">
        <ele>2220</ele>
        <time>2019-10-17T11:54:00.968Z</time>
      </trkpt>
      <trkpt lat="45.68132" lon="6.22835">
        <ele>2222</ele>
        <time>2019-10-17T11:54:10.681Z</time>
      </trkpt>
      <trkpt lat="45.68127" lon="6.22838">
        <ele>2222</ele>
        <time>2019-10-17T11:54:22.000Z</time>
      </trkpt>
      <trkpt lat="45.68131" lon="6.22835">
        <ele>2231</ele>
        <time>2019-10-17T11:54:52.944Z</time>
      </trkpt>
      <trkpt lat="45.68132" lon="6.22825">
        <ele>2233</ele>
        <time>2019-10-17T11:55:04.741Z</time>
      </trkpt>
      <trkpt lat="45.68131" lon="6.22818">
        <ele>2235</ele>
        <time>2019-10-17T11:55:23.000Z</time>
      </trkpt>
      <trkpt lat="45.68126" lon="6.22816">
        <ele>2237</ele>
        <time>2019-10-17T11:55:30.000Z</time>
      </trkpt>
      <trkpt lat="45.68128" lon="6.22808">
        <ele>2240</ele>
        <time>2019-10-17T11:55:51.000Z</time>
      </trkpt>
      <trkpt lat="45.68133" lon="6.22811">
        <ele>2242</ele>
        <time>2019-10-17T11:56:10.000Z</time>
      </trkpt>
      <trkpt lat="45.68138" lon="6.22809">
        <ele>2248</ele>
        <time>2019-10-17T11:56:52.473Z</time>
      </trkpt>
      <trkpt lat="45.68144" lon="6.22808">
        <ele>2250</ele>
        <time>2019-10-17T11:57:06.113Z</time>
      </trkpt>
      <trkpt lat="45.6815" lon="6.22809">
        <ele>2251</ele>
        <time>2019-10-17T11:57:13.634Z</time>
      </trkpt>
      <trkpt lat="45.68154" lon="6.22812">
        <ele>2256</ele>
        <time>2019-10-17T11:57:42.000Z</time>
      </trkpt>
      <trkpt lat="45.68158" lon="6.22808">
        <ele>2261</ele>
        <time>2019-10-17T11:58:11.000Z</time>
      </trkpt>
      <trkpt lat="45.68164" lon="6.22805">
        <ele>2263</ele>
        <time>2019-10-17T11:58:23.656Z</time>
      </trkpt>
      <trkpt lat="45.68168" lon="6.2281">
        <ele>2264</ele>
        <time>2019-10-17T11:59:10.000Z</time>
      </trkpt>
      <trkpt lat="45.68173" lon="6.22807">
        <ele>2266</ele>
        <time>2019-10-17T11:59:24.000Z</time>
      </trkpt>
      <trkpt lat="45.68175" lon="6.22814">
        <ele>2269</ele>
        <time>2019-10-17T12:02:27.000Z</time>
      </trkpt>
      <trkpt lat="45.68173" lon="6.22808">
        <ele>2266</ele>
        <time>2019-10-17T12:04:52.000Z</time>
      </trkpt>
      <trkpt lat="45.68174" lon="6.22814">
        <ele>2266</ele>
        <time>2019-10-17T12:05:17.000Z</time>
      </trkpt>
      <trkpt lat="45.68169" lon="6.2281">
        <ele>2266</ele>
        <time>2019-10-17T12:35:48.000Z</time>
      </trkpt>
      <trkpt lat="45.68162" lon="6.22807">
        <ele>2266</ele>
        <time>2019-10-17T12:35:58.119Z</time>
      </trkpt>
      <trkpt lat="45.68157" lon="6.2281">
        <ele>2263</ele>
        <time>2019-10-17T12:36:07.498Z</time>
      </trkpt>
      <trkpt lat="45.68157" lon="6.22818">
        <ele>2261</ele>
        <time>2019-10-17T12:36:26.000Z</time>
      </trkpt>
      <trkpt lat="45.68154" lon="6.22822">
        <ele>2255</ele>
        <time>2019-10-17T12:38:05.000Z</time>
      </trkpt>
      <trkpt lat="45.68149" lon="6.22827">
        <ele>2250</ele>
        <time>2019-10-17T12:38:33.000Z</time>
      </trkpt>
      <trkpt lat="45.68145" lon="6.22822">
        <ele>2247</ele>
        <time>2019-10-17T12:38:50.000Z</time>
      </trkpt>
      <trkpt lat="45.68141" lon="6.22822">
        <ele>2246</ele>
        <time>2019-10-17T12:39:07.000Z</time>
      </trkpt>
      <trkpt lat="45.68138" lon="6.22827">
        <ele>2244</ele>
        <time>2019-10-17T12:39:25.000Z</time>
      </trkpt>
      <trkpt lat="45.68133" lon="6.22828">
        <ele>2238</ele>
        <time>2019-10-17T12:39:56.000Z</time>
      </trkpt>
      <trkpt lat="45.68128" lon="6.22832">
        <ele>2233</ele>
        <time>2019-10-17T12:40:18.101Z</time>
      </trkpt>
      <trkpt lat="45.6813" lon="6.22839">
        <ele>2231</ele>
        <time>2019-10-17T12:40:35.257Z</time>
      </trkpt>
      <trkpt lat="45.68133" lon="6.22845">
        <ele>2226</ele>
        <time>2019-10-17T12:40:57.000Z</time>
      </trkpt>
      <trkpt lat="45.6814" lon="6.22848">
        <ele>2224</ele>
        <time>2019-10-17T12:41:05.599Z</time>
      </trkpt>
      <trkpt lat="45.68143" lon="6.22854">
        <ele>2223</ele>
        <time>2019-10-17T12:41:16.000Z</time>
      </trkpt>
      <trkpt lat="45.68145" lon="6.2286">
        <ele>2220</ele>
        <time>2019-10-17T12:41:29.000Z</time>
      </trkpt>
      <trkpt lat="45.68149" lon="6.22864">
        <ele>2217</ele>
        <time>2019-10-17T12:41:37.957Z</time>
      </trkpt>
      <trkpt lat="45.68154" lon="6.22863">
        <ele>2214</ele>
        <time>2019-10-17T12:41:51.794Z</time>
      </trkpt>
      <trkpt lat="45.68146" lon="6.22862">
        <ele>2210</ele>
        <time>2019-10-17T12:42:03.000Z</time>
      </trkpt>
      <trkpt lat="45.68139" lon="6.22867">
        <ele>2208</ele>
        <time>2019-10-17T12:42:08.438Z</time>
      </trkpt>
      <trkpt lat="45.68137" lon="6.22874">
        <ele>2208</ele>
        <time>2019-10-17T12:42:27.000Z</time>
      </trkpt>
      <trkpt lat="45.68141" lon="6.22883">
        <ele>2208</ele>
        <time>2019-10-17T12:42:41.000Z</time>
      </trkpt>
      <trkpt lat="45.68146" lon="6.22887">
        <ele>2205</ele>
        <time>2019-10-17T12:42:51.000Z</time>
      </trkpt>
      <trkpt lat="45.68151" lon="6.2289">
        <ele>2203</ele>
        <time>2019-10-17T12:43:01.000Z</time>
      </trkpt>
      <trkpt lat="45.6815" lon="6.22898">
        <ele>2201</ele>
        <time>2019-10-17T12:43:10.925Z</time>
      </trkpt>
      <trkpt lat="45.68156" lon="6.229">
        <ele>2197</ele>
        <time>2019-10-17T12:43:23.679Z</time>
      </trkpt>
      <trkpt lat="45.6816" lon="6.22903">
        <ele>2195</ele>
        <time>2019-10-17T12:43:33.300Z</time>
      </trkpt>
      <trkpt lat="45.68166" lon="6.22901">
        <ele>2197</ele>
        <time>2019-10-17T12:43:41.000Z</time>
      </trkpt>
      <trkpt lat="45.68163" lon="6.22907">
        <ele>2189</ele>
        <time>2019-10-17T12:44:06.195Z</time>
      </trkpt>
      <trkpt lat="45.68167" lon="6.22912">
        <ele>2184</ele>
        <time>2019-10-17T12:44:41.000Z</time>
      </trkpt>
      <trkpt lat="45.6817" lon="6.22917">
        <ele>2180</ele>
        <time>2019-10-17T12:45:00.000Z</time>
      </trkpt>
      <trkpt lat="45.68174" lon="6.22922">
        <ele>2173</ele>
        <time>2019-10-17T12:46:24.182Z</time>
      </trkpt>
      <trkpt lat="45.6817" lon="6.22927">
        <ele>2169</ele>
        <time>2019-10-17T12:46:33.847Z</time>
      </trkpt>
      <trkpt lat="45.68166" lon="6.22932">
        <ele>2167</ele>
        <time>2019-10-17T12:46:47.650Z</time>
      </trkpt>
      <trkpt lat="45.68168" lon="6.22938">
        <ele>2165</ele>
        <time>2019-10-17T12:47:12.054Z</time>
      </trkpt>
      <trkpt lat="45.68167" lon="6.22946">
        <ele>2160</ele>
        <time>2019-10-17T12:47:27.000Z</time>
      </trkpt>
      <trkpt lat="45.68171" lon="6.2295">
        <ele>2155</ele>
        <time>2019-10-17T12:47:43.000Z</time>
      </trkpt>
      <trkpt lat="45.68176" lon="6.22954">
        <ele>2153</ele>
        <time>2019-10-17T12:47:59.000Z</time>
      </trkpt>
      <trkpt lat="45.6818" lon="6.22958">
        <ele>2148</ele>
        <time>2019-10-17T12:48:22.199Z</time>
      </trkpt>
      <trkpt lat="45.68185" lon="6.22962">
        <ele>2144</ele>
        <time>2019-10-17T12:48:38.502Z</time>
      </trkpt>
      <trkpt lat="45.68188" lon="6.22969">
        <ele>2141</ele>
        <time>2019-10-17T12:48:51.444Z</time>
      </trkpt>
      <trkpt lat="45.68194" lon="6.22972">
        <ele>2140</ele>
        <time>2019-10-17T12:49:02.000Z</time>
      </trkpt>
      <trkpt lat="45.68197" lon="6.22976">
        <ele>2133</ele>
        <time>2019-10-17T12:49:39.699Z</time>
      </trkpt>
      <trkpt lat="45.68195" lon="6.22981">
        <ele>2127</ele>
        <time>2019-10-17T12:50:10.000Z</time>
      </trkpt>
      <trkpt lat="45.68199" lon="6.22983">
        <ele>2121</ele>
        <time>2019-10-17T12:50:41.000Z</time>
      </trkpt>
      <trkpt lat="45.68201" lon="6.22989">
        <ele>2117</ele>
        <time>2019-10-17T12:51:12.000Z</time>
      </trkpt>
      <trkpt lat="45.68205" lon="6.22992">
        <ele>2110</ele>
        <time>2019-10-17T12:52:01.000Z</time>
      </trkpt>
      <trkpt lat="45.68207" lon="6.23">
        <ele>2105</ele>
        <time>2019-10-17T12:52:19.000Z</time>
      </trkpt>
      <trkpt lat="45.682" lon="6.23005">
        <ele>2103</ele>
        <time>2019-10-17T12:52:29.348Z</time>
      </trkpt>
      <trkpt lat="45.68196" lon="6.2301">
        <ele>2101</ele>
        <time>2019-10-17T12:52:36.236Z</time>
      </trkpt>
      <trkpt lat="45.682" lon="6.23015">
        <ele>2101</ele>
        <time>2019-10-17T12:52:44.000Z</time>
      </trkpt>
      <trkpt lat="45.68202" lon="6.23022">
        <ele>2099</ele>
        <time>2019-10-17T12:52:57.583Z</time>
      </trkpt>
      <trkpt lat="45.68196" lon="6.23025">
        <ele>2099</ele>
        <time>2019-10-17T12:53:04.361Z</time>
      </trkpt>
      <trkpt lat="45.68192" lon="6.23032">
        <ele>2090</ele>
        <time>2019-10-17T12:53:55.000Z</time>
      </trkpt>
      <trkpt lat="45.6819" lon="6.23039">
        <ele>2087</ele>
        <time>2019-10-17T12:54:07.000Z</time>
      </trkpt>
      <trkpt lat="45.68185" lon="6.23044">
        <ele>2085</ele>
        <time>2019-10-17T12:54:14.000Z</time>
      </trkpt>
      <trkpt lat="45.68186" lon="6.23053">
        <ele>2083</ele>
        <time>2019-10-17T12:54:24.117Z</time>
      </trkpt>
      <trkpt lat="45.6819" lon="6.23056">
        <ele>2080</ele>
        <time>2019-10-17T12:54:34.000Z</time>
      </trkpt>
      <trkpt lat="45.68195" lon="6.23058">
        <ele>2077</ele>
        <time>2019-10-17T12:54:44.252Z</time>
      </trkpt>
      <trkpt lat="45.68192" lon="6.23066">
        <ele>2072</ele>
        <time>2019-10-17T12:55:02.000Z</time>
      </trkpt>
      <trkpt lat="45.68186" lon="6.23068">
        <ele>2071</ele>
        <time>2019-10-17T12:55:09.000Z</time>
      </trkpt>
      <trkpt lat="45.68181" lon="6.23067">
        <ele>2068</ele>
        <time>2019-10-17T12:55:21.978Z</time>
      </trkpt>
      <trkpt lat="45.68179" lon="6.23073">
        <ele>2061</ele>
        <time>2019-10-17T12:56:27.233Z</time>
      </trkpt>
      <trkpt lat="45.68176" lon="6.23079">
        <ele>2057</ele>
        <time>2019-10-17T12:56:41.000Z</time>
      </trkpt>
      <trkpt lat="45.68179" lon="6.23084">
        <ele>2055</ele>
        <time>2019-10-17T12:57:03.837Z</time>
      </trkpt>
      <trkpt lat="45.6818" lon="6.2309">
        <ele>2051</ele>
        <time>2019-10-17T12:57:21.161Z</time>
      </trkpt>
      <trkpt lat="45.68185" lon="6.2309">
        <ele>2049</ele>
        <time>2019-10-17T12:57:28.000Z</time>
      </trkpt>
      <trkpt lat="45.68192" lon="6.23094">
        <ele>2049</ele>
        <time>2019-10-17T12:58:52.000Z</time>
      </trkpt>
      <trkpt lat="45.68195" lon="6.23099">
        <ele>2039</ele>
        <time>2019-10-17T12:59:30.000Z</time>
      </trkpt>
      <trkpt lat="45.68193" lon="6.23105">
        <ele>2031</ele>
        <time>2019-10-17T13:00:27.397Z</time>
      </trkpt>
      <trkpt lat="45.6819" lon="6.2311">
        <ele>2029</ele>
        <time>2019-10-17T13:00:37.000Z</time>
      </trkpt>
      <trkpt lat="45.6819" lon="6.23116">
        <ele>2028</ele>
        <time>2019-10-17T13:00:57.319Z</time>
      </trkpt>
      <trkpt lat="45.68194" lon="6.2312">
        <ele>2026</ele>
        <time>2019-10-17T13:01:09.000Z</time>
      </trkpt>
      <trkpt lat="45.68197" lon="6.23125">
        <ele>2023</ele>
        <time>2019-10-17T13:01:31.000Z</time>
      </trkpt>
      <trkpt lat="45.68201" lon="6.23132">
        <ele>2020</ele>
        <time>2019-10-17T13:01:41.562Z</time>
      </trkpt>
      <trkpt lat="45.68204" lon="6.23137">
        <ele>2022</ele>
        <time>2019-10-17T13:01:48.000Z</time>
      </trkpt>
      <trkpt lat="45.68209" lon="6.23141">
        <ele>2020</ele>
        <time>2019-10-17T13:02:17.000Z</time>
      </trkpt>
      <trkpt lat="45.68207" lon="6.23148">
        <ele>2018</ele>
        <time>2019-10-17T13:02:23.780Z</time>
      </trkpt>
      <trkpt lat="45.68211" lon="6.23154">
        <ele>2017</ele>
        <time>2019-10-17T13:02:27.320Z</time>
      </trkpt>
      <trkpt lat="45.68215" lon="6.23158">
        <ele>2015</ele>
        <time>2019-10-17T13:02:35.000Z</time>
      </trkpt>
      <trkpt lat="45.6821" lon="6.23157">
        <ele>2015</ele>
        <time>2019-10-17T13:02:54.000Z</time>
      </trkpt>
      <trkpt lat="45.68204" lon="6.23157">
        <ele>2014</ele>
        <time>2019-10-17T13:03:48.000Z</time>
      </trkpt>
      <trkpt lat="45.68199" lon="6.23154">
        <ele>2009</ele>
        <time>2019-10-17T13:04:05.000Z</time>
      </trkpt>
      <trkpt lat="45.68194" lon="6.23155">
        <ele>2005</ele>
        <time>2019-10-17T13:04:33.000Z</time>
      </trkpt>
      <trkpt lat="45.6819" lon="6.23158">
        <ele>2003</ele>
        <time>2019-10-17T13:04:39.257Z</time>
      </trkpt>
      <trkpt lat="45.68188" lon="6.23164">
        <ele>2001</ele>
        <time>2019-10-17T13:04:54.000Z</time>
      </trkpt>
      <trkpt lat="45.6819" lon="6.23171">
        <ele>1999</ele>
        <time>2019-10-17T13:05:14.137Z</time>
      </trkpt>
      <trkpt lat="45.68193" lon="6.23176">
        <ele>1996</ele>
        <time>2019-10-17T13:05:31.480Z</time>
      </trkpt>
      <trkpt lat="45.68191" lon="6.23183">
        <ele>1995</ele>
        <time>2019-10-17T13:05:52.281Z</time>
      </trkpt>
      <trkpt lat="45.68196" lon="6.23189">
        <ele>1996</ele>
        <time>2019-10-17T13:06:09.843Z</time>
      </trkpt>
      <trkpt lat="45.682" lon="6.23192">
        <ele>1994</ele>
        <time>2019-10-17T13:06:23.000Z</time>
      </trkpt>
      <trkpt lat="45.68203" lon="6.23198">
        <ele>1992</ele>
        <time>2019-10-17T13:06:44.000Z</time>
      </trkpt>
      <trkpt lat="45.68197" lon="6.23196">
        <ele>1987</ele>
        <time>2019-10-17T13:06:58.000Z</time>
      </trkpt>
      <trkpt lat="45.68192" lon="6.23197">
        <ele>1979</ele>
        <time>2019-10-17T13:07:15.000Z</time>
      </trkpt>
      <trkpt lat="45.68189" lon="6.23204">
        <ele>1977</ele>
        <time>2019-10-17T13:07:20.821Z</time>
      </trkpt>
      <trkpt lat="45.6819" lon="6.23214">
        <ele>1977</ele>
        <time>2019-10-17T13:07:30.398Z</time>
      </trkpt>
      <trkpt lat="45.68193" lon="6.23219">
        <ele>1978</ele>
        <time>2019-10-17T13:07:37.122Z</time>
      </trkpt>
      <trkpt lat="45.68196" lon="6.23224">
        <ele>1973</ele>
        <time>2019-10-17T13:07:48.000Z</time>
      </trkpt>
      <trkpt lat="45.68198" lon="6.23232">
        <ele>1971</ele>
        <time>2019-10-17T13:07:58.736Z</time>
      </trkpt>
      <trkpt lat="45.68202" lon="6.23234">
        <ele>1968</ele>
        <time>2019-10-17T13:08:06.000Z</time>
      </trkpt>
      <trkpt lat="45.68208" lon="6.23236">
        <ele>1965</ele>
        <time>2019-10-17T13:08:16.000Z</time>
      </trkpt>
      <trkpt lat="45.68212" lon="6.2324">
        <ele>1964</ele>
        <time>2019-10-17T13:08:28.787Z</time>
      </trkpt>
      <trkpt lat="45.68217" lon="6.23245">
        <ele>1961</ele>
        <time>2019-10-17T13:08:40.000Z</time>
      </trkpt>
      <trkpt lat="45.68215" lon="6.23252">
        <ele>1958</ele>
        <time>2019-10-17T13:08:49.399Z</time>
      </trkpt>
      <trkpt lat="45.68216" lon="6.23259">
        <ele>1956</ele>
        <time>2019-10-17T13:08:59.000Z</time>
      </trkpt>
      <trkpt lat="45.68221" lon="6.23259">
        <ele>1955</ele>
        <time>2019-10-17T13:09:10.000Z</time>
      </trkpt>
      <trkpt lat="45.68224" lon="6.23267">
        <ele>1944</ele>
        <time>2019-10-17T13:09:53.000Z</time>
      </trkpt>
      <trkpt lat="45.68226" lon="6.23273">
        <ele>1941</ele>
        <time>2019-10-17T13:10:02.116Z</time>
      </trkpt>
      <trkpt lat="45.68231" lon="6.23273">
        <ele>1936</ele>
        <time>2019-10-17T13:10:35.000Z</time>
      </trkpt>
      <trkpt lat="45.68234" lon="6.2328">
        <ele>1935</ele>
        <time>2019-10-17T13:10:45.000Z</time>
      </trkpt>
      <trkpt lat="45.68233" lon="6.23289">
        <ele>1933</ele>
        <time>2019-10-17T13:10:52.000Z</time>
      </trkpt>
      <trkpt lat="45.68229" lon="6.23295">
        <ele>1932</ele>
        <time>2019-10-17T13:10:58.533Z</time>
      </trkpt>
      <trkpt lat="45.68223" lon="6.23299">
        <ele>1930</ele>
        <time>2019-10-17T13:11:08.493Z</time>
      </trkpt>
      <trkpt lat="45.68221" lon="6.23307">
        <ele>1926</ele>
        <time>2019-10-17T13:11:23.000Z</time>
      </trkpt>
      <trkpt lat="45.68224" lon="6.23312">
        <ele>1925</ele>
        <time>2019-10-17T13:11:30.000Z</time>
      </trkpt>
      <trkpt lat="45.68222" lon="6.2332">
        <ele>1921</ele>
        <time>2019-10-17T13:11:43.279Z</time>
      </trkpt>
      <trkpt lat="45.68218" lon="6.23326">
        <ele>1919</ele>
        <time>2019-10-17T13:11:57.098Z</time>
      </trkpt>
      <trkpt lat="45.68218" lon="6.23334">
        <ele>1916</ele>
        <time>2019-10-17T13:12:03.498Z</time>
      </trkpt>
      <trkpt lat="45.68222" lon="6.2334">
        <ele>1915</ele>
        <time>2019-10-17T13:12:10.323Z</time>
      </trkpt>
      <trkpt lat="45.6822" lon="6.23348">
        <ele>1914</ele>
        <time>2019-10-17T13:12:20.309Z</time>
      </trkpt>
      <trkpt lat="45.68215" lon="6.23353">
        <ele>1910</ele>
        <time>2019-10-17T13:12:31.000Z</time>
      </trkpt>
      <trkpt lat="45.6821" lon="6.23352">
        <ele>1909</ele>
        <time>2019-10-17T13:12:36.774Z</time>
      </trkpt>
      <trkpt lat="45.68205" lon="6.23354">
        <ele>1905</ele>
        <time>2019-10-17T13:12:50.915Z</time>
      </trkpt>
      <trkpt lat="45.68205" lon="6.23362">
        <ele>1902</ele>
        <time>2019-10-17T13:13:02.000Z</time>
      </trkpt>
      <trkpt lat="45.68208" lon="6.23368">
        <ele>1901</ele>
        <time>2019-10-17T13:13:08.531Z</time>
      </trkpt>
      <trkpt lat="45.6821" lon="6.23375">
        <ele>1899</ele>
        <time>2019-10-17T13:13:23.161Z</time>
      </trkpt>
      <trkpt lat="45.68215" lon="6.23376">
        <ele>1897</ele>
        <time>2019-10-17T13:13:34.000Z</time>
      </trkpt>
      <trkpt lat="45.6822" lon="6.2338">
        <ele>1894</ele>
        <time>2019-10-17T13:13:52.000Z</time>
      </trkpt>
      <trkpt lat="45.6822" lon="6.23389">
        <ele>1892</ele>
        <time>2019-10-17T13:13:58.557Z</time>
      </trkpt>
      <trkpt lat="45.68219" lon="6.23398">
        <ele>1886</ele>
        <time>2019-10-17T13:14:08.365Z</time>
      </trkpt>
      <trkpt lat="45.68211" lon="6.23395">
        <ele>1886</ele>
        <time>2019-10-17T13:14:15.164Z</time>
      </trkpt>
      <trkpt lat="45.68212" lon="6.23402">
        <ele>1876</ele>
        <time>2019-10-17T13:14:28.974Z</time>
      </trkpt>
      <trkpt lat="45.68209" lon="6.23407">
        <ele>1874</ele>
        <time>2019-10-17T13:14:36.075Z</time>
      </trkpt>
      <trkpt lat="45.68209" lon="6.23414">
        <ele>1870</ele>
        <time>2019-10-17T13:14:50.000Z</time>
      </trkpt>
      <trkpt lat="45.68205" lon="6.23418">
        <ele>1861</ele>
        <time>2019-10-17T13:15:12.393Z</time>
      </trkpt>
      <trkpt lat="45.68206" lon="6.23428">
        <ele>1858</ele>
        <time>2019-10-17T13:15:20.000Z</time>
      </trkpt>
      <trkpt lat="45.68211" lon="6.23434">
        <ele>1855</ele>
        <time>2019-10-17T13:15:25.886Z</time>
      </trkpt>
      <trkpt lat="45.68211" lon="6.23443">
        <ele>1855</ele>
        <time>2019-10-17T13:15:33.000Z</time>
      </trkpt>
      <trkpt lat="45.68208" lon="6.2345">
        <ele>1854</ele>
        <time>2019-10-17T13:15:35.928Z</time>
      </trkpt>
      <trkpt lat="45.68217" lon="6.23454">
        <ele>1854</ele>
        <time>2019-10-17T13:15:42.578Z</time>
      </trkpt>
      <trkpt lat="45.68224" lon="6.23459">
        <ele>1853</ele>
        <time>2019-10-17T13:15:49.695Z</time>
      </trkpt>
      <trkpt lat="45.68228" lon="6.23464">
        <ele>1852</ele>
        <time>2019-10-17T13:15:57.000Z</time>
      </trkpt>
      <trkpt lat="45.68232" lon="6.23477">
        <ele>1852</ele>
        <time>2019-10-17T13:16:04.000Z</time>
      </trkpt>
      <trkpt lat="45.68233" lon="6.23489">
        <ele>1851</ele>
        <time>2019-10-17T13:16:11.000Z</time>
      </trkpt>
      <trkpt lat="45.68239" lon="6.23495">
        <ele>1851</ele>
        <time>2019-10-17T13:16:13.920Z</time>
      </trkpt>
      <trkpt lat="45.68245" lon="6.235">
        <ele>1852</ele>
        <time>2019-10-17T13:16:20.237Z</time>
      </trkpt>
      <trkpt lat="45.68249" lon="6.23507">
        <ele>1852</ele>
        <time>2019-10-17T13:16:28.000Z</time>
      </trkpt>
      <trkpt lat="45.6825" lon="6.23518">
        <ele>1850</ele>
        <time>2019-10-17T13:16:33.774Z</time>
      </trkpt>
      <trkpt lat="45.68254" lon="6.23525">
        <ele>1849</ele>
        <time>2019-10-17T13:16:40.489Z</time>
      </trkpt>
      <trkpt lat="45.68259" lon="6.23531">
        <ele>1848</ele>
        <time>2019-10-17T13:16:47.578Z</time>
      </trkpt>
      <trkpt lat="45.68263" lon="6.23537">
        <ele>1847</ele>
        <time>2019-10-17T13:16:54.278Z</time>
      </trkpt>
      <trkpt lat="45.68263" lon="6.23546">
        <ele>1846</ele>
        <time>2019-10-17T13:17:02.000Z</time>
      </trkpt>
      <trkpt lat="45.68263" lon="6.23555">
        <ele>1845</ele>
        <time>2019-10-17T13:17:10.000Z</time>
      </trkpt>
      <trkpt lat="45.68262" lon="6.23566">
        <ele>1844</ele>
        <time>2019-10-17T13:17:15.779Z</time>
      </trkpt>
      <trkpt lat="45.68266" lon="6.23574">
        <ele>1844</ele>
        <time>2019-10-17T13:17:20.000Z</time>
      </trkpt>
      <trkpt lat="45.6827" lon="6.23578">
        <ele>1843</ele>
        <time>2019-10-17T13:17:26.000Z</time>
      </trkpt>
      <trkpt lat="45.68274" lon="6.23583">
        <ele>1842</ele>
        <time>2019-10-17T13:17:33.000Z</time>
      </trkpt>
      <trkpt lat="45.68274" lon="6.23591">
        <ele>1842</ele>
        <time>2019-10-17T13:17:39.816Z</time>
      </trkpt>
      <trkpt lat="45.68274" lon="6.23604">
        <ele>1840</ele>
        <time>2019-10-17T13:17:46.750Z</time>
      </trkpt>
      <trkpt lat="45.68275" lon="6.23613">
        <ele>1838</ele>
        <time>2019-10-17T13:17:53.428Z</time>
      </trkpt>
      <trkpt lat="45.68282" lon="6.2362">
        <ele>1836</ele>
        <time>2019-10-17T13:18:00.000Z</time>
      </trkpt>
      <trkpt lat="45.68291" lon="6.2362">
        <ele>1836</ele>
        <time>2019-10-17T13:18:07.000Z</time>
      </trkpt>
      <trkpt lat="45.68298" lon="6.23621">
        <ele>1836</ele>
        <time>2019-10-17T13:18:14.000Z</time>
      </trkpt>
      <trkpt lat="45.68304" lon="6.23621">
        <ele>1835</ele>
        <time>2019-10-17T13:18:21.000Z</time>
      </trkpt>
      <trkpt lat="45.6831" lon="6.23622">
        <ele>1836</ele>
        <time>2019-10-17T13:19:07.000Z</time>
      </trkpt>
      <trkpt lat="45.68314" lon="6.23629">
        <ele>1836</ele>
        <time>2019-10-17T13:19:14.000Z</time>
      </trkpt>
      <trkpt lat="45.68318" lon="6.23634">
        <ele>1837</ele>
        <time>2019-10-17T13:19:21.000Z</time>
      </trkpt>
      <trkpt lat="45.68325" lon="6.23638">
        <ele>1834</ele>
        <time>2019-10-17T13:19:27.185Z</time>
      </trkpt>
      <trkpt lat="45.68332" lon="6.23639">
        <ele>1833</ele>
        <time>2019-10-17T13:19:33.278Z</time>
      </trkpt>
      <trkpt lat="45.68338" lon="6.23636">
        <ele>1833</ele>
        <time>2019-10-17T13:19:40.000Z</time>
      </trkpt>
      <trkpt lat="45.68344" lon="6.23642">
        <ele>1832</ele>
        <time>2019-10-17T13:19:46.262Z</time>
      </trkpt>
      <trkpt lat="45.68349" lon="6.23651">
        <ele>1831</ele>
        <time>2019-10-17T13:19:49.392Z</time>
      </trkpt>
      <trkpt lat="45.68355" lon="6.23654">
        <ele>1830</ele>
        <time>2019-10-17T13:19:55.817Z</time>
      </trkpt>
      <trkpt lat="45.6836" lon="6.23659">
        <ele>1832</ele>
        <time>2019-10-17T13:20:01.931Z</time>
      </trkpt>
      <trkpt lat="45.68368" lon="6.23664">
        <ele>1832</ele>
        <time>2019-10-17T13:20:12.533Z</time>
      </trkpt>
      <trkpt lat="45.6837" lon="6.23671">
        <ele>1832</ele>
        <time>2019-10-17T13:20:19.000Z</time>
      </trkpt>
      <trkpt lat="45.68373" lon="6.2368">
        <ele>1831</ele>
        <time>2019-10-17T13:21:20.582Z</time>
      </trkpt>
      <trkpt lat="45.68377" lon="6.23688">
        <ele>1830</ele>
        <time>2019-10-17T13:21:27.576Z</time>
      </trkpt>
      <trkpt lat="45.6838" lon="6.23697">
        <ele>1832</ele>
        <time>2019-10-17T13:21:34.761Z</time>
      </trkpt>
      <trkpt lat="45.68384" lon="6.23703">
        <ele>1832</ele>
        <time>2019-10-17T13:21:40.981Z</time>
      </trkpt>
      <trkpt lat="45.6839" lon="6.23708">
        <ele>1834</ele>
        <time>2019-10-17T13:21:51.110Z</time>
      </trkpt>
      <trkpt lat="45.68395" lon="6.2371">
        <ele>1832</ele>
        <time>2019-10-17T13:21:58.252Z</time>
      </trkpt>
      <trkpt lat="45.68402" lon="6.23714">
        <ele>1830</ele>
        <time>2019-10-17T13:22:05.571Z</time>
      </trkpt>
      <trkpt lat="45.68408" lon="6.23717">
        <ele>1828</ele>
        <time>2019-10-17T13:22:14.000Z</time>
      </trkpt>
      <trkpt lat="45.68413" lon="6.23723">
        <ele>1828</ele>
        <time>2019-10-17T13:22:18.000Z</time>
      </trkpt>
      <trkpt lat="45.68419" lon="6.23726">
        <ele>1828</ele>
        <time>2019-10-17T13:22:25.000Z</time>
      </trkpt>
      <trkpt lat="45.68424" lon="6.23727">
        <ele>1826</ele>
        <time>2019-10-17T13:22:30.988Z</time>
      </trkpt>
      <trkpt lat="45.68431" lon="6.23727">
        <ele>1825</ele>
        <time>2019-10-17T13:22:38.075Z</time>
      </trkpt>
      <trkpt lat="45.68436" lon="6.23732">
        <ele>1823</ele>
        <time>2019-10-17T13:22:44.816Z</time>
      </trkpt>
      <trkpt lat="45.68442" lon="6.23739">
        <ele>1824</ele>
        <time>2019-10-17T13:22:51.417Z</time>
      </trkpt>
      <trkpt lat="45.68445" lon="6.23747">
        <ele>1823</ele>
        <time>2019-10-17T13:22:58.000Z</time>
      </trkpt>
      <trkpt lat="45.68449" lon="6.23756">
        <ele>1823</ele>
        <time>2019-10-17T13:23:04.401Z</time>
      </trkpt>
      <trkpt lat="45.68453" lon="6.2376">
        <ele>1822</ele>
        <time>2019-10-17T13:23:08.000Z</time>
      </trkpt>
      <trkpt lat="45.68459" lon="6.23762">
        <ele>1822</ele>
        <time>2019-10-17T13:23:11.317Z</time>
      </trkpt>
      <trkpt lat="45.68464" lon="6.2377">
        <ele>1821</ele>
        <time>2019-10-17T13:23:18.510Z</time>
      </trkpt>
      <trkpt lat="45.6847" lon="6.23777">
        <ele>1820</ele>
        <time>2019-10-17T13:23:25.008Z</time>
      </trkpt>
      <trkpt lat="45.68473" lon="6.23786">
        <ele>1819</ele>
        <time>2019-10-17T13:23:31.561Z</time>
      </trkpt>
      <trkpt lat="45.68476" lon="6.23796">
        <ele>1818</ele>
        <time>2019-10-17T13:23:38.000Z</time>
      </trkpt>
      <trkpt lat="45.68482" lon="6.23802">
        <ele>1816</ele>
        <time>2019-10-17T13:23:44.568Z</time>
      </trkpt>
      <trkpt lat="45.68488" lon="6.23809">
        <ele>1813</ele>
        <time>2019-10-17T13:23:51.278Z</time>
      </trkpt>
      <trkpt lat="45.68493" lon="6.23816">
        <ele>1812</ele>
        <time>2019-10-17T13:23:58.000Z</time>
      </trkpt>
      <trkpt lat="45.68496" lon="6.23823">
        <ele>1811</ele>
        <time>2019-10-17T13:24:00.915Z</time>
      </trkpt>
      <trkpt lat="45.68501" lon="6.23838">
        <ele>1810</ele>
        <time>2019-10-17T13:24:07.515Z</time>
      </trkpt>
      <trkpt lat="45.68504" lon="6.23844">
        <ele>1809</ele>
        <time>2019-10-17T13:24:11.000Z</time>
      </trkpt>
      <trkpt lat="45.68508" lon="6.23853">
        <ele>1808</ele>
        <time>2019-10-17T13:24:18.000Z</time>
      </trkpt>
      <trkpt lat="45.68513" lon="6.23863">
        <ele>1807</ele>
        <time>2019-10-17T13:24:25.000Z</time>
      </trkpt>
      <trkpt lat="45.68515" lon="6.23869">
        <ele>1807</ele>
        <time>2019-10-17T13:24:28.556Z</time>
      </trkpt>
      <trkpt lat="45.68519" lon="6.23878">
        <ele>1804</ele>
        <time>2019-10-17T13:24:36.000Z</time>
      </trkpt>
      <trkpt lat="45.68521" lon="6.23889">
        <ele>1804</ele>
        <time>2019-10-17T13:24:41.924Z</time>
      </trkpt>
      <trkpt lat="45.68522" lon="6.23902">
        <ele>1805</ele>
        <time>2019-10-17T13:24:48.627Z</time>
      </trkpt>
      <trkpt lat="45.68517" lon="6.23915">
        <ele>1804</ele>
        <time>2019-10-17T13:24:55.142Z</time>
      </trkpt>
      <trkpt lat="45.68515" lon="6.23923">
        <ele>1802</ele>
        <time>2019-10-17T13:25:01.475Z</time>
      </trkpt>
      <trkpt lat="45.68513" lon="6.23932">
        <ele>1801</ele>
        <time>2019-10-17T13:25:09.000Z</time>
      </trkpt>
      <trkpt lat="45.68516" lon="6.23939">
        <ele>1799</ele>
        <time>2019-10-17T13:25:12.336Z</time>
      </trkpt>
      <trkpt lat="45.6852" lon="6.23949">
        <ele>1798</ele>
        <time>2019-10-17T13:25:19.000Z</time>
      </trkpt>
      <trkpt lat="45.68522" lon="6.23956">
        <ele>1797</ele>
        <time>2019-10-17T13:25:22.475Z</time>
      </trkpt>
      <trkpt lat="45.68524" lon="6.23963">
        <ele>1796</ele>
        <time>2019-10-17T13:25:29.597Z</time>
      </trkpt>
      <trkpt lat="45.68524" lon="6.23971">
        <ele>1795</ele>
        <time>2019-10-17T13:26:41.000Z</time>
      </trkpt>
      <trkpt lat="45.68528" lon="6.23969">
        <ele>1794</ele>
        <time>2019-10-17T13:29:36.000Z</time>
      </trkpt>
      <trkpt lat="45.68522" lon="6.23971">
        <ele>1796</ele>
        <time>2019-10-17T13:30:53.183Z</time>
      </trkpt>
      <trkpt lat="45.68518" lon="6.23978">
        <ele>1796</ele>
        <time>2019-10-17T13:30:56.377Z</time>
      </trkpt>
      <trkpt lat="45.68517" lon="6.23985">
        <ele>1795</ele>
        <time>2019-10-17T13:31:01.000Z</time>
      </trkpt>
      <trkpt lat="45.68514" lon="6.23992">
        <ele>1794</ele>
        <time>2019-10-17T13:31:03.817Z</time>
      </trkpt>
      <trkpt lat="45.68512" lon="6.24003">
        <ele>1793</ele>
        <time>2019-10-17T13:31:11.000Z</time>
      </trkpt>
      <trkpt lat="45.68512" lon="6.24011">
        <ele>1794</ele>
        <time>2019-10-17T13:31:15.000Z</time>
      </trkpt>
      <trkpt lat="45.68509" lon="6.24016">
        <ele>1794</ele>
        <time>2019-10-17T13:31:17.567Z</time>
      </trkpt>
      <trkpt lat="45.68507" lon="6.24024">
        <ele>1794</ele>
        <time>2019-10-17T13:31:21.044Z</time>
      </trkpt>
      <trkpt lat="45.68506" lon="6.24031">
        <ele>1793</ele>
        <time>2019-10-17T13:31:24.245Z</time>
      </trkpt>
      <trkpt lat="45.68502" lon="6.2404">
        <ele>1794</ele>
        <time>2019-10-17T13:31:30.983Z</time>
      </trkpt>
      <trkpt lat="45.68501" lon="6.24047">
        <ele>1794</ele>
        <time>2019-10-17T13:31:34.455Z</time>
      </trkpt>
      <trkpt lat="45.68502" lon="6.24057">
        <ele>1794</ele>
        <time>2019-10-17T13:31:38.000Z</time>
      </trkpt>
      <trkpt lat="45.68504" lon="6.24065">
        <ele>1796</ele>
        <time>2019-10-17T13:31:42.000Z</time>
      </trkpt>
      <trkpt lat="45.68504" lon="6.24074">
        <ele>1795</ele>
        <time>2019-10-17T13:31:47.522Z</time>
      </trkpt>
      <trkpt lat="45.68506" lon="6.24088">
        <ele>1794</ele>
        <time>2019-10-17T13:31:54.579Z</time>
      </trkpt>
      <trkpt lat="45.68508" lon="6.24098">
        <ele>1793</ele>
        <time>2019-10-17T13:32:02.000Z</time>
      </trkpt>
      <trkpt lat="45.68508" lon="6.24107">
        <ele>1788</ele>
        <time>2019-10-17T13:32:07.878Z</time>
      </trkpt>
      <trkpt lat="45.6851" lon="6.24118">
        <ele>1787</ele>
        <time>2019-10-17T13:32:16.000Z</time>
      </trkpt>
      <trkpt lat="45.68513" lon="6.24123">
        <ele>1785</ele>
        <time>2019-10-17T13:32:20.000Z</time>
      </trkpt>
      <trkpt lat="45.68517" lon="6.24134">
        <ele>1783</ele>
        <time>2019-10-17T13:32:25.678Z</time>
      </trkpt>
      <trkpt lat="45.68516" lon="6.24143">
        <ele>1783</ele>
        <time>2019-10-17T13:32:29.000Z</time>
      </trkpt>
      <trkpt lat="45.68517" lon="6.24154">
        <ele>1783</ele>
        <time>2019-10-17T13:32:32.241Z</time>
      </trkpt>
      <trkpt lat="45.6852" lon="6.24169">
        <ele>1783</ele>
        <time>2019-10-17T13:32:39.000Z</time>
      </trkpt>
      <trkpt lat="45.68525" lon="6.24176">
        <ele>1783</ele>
        <time>2019-10-17T13:32:42.000Z</time>
      </trkpt>
      <trkpt lat="45.68528" lon="6.24182">
        <ele>1783</ele>
        <time>2019-10-17T13:32:45.241Z</time>
      </trkpt>
      <trkpt lat="45.68532" lon="6.24193">
        <ele>1782</ele>
        <time>2019-10-17T13:32:52.000Z</time>
      </trkpt>
      <trkpt lat="45.68532" lon="6.24203">
        <ele>1783</ele>
        <time>2019-10-17T13:32:56.000Z</time>
      </trkpt>
      <trkpt lat="45.68532" lon="6.24213">
        <ele>1783</ele>
        <time>2019-10-17T13:33:01.864Z</time>
      </trkpt>
      <trkpt lat="45.68531" lon="6.24226">
        <ele>1782</ele>
        <time>2019-10-17T13:33:08.692Z</time>
      </trkpt>
      <trkpt lat="45.68533" lon="6.24232">
        <ele>1781</ele>
        <time>2019-10-17T13:33:11.726Z</time>
      </trkpt>
      <trkpt lat="45.68538" lon="6.24243">
        <ele>1780</ele>
        <time>2019-10-17T13:33:16.000Z</time>
      </trkpt>
      <trkpt lat="45.6854" lon="6.24252">
        <ele>1781</ele>
        <time>2019-10-17T13:33:18.498Z</time>
      </trkpt>
      <trkpt lat="45.68542" lon="6.24261">
        <ele>1781</ele>
        <time>2019-10-17T13:33:21.860Z</time>
      </trkpt>
      <trkpt lat="45.68545" lon="6.24267">
        <ele>1779</ele>
        <time>2019-10-17T13:33:26.000Z</time>
      </trkpt>
      <trkpt lat="45.68546" lon="6.24276">
        <ele>1780</ele>
        <time>2019-10-17T13:33:31.706Z</time>
      </trkpt>
      <trkpt lat="45.68544" lon="6.24286">
        <ele>1781</ele>
        <time>2019-10-17T13:33:39.000Z</time>
      </trkpt>
      <trkpt lat="45.68541" lon="6.24292">
        <ele>1781</ele>
        <time>2019-10-17T13:33:41.680Z</time>
      </trkpt>
      <trkpt lat="45.68537" lon="6.24297">
        <ele>1783</ele>
        <time>2019-10-17T13:33:46.000Z</time>
      </trkpt>
      <trkpt lat="45.68533" lon="6.24307">
        <ele>1785</ele>
        <time>2019-10-17T13:33:51.987Z</time>
      </trkpt>
      <trkpt lat="45.68532" lon="6.24314">
        <ele>1785</ele>
        <time>2019-10-17T13:33:56.000Z</time>
      </trkpt>
      <trkpt lat="45.6853" lon="6.24323">
        <ele>1787</ele>
        <time>2019-10-17T13:34:01.893Z</time>
      </trkpt>
      <trkpt lat="45.68527" lon="6.24334">
        <ele>1788</ele>
        <time>2019-10-17T13:34:10.000Z</time>
      </trkpt>
      <trkpt lat="45.68523" lon="6.24345">
        <ele>1790</ele>
        <time>2019-10-17T13:34:16.021Z</time>
      </trkpt>
      <trkpt lat="45.68518" lon="6.24353">
        <ele>1791</ele>
        <time>2019-10-17T13:34:22.285Z</time>
      </trkpt>
      <trkpt lat="45.68514" lon="6.2436">
        <ele>1793</ele>
        <time>2019-10-17T13:34:28.882Z</time>
      </trkpt>
      <trkpt lat="45.68512" lon="6.24366">
        <ele>1793</ele>
        <time>2019-10-17T13:34:33.000Z</time>
      </trkpt>
      <trkpt lat="45.68513" lon="6.24376">
        <ele>1795</ele>
        <time>2019-10-17T13:34:40.000Z</time>
      </trkpt>
      <trkpt lat="45.68514" lon="6.24383">
        <ele>1797</ele>
        <time>2019-10-17T13:34:45.822Z</time>
      </trkpt>
      <trkpt lat="45.68509" lon="6.24391">
        <ele>1798</ele>
        <time>2019-10-17T13:34:53.000Z</time>
      </trkpt>
      <trkpt lat="45.68505" lon="6.24393">
        <ele>1800</ele>
        <time>2019-10-17T13:34:55.662Z</time>
      </trkpt>
      <trkpt lat="45.685" lon="6.24393">
        <ele>1801</ele>
        <time>2019-10-17T13:35:00.000Z</time>
      </trkpt>
      <trkpt lat="45.68495" lon="6.24398">
        <ele>1802</ele>
        <time>2019-10-17T13:35:05.942Z</time>
      </trkpt>
      <trkpt lat="45.68489" lon="6.24399">
        <ele>1803</ele>
        <time>2019-10-17T13:35:15.803Z</time>
      </trkpt>
      <trkpt lat="45.68483" lon="6.24402">
        <ele>1805</ele>
        <time>2019-10-17T13:35:25.937Z</time>
      </trkpt>
      <trkpt lat="45.68486" lon="6.24412">
        <ele>1809</ele>
        <time>2019-10-17T13:40:48.080Z</time>
      </trkpt>
      <trkpt lat="45.68482" lon="6.24418">
        <ele>1812</ele>
        <time>2019-10-17T13:40:57.470Z</time>
      </trkpt>
      <trkpt lat="45.68477" lon="6.24419">
        <ele>1812</ele>
        <time>2019-10-17T13:41:04.905Z</time>
      </trkpt>
      <trkpt lat="45.68472" lon="6.24426">
        <ele>1814</ele>
        <time>2019-10-17T13:41:09.000Z</time>
      </trkpt>
      <trkpt lat="45.68469" lon="6.24429">
        <ele>1816</ele>
        <time>2019-10-17T13:41:14.673Z</time>
      </trkpt>
      <trkpt lat="45.68463" lon="6.24431">
        <ele>1819</ele>
        <time>2019-10-17T13:41:22.074Z</time>
      </trkpt>
      <trkpt lat="45.68457" lon="6.24433">
        <ele>1821</ele>
        <time>2019-10-17T13:41:28.941Z</time>
      </trkpt>
      <trkpt lat="45.68452" lon="6.24437">
        <ele>1822</ele>
        <time>2019-10-17T13:41:35.697Z</time>
      </trkpt>
      <trkpt lat="45.68448" lon="6.2444">
        <ele>1823</ele>
        <time>2019-10-17T13:41:42.092Z</time>
      </trkpt>
      <trkpt lat="45.68444" lon="6.24444">
        <ele>1826</ele>
        <time>2019-10-17T13:41:47.000Z</time>
      </trkpt>
      <trkpt lat="45.6844" lon="6.24451">
        <ele>1827</ele>
        <time>2019-10-17T13:41:54.000Z</time>
      </trkpt>
      <trkpt lat="45.68436" lon="6.24456">
        <ele>1829</ele>
        <time>2019-10-17T13:41:59.304Z</time>
      </trkpt>
      <trkpt lat="45.6843" lon="6.24463">
        <ele>1829</ele>
        <time>2019-10-17T13:42:06.764Z</time>
      </trkpt>
      <trkpt lat="45.68426" lon="6.2447">
        <ele>1828</ele>
        <time>2019-10-17T13:42:13.579Z</time>
      </trkpt>
      <trkpt lat="45.68422" lon="6.24477">
        <ele>1829</ele>
        <time>2019-10-17T13:42:20.073Z</time>
      </trkpt>
      <trkpt lat="45.6842" lon="6.24483">
        <ele>1833</ele>
        <time>2019-10-17T13:42:27.000Z</time>
      </trkpt>
      <trkpt lat="45.68416" lon="6.24492">
        <ele>1833</ele>
        <time>2019-10-17T13:42:40.000Z</time>
      </trkpt>
      <trkpt lat="45.68409" lon="6.24493">
        <ele>1835</ele>
        <time>2019-10-17T13:42:46.000Z</time>
      </trkpt>
      <trkpt lat="45.68401" lon="6.24496">
        <ele>1837</ele>
        <time>2019-10-17T13:42:52.168Z</time>
      </trkpt>
      <trkpt lat="45.68396" lon="6.24499">
        <ele>1837</ele>
        <time>2019-10-17T13:42:58.699Z</time>
      </trkpt>
      <trkpt lat="45.6839" lon="6.24501">
        <ele>1838</ele>
        <time>2019-10-17T13:43:05.232Z</time>
      </trkpt>
      <trkpt lat="45.68383" lon="6.24507">
        <ele>1840</ele>
        <time>2019-10-17T13:43:15.642Z</time>
      </trkpt>
      <trkpt lat="45.6838" lon="6.24512">
        <ele>1843</ele>
        <time>2019-10-17T13:43:25.545Z</time>
      </trkpt>
      <trkpt lat="45.68375" lon="6.24513">
        <ele>1842</ele>
        <time>2019-10-17T13:43:33.000Z</time>
      </trkpt>
      <trkpt lat="45.6837" lon="6.24517">
        <ele>1846</ele>
        <time>2019-10-17T13:43:38.872Z</time>
      </trkpt>
      <trkpt lat="45.68365" lon="6.24522">
        <ele>1846</ele>
        <time>2019-10-17T13:43:45.822Z</time>
      </trkpt>
      <trkpt lat="45.6836" lon="6.24526">
        <ele>1848</ele>
        <time>2019-10-17T13:43:55.532Z</time>
      </trkpt>
      <trkpt lat="45.68354" lon="6.24531">
        <ele>1850</ele>
        <time>2019-10-17T13:44:02.152Z</time>
      </trkpt>
      <trkpt lat="45.68349" lon="6.24537">
        <ele>1851</ele>
        <time>2019-10-17T13:44:09.075Z</time>
      </trkpt>
      <trkpt lat="45.68345" lon="6.24545">
        <ele>1852</ele>
        <time>2019-10-17T13:44:16.041Z</time>
      </trkpt>
      <trkpt lat="45.68339" lon="6.24547">
        <ele>1854</ele>
        <time>2019-10-17T13:44:23.000Z</time>
      </trkpt>
      <trkpt lat="45.68334" lon="6.24548">
        <ele>1856</ele>
        <time>2019-10-17T13:44:29.000Z</time>
      </trkpt>
      <trkpt lat="45.68329" lon="6.2455">
        <ele>1856</ele>
        <time>2019-10-17T13:44:35.375Z</time>
      </trkpt>
      <trkpt lat="45.68325" lon="6.24554">
        <ele>1857</ele>
        <time>2019-10-17T13:44:43.000Z</time>
      </trkpt>
      <trkpt lat="45.6832" lon="6.24559">
        <ele>1859</ele>
        <time>2019-10-17T13:44:49.046Z</time>
      </trkpt>
      <trkpt lat="45.68314" lon="6.24563">
        <ele>1860</ele>
        <time>2019-10-17T13:44:56.019Z</time>
      </trkpt>
      <trkpt lat="45.6831" lon="6.24571">
        <ele>1862</ele>
        <time>2019-10-17T13:45:03.000Z</time>
      </trkpt>
      <trkpt lat="45.68308" lon="6.2458">
        <ele>1862</ele>
        <time>2019-10-17T13:45:09.118Z</time>
      </trkpt>
      <trkpt lat="45.68305" lon="6.2459">
        <ele>1864</ele>
        <time>2019-10-17T13:45:15.761Z</time>
      </trkpt>
      <trkpt lat="45.68314" lon="6.24591">
        <ele>1866</ele>
        <time>2019-10-17T13:46:10.877Z</time>
      </trkpt>
      <trkpt lat="45.6832" lon="6.24593">
        <ele>1867</ele>
        <time>2019-10-17T13:46:18.000Z</time>
      </trkpt>
      <trkpt lat="45.68326" lon="6.24593">
        <ele>1868</ele>
        <time>2019-10-17T13:46:24.119Z</time>
      </trkpt>
      <trkpt lat="45.68333" lon="6.24594">
        <ele>1871</ele>
        <time>2019-10-17T13:46:30.838Z</time>
      </trkpt>
      <trkpt lat="45.68339" lon="6.24594">
        <ele>1875</ele>
        <time>2019-10-17T13:46:38.000Z</time>
      </trkpt>
      <trkpt lat="45.68346" lon="6.24594">
        <ele>1876</ele>
        <time>2019-10-17T13:46:45.000Z</time>
      </trkpt>
      <trkpt lat="45.68352" lon="6.24596">
        <ele>1876</ele>
        <time>2019-10-17T13:46:50.674Z</time>
      </trkpt>
      <trkpt lat="45.68359" lon="6.24601">
        <ele>1877</ele>
        <time>2019-10-17T13:46:57.806Z</time>
      </trkpt>
      <trkpt lat="45.68364" lon="6.24602">
        <ele>1876</ele>
        <time>2019-10-17T13:47:00.954Z</time>
      </trkpt>
      <trkpt lat="45.68371" lon="6.24602">
        <ele>1876</ele>
        <time>2019-10-17T13:47:05.000Z</time>
      </trkpt>
      <trkpt lat="45.68377" lon="6.24605">
        <ele>1875</ele>
        <time>2019-10-17T13:47:08.000Z</time>
      </trkpt>
      <trkpt lat="45.68385" lon="6.24605">
        <ele>1876</ele>
        <time>2019-10-17T13:47:14.038Z</time>
      </trkpt>
      <trkpt lat="45.6839" lon="6.24603">
        <ele>1877</ele>
        <time>2019-10-17T13:47:25.000Z</time>
      </trkpt>
      <trkpt lat="45.68396" lon="6.24613">
        <ele>1878</ele>
        <time>2019-10-17T13:47:31.082Z</time>
      </trkpt>
      <trkpt lat="45.68403" lon="6.24618">
        <ele>1880</ele>
        <time>2019-10-17T13:47:37.695Z</time>
      </trkpt>
      <trkpt lat="45.68408" lon="6.24619">
        <ele>1882</ele>
        <time>2019-10-17T13:47:45.000Z</time>
      </trkpt>
      <trkpt lat="45.68413" lon="6.24619">
        <ele>1883</ele>
        <time>2019-10-17T13:47:50.856Z</time>
      </trkpt>
      <trkpt lat="45.68418" lon="6.24625">
        <ele>1886</ele>
        <time>2019-10-17T13:47:59.000Z</time>
      </trkpt>
      <trkpt lat="45.68423" lon="6.24629">
        <ele>1888</ele>
        <time>2019-10-17T13:48:09.000Z</time>
      </trkpt>
      <trkpt lat="45.68429" lon="6.24633">
        <ele>1891</ele>
        <time>2019-10-17T13:48:22.000Z</time>
      </trkpt>
      <trkpt lat="45.68435" lon="6.24634">
        <ele>1893</ele>
        <time>2019-10-17T13:48:29.000Z</time>
      </trkpt>
      <trkpt lat="45.6844" lon="6.24637">
        <ele>1894</ele>
        <time>2019-10-17T13:48:35.000Z</time>
      </trkpt>
      <trkpt lat="45.68446" lon="6.24641">
        <ele>1895</ele>
        <time>2019-10-17T13:48:41.757Z</time>
      </trkpt>
      <trkpt lat="45.68451" lon="6.24644">
        <ele>1898</ele>
        <time>2019-10-17T13:48:49.000Z</time>
      </trkpt>
      <trkpt lat="45.68458" lon="6.24645">
        <ele>1898</ele>
        <time>2019-10-17T13:49:22.175Z</time>
      </trkpt>
      <trkpt lat="45.68464" lon="6.24644">
        <ele>1898</ele>
        <time>2019-10-17T13:49:29.007Z</time>
      </trkpt>
      <trkpt lat="45.68471" lon="6.2464">
        <ele>1900</ele>
        <time>2019-10-17T13:49:36.000Z</time>
      </trkpt>
      <trkpt lat="45.68478" lon="6.24636">
        <ele>1901</ele>
        <time>2019-10-17T13:49:42.657Z</time>
      </trkpt>
      <trkpt lat="45.68484" lon="6.24638">
        <ele>1903</ele>
        <time>2019-10-17T13:49:50.000Z</time>
      </trkpt>
      <trkpt lat="45.6849" lon="6.24638">
        <ele>1905</ele>
        <time>2019-10-17T13:49:57.000Z</time>
      </trkpt>
      <trkpt lat="45.68497" lon="6.24633">
        <ele>1906</ele>
        <time>2019-10-17T13:50:02.860Z</time>
      </trkpt>
      <trkpt lat="45.68502" lon="6.24629">
        <ele>1907</ele>
        <time>2019-10-17T13:50:10.139Z</time>
      </trkpt>
      <trkpt lat="45.68509" lon="6.2463">
        <ele>1909</ele>
        <time>2019-10-17T13:50:16.478Z</time>
      </trkpt>
      <trkpt lat="45.68501" lon="6.24641">
        <ele>1911</ele>
        <time>2019-10-17T13:50:34.841Z</time>
      </trkpt>
      <trkpt lat="45.68496" lon="6.24642">
        <ele>1913</ele>
        <time>2019-10-17T13:50:41.039Z</time>
      </trkpt>
      <trkpt lat="45.68492" lon="6.24646">
        <ele>1912</ele>
        <time>2019-10-17T13:50:47.243Z</time>
      </trkpt>
      <trkpt lat="45.68488" lon="6.24653">
        <ele>1915</ele>
        <time>2019-10-17T13:50:55.000Z</time>
      </trkpt>
      <trkpt lat="45.68492" lon="6.24662">
        <ele>1916</ele>
        <time>2019-10-17T13:51:01.075Z</time>
      </trkpt>
      <trkpt lat="45.68496" lon="6.24664">
        <ele>1917</ele>
        <time>2019-10-17T13:51:05.000Z</time>
      </trkpt>
      <trkpt lat="45.68502" lon="6.24661">
        <ele>1918</ele>
        <time>2019-10-17T13:51:07.795Z</time>
      </trkpt>
      <trkpt lat="45.68506" lon="6.24656">
        <ele>1918</ele>
        <time>2019-10-17T13:51:11.504Z</time>
      </trkpt>
      <trkpt lat="45.68512" lon="6.2465">
        <ele>1919</ele>
        <time>2019-10-17T13:51:18.027Z</time>
      </trkpt>
      <trkpt lat="45.68517" lon="6.24648">
        <ele>1921</ele>
        <time>2019-10-17T13:51:26.000Z</time>
      </trkpt>
      <trkpt lat="45.68519" lon="6.24655">
        <ele>1921</ele>
        <time>2019-10-17T13:51:34.721Z</time>
      </trkpt>
      <trkpt lat="45.68517" lon="6.24662">
        <ele>1924</ele>
        <time>2019-10-17T13:51:42.000Z</time>
      </trkpt>
      <trkpt lat="45.68512" lon="6.24667">
        <ele>1924</ele>
        <time>2019-10-17T13:51:44.882Z</time>
      </trkpt>
      <trkpt lat="45.68506" lon="6.24672">
        <ele>1925</ele>
        <time>2019-10-17T13:51:50.000Z</time>
      </trkpt>
      <trkpt lat="45.68499" lon="6.24677">
        <ele>1925</ele>
        <time>2019-10-17T13:51:57.000Z</time>
      </trkpt>
      <trkpt lat="45.68494" lon="6.24682">
        <ele>1926</ele>
        <time>2019-10-17T13:52:02.459Z</time>
      </trkpt>
      <trkpt lat="45.6849" lon="6.2469">
        <ele>1930</ele>
        <time>2019-10-17T13:52:09.520Z</time>
      </trkpt>
      <trkpt lat="45.68487" lon="6.24695">
        <ele>1932</ele>
        <time>2019-10-17T13:52:15.718Z</time>
      </trkpt>
      <trkpt lat="45.68484" lon="6.24701">
        <ele>1933</ele>
        <time>2019-10-17T13:52:21.962Z</time>
      </trkpt>
      <trkpt lat="45.6848" lon="6.24707">
        <ele>1935</ele>
        <time>2019-10-17T13:52:28.718Z</time>
      </trkpt>
      <trkpt lat="45.68483" lon="6.24714">
        <ele>1937</ele>
        <time>2019-10-17T13:52:41.815Z</time>
      </trkpt>
      <trkpt lat="45.68491" lon="6.24715">
        <ele>1939</ele>
        <time>2019-10-17T13:52:48.678Z</time>
      </trkpt>
      <trkpt lat="45.685" lon="6.24713">
        <ele>1939</ele>
        <time>2019-10-17T13:52:55.000Z</time>
      </trkpt>
      <trkpt lat="45.68504" lon="6.2471">
        <ele>1940</ele>
        <time>2019-10-17T13:52:59.000Z</time>
      </trkpt>
      <trkpt lat="45.68507" lon="6.24715">
        <ele>1941</ele>
        <time>2019-10-17T13:53:09.000Z</time>
      </trkpt>
      <trkpt lat="45.68501" lon="6.24716">
        <ele>1941</ele>
        <time>2019-10-17T13:53:12.937Z</time>
      </trkpt>
      <trkpt lat="45.68494" lon="6.24718">
        <ele>1943</ele>
        <time>2019-10-17T13:53:19.721Z</time>
      </trkpt>
      <trkpt lat="45.68488" lon="6.24722">
        <ele>1946</ele>
        <time>2019-10-17T13:53:30.000Z</time>
      </trkpt>
      <trkpt lat="45.68483" lon="6.24731">
        <ele>1947</ele>
        <time>2019-10-17T13:53:37.000Z</time>
      </trkpt>
      <trkpt lat="45.6848" lon="6.2474">
        <ele>1949</ele>
        <time>2019-10-17T13:53:43.585Z</time>
      </trkpt>
      <trkpt lat="45.6848" lon="6.24748">
        <ele>1950</ele>
        <time>2019-10-17T13:53:50.416Z</time>
      </trkpt>
      <trkpt lat="45.68485" lon="6.24751">
        <ele>1951</ele>
        <time>2019-10-17T13:53:57.000Z</time>
      </trkpt>
      <trkpt lat="45.68491" lon="6.24753">
        <ele>1952</ele>
        <time>2019-10-17T13:54:04.000Z</time>
      </trkpt>
      <trkpt lat="45.68496" lon="6.24753">
        <ele>1954</ele>
        <time>2019-10-17T13:54:10.560Z</time>
      </trkpt>
      <trkpt lat="45.68502" lon="6.2475">
        <ele>1956</ele>
        <time>2019-10-17T13:54:17.209Z</time>
      </trkpt>
      <trkpt lat="45.68507" lon="6.24752">
        <ele>1954</ele>
        <time>2019-10-17T13:54:24.242Z</time>
      </trkpt>
      <trkpt lat="45.68511" lon="6.24759">
        <ele>1960</ele>
        <time>2019-10-17T13:54:38.000Z</time>
      </trkpt>
      <trkpt lat="45.6851" lon="6.24768">
        <ele>1964</ele>
        <time>2019-10-17T13:54:48.000Z</time>
      </trkpt>
      <trkpt lat="45.68505" lon="6.24775">
        <ele>1965</ele>
        <time>2019-10-17T13:54:54.097Z</time>
      </trkpt>
      <trkpt lat="45.68501" lon="6.24779">
        <ele>1966</ele>
        <time>2019-10-17T13:54:58.000Z</time>
      </trkpt>
      <trkpt lat="45.68495" lon="6.24784">
        <ele>1966</ele>
        <time>2019-10-17T13:55:04.162Z</time>
      </trkpt>
      <trkpt lat="45.68489" lon="6.24786">
        <ele>1966</ele>
        <time>2019-10-17T13:55:10.820Z</time>
      </trkpt>
      <trkpt lat="45.68487" lon="6.24795">
        <ele>1968</ele>
        <time>2019-10-17T13:55:14.044Z</time>
      </trkpt>
      <trkpt lat="45.68481" lon="6.24802">
        <ele>1968</ele>
        <time>2019-10-17T13:55:21.000Z</time>
      </trkpt>
      <trkpt lat="45.68475" lon="6.24806">
        <ele>1970</ele>
        <time>2019-10-17T13:55:27.600Z</time>
      </trkpt>
      <trkpt lat="45.68474" lon="6.24813">
        <ele>1974</ele>
        <time>2019-10-17T13:55:41.432Z</time>
      </trkpt>
      <trkpt lat="45.68469" lon="6.24812">
        <ele>1976</ele>
        <time>2019-10-17T13:55:51.138Z</time>
      </trkpt>
      <trkpt lat="45.68462" lon="6.24813">
        <ele>1977</ele>
        <time>2019-10-17T13:56:02.000Z</time>
      </trkpt>
      <trkpt lat="45.68457" lon="6.24816">
        <ele>1978</ele>
        <time>2019-10-17T13:56:05.328Z</time>
      </trkpt>
      <trkpt lat="45.68452" lon="6.24819">
        <ele>1980</ele>
        <time>2019-10-17T13:56:12.000Z</time>
      </trkpt>
      <trkpt lat="45.68451" lon="6.24827">
        <ele>1983</ele>
        <time>2019-10-17T13:56:21.133Z</time>
      </trkpt>
      <trkpt lat="45.68449" lon="6.24833">
        <ele>1985</ele>
        <time>2019-10-17T13:56:28.000Z</time>
      </trkpt>
      <trkpt lat="45.68446" lon="6.2484">
        <ele>1986</ele>
        <time>2019-10-17T13:56:35.000Z</time>
      </trkpt>
      <trkpt lat="45.68439" lon="6.24838">
        <ele>1988</ele>
        <time>2019-10-17T13:56:45.459Z</time>
      </trkpt>
      <trkpt lat="45.68433" lon="6.24838">
        <ele>1990</ele>
        <time>2019-10-17T13:56:56.000Z</time>
      </trkpt>
      <trkpt lat="45.68427" lon="6.24837">
        <ele>1990</ele>
        <time>2019-10-17T13:57:02.858Z</time>
      </trkpt>
      <trkpt lat="45.68422" lon="6.24839">
        <ele>1991</ele>
        <time>2019-10-17T13:57:09.462Z</time>
      </trkpt>
      <trkpt lat="45.68418" lon="6.24841">
        <ele>1991</ele>
        <time>2019-10-17T13:57:16.097Z</time>
      </trkpt>
      <trkpt lat="45.68414" lon="6.24845">
        <ele>1991</ele>
        <time>2019-10-17T13:57:23.221Z</time>
      </trkpt>
      <trkpt lat="45.68409" lon="6.2485">
        <ele>1993</ele>
        <time>2019-10-17T13:58:14.000Z</time>
      </trkpt>
      <trkpt lat="45.68404" lon="6.24854">
        <ele>1995</ele>
        <time>2019-10-17T13:58:46.000Z</time>
      </trkpt>
      <trkpt lat="45.68397" lon="6.2486">
        <ele>1996</ele>
        <time>2019-10-17T13:58:49.102Z</time>
      </trkpt>
      <trkpt lat="45.68394" lon="6.24865">
        <ele>1996</ele>
        <time>2019-10-17T13:58:56.000Z</time>
      </trkpt>
      <trkpt lat="45.68393" lon="6.24872">
        <ele>1993</ele>
        <time>2019-10-17T13:59:20.000Z</time>
      </trkpt>
      <trkpt lat="45.68392" lon="6.2488">
        <ele>1993</ele>
        <time>2019-10-17T13:59:25.733Z</time>
      </trkpt>
      <trkpt lat="45.68389" lon="6.24885">
        <ele>1992</ele>
        <time>2019-10-17T13:59:30.000Z</time>
      </trkpt>
      <trkpt lat="45.68386" lon="6.24892">
        <ele>1992</ele>
        <time>2019-10-17T13:59:36.255Z</time>
      </trkpt>
      <trkpt lat="45.68384" lon="6.24898">
        <ele>1993</ele>
        <time>2019-10-17T13:59:43.000Z</time>
      </trkpt>
      <trkpt lat="45.68376" lon="6.249">
        <ele>1992</ele>
        <time>2019-10-17T13:59:56.000Z</time>
      </trkpt>
      <trkpt lat="45.68373" lon="6.24909">
        <ele>1990</ele>
        <time>2019-10-17T14:00:03.000Z</time>
      </trkpt>
      <trkpt lat="45.68373" lon="6.24918">
        <ele>1991</ele>
        <time>2019-10-17T14:00:13.380Z</time>
      </trkpt>
      <trkpt lat="45.68365" lon="6.24927">
        <ele>1991</ele>
        <time>2019-10-17T14:00:16.535Z</time>
      </trkpt>
      <trkpt lat="45.68363" lon="6.24932">
        <ele>1991</ele>
        <time>2019-10-17T14:00:20.000Z</time>
      </trkpt>
      <trkpt lat="45.68358" lon="6.24941">
        <ele>1990</ele>
        <time>2019-10-17T14:00:27.367Z</time>
      </trkpt>
      <trkpt lat="45.68356" lon="6.24947">
        <ele>1989</ele>
        <time>2019-10-17T14:00:33.713Z</time>
      </trkpt>
      <trkpt lat="45.68357" lon="6.24957">
        <ele>1991</ele>
        <time>2019-10-17T14:00:41.000Z</time>
      </trkpt>
      <trkpt lat="45.68358" lon="6.24964">
        <ele>1991</ele>
        <time>2019-10-17T14:00:52.000Z</time>
      </trkpt>
      <trkpt lat="45.68355" lon="6.24971">
        <ele>1992</ele>
        <time>2019-10-17T14:01:02.110Z</time>
      </trkpt>
      <trkpt lat="45.68352" lon="6.24976">
        <ele>1993</ele>
        <time>2019-10-17T14:01:07.000Z</time>
      </trkpt>
      <trkpt lat="45.68348" lon="6.24983">
        <ele>1995</ele>
        <time>2019-10-17T14:01:14.000Z</time>
      </trkpt>
      <trkpt lat="45.68346" lon="6.24989">
        <ele>1996</ele>
        <time>2019-10-17T14:01:19.684Z</time>
      </trkpt>
      <trkpt lat="45.68342" lon="6.24997">
        <ele>1997</ele>
        <time>2019-10-17T14:01:26.378Z</time>
      </trkpt>
      <trkpt lat="45.68339" lon="6.25003">
        <ele>1999</ele>
        <time>2019-10-17T14:01:32.652Z</time>
      </trkpt>
      <trkpt lat="45.68336" lon="6.25011">
        <ele>2000</ele>
        <time>2019-10-17T14:01:39.781Z</time>
      </trkpt>
      <trkpt lat="45.68336" lon="6.25021">
        <ele>2001</ele>
        <time>2019-10-17T14:01:47.000Z</time>
      </trkpt>
      <trkpt lat="45.68332" lon="6.2503">
        <ele>2002</ele>
        <time>2019-10-17T14:01:53.335Z</time>
      </trkpt>
      <trkpt lat="45.68331" lon="6.25038">
        <ele>2003</ele>
        <time>2019-10-17T14:02:00.000Z</time>
      </trkpt>
      <trkpt lat="45.68331" lon="6.25047">
        <ele>2004</ele>
        <time>2019-10-17T14:02:07.000Z</time>
      </trkpt>
      <trkpt lat="45.6833" lon="6.25055">
        <ele>2004</ele>
        <time>2019-10-17T14:02:14.000Z</time>
      </trkpt>
      <trkpt lat="45.68332" lon="6.2507">
        <ele>2004</ele>
        <time>2019-10-17T14:02:20.498Z</time>
      </trkpt>
      <trkpt lat="45.68332" lon="6.25079">
        <ele>2005</ele>
        <time>2019-10-17T14:02:28.000Z</time>
      </trkpt>
      <trkpt lat="45.68331" lon="6.25086">
        <ele>2005</ele>
        <time>2019-10-17T14:02:33.339Z</time>
      </trkpt>
      <trkpt lat="45.68332" lon="6.25095">
        <ele>2006</ele>
        <time>2019-10-17T14:02:39.745Z</time>
      </trkpt>
      <trkpt lat="45.68331" lon="6.25104">
        <ele>2007</ele>
        <time>2019-10-17T14:02:47.000Z</time>
      </trkpt>
      <trkpt lat="45.68334" lon="6.25111">
        <ele>2005</ele>
        <time>2019-10-17T14:03:20.000Z</time>
      </trkpt>
      <trkpt lat="45.68332" lon="6.25123">
        <ele>2007</ele>
        <time>2019-10-17T14:03:27.584Z</time>
      </trkpt>
      <trkpt lat="45.68333" lon="6.25131">
        <ele>2010</ele>
        <time>2019-10-17T14:03:35.000Z</time>
      </trkpt>
      <trkpt lat="45.68331" lon="6.25141">
        <ele>2011</ele>
        <time>2019-10-17T14:03:41.000Z</time>
      </trkpt>
      <trkpt lat="45.68328" lon="6.25149">
        <ele>2012</ele>
        <time>2019-10-17T14:03:47.113Z</time>
      </trkpt>
      <trkpt lat="45.68327" lon="6.25158">
        <ele>2013</ele>
        <time>2019-10-17T14:03:54.445Z</time>
      </trkpt>
      <trkpt lat="45.68327" lon="6.25166">
        <ele>2015</ele>
        <time>2019-10-17T14:04:00.469Z</time>
      </trkpt>
      <trkpt lat="45.68328" lon="6.25173">
        <ele>2016</ele>
        <time>2019-10-17T14:04:07.000Z</time>
      </trkpt>
      <trkpt lat="45.68332" lon="6.25179">
        <ele>2019</ele>
        <time>2019-10-17T14:04:20.000Z</time>
      </trkpt>
      <trkpt lat="45.68335" lon="6.25184">
        <ele>2020</ele>
        <time>2019-10-17T14:04:30.000Z</time>
      </trkpt>
      <trkpt lat="45.68333" lon="6.25194">
        <ele>2023</ele>
        <time>2019-10-17T14:04:39.125Z</time>
      </trkpt>
      <trkpt lat="45.68332" lon="6.25201">
        <ele>2023</ele>
        <time>2019-10-17T14:04:46.000Z</time>
      </trkpt>
      <trkpt lat="45.6833" lon="6.25208">
        <ele>2025</ele>
        <time>2019-10-17T14:05:40.393Z</time>
      </trkpt>
      <trkpt lat="45.68329" lon="6.25217">
        <ele>2025</ele>
        <time>2019-10-17T14:05:48.084Z</time>
      </trkpt>
      <trkpt lat="45.68329" lon="6.25228">
        <ele>2024</ele>
        <time>2019-10-17T14:05:54.542Z</time>
      </trkpt>
      <trkpt lat="45.68329" lon="6.25238">
        <ele>2024</ele>
        <time>2019-10-17T14:05:57.711Z</time>
      </trkpt>
      <trkpt lat="45.68331" lon="6.25245">
        <ele>2025</ele>
        <time>2019-10-17T14:06:05.044Z</time>
      </trkpt>
      <trkpt lat="45.68335" lon="6.25249">
        <ele>2026</ele>
        <time>2019-10-17T14:06:12.000Z</time>
      </trkpt>
      <trkpt lat="45.68336" lon="6.2526">
        <ele>2028</ele>
        <time>2019-10-17T14:06:19.000Z</time>
      </trkpt>
      <trkpt lat="45.68336" lon="6.2527">
        <ele>2027</ele>
        <time>2019-10-17T14:06:25.000Z</time>
      </trkpt>
      <trkpt lat="45.68336" lon="6.25279">
        <ele>2027</ele>
        <time>2019-10-17T14:06:31.000Z</time>
      </trkpt>
      <trkpt lat="45.68337" lon="6.25287">
        <ele>2027</ele>
        <time>2019-10-17T14:06:37.624Z</time>
      </trkpt>
      <trkpt lat="45.68337" lon="6.25297">
        <ele>2028</ele>
        <time>2019-10-17T14:06:44.594Z</time>
      </trkpt>
      <trkpt lat="45.68337" lon="6.25305">
        <ele>2030</ele>
        <time>2019-10-17T14:06:51.420Z</time>
      </trkpt>
      <trkpt lat="45.68334" lon="6.25311">
        <ele>2032</ele>
        <time>2019-10-17T14:06:59.000Z</time>
      </trkpt>
      <trkpt lat="45.68336" lon="6.25318">
        <ele>2033</ele>
        <time>2019-10-17T14:07:06.702Z</time>
      </trkpt>
      <trkpt lat="45.68337" lon="6.25327">
        <ele>2037</ele>
        <time>2019-10-17T14:07:17.328Z</time>
      </trkpt>
      <trkpt lat="45.68337" lon="6.25334">
        <ele>2038</ele>
        <time>2019-10-17T14:07:29.000Z</time>
      </trkpt>
      <trkpt lat="45.68336" lon="6.25341">
        <ele>2041</ele>
        <time>2019-10-17T14:07:40.000Z</time>
      </trkpt>
      <trkpt lat="45.68335" lon="6.25348">
        <ele>2041</ele>
        <time>2019-10-17T14:07:53.000Z</time>
      </trkpt>
      <trkpt lat="45.68336" lon="6.25356">
        <ele>2044</ele>
        <time>2019-10-17T14:08:01.000Z</time>
      </trkpt>
      <trkpt lat="45.6834" lon="6.25361">
        <ele>2047</ele>
        <time>2019-10-17T14:08:08.015Z</time>
      </trkpt>
      <trkpt lat="45.68343" lon="6.25366">
        <ele>2047</ele>
        <time>2019-10-17T14:08:14.817Z</time>
      </trkpt>
      <trkpt lat="45.68341" lon="6.25375">
        <ele>2049</ele>
        <time>2019-10-17T14:08:24.424Z</time>
      </trkpt>
      <trkpt lat="45.6834" lon="6.25382">
        <ele>2051</ele>
        <time>2019-10-17T14:08:31.000Z</time>
      </trkpt>
      <trkpt lat="45.6834" lon="6.25389">
        <ele>2053</ele>
        <time>2019-10-17T14:08:38.000Z</time>
      </trkpt>
      <trkpt lat="45.68339" lon="6.25397">
        <ele>2053</ele>
        <time>2019-10-17T14:08:45.000Z</time>
      </trkpt>
      <trkpt lat="45.6834" lon="6.25406">
        <ele>2053</ele>
        <time>2019-10-17T14:08:52.720Z</time>
      </trkpt>
      <trkpt lat="45.68342" lon="6.25412">
        <ele>2054</ele>
        <time>2019-10-17T14:08:59.431Z</time>
      </trkpt>
      <trkpt lat="45.68344" lon="6.25418">
        <ele>2055</ele>
        <time>2019-10-17T14:09:06.000Z</time>
      </trkpt>
      <trkpt lat="45.68348" lon="6.25425">
        <ele>2053</ele>
        <time>2019-10-17T14:09:12.959Z</time>
      </trkpt>
      <trkpt lat="45.68353" lon="6.25431">
        <ele>2052</ele>
        <time>2019-10-17T14:09:19.500Z</time>
      </trkpt>
      <trkpt lat="45.68357" lon="6.25436">
        <ele>2054</ele>
        <time>2019-10-17T14:09:26.000Z</time>
      </trkpt>
      <trkpt lat="45.6836" lon="6.25442">
        <ele>2054</ele>
        <time>2019-10-17T14:09:32.426Z</time>
      </trkpt>
      <trkpt lat="45.68362" lon="6.25448">
        <ele>2054</ele>
        <time>2019-10-17T14:09:39.000Z</time>
      </trkpt>
      <trkpt lat="45.68364" lon="6.25456">
        <ele>2058</ele>
        <time>2019-10-17T14:09:46.076Z</time>
      </trkpt>
      <trkpt lat="45.68363" lon="6.25463">
        <ele>2060</ele>
        <time>2019-10-17T14:09:49.000Z</time>
      </trkpt>
      <trkpt lat="45.68361" lon="6.25469">
        <ele>2063</ele>
        <time>2019-10-17T14:10:41.000Z</time>
      </trkpt>
      <trkpt lat="45.68361" lon="6.25478">
        <ele>2065</ele>
        <time>2019-10-17T14:17:52.000Z</time>
      </trkpt>
      <trkpt lat="45.68361" lon="6.25485">
        <ele>2065</ele>
        <time>2019-10-17T14:17:58.661Z</time>
      </trkpt>
      <trkpt lat="45.68361" lon="6.25492">
        <ele>2068</ele>
        <time>2019-10-17T14:18:17.000Z</time>
      </trkpt>
      <trkpt lat="45.68361" lon="6.255">
        <ele>2069</ele>
        <time>2019-10-17T14:18:24.000Z</time>
      </trkpt>
      <trkpt lat="45.68361" lon="6.25509">
        <ele>2071</ele>
        <time>2019-10-17T14:18:31.000Z</time>
      </trkpt>
      <trkpt lat="45.68362" lon="6.25516">
        <ele>2073</ele>
        <time>2019-10-17T14:18:37.245Z</time>
      </trkpt>
      <trkpt lat="45.68359" lon="6.25522">
        <ele>2076</ele>
        <time>2019-10-17T14:18:44.152Z</time>
      </trkpt>
      <trkpt lat="45.68356" lon="6.25527">
        <ele>2080</ele>
        <time>2019-10-17T14:18:55.000Z</time>
      </trkpt>
      <trkpt lat="45.68357" lon="6.25535">
        <ele>2083</ele>
        <time>2019-10-17T14:19:13.000Z</time>
      </trkpt>
      <trkpt lat="45.68354" lon="6.25541">
        <ele>2085</ele>
        <time>2019-10-17T14:19:23.618Z</time>
      </trkpt>
      <trkpt lat="45.68352" lon="6.25548">
        <ele>2086</ele>
        <time>2019-10-17T14:19:34.000Z</time>
      </trkpt>
      <trkpt lat="45.68351" lon="6.25555">
        <ele>2089</ele>
        <time>2019-10-17T14:19:50.792Z</time>
      </trkpt>
      <trkpt lat="45.68349" lon="6.25563">
        <ele>2092</ele>
        <time>2019-10-17T14:20:04.254Z</time>
      </trkpt>
      <trkpt lat="45.68347" lon="6.25571">
        <ele>2094</ele>
        <time>2019-10-17T14:20:16.000Z</time>
      </trkpt>
      <trkpt lat="45.68345" lon="6.25579">
        <ele>2095</ele>
        <time>2019-10-17T14:20:23.000Z</time>
      </trkpt>
      <trkpt lat="45.68341" lon="6.25583">
        <ele>2095</ele>
        <time>2019-10-17T14:20:28.270Z</time>
      </trkpt>
      <trkpt lat="45.68338" lon="6.25589">
        <ele>2096</ele>
        <time>2019-10-17T14:20:35.924Z</time>
      </trkpt>
      <trkpt lat="45.68343" lon="6.25593">
        <ele>2097</ele>
        <time>2019-10-17T14:20:47.000Z</time>
      </trkpt>
      <trkpt lat="45.68348" lon="6.25591">
        <ele>2097</ele>
        <time>2019-10-17T14:20:50.000Z</time>
      </trkpt>
      <trkpt lat="45.68353" lon="6.25585">
        <ele>2097</ele>
        <time>2019-10-17T14:20:57.000Z</time>
      </trkpt>
      <trkpt lat="45.68355" lon="6.25578">
        <ele>2098</ele>
        <time>2019-10-17T14:21:02.815Z</time>
      </trkpt>
      <trkpt lat="45.68357" lon="6.25572">
        <ele>2100</ele>
        <time>2019-10-17T14:21:10.000Z</time>
      </trkpt>
      <trkpt lat="45.68362" lon="6.25569">
        <ele>2101</ele>
        <time>2019-10-17T14:21:15.661Z</time>
      </trkpt>
      <trkpt lat="45.68366" lon="6.25566">
        <ele>2104</ele>
        <time>2019-10-17T14:21:23.059Z</time>
      </trkpt>
      <trkpt lat="45.6837" lon="6.2557">
        <ele>2106</ele>
        <time>2019-10-17T14:21:32.304Z</time>
      </trkpt>
      <trkpt lat="45.68368" lon="6.25581">
        <ele>2109</ele>
        <time>2019-10-17T14:21:40.000Z</time>
      </trkpt>
      <trkpt lat="45.68366" lon="6.25586">
        <ele>2109</ele>
        <time>2019-10-17T14:21:43.000Z</time>
      </trkpt>
      <trkpt lat="45.68363" lon="6.25593">
        <ele>2113</ele>
        <time>2019-10-17T14:21:49.295Z</time>
      </trkpt>
      <trkpt lat="45.68359" lon="6.25596">
        <ele>2114</ele>
        <time>2019-10-17T14:21:56.284Z</time>
      </trkpt>
      <trkpt lat="45.68358" lon="6.25603">
        <ele>2116</ele>
        <time>2019-10-17T14:22:06.000Z</time>
      </trkpt>
      <trkpt lat="45.68356" lon="6.2561">
        <ele>2117</ele>
        <time>2019-10-17T14:22:13.936Z</time>
      </trkpt>
      <trkpt lat="45.6836" lon="6.25613">
        <ele>2117</ele>
        <time>2019-10-17T14:22:24.000Z</time>
      </trkpt>
      <trkpt lat="45.68367" lon="6.25609">
        <ele>2118</ele>
        <time>2019-10-17T14:22:34.788Z</time>
      </trkpt>
      <trkpt lat="45.68371" lon="6.25605">
        <ele>2120</ele>
        <time>2019-10-17T14:22:44.257Z</time>
      </trkpt>
      <trkpt lat="45.68378" lon="6.25605">
        <ele>2122</ele>
        <time>2019-10-17T14:22:54.000Z</time>
      </trkpt>
      <trkpt lat="45.6838" lon="6.2561">
        <ele>2124</ele>
        <time>2019-10-17T14:23:00.000Z</time>
      </trkpt>
      <trkpt lat="45.6838" lon="6.25617">
        <ele>2126</ele>
        <time>2019-10-17T14:23:07.835Z</time>
      </trkpt>
      <trkpt lat="45.6838" lon="6.25625">
        <ele>2130</ele>
        <time>2019-10-17T14:23:17.123Z</time>
      </trkpt>
      <trkpt lat="45.6838" lon="6.25632">
        <ele>2131</ele>
        <time>2019-10-17T14:23:28.000Z</time>
      </trkpt>
      <trkpt lat="45.68377" lon="6.25637">
        <ele>2134</ele>
        <time>2019-10-17T14:23:41.554Z</time>
      </trkpt>
      <trkpt lat="45.68378" lon="6.25645">
        <ele>2135</ele>
        <time>2019-10-17T14:24:09.000Z</time>
      </trkpt>
      <trkpt lat="45.68374" lon="6.25651">
        <ele>2138</ele>
        <time>2019-10-17T14:24:38.000Z</time>
      </trkpt>
      <trkpt lat="45.6837" lon="6.25656">
        <ele>2138</ele>
        <time>2019-10-17T14:24:48.000Z</time>
      </trkpt>
      <trkpt lat="45.6837" lon="6.25663">
        <ele>2142</ele>
        <time>2019-10-17T14:24:58.177Z</time>
      </trkpt>
      <trkpt lat="45.68367" lon="6.25668">
        <ele>2143</ele>
        <time>2019-10-17T14:25:08.484Z</time>
      </trkpt>
      <trkpt lat="45.68362" lon="6.25671">
        <ele>2146</ele>
        <time>2019-10-17T14:25:19.000Z</time>
      </trkpt>
      <trkpt lat="45.68359" lon="6.25678">
        <ele>2148</ele>
        <time>2019-10-17T14:25:26.000Z</time>
      </trkpt>
      <trkpt lat="45.68358" lon="6.25685">
        <ele>2148</ele>
        <time>2019-10-17T14:25:33.000Z</time>
      </trkpt>
      <trkpt lat="45.68354" lon="6.2569">
        <ele>2152</ele>
        <time>2019-10-17T14:25:44.000Z</time>
      </trkpt>
      <trkpt lat="45.68351" lon="6.25697">
        <ele>2152</ele>
        <time>2019-10-17T14:25:49.899Z</time>
      </trkpt>
      <trkpt lat="45.68348" lon="6.25703">
        <ele>2155</ele>
        <time>2019-10-17T14:25:56.272Z</time>
      </trkpt>
      <trkpt lat="45.68347" lon="6.25709">
        <ele>2156</ele>
        <time>2019-10-17T14:26:03.778Z</time>
      </trkpt>
      <trkpt lat="45.68342" lon="6.25714">
        <ele>2158</ele>
        <time>2019-10-17T14:26:11.000Z</time>
      </trkpt>
      <trkpt lat="45.68338" lon="6.2572">
        <ele>2158</ele>
        <time>2019-10-17T14:26:21.000Z</time>
      </trkpt>
      <trkpt lat="45.68333" lon="6.25721">
        <ele>2161</ele>
        <time>2019-10-17T14:26:31.000Z</time>
      </trkpt>
      <trkpt lat="45.68331" lon="6.25728">
        <ele>2161</ele>
        <time>2019-10-17T14:26:37.668Z</time>
      </trkpt>
      <trkpt lat="45.68329" lon="6.2574">
        <ele>2163</ele>
        <time>2019-10-17T14:26:45.000Z</time>
      </trkpt>
      <trkpt lat="45.68326" lon="6.25745">
        <ele>2163</ele>
        <time>2019-10-17T14:26:50.641Z</time>
      </trkpt>
      <trkpt lat="45.68322" lon="6.25752">
        <ele>2166</ele>
        <time>2019-10-17T14:27:00.676Z</time>
      </trkpt>
      <trkpt lat="45.68319" lon="6.25759">
        <ele>2168</ele>
        <time>2019-10-17T14:27:07.620Z</time>
      </trkpt>
      <trkpt lat="45.68316" lon="6.25764">
        <ele>2169</ele>
        <time>2019-10-17T14:27:15.000Z</time>
      </trkpt>
      <trkpt lat="45.68319" lon="6.2577">
        <ele>2169</ele>
        <time>2019-10-17T14:27:20.801Z</time>
      </trkpt>
      <trkpt lat="45.68324" lon="6.2577">
        <ele>2169</ele>
        <time>2019-10-17T14:27:28.000Z</time>
      </trkpt>
      <trkpt lat="45.6833" lon="6.25765">
        <ele>2171</ele>
        <time>2019-10-17T14:27:35.000Z</time>
      </trkpt>
      <trkpt lat="45.68335" lon="6.2576">
        <ele>2172</ele>
        <time>2019-10-17T14:27:42.000Z</time>
      </trkpt>
      <trkpt lat="45.68339" lon="6.25756">
        <ele>2172</ele>
        <time>2019-10-17T14:27:49.000Z</time>
      </trkpt>
      <trkpt lat="45.68343" lon="6.25755">
        <ele>2174</ele>
        <time>2019-10-17T14:27:55.637Z</time>
      </trkpt>
      <trkpt lat="45.68348" lon="6.25755">
        <ele>2178</ele>
        <time>2019-10-17T14:28:10.269Z</time>
      </trkpt>
      <trkpt lat="45.68353" lon="6.25754">
        <ele>2180</ele>
        <time>2019-10-17T14:28:18.000Z</time>
      </trkpt>
      <trkpt lat="45.68357" lon="6.25753">
        <ele>2180</ele>
        <time>2019-10-17T14:28:24.000Z</time>
      </trkpt>
      <trkpt lat="45.68364" lon="6.25751">
        <ele>2182</ele>
        <time>2019-10-17T14:28:31.000Z</time>
      </trkpt>
      <trkpt lat="45.68369" lon="6.25749">
        <ele>2183</ele>
        <time>2019-10-17T14:28:38.000Z</time>
      </trkpt>
      <trkpt lat="45.68375" lon="6.25746">
        <ele>2184</ele>
        <time>2019-10-17T14:28:45.000Z</time>
      </trkpt>
      <trkpt lat="45.68379" lon="6.25745">
        <ele>2185</ele>
        <time>2019-10-17T14:28:52.000Z</time>
      </trkpt>
      <trkpt lat="45.68377" lon="6.25754">
        <ele>2188</ele>
        <time>2019-10-17T14:29:03.000Z</time>
      </trkpt>
      <trkpt lat="45.68374" lon="6.25761">
        <ele>2189</ele>
        <time>2019-10-17T14:29:10.000Z</time>
      </trkpt>
      <trkpt lat="45.6837" lon="6.25769">
        <ele>2192</ele>
        <time>2019-10-17T14:29:19.669Z</time>
      </trkpt>
      <trkpt lat="45.68366" lon="6.25775">
        <ele>2194</ele>
        <time>2019-10-17T14:29:29.084Z</time>
      </trkpt>
      <trkpt lat="45.68363" lon="6.25782">
        <ele>2196</ele>
        <time>2019-10-17T14:29:36.000Z</time>
      </trkpt>
      <trkpt lat="45.68361" lon="6.25789">
        <ele>2197</ele>
        <time>2019-10-17T14:29:42.508Z</time>
      </trkpt>
      <trkpt lat="45.68366" lon="6.2579">
        <ele>2197</ele>
        <time>2019-10-17T14:29:56.023Z</time>
      </trkpt>
      <trkpt lat="45.68371" lon="6.25786">
        <ele>2199</ele>
        <time>2019-10-17T14:30:04.000Z</time>
      </trkpt>
      <trkpt lat="45.68375" lon="6.25785">
        <ele>2200</ele>
        <time>2019-10-17T14:30:10.498Z</time>
      </trkpt>
      <trkpt lat="45.68382" lon="6.25783">
        <ele>2201</ele>
        <time>2019-10-17T14:30:22.000Z</time>
      </trkpt>
      <trkpt lat="45.68388" lon="6.25781">
        <ele>2202</ele>
        <time>2019-10-17T14:30:28.440Z</time>
      </trkpt>
      <trkpt lat="45.68392" lon="6.2578">
        <ele>2203</ele>
        <time>2019-10-17T14:30:35.000Z</time>
      </trkpt>
      <trkpt lat="45.68399" lon="6.2578">
        <ele>2205</ele>
        <time>2019-10-17T14:30:42.000Z</time>
      </trkpt>
      <trkpt lat="45.68397" lon="6.25788">
        <ele>2210</ele>
        <time>2019-10-17T14:31:03.391Z</time>
      </trkpt>
      <trkpt lat="45.68395" lon="6.25794">
        <ele>2213</ele>
        <time>2019-10-17T14:31:10.000Z</time>
      </trkpt>
      <trkpt lat="45.68393" lon="6.25802">
        <ele>2214</ele>
        <time>2019-10-17T14:31:16.968Z</time>
      </trkpt>
      <trkpt lat="45.68388" lon="6.25808">
        <ele>2216</ele>
        <time>2019-10-17T14:31:29.645Z</time>
      </trkpt>
      <trkpt lat="45.68387" lon="6.25815">
        <ele>2217</ele>
        <time>2019-10-17T14:31:35.916Z</time>
      </trkpt>
      <trkpt lat="45.68387" lon="6.25821">
        <ele>2219</ele>
        <time>2019-10-17T14:31:57.073Z</time>
      </trkpt>
      <trkpt lat="45.68391" lon="6.25825">
        <ele>2219</ele>
        <time>2019-10-17T14:32:50.000Z</time>
      </trkpt>
      <trkpt lat="45.68394" lon="6.25831">
        <ele>2217</ele>
        <time>2019-10-17T14:33:29.000Z</time>
      </trkpt>
      <trkpt lat="45.68389" lon="6.25827">
        <ele>2222</ele>
        <time>2019-10-17T14:34:45.000Z</time>
      </trkpt>
      <trkpt lat="45.68381" lon="6.25825">
        <ele>2221</ele>
        <time>2019-10-17T14:49:16.575Z</time>
      </trkpt>
      <trkpt lat="45.68377" lon="6.25828">
        <ele>2223</ele>
        <time>2019-10-17T14:49:31.000Z</time>
      </trkpt>
      <trkpt lat="45.68376" lon="6.25821">
        <ele>2221</ele>
        <time>2019-10-17T14:52:26.883Z</time>
      </trkpt>
      <trkpt lat="45.6837" lon="6.25823">
        <ele>2219</ele>
        <time>2019-10-17T14:52:36.859Z</time>
      </trkpt>
      <trkpt lat="45.68363" lon="6.25822">
        <ele>2217</ele>
        <time>2019-10-17T14:52:45.000Z</time>
      </trkpt>
      <trkpt lat="45.68357" lon="6.2582">
        <ele>2215</ele>
        <time>2019-10-17T14:52:52.000Z</time>
      </trkpt>
      <trkpt lat="45.68352" lon="6.25821">
        <ele>2211</ele>
        <time>2019-10-17T14:53:03.000Z</time>
      </trkpt>
      <trkpt lat="45.68347" lon="6.25817">
        <ele>2209</ele>
        <time>2019-10-17T14:53:13.000Z</time>
      </trkpt>
      <trkpt lat="45.68343" lon="6.25813">
        <ele>2205</ele>
        <time>2019-10-17T14:53:26.000Z</time>
      </trkpt>
      <trkpt lat="45.68336" lon="6.25817">
        <ele>2202</ele>
        <time>2019-10-17T14:53:37.000Z</time>
      </trkpt>
      <trkpt lat="45.68331" lon="6.25815">
        <ele>2198</ele>
        <time>2019-10-17T14:53:47.000Z</time>
      </trkpt>
      <trkpt lat="45.68326" lon="6.25818">
        <ele>2196</ele>
        <time>2019-10-17T14:53:54.000Z</time>
      </trkpt>
      <trkpt lat="45.6832" lon="6.25821">
        <ele>2193</ele>
        <time>2019-10-17T14:54:01.000Z</time>
      </trkpt>
      <trkpt lat="45.68315" lon="6.25823">
        <ele>2190</ele>
        <time>2019-10-17T14:54:08.000Z</time>
      </trkpt>
      <trkpt lat="45.68314" lon="6.25831">
        <ele>2188</ele>
        <time>2019-10-17T14:54:15.000Z</time>
      </trkpt>
      <trkpt lat="45.68308" lon="6.25838">
        <ele>2187</ele>
        <time>2019-10-17T14:54:22.000Z</time>
      </trkpt>
      <trkpt lat="45.68303" lon="6.25841">
        <ele>2186</ele>
        <time>2019-10-17T14:54:25.000Z</time>
      </trkpt>
      <trkpt lat="45.68296" lon="6.25845">
        <ele>2184</ele>
        <time>2019-10-17T14:54:30.759Z</time>
      </trkpt>
      <trkpt lat="45.68289" lon="6.25848">
        <ele>2183</ele>
        <time>2019-10-17T14:54:38.000Z</time>
      </trkpt>
      <trkpt lat="45.68283" lon="6.25854">
        <ele>2180</ele>
        <time>2019-10-17T14:54:45.000Z</time>
      </trkpt>
      <trkpt lat="45.68274" lon="6.25862">
        <ele>2176</ele>
        <time>2019-10-17T14:55:01.000Z</time>
      </trkpt>
      <trkpt lat="45.68269" lon="6.25863">
        <ele>2176</ele>
        <time>2019-10-17T14:55:03.301Z</time>
      </trkpt>
      <trkpt lat="45.68261" lon="6.25865">
        <ele>2174</ele>
        <time>2019-10-17T14:55:12.000Z</time>
      </trkpt>
      <trkpt lat="45.68255" lon="6.25867">
        <ele>2173</ele>
        <time>2019-10-17T14:55:17.424Z</time>
      </trkpt>
      <trkpt lat="45.68246" lon="6.25871">
        <ele>2172</ele>
        <time>2019-10-17T14:55:25.000Z</time>
      </trkpt>
      <trkpt lat="45.68242" lon="6.25873">
        <ele>2171</ele>
        <time>2019-10-17T14:55:36.000Z</time>
      </trkpt>
      <trkpt lat="45.68238" lon="6.25867">
        <ele>2167</ele>
        <time>2019-10-17T14:55:46.000Z</time>
      </trkpt>
      <trkpt lat="45.68242" lon="6.25874">
        <ele>2164</ele>
        <time>2019-10-17T14:55:59.000Z</time>
      </trkpt>
      <trkpt lat="45.68245" lon="6.2588">
        <ele>2164</ele>
        <time>2019-10-17T14:56:01.712Z</time>
      </trkpt>
      <trkpt lat="45.68248" lon="6.25887">
        <ele>2163</ele>
        <time>2019-10-17T14:56:05.024Z</time>
      </trkpt>
      <trkpt lat="45.68251" lon="6.25894">
        <ele>2162</ele>
        <time>2019-10-17T14:56:14.000Z</time>
      </trkpt>
      <trkpt lat="45.68255" lon="6.25902">
        <ele>2160</ele>
        <time>2019-10-17T14:56:19.675Z</time>
      </trkpt>
      <trkpt lat="45.68259" lon="6.25905">
        <ele>2158</ele>
        <time>2019-10-17T14:56:27.114Z</time>
      </trkpt>
      <trkpt lat="45.68254" lon="6.25902">
        <ele>2154</ele>
        <time>2019-10-17T14:56:37.907Z</time>
      </trkpt>
      <trkpt lat="45.68248" lon="6.25906">
        <ele>2153</ele>
        <time>2019-10-17T14:56:45.000Z</time>
      </trkpt>
      <trkpt lat="45.68243" lon="6.25911">
        <ele>2150</ele>
        <time>2019-10-17T14:56:52.000Z</time>
      </trkpt>
      <trkpt lat="45.68247" lon="6.25924">
        <ele>2147</ele>
        <time>2019-10-17T14:57:02.000Z</time>
      </trkpt>
      <trkpt lat="45.68249" lon="6.2593">
        <ele>2144</ele>
        <time>2019-10-17T14:57:10.999Z</time>
      </trkpt>
      <trkpt lat="45.68245" lon="6.25933">
        <ele>2142</ele>
        <time>2019-10-17T14:57:17.283Z</time>
      </trkpt>
      <trkpt lat="45.68242" lon="6.25938">
        <ele>2139</ele>
        <time>2019-10-17T14:57:24.448Z</time>
      </trkpt>
      <trkpt lat="45.68236" lon="6.25938">
        <ele>2137</ele>
        <time>2019-10-17T14:57:33.000Z</time>
      </trkpt>
      <trkpt lat="45.6823" lon="6.25939">
        <ele>2134</ele>
        <time>2019-10-17T14:57:41.863Z</time>
      </trkpt>
      <trkpt lat="45.68225" lon="6.25942">
        <ele>2132</ele>
        <time>2019-10-17T14:57:51.694Z</time>
      </trkpt>
      <trkpt lat="45.68219" lon="6.25944">
        <ele>2129</ele>
        <time>2019-10-17T14:58:06.000Z</time>
      </trkpt>
      <trkpt lat="45.68216" lon="6.25949">
        <ele>2127</ele>
        <time>2019-10-17T14:58:12.073Z</time>
      </trkpt>
      <trkpt lat="45.68213" lon="6.25956">
        <ele>2125</ele>
        <time>2019-10-17T14:58:26.084Z</time>
      </trkpt>
      <trkpt lat="45.68208" lon="6.25959">
        <ele>2122</ele>
        <time>2019-10-17T14:58:34.000Z</time>
      </trkpt>
      <trkpt lat="45.68203" lon="6.25959">
        <ele>2119</ele>
        <time>2019-10-17T14:58:44.000Z</time>
      </trkpt>
      <trkpt lat="45.68202" lon="6.25966">
        <ele>2116</ele>
        <time>2019-10-17T14:58:57.000Z</time>
      </trkpt>
      <trkpt lat="45.68204" lon="6.25973">
        <ele>2115</ele>
        <time>2019-10-17T14:59:03.119Z</time>
      </trkpt>
      <trkpt lat="45.68203" lon="6.25979">
        <ele>2111</ele>
        <time>2019-10-17T14:59:13.079Z</time>
      </trkpt>
      <trkpt lat="45.68205" lon="6.25986">
        <ele>2109</ele>
        <time>2019-10-17T14:59:22.000Z</time>
      </trkpt>
      <trkpt lat="45.682" lon="6.25989">
        <ele>2107</ele>
        <time>2019-10-17T14:59:32.000Z</time>
      </trkpt>
      <trkpt lat="45.68195" lon="6.25989">
        <ele>2105</ele>
        <time>2019-10-17T14:59:39.000Z</time>
      </trkpt>
      <trkpt lat="45.68193" lon="6.25982">
        <ele>2104</ele>
        <time>2019-10-17T15:00:51.000Z</time>
      </trkpt>
      <trkpt lat="45.68189" lon="6.25986">
        <ele>2101</ele>
        <time>2019-10-17T15:06:59.494Z</time>
      </trkpt>
      <trkpt lat="45.68189" lon="6.25993">
        <ele>2100</ele>
        <time>2019-10-17T15:07:03.117Z</time>
      </trkpt>
      <trkpt lat="45.6819" lon="6.26">
        <ele>2098</ele>
        <time>2019-10-17T15:07:10.160Z</time>
      </trkpt>
      <trkpt lat="45.68191" lon="6.26007">
        <ele>2097</ele>
        <time>2019-10-17T15:07:16.477Z</time>
      </trkpt>
      <trkpt lat="45.68192" lon="6.26014">
        <ele>2094</ele>
        <time>2019-10-17T15:07:23.343Z</time>
      </trkpt>
      <trkpt lat="45.68192" lon="6.26021">
        <ele>2091</ele>
        <time>2019-10-17T15:07:33.103Z</time>
      </trkpt>
      <trkpt lat="45.68189" lon="6.26028">
        <ele>2088</ele>
        <time>2019-10-17T15:07:39.957Z</time>
      </trkpt>
      <trkpt lat="45.68185" lon="6.26035">
        <ele>2083</ele>
        <time>2019-10-17T15:07:48.000Z</time>
      </trkpt>
      <trkpt lat="45.68186" lon="6.26042">
        <ele>2081</ele>
        <time>2019-10-17T15:07:54.392Z</time>
      </trkpt>
      <trkpt lat="45.68185" lon="6.26053">
        <ele>2075</ele>
        <time>2019-10-17T15:08:12.010Z</time>
      </trkpt>
      <trkpt lat="45.68185" lon="6.2606">
        <ele>2073</ele>
        <time>2019-10-17T15:08:16.000Z</time>
      </trkpt>
      <trkpt lat="45.68186" lon="6.26071">
        <ele>2071</ele>
        <time>2019-10-17T15:08:23.000Z</time>
      </trkpt>
      <trkpt lat="45.68187" lon="6.26078">
        <ele>2070</ele>
        <time>2019-10-17T15:08:29.000Z</time>
      </trkpt>
      <trkpt lat="45.68186" lon="6.26085">
        <ele>2067</ele>
        <time>2019-10-17T15:08:37.000Z</time>
      </trkpt>
      <trkpt lat="45.68185" lon="6.26093">
        <ele>2063</ele>
        <time>2019-10-17T15:08:43.090Z</time>
      </trkpt>
      <trkpt lat="45.68185" lon="6.26102">
        <ele>2061</ele>
        <time>2019-10-17T15:08:51.000Z</time>
      </trkpt>
      <trkpt lat="45.68184" lon="6.26109">
        <ele>2058</ele>
        <time>2019-10-17T15:08:58.000Z</time>
      </trkpt>
      <trkpt lat="45.68183" lon="6.26118">
        <ele>2056</ele>
        <time>2019-10-17T15:09:04.207Z</time>
      </trkpt>
      <trkpt lat="45.68186" lon="6.26125">
        <ele>2054</ele>
        <time>2019-10-17T15:09:12.000Z</time>
      </trkpt>
      <trkpt lat="45.68183" lon="6.26135">
        <ele>2052</ele>
        <time>2019-10-17T15:09:17.763Z</time>
      </trkpt>
      <trkpt lat="45.68182" lon="6.26145">
        <ele>2049</ele>
        <time>2019-10-17T15:09:24.821Z</time>
      </trkpt>
      <trkpt lat="45.68181" lon="6.26154">
        <ele>2046</ele>
        <time>2019-10-17T15:09:31.757Z</time>
      </trkpt>
      <trkpt lat="45.68178" lon="6.26164">
        <ele>2042</ele>
        <time>2019-10-17T15:09:39.052Z</time>
      </trkpt>
      <trkpt lat="45.68176" lon="6.26172">
        <ele>2040</ele>
        <time>2019-10-17T15:09:45.655Z</time>
      </trkpt>
      <trkpt lat="45.68175" lon="6.26182">
        <ele>2038</ele>
        <time>2019-10-17T15:09:52.334Z</time>
      </trkpt>
      <trkpt lat="45.68174" lon="6.26193">
        <ele>2035</ele>
        <time>2019-10-17T15:09:59.332Z</time>
      </trkpt>
      <trkpt lat="45.68175" lon="6.26203">
        <ele>2034</ele>
        <time>2019-10-17T15:10:07.000Z</time>
      </trkpt>
      <trkpt lat="45.68174" lon="6.26213">
        <ele>2033</ele>
        <time>2019-10-17T15:10:12.476Z</time>
      </trkpt>
      <trkpt lat="45.68172" lon="6.26224">
        <ele>2030</ele>
        <time>2019-10-17T15:10:20.000Z</time>
      </trkpt>
      <trkpt lat="45.68171" lon="6.26232">
        <ele>2028</ele>
        <time>2019-10-17T15:10:26.023Z</time>
      </trkpt>
      <trkpt lat="45.68172" lon="6.26243">
        <ele>2026</ele>
        <time>2019-10-17T15:10:32.798Z</time>
      </trkpt>
      <trkpt lat="45.68174" lon="6.26251">
        <ele>2022</ele>
        <time>2019-10-17T15:10:39.271Z</time>
      </trkpt>
      <trkpt lat="45.68174" lon="6.26261">
        <ele>2019</ele>
        <time>2019-10-17T15:10:47.000Z</time>
      </trkpt>
      <trkpt lat="45.68173" lon="6.26269">
        <ele>2014</ele>
        <time>2019-10-17T15:10:53.279Z</time>
      </trkpt>
      <trkpt lat="45.68171" lon="6.26278">
        <ele>2013</ele>
        <time>2019-10-17T15:11:00.012Z</time>
      </trkpt>
      <trkpt lat="45.68169" lon="6.26289">
        <ele>2010</ele>
        <time>2019-10-17T15:11:08.000Z</time>
      </trkpt>
      <trkpt lat="45.68167" lon="6.26298">
        <ele>2008</ele>
        <time>2019-10-17T15:11:13.401Z</time>
      </trkpt>
      <trkpt lat="45.68165" lon="6.26308">
        <ele>2005</ele>
        <time>2019-10-17T15:11:20.399Z</time>
      </trkpt>
      <trkpt lat="45.68165" lon="6.26315">
        <ele>2004</ele>
        <time>2019-10-17T15:11:23.822Z</time>
      </trkpt>
      <trkpt lat="45.68163" lon="6.26325">
        <ele>2002</ele>
        <time>2019-10-17T15:11:30.133Z</time>
      </trkpt>
      <trkpt lat="45.68162" lon="6.26331">
        <ele>2001</ele>
        <time>2019-10-17T15:11:34.000Z</time>
      </trkpt>
      <trkpt lat="45.68159" lon="6.26343">
        <ele>2000</ele>
        <time>2019-10-17T15:11:39.839Z</time>
      </trkpt>
      <trkpt lat="45.68157" lon="6.26353">
        <ele>1998</ele>
        <time>2019-10-17T15:11:47.000Z</time>
      </trkpt>
      <trkpt lat="45.68153" lon="6.26364">
        <ele>1996</ele>
        <time>2019-10-17T15:11:53.239Z</time>
      </trkpt>
      <trkpt lat="45.68151" lon="6.26376">
        <ele>1994</ele>
        <time>2019-10-17T15:11:59.683Z</time>
      </trkpt>
      <trkpt lat="45.6815" lon="6.26387">
        <ele>1993</ele>
        <time>2019-10-17T15:12:06.140Z</time>
      </trkpt>
      <trkpt lat="45.68148" lon="6.26398">
        <ele>1992</ele>
        <time>2019-10-17T15:12:12.852Z</time>
      </trkpt>
      <trkpt lat="45.68145" lon="6.26404">
        <ele>1991</ele>
        <time>2019-10-17T15:12:17.000Z</time>
      </trkpt>
      <trkpt lat="45.68141" lon="6.26413">
        <ele>1990</ele>
        <time>2019-10-17T15:12:22.362Z</time>
      </trkpt>
      <trkpt lat="45.68135" lon="6.2642">
        <ele>1989</ele>
        <time>2019-10-17T15:12:29.161Z</time>
      </trkpt>
      <trkpt lat="45.6813" lon="6.26428">
        <ele>1987</ele>
        <time>2019-10-17T15:12:35.619Z</time>
      </trkpt>
      <trkpt lat="45.6813" lon="6.26435">
        <ele>1986</ele>
        <time>2019-10-17T15:12:38.881Z</time>
      </trkpt>
      <trkpt lat="45.68131" lon="6.26442">
        <ele>1985</ele>
        <time>2019-10-17T15:12:43.000Z</time>
      </trkpt>
      <trkpt lat="45.6813" lon="6.26451">
        <ele>1983</ele>
        <time>2019-10-17T15:12:48.686Z</time>
      </trkpt>
      <trkpt lat="45.68128" lon="6.2646">
        <ele>1982</ele>
        <time>2019-10-17T15:12:56.000Z</time>
      </trkpt>
      <trkpt lat="45.68128" lon="6.26469">
        <ele>1979</ele>
        <time>2019-10-17T15:13:06.000Z</time>
      </trkpt>
      <trkpt lat="45.68125" lon="6.26478">
        <ele>1977</ele>
        <time>2019-10-17T15:13:13.000Z</time>
      </trkpt>
      <trkpt lat="45.6812" lon="6.2649">
        <ele>1976</ele>
        <time>2019-10-17T15:13:18.493Z</time>
      </trkpt>
      <trkpt lat="45.68117" lon="6.26496">
        <ele>1975</ele>
        <time>2019-10-17T15:13:21.836Z</time>
      </trkpt>
      <trkpt lat="45.68113" lon="6.26506">
        <ele>1974</ele>
        <time>2019-10-17T15:13:28.440Z</time>
      </trkpt>
      <trkpt lat="45.68111" lon="6.26512">
        <ele>1973</ele>
        <time>2019-10-17T15:13:32.073Z</time>
      </trkpt>
      <trkpt lat="45.68107" lon="6.26517">
        <ele>1971</ele>
        <time>2019-10-17T15:13:38.600Z</time>
      </trkpt>
      <trkpt lat="45.68105" lon="6.26525">
        <ele>1969</ele>
        <time>2019-10-17T15:13:46.000Z</time>
      </trkpt>
      <trkpt lat="45.68106" lon="6.26532">
        <ele>1968</ele>
        <time>2019-10-17T15:13:48.655Z</time>
      </trkpt>
      <trkpt lat="45.68106" lon="6.26544">
        <ele>1964</ele>
        <time>2019-10-17T15:13:57.000Z</time>
      </trkpt>
      <trkpt lat="45.68102" lon="6.26553">
        <ele>1963</ele>
        <time>2019-10-17T15:14:02.942Z</time>
      </trkpt>
      <trkpt lat="45.68099" lon="6.26563">
        <ele>1959</ele>
        <time>2019-10-17T15:14:11.000Z</time>
      </trkpt>
      <trkpt lat="45.68096" lon="6.26569">
        <ele>1959</ele>
        <time>2019-10-17T15:14:17.049Z</time>
      </trkpt>
      <trkpt lat="45.68095" lon="6.2658">
        <ele>1958</ele>
        <time>2019-10-17T15:14:23.656Z</time>
      </trkpt>
      <trkpt lat="45.68095" lon="6.26594">
        <ele>1956</ele>
        <time>2019-10-17T15:14:30.582Z</time>
      </trkpt>
      <trkpt lat="45.68094" lon="6.26601">
        <ele>1956</ele>
        <time>2019-10-17T15:14:33.886Z</time>
      </trkpt>
      <trkpt lat="45.68091" lon="6.26612">
        <ele>1953</ele>
        <time>2019-10-17T15:14:40.930Z</time>
      </trkpt>
      <trkpt lat="45.68094" lon="6.2662">
        <ele>1951</ele>
        <time>2019-10-17T15:14:47.585Z</time>
      </trkpt>
      <trkpt lat="45.68094" lon="6.2663">
        <ele>1950</ele>
        <time>2019-10-17T15:14:54.151Z</time>
      </trkpt>
      <trkpt lat="45.68091" lon="6.26636">
        <ele>1949</ele>
        <time>2019-10-17T15:14:57.581Z</time>
      </trkpt>
      <trkpt lat="45.68088" lon="6.26647">
        <ele>1946</ele>
        <time>2019-10-17T15:15:06.000Z</time>
      </trkpt>
      <trkpt lat="45.6809" lon="6.26656">
        <ele>1942</ele>
        <time>2019-10-17T15:15:32.086Z</time>
      </trkpt>
      <trkpt lat="45.68089" lon="6.26666">
        <ele>1940</ele>
        <time>2019-10-17T15:15:38.388Z</time>
      </trkpt>
      <trkpt lat="45.68091" lon="6.26677">
        <ele>1939</ele>
        <time>2019-10-17T15:15:44.985Z</time>
      </trkpt>
      <trkpt lat="45.6809" lon="6.26686">
        <ele>1936</ele>
        <time>2019-10-17T15:15:51.857Z</time>
      </trkpt>
      <trkpt lat="45.68087" lon="6.26693">
        <ele>1933</ele>
        <time>2019-10-17T15:15:58.319Z</time>
      </trkpt>
      <trkpt lat="45.68081" lon="6.26698">
        <ele>1931</ele>
        <time>2019-10-17T15:16:05.296Z</time>
      </trkpt>
      <trkpt lat="45.68078" lon="6.26706">
        <ele>1927</ele>
        <time>2019-10-17T15:16:11.768Z</time>
      </trkpt>
      <trkpt lat="45.68075" lon="6.26713">
        <ele>1924</ele>
        <time>2019-10-17T15:16:19.000Z</time>
      </trkpt>
      <trkpt lat="45.68074" lon="6.26722">
        <ele>1922</ele>
        <time>2019-10-17T15:16:25.000Z</time>
      </trkpt>
      <trkpt lat="45.6807" lon="6.26726">
        <ele>1921</ele>
        <time>2019-10-17T15:16:28.105Z</time>
      </trkpt>
      <trkpt lat="45.68063" lon="6.26732">
        <ele>1919</ele>
        <time>2019-10-17T15:16:34.737Z</time>
      </trkpt>
      <trkpt lat="45.68059" lon="6.26741">
        <ele>1916</ele>
        <time>2019-10-17T15:16:41.156Z</time>
      </trkpt>
      <trkpt lat="45.68053" lon="6.26744">
        <ele>1914</ele>
        <time>2019-10-17T15:16:49.000Z</time>
      </trkpt>
      <trkpt lat="45.68045" lon="6.26751">
        <ele>1911</ele>
        <time>2019-10-17T15:16:54.499Z</time>
      </trkpt>
      <trkpt lat="45.6804" lon="6.26756">
        <ele>1909</ele>
        <time>2019-10-17T15:17:01.106Z</time>
      </trkpt>
      <trkpt lat="45.68036" lon="6.26766">
        <ele>1906</ele>
        <time>2019-10-17T15:17:09.000Z</time>
      </trkpt>
      <trkpt lat="45.68033" lon="6.2677">
        <ele>1904</ele>
        <time>2019-10-17T15:17:12.000Z</time>
      </trkpt>
      <trkpt lat="45.6803" lon="6.26777">
        <ele>1900</ele>
        <time>2019-10-17T15:17:22.000Z</time>
      </trkpt>
      <trkpt lat="45.68024" lon="6.26781">
        <ele>1898</ele>
        <time>2019-10-17T15:17:49.302Z</time>
      </trkpt>
      <trkpt lat="45.68018" lon="6.26785">
        <ele>1896</ele>
        <time>2019-10-17T15:17:55.927Z</time>
      </trkpt>
      <trkpt lat="45.68016" lon="6.26796">
        <ele>1893</ele>
        <time>2019-10-17T15:18:04.000Z</time>
      </trkpt>
      <trkpt lat="45.68015" lon="6.26803">
        <ele>1891</ele>
        <time>2019-10-17T15:18:06.302Z</time>
      </trkpt>
      <trkpt lat="45.68015" lon="6.2681">
        <ele>1889</ele>
        <time>2019-10-17T15:18:14.000Z</time>
      </trkpt>
      <trkpt lat="45.68005" lon="6.26809">
        <ele>1881</ele>
        <time>2019-10-17T15:18:31.458Z</time>
      </trkpt>
      <trkpt lat="45.67997" lon="6.26815">
        <ele>1879</ele>
        <time>2019-10-17T15:18:39.000Z</time>
      </trkpt>
      <trkpt lat="45.67992" lon="6.26821">
        <ele>1876</ele>
        <time>2019-10-17T15:18:44.782Z</time>
      </trkpt>
      <trkpt lat="45.67988" lon="6.26827">
        <ele>1874</ele>
        <time>2019-10-17T15:18:51.359Z</time>
      </trkpt>
      <trkpt lat="45.67984" lon="6.26835">
        <ele>1871</ele>
        <time>2019-10-17T15:19:01.978Z</time>
      </trkpt>
      <trkpt lat="45.6798" lon="6.26842">
        <ele>1868</ele>
        <time>2019-10-17T15:19:08.956Z</time>
      </trkpt>
      <trkpt lat="45.67976" lon="6.2685">
        <ele>1865</ele>
        <time>2019-10-17T15:19:15.985Z</time>
      </trkpt>
      <trkpt lat="45.6797" lon="6.26853">
        <ele>1862</ele>
        <time>2019-10-17T15:19:22.274Z</time>
      </trkpt>
      <trkpt lat="45.67963" lon="6.26861">
        <ele>1860</ele>
        <time>2019-10-17T15:19:29.073Z</time>
      </trkpt>
      <trkpt lat="45.67956" lon="6.26865">
        <ele>1858</ele>
        <time>2019-10-17T15:19:37.000Z</time>
      </trkpt>
      <trkpt lat="45.67953" lon="6.26872">
        <ele>1855</ele>
        <time>2019-10-17T15:19:56.819Z</time>
      </trkpt>
      <trkpt lat="45.67949" lon="6.26876">
        <ele>1855</ele>
        <time>2019-10-17T15:20:01.000Z</time>
      </trkpt>
      <trkpt lat="45.67943" lon="6.26884">
        <ele>1855</ele>
        <time>2019-10-17T15:20:08.000Z</time>
      </trkpt>
      <trkpt lat="45.67936" lon="6.26892">
        <ele>1854</ele>
        <time>2019-10-17T15:20:14.670Z</time>
      </trkpt>
      <trkpt lat="45.67933" lon="6.26898">
        <ele>1852</ele>
        <time>2019-10-17T15:20:17.946Z</time>
      </trkpt>
      <trkpt lat="45.6793" lon="6.26908">
        <ele>1851</ele>
        <time>2019-10-17T15:20:24.276Z</time>
      </trkpt>
      <trkpt lat="45.67926" lon="6.26915">
        <ele>1850</ele>
        <time>2019-10-17T15:20:28.000Z</time>
      </trkpt>
      <trkpt lat="45.67921" lon="6.26923">
        <ele>1849</ele>
        <time>2019-10-17T15:20:35.000Z</time>
      </trkpt>
      <trkpt lat="45.67919" lon="6.2693">
        <ele>1850</ele>
        <time>2019-10-17T15:20:37.525Z</time>
      </trkpt>
      <trkpt lat="45.67918" lon="6.26938">
        <ele>1849</ele>
        <time>2019-10-17T15:20:42.000Z</time>
      </trkpt>
      <trkpt lat="45.6791" lon="6.26941">
        <ele>1848</ele>
        <time>2019-10-17T15:20:48.000Z</time>
      </trkpt>
      <trkpt lat="45.67907" lon="6.26952">
        <ele>1846</ele>
        <time>2019-10-17T15:20:53.499Z</time>
      </trkpt>
      <trkpt lat="45.67903" lon="6.26962">
        <ele>1843</ele>
        <time>2019-10-17T15:21:00.301Z</time>
      </trkpt>
      <trkpt lat="45.67897" lon="6.2697">
        <ele>1841</ele>
        <time>2019-10-17T15:21:06.757Z</time>
      </trkpt>
      <trkpt lat="45.67891" lon="6.26982">
        <ele>1838</ele>
        <time>2019-10-17T15:21:14.404Z</time>
      </trkpt>
      <trkpt lat="45.6789" lon="6.2699">
        <ele>1837</ele>
        <time>2019-10-17T15:21:21.000Z</time>
      </trkpt>
      <trkpt lat="45.67885" lon="6.26994">
        <ele>1835</ele>
        <time>2019-10-17T15:21:27.000Z</time>
      </trkpt>
      <trkpt lat="45.67878" lon="6.27">
        <ele>1834</ele>
        <time>2019-10-17T15:21:34.000Z</time>
      </trkpt>
      <trkpt lat="45.67875" lon="6.27006">
        <ele>1831</ele>
        <time>2019-10-17T15:22:03.000Z</time>
      </trkpt>
      <trkpt lat="45.67869" lon="6.27011">
        <ele>1829</ele>
        <time>2019-10-17T15:23:23.797Z</time>
      </trkpt>
      <trkpt lat="45.67865" lon="6.27017">
        <ele>1829</ele>
        <time>2019-10-17T15:23:31.000Z</time>
      </trkpt>
      <trkpt lat="45.67864" lon="6.27024">
        <ele>1829</ele>
        <time>2019-10-17T15:23:52.000Z</time>
      </trkpt>
      <trkpt lat="45.67867" lon="6.2703">
        <ele>1829</ele>
        <time>2019-10-17T15:25:49.000Z</time>
      </trkpt>
      <trkpt lat="45.6786" lon="6.27028">
        <ele>1826</ele>
        <time>2019-10-17T15:26:38.000Z</time>
      </trkpt>
      <trkpt lat="45.67853" lon="6.27027">
        <ele>1825</ele>
        <time>2019-10-17T15:26:44.716Z</time>
      </trkpt>
      <trkpt lat="45.67845" lon="6.27031">
        <ele>1825</ele>
        <time>2019-10-17T15:26:51.519Z</time>
      </trkpt>
      <trkpt lat="45.67841" lon="6.27035">
        <ele>1824</ele>
        <time>2019-10-17T15:26:54.942Z</time>
      </trkpt>
      <trkpt lat="45.67838" lon="6.27042">
        <ele>1824</ele>
        <time>2019-10-17T15:26:59.000Z</time>
      </trkpt>
      <trkpt lat="45.67835" lon="6.27046">
        <ele>1824</ele>
        <time>2019-10-17T15:27:02.280Z</time>
      </trkpt>
      <trkpt lat="45.67833" lon="6.27058">
        <ele>1824</ele>
        <time>2019-10-17T15:27:06.000Z</time>
      </trkpt>
      <trkpt lat="45.67832" lon="6.27067">
        <ele>1823</ele>
        <time>2019-10-17T15:27:08.611Z</time>
      </trkpt>
      <trkpt lat="45.67828" lon="6.27075">
        <ele>1823</ele>
        <time>2019-10-17T15:27:15.087Z</time>
      </trkpt>
      <trkpt lat="45.67829" lon="6.27084">
        <ele>1823</ele>
        <time>2019-10-17T15:27:22.021Z</time>
      </trkpt>
      <trkpt lat="45.67824" lon="6.27093">
        <ele>1821</ele>
        <time>2019-10-17T15:27:28.204Z</time>
      </trkpt>
      <trkpt lat="45.67819" lon="6.27096">
        <ele>1820</ele>
        <time>2019-10-17T15:27:32.000Z</time>
      </trkpt>
      <trkpt lat="45.67812" lon="6.27097">
        <ele>1820</ele>
        <time>2019-10-17T15:27:34.501Z</time>
      </trkpt>
      <trkpt lat="45.67812" lon="6.27105">
        <ele>1818</ele>
        <time>2019-10-17T15:27:40.996Z</time>
      </trkpt>
      <trkpt lat="45.67805" lon="6.2711">
        <ele>1816</ele>
        <time>2019-10-17T15:27:47.771Z</time>
      </trkpt>
      <trkpt lat="45.67798" lon="6.27111">
        <ele>1816</ele>
        <time>2019-10-17T15:27:54.109Z</time>
      </trkpt>
      <trkpt lat="45.67793" lon="6.27114">
        <ele>1816</ele>
        <time>2019-10-17T15:27:59.000Z</time>
      </trkpt>
      <trkpt lat="45.6779" lon="6.27121">
        <ele>1815</ele>
        <time>2019-10-17T15:28:02.000Z</time>
      </trkpt>
      <trkpt lat="45.67785" lon="6.27129">
        <ele>1815</ele>
        <time>2019-10-17T15:28:09.000Z</time>
      </trkpt>
      <trkpt lat="45.67775" lon="6.27134">
        <ele>1813</ele>
        <time>2019-10-17T15:28:14.966Z</time>
      </trkpt>
      <trkpt lat="45.67771" lon="6.27137">
        <ele>1812</ele>
        <time>2019-10-17T15:28:18.498Z</time>
      </trkpt>
      <trkpt lat="45.67764" lon="6.2714">
        <ele>1812</ele>
        <time>2019-10-17T15:28:26.000Z</time>
      </trkpt>
      <trkpt lat="45.67759" lon="6.27143">
        <ele>1812</ele>
        <time>2019-10-17T15:28:29.253Z</time>
      </trkpt>
      <trkpt lat="45.67756" lon="6.27148">
        <ele>1812</ele>
        <time>2019-10-17T15:28:32.661Z</time>
      </trkpt>
      <trkpt lat="45.67751" lon="6.27154">
        <ele>1812</ele>
        <time>2019-10-17T15:28:40.000Z</time>
      </trkpt>
      <trkpt lat="45.67746" lon="6.27159">
        <ele>1812</ele>
        <time>2019-10-17T15:28:46.000Z</time>
      </trkpt>
      <trkpt lat="45.67743" lon="6.27164">
        <ele>1813</ele>
        <time>2019-10-17T15:28:48.496Z</time>
      </trkpt>
      <trkpt lat="45.6774" lon="6.27169">
        <ele>1812</ele>
        <time>2019-10-17T15:28:53.000Z</time>
      </trkpt>
      <trkpt lat="45.67736" lon="6.27175">
        <ele>1811</ele>
        <time>2019-10-17T15:28:56.446Z</time>
      </trkpt>
      <trkpt lat="45.6773" lon="6.27181">
        <ele>1811</ele>
        <time>2019-10-17T15:28:59.708Z</time>
      </trkpt>
      <trkpt lat="45.67726" lon="6.27184">
        <ele>1811</ele>
        <time>2019-10-17T15:29:02.862Z</time>
      </trkpt>
      <trkpt lat="45.67721" lon="6.27183">
        <ele>1810</ele>
        <time>2019-10-17T15:29:13.000Z</time>
      </trkpt>
      <trkpt lat="45.67718" lon="6.27189">
        <ele>1806</ele>
        <time>2019-10-17T15:30:32.000Z</time>
      </trkpt>
      <trkpt lat="45.67711" lon="6.27194">
        <ele>1806</ele>
        <time>2019-10-17T15:30:53.000Z</time>
      </trkpt>
      <trkpt lat="45.67705" lon="6.272">
        <ele>1806</ele>
        <time>2019-10-17T15:30:58.695Z</time>
      </trkpt>
      <trkpt lat="45.67701" lon="6.27205">
        <ele>1806</ele>
        <time>2019-10-17T15:31:02.182Z</time>
      </trkpt>
      <trkpt lat="45.67696" lon="6.27209">
        <ele>1806</ele>
        <time>2019-10-17T15:31:06.073Z</time>
      </trkpt>
      <trkpt lat="45.67691" lon="6.27213">
        <ele>1807</ele>
        <time>2019-10-17T15:31:09.418Z</time>
      </trkpt>
      <trkpt lat="45.67685" lon="6.27215">
        <ele>1805</ele>
        <time>2019-10-17T15:31:17.000Z</time>
      </trkpt>
      <trkpt lat="45.6768" lon="6.27223">
        <ele>1805</ele>
        <time>2019-10-17T15:31:20.000Z</time>
      </trkpt>
      <trkpt lat="45.67676" lon="6.27229">
        <ele>1805</ele>
        <time>2019-10-17T15:31:25.676Z</time>
      </trkpt>
      <trkpt lat="45.67672" lon="6.27236">
        <ele>1806</ele>
        <time>2019-10-17T15:31:32.240Z</time>
      </trkpt>
      <trkpt lat="45.67669" lon="6.27244">
        <ele>1807</ele>
        <time>2019-10-17T15:31:39.114Z</time>
      </trkpt>
      <trkpt lat="45.67666" lon="6.27249">
        <ele>1808</ele>
        <time>2019-10-17T15:31:45.520Z</time>
      </trkpt>
      <trkpt lat="45.67662" lon="6.27256">
        <ele>1810</ele>
        <time>2019-10-17T15:31:53.000Z</time>
      </trkpt>
      <trkpt lat="45.67661" lon="6.27263">
        <ele>1812</ele>
        <time>2019-10-17T15:32:01.833Z</time>
      </trkpt>
      <trkpt lat="45.6766" lon="6.2727">
        <ele>1814</ele>
        <time>2019-10-17T15:32:13.000Z</time>
      </trkpt>
      <trkpt lat="45.67656" lon="6.27278">
        <ele>1817</ele>
        <time>2019-10-17T15:32:23.000Z</time>
      </trkpt>
      <trkpt lat="45.67652" lon="6.27283">
        <ele>1818</ele>
        <time>2019-10-17T15:32:32.241Z</time>
      </trkpt>
      <trkpt lat="45.67649" lon="6.27287">
        <ele>1821</ele>
        <time>2019-10-17T15:32:40.000Z</time>
      </trkpt>
      <trkpt lat="45.67643" lon="6.2729">
        <ele>1823</ele>
        <time>2019-10-17T15:32:48.000Z</time>
      </trkpt>
      <trkpt lat="45.67637" lon="6.27293">
        <ele>1824</ele>
        <time>2019-10-17T15:32:53.760Z</time>
      </trkpt>
      <trkpt lat="45.67632" lon="6.27297">
        <ele>1823</ele>
        <time>2019-10-17T15:33:00.111Z</time>
      </trkpt>
      <trkpt lat="45.67628" lon="6.27301">
        <ele>1827</ele>
        <time>2019-10-17T15:33:08.000Z</time>
      </trkpt>
      <trkpt lat="45.67624" lon="6.27304">
        <ele>1831</ele>
        <time>2019-10-17T15:33:17.000Z</time>
      </trkpt>
      <trkpt lat="45.6762" lon="6.27309">
        <ele>1834</ele>
        <time>2019-10-17T15:33:25.000Z</time>
      </trkpt>
      <trkpt lat="45.67616" lon="6.27313">
        <ele>1835</ele>
        <time>2019-10-17T15:33:32.000Z</time>
      </trkpt>
      <trkpt lat="45.67611" lon="6.27319">
        <ele>1838</ele>
        <time>2019-10-17T15:33:40.772Z</time>
      </trkpt>
      <trkpt lat="45.67607" lon="6.27324">
        <ele>1841</ele>
        <time>2019-10-17T15:33:47.184Z</time>
      </trkpt>
      <trkpt lat="45.67604" lon="6.27329">
        <ele>1843</ele>
        <time>2019-10-17T15:33:53.310Z</time>
      </trkpt>
      <trkpt lat="45.676" lon="6.27337">
        <ele>1844</ele>
        <time>2019-10-17T15:34:03.776Z</time>
      </trkpt>
      <trkpt lat="45.67599" lon="6.27344">
        <ele>1845</ele>
        <time>2019-10-17T15:34:13.739Z</time>
      </trkpt>
      <trkpt lat="45.67599" lon="6.27352">
        <ele>1847</ele>
        <time>2019-10-17T15:34:26.941Z</time>
      </trkpt>
      <trkpt lat="45.67597" lon="6.27361">
        <ele>1852</ele>
        <time>2019-10-17T15:34:43.637Z</time>
      </trkpt>
      <trkpt lat="45.67593" lon="6.27368">
        <ele>1855</ele>
        <time>2019-10-17T15:34:58.000Z</time>
      </trkpt>
      <trkpt lat="45.67589" lon="6.27372">
        <ele>1855</ele>
        <time>2019-10-17T15:35:11.000Z</time>
      </trkpt>
      <trkpt lat="45.67586" lon="6.27379">
        <ele>1857</ele>
        <time>2019-10-17T15:35:29.000Z</time>
      </trkpt>
      <trkpt lat="45.67583" lon="6.27385">
        <ele>1862</ele>
        <time>2019-10-17T15:35:38.667Z</time>
      </trkpt>
      <trkpt lat="45.67581" lon="6.27393">
        <ele>1864</ele>
        <time>2019-10-17T15:35:48.636Z</time>
      </trkpt>
      <trkpt lat="45.6758" lon="6.274">
        <ele>1866</ele>
        <time>2019-10-17T15:36:01.693Z</time>
      </trkpt>
      <trkpt lat="45.67577" lon="6.27405">
        <ele>1869</ele>
        <time>2019-10-17T15:36:15.000Z</time>
      </trkpt>
      <trkpt lat="45.67571" lon="6.27407">
        <ele>1870</ele>
        <time>2019-10-17T15:36:25.423Z</time>
      </trkpt>
      <trkpt lat="45.67566" lon="6.2741">
        <ele>1873</ele>
        <time>2019-10-17T15:36:36.000Z</time>
      </trkpt>
      <trkpt lat="45.67562" lon="6.27415">
        <ele>1875</ele>
        <time>2019-10-17T15:36:45.816Z</time>
      </trkpt>
      <trkpt lat="45.67561" lon="6.27423">
        <ele>1876</ele>
        <time>2019-10-17T15:37:00.000Z</time>
      </trkpt>
      <trkpt lat="45.67557" lon="6.27429">
        <ele>1881</ele>
        <time>2019-10-17T15:37:15.000Z</time>
      </trkpt>
      <trkpt lat="45.67553" lon="6.27436">
        <ele>1882</ele>
        <time>2019-10-17T15:37:25.356Z</time>
      </trkpt>
      <trkpt lat="45.6755" lon="6.2744">
        <ele>1887</ele>
        <time>2019-10-17T15:37:40.000Z</time>
      </trkpt>
      <trkpt lat="45.67547" lon="6.27445">
        <ele>1889</ele>
        <time>2019-10-17T15:37:49.736Z</time>
      </trkpt>
      <trkpt lat="45.67546" lon="6.27453">
        <ele>1892</ele>
        <time>2019-10-17T15:38:00.000Z</time>
      </trkpt>
      <trkpt lat="45.6754" lon="6.27457">
        <ele>1893</ele>
        <time>2019-10-17T15:38:04.000Z</time>
      </trkpt>
      <trkpt lat="45.67537" lon="6.27462">
        <ele>1894</ele>
        <time>2019-10-17T15:38:11.000Z</time>
      </trkpt>
      <trkpt lat="45.67535" lon="6.27468">
        <ele>1897</ele>
        <time>2019-10-17T15:38:18.000Z</time>
      </trkpt>
      <trkpt lat="45.67537" lon="6.27474">
        <ele>1900</ele>
        <time>2019-10-17T15:38:23.720Z</time>
      </trkpt>
      <trkpt lat="45.67541" lon="6.27481">
        <ele>1902</ele>
        <time>2019-10-17T15:38:31.121Z</time>
      </trkpt>
      <trkpt lat="45.67546" lon="6.27484">
        <ele>1904</ele>
        <time>2019-10-17T15:38:39.000Z</time>
      </trkpt>
      <trkpt lat="45.67543" lon="6.27476">
        <ele>1907</ele>
        <time>2019-10-17T15:41:44.000Z</time>
      </trkpt>
      <trkpt lat="45.67543" lon="6.2747">
        <ele>1906</ele>
        <time>2019-10-17T15:41:54.000Z</time>
      </trkpt>
      <trkpt lat="45.67545" lon="6.27462">
        <ele>1905</ele>
        <time>2019-10-17T15:42:10.782Z</time>
      </trkpt>
      <trkpt lat="45.67548" lon="6.27454">
        <ele>1902</ele>
        <time>2019-10-17T15:42:18.019Z</time>
      </trkpt>
      <trkpt lat="45.67551" lon="6.27449">
        <ele>1900</ele>
        <time>2019-10-17T15:42:21.073Z</time>
      </trkpt>
      <trkpt lat="45.67555" lon="6.27441">
        <ele>1899</ele>
        <time>2019-10-17T15:42:28.163Z</time>
      </trkpt>
      <trkpt lat="45.67555" lon="6.27435">
        <ele>1899</ele>
        <time>2019-10-17T15:42:34.615Z</time>
      </trkpt>
      <trkpt lat="45.67559" lon="6.27429">
        <ele>1897</ele>
        <time>2019-10-17T15:42:45.000Z</time>
      </trkpt>
      <trkpt lat="45.67564" lon="6.27424">
        <ele>1891</ele>
        <time>2019-10-17T15:43:00.758Z</time>
      </trkpt>
      <trkpt lat="45.67567" lon="6.27417">
        <ele>1889</ele>
        <time>2019-10-17T15:43:06.849Z</time>
      </trkpt>
      <trkpt lat="45.6757" lon="6.2741">
        <ele>1884</ele>
        <time>2019-10-17T15:43:18.000Z</time>
      </trkpt>
      <trkpt lat="45.67573" lon="6.27405">
        <ele>1881</ele>
        <time>2019-10-17T15:43:29.000Z</time>
      </trkpt>
      <trkpt lat="45.67577" lon="6.27399">
        <ele>1879</ele>
        <time>2019-10-17T15:43:36.000Z</time>
      </trkpt>
      <trkpt lat="45.67581" lon="6.27395">
        <ele>1878</ele>
        <time>2019-10-17T15:43:42.000Z</time>
      </trkpt>
      <trkpt lat="45.67585" lon="6.27389">
        <ele>1877</ele>
        <time>2019-10-17T15:43:51.498Z</time>
      </trkpt>
      <trkpt lat="45.6759" lon="6.27383">
        <ele>1871</ele>
        <time>2019-10-17T15:44:04.983Z</time>
      </trkpt>
      <trkpt lat="45.67591" lon="6.27375">
        <ele>1870</ele>
        <time>2019-10-17T15:44:15.146Z</time>
      </trkpt>
      <trkpt lat="45.67591" lon="6.27366">
        <ele>1866</ele>
        <time>2019-10-17T15:44:28.404Z</time>
      </trkpt>
      <trkpt lat="45.67592" lon="6.27358">
        <ele>1864</ele>
        <time>2019-10-17T15:44:38.716Z</time>
      </trkpt>
      <trkpt lat="45.67597" lon="6.27351">
        <ele>1861</ele>
        <time>2019-10-17T15:44:48.684Z</time>
      </trkpt>
      <trkpt lat="45.676" lon="6.27347">
        <ele>1859</ele>
        <time>2019-10-17T15:44:55.040Z</time>
      </trkpt>
      <trkpt lat="45.67605" lon="6.27342">
        <ele>1857</ele>
        <time>2019-10-17T15:45:05.102Z</time>
      </trkpt>
      <trkpt lat="45.67608" lon="6.27335">
        <ele>1854</ele>
        <time>2019-10-17T15:45:16.000Z</time>
      </trkpt>
      <trkpt lat="45.67602" lon="6.27334">
        <ele>1853</ele>
        <time>2019-10-17T15:45:41.000Z</time>
      </trkpt>
      <trkpt lat="45.67598" lon="6.27342">
        <ele>1856</ele>
        <time>2019-10-17T15:45:51.000Z</time>
      </trkpt>
      <trkpt lat="45.67598" lon="6.2735">
        <ele>1855</ele>
        <time>2019-10-17T15:45:56.977Z</time>
      </trkpt>
      <trkpt lat="45.67597" lon="6.27357">
        <ele>1855</ele>
        <time>2019-10-17T15:46:04.000Z</time>
      </trkpt>
      <trkpt lat="45.67595" lon="6.27364">
        <ele>1857</ele>
        <time>2019-10-17T15:46:15.000Z</time>
      </trkpt>
      <trkpt lat="45.67594" lon="6.27371">
        <ele>1859</ele>
        <time>2019-10-17T15:46:26.000Z</time>
      </trkpt>
      <trkpt lat="45.67593" lon="6.27377">
        <ele>1860</ele>
        <time>2019-10-17T15:46:36.000Z</time>
      </trkpt>
      <trkpt lat="45.6759" lon="6.27383">
        <ele>1861</ele>
        <time>2019-10-17T15:46:44.973Z</time>
      </trkpt>
      <trkpt lat="45.67585" lon="6.27385">
        <ele>1864</ele>
        <time>2019-10-17T15:46:54.917Z</time>
      </trkpt>
      <trkpt lat="45.67583" lon="6.27391">
        <ele>1867</ele>
        <time>2019-10-17T15:47:08.220Z</time>
      </trkpt>
      <trkpt lat="45.67579" lon="6.27395">
        <ele>1869</ele>
        <time>2019-10-17T15:47:19.000Z</time>
      </trkpt>
      <trkpt lat="45.67576" lon="6.27402">
        <ele>1871</ele>
        <time>2019-10-17T15:47:29.000Z</time>
      </trkpt>
      <trkpt lat="45.67572" lon="6.27408">
        <ele>1874</ele>
        <time>2019-10-17T15:47:37.939Z</time>
      </trkpt>
      <trkpt lat="45.67568" lon="6.27412">
        <ele>1875</ele>
        <time>2019-10-17T15:47:48.114Z</time>
      </trkpt>
      <trkpt lat="45.67565" lon="6.27419">
        <ele>1882</ele>
        <time>2019-10-17T15:48:03.000Z</time>
      </trkpt>
      <trkpt lat="45.6756" lon="6.27421">
        <ele>1880</ele>
        <time>2019-10-17T15:48:14.000Z</time>
      </trkpt>
      <trkpt lat="45.67553" lon="6.27422">
        <ele>1885</ele>
        <time>2019-10-17T15:48:28.000Z</time>
      </trkpt>
      <trkpt lat="45.67551" lon="6.27428">
        <ele>1886</ele>
        <time>2019-10-17T15:48:35.000Z</time>
      </trkpt>
      <trkpt lat="45.67548" lon="6.27434">
        <ele>1887</ele>
        <time>2019-10-17T15:48:43.000Z</time>
      </trkpt>
      <trkpt lat="45.67542" lon="6.27439">
        <ele>1889</ele>
        <time>2019-10-17T15:48:50.000Z</time>
      </trkpt>
      <trkpt lat="45.6754" lon="6.27445">
        <ele>1890</ele>
        <time>2019-10-17T15:48:55.836Z</time>
      </trkpt>
      <trkpt lat="45.67537" lon="6.27449">
        <ele>1889</ele>
        <time>2019-10-17T15:49:04.000Z</time>
      </trkpt>
      <trkpt lat="45.67532" lon="6.27454">
        <ele>1889</ele>
        <time>2019-10-17T15:49:09.696Z</time>
      </trkpt>
      <trkpt lat="45.67526" lon="6.27454">
        <ele>1889</ele>
        <time>2019-10-17T15:49:16.923Z</time>
      </trkpt>
      <trkpt lat="45.67521" lon="6.27452">
        <ele>1889</ele>
        <time>2019-10-17T15:49:20.219Z</time>
      </trkpt>
      <trkpt lat="45.67515" lon="6.27451">
        <ele>1887</ele>
        <time>2019-10-17T15:49:28.000Z</time>
      </trkpt>
      <trkpt lat="45.6751" lon="6.27451">
        <ele>1886</ele>
        <time>2019-10-17T15:49:38.000Z</time>
      </trkpt>
      <trkpt lat="45.67513" lon="6.27447">
        <ele>1885</ele>
        <time>2019-10-17T15:50:03.000Z</time>
      </trkpt>
      <trkpt lat="45.67516" lon="6.27441">
        <ele>1883</ele>
        <time>2019-10-17T15:50:09.258Z</time>
      </trkpt>
      <trkpt lat="45.67516" lon="6.27433">
        <ele>1880</ele>
        <time>2019-10-17T15:50:19.402Z</time>
      </trkpt>
      <trkpt lat="45.67509" lon="6.27434">
        <ele>1878</ele>
        <time>2019-10-17T15:50:26.059Z</time>
      </trkpt>
      <trkpt lat="45.67504" lon="6.27434">
        <ele>1877</ele>
        <time>2019-10-17T15:50:32.126Z</time>
      </trkpt>
      <trkpt lat="45.67499" lon="6.27437">
        <ele>1875</ele>
        <time>2019-10-17T15:50:42.001Z</time>
      </trkpt>
      <trkpt lat="45.67494" lon="6.27439">
        <ele>1872</ele>
        <time>2019-10-17T15:50:53.000Z</time>
      </trkpt>
      <trkpt lat="45.67488" lon="6.27437">
        <ele>1869</ele>
        <time>2019-10-17T15:51:00.000Z</time>
      </trkpt>
      <trkpt lat="45.67482" lon="6.27439">
        <ele>1868</ele>
        <time>2019-10-17T15:51:05.444Z</time>
      </trkpt>
      <trkpt lat="45.67477" lon="6.27436">
        <ele>1868</ele>
        <time>2019-10-17T15:51:15.878Z</time>
      </trkpt>
      <trkpt lat="45.67473" lon="6.27431">
        <ele>1866</ele>
        <time>2019-10-17T15:51:25.075Z</time>
      </trkpt>
      <trkpt lat="45.6747" lon="6.27425">
        <ele>1862</ele>
        <time>2019-10-17T15:51:38.560Z</time>
      </trkpt>
      <trkpt lat="45.67464" lon="6.27424">
        <ele>1859</ele>
        <time>2019-10-17T15:51:49.000Z</time>
      </trkpt>
      <trkpt lat="45.6746" lon="6.27418">
        <ele>1855</ele>
        <time>2019-10-17T15:52:01.000Z</time>
      </trkpt>
      <trkpt lat="45.67455" lon="6.27418">
        <ele>1854</ele>
        <time>2019-10-17T15:52:10.560Z</time>
      </trkpt>
      <trkpt lat="45.67451" lon="6.27413">
        <ele>1848</ele>
        <time>2019-10-17T15:52:23.357Z</time>
      </trkpt>
      <trkpt lat="45.67447" lon="6.27407">
        <ele>1843</ele>
        <time>2019-10-17T15:52:34.000Z</time>
      </trkpt>
      <trkpt lat="45.67441" lon="6.27406">
        <ele>1841</ele>
        <time>2019-10-17T15:52:41.000Z</time>
      </trkpt>
      <trkpt lat="45.67437" lon="6.2741">
        <ele>1840</ele>
        <time>2019-10-17T15:52:46.557Z</time>
      </trkpt>
      <trkpt lat="45.67432" lon="6.27408">
        <ele>1837</ele>
        <time>2019-10-17T15:52:54.000Z</time>
      </trkpt>
      <trkpt lat="45.67427" lon="6.27403">
        <ele>1834</ele>
        <time>2019-10-17T15:53:03.423Z</time>
      </trkpt>
      <trkpt lat="45.67421" lon="6.274">
        <ele>1830</ele>
        <time>2019-10-17T15:53:13.955Z</time>
      </trkpt>
      <trkpt lat="45.67417" lon="6.27396">
        <ele>1827</ele>
        <time>2019-10-17T15:53:22.000Z</time>
      </trkpt>
      <trkpt lat="45.6741" lon="6.27396">
        <ele>1824</ele>
        <time>2019-10-17T15:53:32.000Z</time>
      </trkpt>
      <trkpt lat="45.67405" lon="6.2739">
        <ele>1823</ele>
        <time>2019-10-17T15:53:38.000Z</time>
      </trkpt>
      <trkpt lat="45.674" lon="6.27386">
        <ele>1822</ele>
        <time>2019-10-17T15:53:44.200Z</time>
      </trkpt>
      <trkpt lat="45.67395" lon="6.27391">
        <ele>1816</ele>
        <time>2019-10-17T15:53:57.763Z</time>
      </trkpt>
      <trkpt lat="45.67387" lon="6.27387">
        <ele>1815</ele>
        <time>2019-10-17T15:54:05.000Z</time>
      </trkpt>
      <trkpt lat="45.67381" lon="6.27384">
        <ele>1811</ele>
        <time>2019-10-17T15:54:12.000Z</time>
      </trkpt>
      <trkpt lat="45.67376" lon="6.27381">
        <ele>1810</ele>
        <time>2019-10-17T15:54:17.231Z</time>
      </trkpt>
      <trkpt lat="45.67373" lon="6.27375">
        <ele>1807</ele>
        <time>2019-10-17T15:54:32.000Z</time>
      </trkpt>
      <trkpt lat="45.67371" lon="6.27369">
        <ele>1807</ele>
        <time>2019-10-17T15:54:39.000Z</time>
      </trkpt>
      <trkpt lat="45.67369" lon="6.27357">
        <ele>1806</ele>
        <time>2019-10-17T15:54:48.633Z</time>
      </trkpt>
      <trkpt lat="45.67364" lon="6.27348">
        <ele>1803</ele>
        <time>2019-10-17T15:54:55.040Z</time>
      </trkpt>
      <trkpt lat="45.67358" lon="6.27344">
        <ele>1796</ele>
        <time>2019-10-17T15:55:06.000Z</time>
      </trkpt>
      <trkpt lat="45.67354" lon="6.27342">
        <ele>1795</ele>
        <time>2019-10-17T15:55:13.000Z</time>
      </trkpt>
      <trkpt lat="45.67349" lon="6.27338">
        <ele>1795</ele>
        <time>2019-10-17T15:55:19.179Z</time>
      </trkpt>
      <trkpt lat="45.67344" lon="6.27333">
        <ele>1792</ele>
        <time>2019-10-17T15:55:29.200Z</time>
      </trkpt>
      <trkpt lat="45.67339" lon="6.2733">
        <ele>1791</ele>
        <time>2019-10-17T15:55:37.000Z</time>
      </trkpt>
      <trkpt lat="45.67333" lon="6.27329">
        <ele>1789</ele>
        <time>2019-10-17T15:55:42.702Z</time>
      </trkpt>
      <trkpt lat="45.67333" lon="6.27338">
        <ele>1789</ele>
        <time>2019-10-17T15:55:49.178Z</time>
      </trkpt>
      <trkpt lat="45.67333" lon="6.27345">
        <ele>1789</ele>
        <time>2019-10-17T15:55:55.714Z</time>
      </trkpt>
      <trkpt lat="45.67337" lon="6.27355">
        <ele>1788</ele>
        <time>2019-10-17T15:56:03.000Z</time>
      </trkpt>
      <trkpt lat="45.67333" lon="6.27359">
        <ele>1786</ele>
        <time>2019-10-17T15:56:08.981Z</time>
      </trkpt>
      <trkpt lat="45.67328" lon="6.27361">
        <ele>1783</ele>
        <time>2019-10-17T15:56:16.000Z</time>
      </trkpt>
      <trkpt lat="45.67322" lon="6.27356">
        <ele>1781</ele>
        <time>2019-10-17T15:56:23.000Z</time>
      </trkpt>
      <trkpt lat="45.6732" lon="6.27347">
        <ele>1780</ele>
        <time>2019-10-17T15:56:28.180Z</time>
      </trkpt>
      <trkpt lat="45.67315" lon="6.27346">
        <ele>1778</ele>
        <time>2019-10-17T15:56:35.000Z</time>
      </trkpt>
      <trkpt lat="45.6731" lon="6.27342">
        <ele>1778</ele>
        <time>2019-10-17T15:56:42.000Z</time>
      </trkpt>
      <trkpt lat="45.67308" lon="6.27336">
        <ele>1776</ele>
        <time>2019-10-17T15:56:44.657Z</time>
      </trkpt>
      <trkpt lat="45.67306" lon="6.27325">
        <ele>1774</ele>
        <time>2019-10-17T15:56:51.133Z</time>
      </trkpt>
      <trkpt lat="45.67306" lon="6.27317">
        <ele>1772</ele>
        <time>2019-10-17T15:56:54.683Z</time>
      </trkpt>
      <trkpt lat="45.67305" lon="6.27311">
        <ele>1771</ele>
        <time>2019-10-17T15:57:00.796Z</time>
      </trkpt>
      <trkpt lat="45.67302" lon="6.27305">
        <ele>1767</ele>
        <time>2019-10-17T15:57:08.000Z</time>
      </trkpt>
      <trkpt lat="45.67298" lon="6.27297">
        <ele>1767</ele>
        <time>2019-10-17T15:57:13.531Z</time>
      </trkpt>
      <trkpt lat="45.67296" lon="6.27288">
        <ele>1766</ele>
        <time>2019-10-17T15:57:21.347Z</time>
      </trkpt>
      <trkpt lat="45.67292" lon="6.27287">
        <ele>1759</ele>
        <time>2019-10-17T15:59:40.301Z</time>
      </trkpt>
      <trkpt lat="45.67287" lon="6.27284">
        <ele>1757</ele>
        <time>2019-10-17T15:59:47.000Z</time>
      </trkpt>
      <trkpt lat="45.67283" lon="6.2728">
        <ele>1756</ele>
        <time>2019-10-17T15:59:50.078Z</time>
      </trkpt>
      <trkpt lat="45.67277" lon="6.27274">
        <ele>1752</ele>
        <time>2019-10-17T16:00:00.074Z</time>
      </trkpt>
      <trkpt lat="45.67271" lon="6.27274">
        <ele>1750</ele>
        <time>2019-10-17T16:00:06.575Z</time>
      </trkpt>
      <trkpt lat="45.67266" lon="6.27272">
        <ele>1746</ele>
        <time>2019-10-17T16:00:19.796Z</time>
      </trkpt>
      <trkpt lat="45.67262" lon="6.27269">
        <ele>1744</ele>
        <time>2019-10-17T16:00:26.731Z</time>
      </trkpt>
      <trkpt lat="45.67259" lon="6.27263">
        <ele>1740</ele>
        <time>2019-10-17T16:00:37.000Z</time>
      </trkpt>
      <trkpt lat="45.67253" lon="6.27258">
        <ele>1737</ele>
        <time>2019-10-17T16:00:50.244Z</time>
      </trkpt>
      <trkpt lat="45.6725" lon="6.27263">
        <ele>1733</ele>
        <time>2019-10-17T16:01:16.000Z</time>
      </trkpt>
      <trkpt lat="45.67245" lon="6.27261">
        <ele>1731</ele>
        <time>2019-10-17T16:01:30.000Z</time>
      </trkpt>
      <trkpt lat="45.6724" lon="6.27258">
        <ele>1729</ele>
        <time>2019-10-17T16:01:34.000Z</time>
      </trkpt>
      <trkpt lat="45.67236" lon="6.27257">
        <ele>1727</ele>
        <time>2019-10-17T16:01:41.000Z</time>
      </trkpt>
      <trkpt lat="45.67231" lon="6.27259">
        <ele>1721</ele>
        <time>2019-10-17T16:01:57.700Z</time>
      </trkpt>
      <trkpt lat="45.67224" lon="6.27258">
        <ele>1718</ele>
        <time>2019-10-17T16:02:04.778Z</time>
      </trkpt>
      <trkpt lat="45.67217" lon="6.27254">
        <ele>1714</ele>
        <time>2019-10-17T16:02:11.699Z</time>
      </trkpt>
      <trkpt lat="45.67213" lon="6.27248">
        <ele>1710</ele>
        <time>2019-10-17T16:02:22.097Z</time>
      </trkpt>
      <trkpt lat="45.67212" lon="6.2724">
        <ele>1709</ele>
        <time>2019-10-17T16:02:29.000Z</time>
      </trkpt>
      <trkpt lat="45.67207" lon="6.27236">
        <ele>1707</ele>
        <time>2019-10-17T16:02:35.131Z</time>
      </trkpt>
      <trkpt lat="45.67198" lon="6.27238">
        <ele>1705</ele>
        <time>2019-10-17T16:02:41.760Z</time>
      </trkpt>
      <trkpt lat="45.67194" lon="6.27241">
        <ele>1704</ele>
        <time>2019-10-17T16:02:46.000Z</time>
      </trkpt>
      <trkpt lat="45.67187" lon="6.27239">
        <ele>1699</ele>
        <time>2019-10-17T16:02:56.000Z</time>
      </trkpt>
      <trkpt lat="45.67184" lon="6.27232">
        <ele>1695</ele>
        <time>2019-10-17T16:03:01.643Z</time>
      </trkpt>
      <trkpt lat="45.67178" lon="6.27236">
        <ele>1692</ele>
        <time>2019-10-17T16:03:08.049Z</time>
      </trkpt>
      <trkpt lat="45.67171" lon="6.2723">
        <ele>1688</ele>
        <time>2019-10-17T16:03:14.638Z</time>
      </trkpt>
      <trkpt lat="45.67169" lon="6.27224">
        <ele>1688</ele>
        <time>2019-10-17T16:03:19.000Z</time>
      </trkpt>
      <trkpt lat="45.67163" lon="6.2722">
        <ele>1685</ele>
        <time>2019-10-17T16:03:25.122Z</time>
      </trkpt>
      <trkpt lat="45.67158" lon="6.27215">
        <ele>1683</ele>
        <time>2019-10-17T16:03:31.422Z</time>
      </trkpt>
      <trkpt lat="45.67152" lon="6.27214">
        <ele>1681</ele>
        <time>2019-10-17T16:03:39.196Z</time>
      </trkpt>
      <trkpt lat="45.67153" lon="6.27207">
        <ele>1683</ele>
        <time>2019-10-17T16:03:45.781Z</time>
      </trkpt>
      <trkpt lat="45.67159" lon="6.272">
        <ele>1684</ele>
        <time>2019-10-17T16:03:52.939Z</time>
      </trkpt>
      <trkpt lat="45.67167" lon="6.27199">
        <ele>1685</ele>
        <time>2019-10-17T16:04:00.000Z</time>
      </trkpt>
      <trkpt lat="45.67174" lon="6.27201">
        <ele>1685</ele>
        <time>2019-10-17T16:04:06.518Z</time>
      </trkpt>
      <trkpt lat="45.67179" lon="6.27203">
        <ele>1684</ele>
        <time>2019-10-17T16:04:17.000Z</time>
      </trkpt>
      <trkpt lat="45.67173" lon="6.27197">
        <ele>1679</ele>
        <time>2019-10-17T16:04:47.000Z</time>
      </trkpt>
      <trkpt lat="45.67168" lon="6.27194">
        <ele>1679</ele>
        <time>2019-10-17T16:04:50.000Z</time>
      </trkpt>
      <trkpt lat="45.67164" lon="6.27189">
        <ele>1678</ele>
        <time>2019-10-17T16:04:52.903Z</time>
      </trkpt>
      <trkpt lat="45.67159" lon="6.27181">
        <ele>1676</ele>
        <time>2019-10-17T16:04:59.755Z</time>
      </trkpt>
      <trkpt lat="45.67152" lon="6.27179">
        <ele>1673</ele>
        <time>2019-10-17T16:05:08.000Z</time>
      </trkpt>
      <trkpt lat="45.67145" lon="6.27179">
        <ele>1674</ele>
        <time>2019-10-17T16:05:15.000Z</time>
      </trkpt>
      <trkpt lat="45.67137" lon="6.27176">
        <ele>1673</ele>
        <time>2019-10-17T16:05:20.981Z</time>
      </trkpt>
      <trkpt lat="45.67129" lon="6.27174">
        <ele>1670</ele>
        <time>2019-10-17T16:05:27.956Z</time>
      </trkpt>
      <trkpt lat="45.67121" lon="6.27172">
        <ele>1665</ele>
        <time>2019-10-17T16:05:35.073Z</time>
      </trkpt>
      <trkpt lat="45.67114" lon="6.27167">
        <ele>1664</ele>
        <time>2019-10-17T16:05:41.618Z</time>
      </trkpt>
      <trkpt lat="45.67108" lon="6.27163">
        <ele>1662</ele>
        <time>2019-10-17T16:05:48.841Z</time>
      </trkpt>
      <trkpt lat="45.67103" lon="6.27158">
        <ele>1661</ele>
        <time>2019-10-17T16:05:55.323Z</time>
      </trkpt>
      <trkpt lat="45.671" lon="6.27153">
        <ele>1658</ele>
        <time>2019-10-17T16:06:05.659Z</time>
      </trkpt>
      <trkpt lat="45.67094" lon="6.27154">
        <ele>1657</ele>
        <time>2019-10-17T16:06:14.000Z</time>
      </trkpt>
      <trkpt lat="45.67088" lon="6.27152">
        <ele>1656</ele>
        <time>2019-10-17T16:06:20.072Z</time>
      </trkpt>
      <trkpt lat="45.67084" lon="6.27147">
        <ele>1653</ele>
        <time>2019-10-17T16:06:28.000Z</time>
      </trkpt>
      <trkpt lat="45.67082" lon="6.2714">
        <ele>1651</ele>
        <time>2019-10-17T16:06:33.695Z</time>
      </trkpt>
      <trkpt lat="45.67077" lon="6.2714">
        <ele>1648</ele>
        <time>2019-10-17T16:06:40.814Z</time>
      </trkpt>
      <trkpt lat="45.67072" lon="6.2714">
        <ele>1646</ele>
        <time>2019-10-17T16:06:47.400Z</time>
      </trkpt>
      <trkpt lat="45.67069" lon="6.27135">
        <ele>1644</ele>
        <time>2019-10-17T16:06:54.216Z</time>
      </trkpt>
      <trkpt lat="45.67065" lon="6.27129">
        <ele>1638</ele>
        <time>2019-10-17T16:07:05.000Z</time>
      </trkpt>
      <trkpt lat="45.6706" lon="6.27122">
        <ele>1633</ele>
        <time>2019-10-17T16:07:12.000Z</time>
      </trkpt>
      <trkpt lat="45.67057" lon="6.27115">
        <ele>1631</ele>
        <time>2019-10-17T16:07:17.560Z</time>
      </trkpt>
      <trkpt lat="45.67054" lon="6.27109">
        <ele>1627</ele>
        <time>2019-10-17T16:07:23.836Z</time>
      </trkpt>
      <trkpt lat="45.67053" lon="6.27102">
        <ele>1622</ele>
        <time>2019-10-17T16:07:37.072Z</time>
      </trkpt>
      <trkpt lat="45.67047" lon="6.27097">
        <ele>1621</ele>
        <time>2019-10-17T16:07:43.860Z</time>
      </trkpt>
      <trkpt lat="45.67047" lon="6.27089">
        <ele>1622</ele>
        <time>2019-10-17T16:08:00.393Z</time>
      </trkpt>
      <trkpt lat="45.67042" lon="6.27084">
        <ele>1620</ele>
        <time>2019-10-17T16:08:06.660Z</time>
      </trkpt>
      <trkpt lat="45.67034" lon="6.27084">
        <ele>1618</ele>
        <time>2019-10-17T16:08:16.666Z</time>
      </trkpt>
      <trkpt lat="45.67029" lon="6.27086">
        <ele>1619</ele>
        <time>2019-10-17T16:08:24.164Z</time>
      </trkpt>
      <trkpt lat="45.67031" lon="6.27078">
        <ele>1617</ele>
        <time>2019-10-17T16:08:35.000Z</time>
      </trkpt>
      <trkpt lat="45.67032" lon="6.27071">
        <ele>1613</ele>
        <time>2019-10-17T16:08:49.000Z</time>
      </trkpt>
      <trkpt lat="45.67028" lon="6.27066">
        <ele>1612</ele>
        <time>2019-10-17T16:08:54.197Z</time>
      </trkpt>
      <trkpt lat="45.67022" lon="6.27063">
        <ele>1611</ele>
        <time>2019-10-17T16:09:02.000Z</time>
      </trkpt>
      <trkpt lat="45.67022" lon="6.27056">
        <ele>1607</ele>
        <time>2019-10-17T16:09:10.859Z</time>
      </trkpt>
      <trkpt lat="45.67025" lon="6.2705">
        <ele>1606</ele>
        <time>2019-10-17T16:09:25.450Z</time>
      </trkpt>
      <trkpt lat="45.67029" lon="6.27048">
        <ele>1603</ele>
        <time>2019-10-17T16:09:32.435Z</time>
      </trkpt>
      <trkpt lat="45.67031" lon="6.2704">
        <ele>1602</ele>
        <time>2019-10-17T16:09:42.718Z</time>
      </trkpt>
      <trkpt lat="45.67026" lon="6.27031">
        <ele>1599</ele>
        <time>2019-10-17T16:09:54.000Z</time>
      </trkpt>
      <trkpt lat="45.67021" lon="6.27028">
        <ele>1598</ele>
        <time>2019-10-17T16:09:59.777Z</time>
      </trkpt>
      <trkpt lat="45.67016" lon="6.27027">
        <ele>1596</ele>
        <time>2019-10-17T16:10:06.380Z</time>
      </trkpt>
      <trkpt lat="45.6701" lon="6.27026">
        <ele>1593</ele>
        <time>2019-10-17T16:10:12.674Z</time>
      </trkpt>
      <trkpt lat="45.67007" lon="6.2702">
        <ele>1591</ele>
        <time>2019-10-17T16:10:24.000Z</time>
      </trkpt>
      <trkpt lat="45.67001" lon="6.27019">
        <ele>1592</ele>
        <time>2019-10-17T16:10:31.000Z</time>
      </trkpt>
      <trkpt lat="45.66998" lon="6.27026">
        <ele>1590</ele>
        <time>2019-10-17T16:10:38.000Z</time>
      </trkpt>
      <trkpt lat="45.6699" lon="6.27029">
        <ele>1587</ele>
        <time>2019-10-17T16:10:47.715Z</time>
      </trkpt>
      <trkpt lat="45.66985" lon="6.27021">
        <ele>1584</ele>
        <time>2019-10-17T16:10:54.500Z</time>
      </trkpt>
      <trkpt lat="45.66984" lon="6.27014">
        <ele>1582</ele>
        <time>2019-10-17T16:11:02.000Z</time>
      </trkpt>
      <trkpt lat="45.66977" lon="6.27005">
        <ele>1577</ele>
        <time>2019-10-17T16:11:17.953Z</time>
      </trkpt>
      <trkpt lat="45.66971" lon="6.27002">
        <ele>1577</ele>
        <time>2019-10-17T16:11:21.050Z</time>
      </trkpt>
      <trkpt lat="45.66966" lon="6.27007">
        <ele>1576</ele>
        <time>2019-10-17T16:11:25.000Z</time>
      </trkpt>
      <trkpt lat="45.66961" lon="6.27012">
        <ele>1574</ele>
        <time>2019-10-17T16:11:29.000Z</time>
      </trkpt>
      <trkpt lat="45.66956" lon="6.27013">
        <ele>1571</ele>
        <time>2019-10-17T16:12:16.734Z</time>
      </trkpt>
      <trkpt lat="45.6695" lon="6.27014">
        <ele>1570</ele>
        <time>2019-10-17T16:12:20.075Z</time>
      </trkpt>
      <trkpt lat="45.66943" lon="6.27013">
        <ele>1569</ele>
        <time>2019-10-17T16:12:28.000Z</time>
      </trkpt>
      <trkpt lat="45.66938" lon="6.27013">
        <ele>1569</ele>
        <time>2019-10-17T16:12:35.000Z</time>
      </trkpt>
      <trkpt lat="45.66933" lon="6.27016">
        <ele>1568</ele>
        <time>2019-10-17T16:12:38.000Z</time>
      </trkpt>
      <trkpt lat="45.66926" lon="6.27017">
        <ele>1567</ele>
        <time>2019-10-17T16:12:44.000Z</time>
      </trkpt>
      <trkpt lat="45.66918" lon="6.27016">
        <ele>1567</ele>
        <time>2019-10-17T16:12:51.000Z</time>
      </trkpt>
      <trkpt lat="45.66915" lon="6.27006">
        <ele>1567</ele>
        <time>2019-10-17T16:12:56.241Z</time>
      </trkpt>
      <trkpt lat="45.6691" lon="6.27004">
        <ele>1568</ele>
        <time>2019-10-17T16:12:59.541Z</time>
      </trkpt>
      <trkpt lat="45.66905" lon="6.26998">
        <ele>1567</ele>
        <time>2019-10-17T16:13:07.000Z</time>
      </trkpt>
      <trkpt lat="45.66899" lon="6.26995">
        <ele>1568</ele>
        <time>2019-10-17T16:13:12.263Z</time>
      </trkpt>
      <trkpt lat="45.66892" lon="6.26989">
        <ele>1567</ele>
        <time>2019-10-17T16:13:20.000Z</time>
      </trkpt>
      <trkpt lat="45.66888" lon="6.26986">
        <ele>1567</ele>
        <time>2019-10-17T16:13:24.000Z</time>
      </trkpt>
      <trkpt lat="45.66883" lon="6.26983">
        <ele>1566</ele>
        <time>2019-10-17T16:13:45.455Z</time>
      </trkpt>
      <trkpt lat="45.66886" lon="6.26975">
        <ele>1567</ele>
        <time>2019-10-17T16:13:48.838Z</time>
      </trkpt>
      <trkpt lat="45.66888" lon="6.26968">
        <ele>1566</ele>
        <time>2019-10-17T16:14:03.000Z</time>
      </trkpt>
      <trkpt lat="45.66886" lon="6.2696">
        <ele>1567</ele>
        <time>2019-10-17T16:14:09.621Z</time>
      </trkpt>
      <trkpt lat="45.66883" lon="6.26952">
        <ele>1567</ele>
        <time>2019-10-17T16:14:17.000Z</time>
      </trkpt>
      <trkpt lat="45.66883" lon="6.26942">
        <ele>1566</ele>
        <time>2019-10-17T16:14:22.863Z</time>
      </trkpt>
      <trkpt lat="45.6688" lon="6.26931">
        <ele>1562</ele>
        <time>2019-10-17T16:14:31.000Z</time>
      </trkpt>
      <trkpt lat="45.66885" lon="6.26926">
        <ele>1561</ele>
        <time>2019-10-17T16:14:38.000Z</time>
      </trkpt>
      <trkpt lat="45.66881" lon="6.26913">
        <ele>1559</ele>
        <time>2019-10-17T16:14:43.964Z</time>
      </trkpt>
      <trkpt lat="45.66877" lon="6.26905">
        <ele>1556</ele>
        <time>2019-10-17T16:14:52.000Z</time>
      </trkpt>
      <trkpt lat="45.66874" lon="6.26897">
        <ele>1554</ele>
        <time>2019-10-17T16:14:59.000Z</time>
      </trkpt>
      <trkpt lat="45.6687" lon="6.26894">
        <ele>1555</ele>
        <time>2019-10-17T16:15:42.000Z</time>
      </trkpt>
      <trkpt lat="45.6687" lon="6.26887">
        <ele>1555</ele>
        <time>2019-10-17T16:16:08.000Z</time>
      </trkpt>
      <trkpt lat="45.66863" lon="6.26877">
        <ele>1553</ele>
        <time>2019-10-17T16:16:14.094Z</time>
      </trkpt>
      <trkpt lat="45.66858" lon="6.2687">
        <ele>1551</ele>
        <time>2019-10-17T16:16:20.134Z</time>
      </trkpt>
      <trkpt lat="45.66853" lon="6.26867">
        <ele>1550</ele>
        <time>2019-10-17T16:16:23.816Z</time>
      </trkpt>
      <trkpt lat="45.66845" lon="6.26864">
        <ele>1550</ele>
        <time>2019-10-17T16:16:30.458Z</time>
      </trkpt>
      <trkpt lat="45.66837" lon="6.26859">
        <ele>1551</ele>
        <time>2019-10-17T16:16:37.398Z</time>
      </trkpt>
      <trkpt lat="45.66831" lon="6.26855">
        <ele>1552</ele>
        <time>2019-10-17T16:16:44.205Z</time>
      </trkpt>
      <trkpt lat="45.66824" lon="6.2685">
        <ele>1550</ele>
        <time>2019-10-17T16:16:52.075Z</time>
      </trkpt>
      <trkpt lat="45.66819" lon="6.26844">
        <ele>1546</ele>
        <time>2019-10-17T16:16:59.073Z</time>
      </trkpt>
      <trkpt lat="45.66817" lon="6.26838">
        <ele>1546</ele>
        <time>2019-10-17T16:17:03.000Z</time>
      </trkpt>
      <trkpt lat="45.66814" lon="6.26829">
        <ele>1547</ele>
        <time>2019-10-17T16:17:08.341Z</time>
      </trkpt>
      <trkpt lat="45.66807" lon="6.26822">
        <ele>1546</ele>
        <time>2019-10-17T16:17:14.814Z</time>
      </trkpt>
      <trkpt lat="45.66801" lon="6.26816">
        <ele>1546</ele>
        <time>2019-10-17T16:17:22.000Z</time>
      </trkpt>
      <trkpt lat="45.66797" lon="6.2681">
        <ele>1546</ele>
        <time>2019-10-17T16:17:29.000Z</time>
      </trkpt>
      <trkpt lat="45.66791" lon="6.26803">
        <ele>1547</ele>
        <time>2019-10-17T16:17:32.121Z</time>
      </trkpt>
      <trkpt lat="45.66787" lon="6.26798">
        <ele>1547</ele>
        <time>2019-10-17T16:17:38.403Z</time>
      </trkpt>
      <trkpt lat="45.66784" lon="6.26789">
        <ele>1547</ele>
        <time>2019-10-17T16:17:46.000Z</time>
      </trkpt>
      <trkpt lat="45.66779" lon="6.2678">
        <ele>1548</ele>
        <time>2019-10-17T16:17:52.159Z</time>
      </trkpt>
      <trkpt lat="45.66776" lon="6.26771">
        <ele>1548</ele>
        <time>2019-10-17T16:18:00.000Z</time>
      </trkpt>
      <trkpt lat="45.66772" lon="6.26765">
        <ele>1547</ele>
        <time>2019-10-17T16:18:04.000Z</time>
      </trkpt>
      <trkpt lat="45.66766" lon="6.26762">
        <ele>1547</ele>
        <time>2019-10-17T16:18:11.000Z</time>
      </trkpt>
      <trkpt lat="45.66764" lon="6.26753">
        <ele>1548</ele>
        <time>2019-10-17T16:18:21.000Z</time>
      </trkpt>
      <trkpt lat="45.66764" lon="6.26745">
        <ele>1548</ele>
        <time>2019-10-17T16:18:27.000Z</time>
      </trkpt>
      <trkpt lat="45.66765" lon="6.26734">
        <ele>1548</ele>
        <time>2019-10-17T16:18:49.000Z</time>
      </trkpt>
      <trkpt lat="45.6677" lon="6.26726">
        <ele>1555</ele>
        <time>2019-10-17T16:19:41.887Z</time>
      </trkpt>
      <trkpt lat="45.6677" lon="6.26719">
        <ele>1555</ele>
        <time>2019-10-17T16:19:46.000Z</time>
      </trkpt>
      <trkpt lat="45.66773" lon="6.26711">
        <ele>1552</ele>
        <time>2019-10-17T16:19:53.000Z</time>
      </trkpt>
      <trkpt lat="45.66771" lon="6.267">
        <ele>1551</ele>
        <time>2019-10-17T16:20:00.236Z</time>
      </trkpt>
      <trkpt lat="45.6677" lon="6.26693">
        <ele>1550</ele>
        <time>2019-10-17T16:20:05.000Z</time>
      </trkpt>
      <trkpt lat="45.66772" lon="6.26686">
        <ele>1548</ele>
        <time>2019-10-17T16:20:11.000Z</time>
      </trkpt>
      <trkpt lat="45.66778" lon="6.26677">
        <ele>1545</ele>
        <time>2019-10-17T16:20:18.000Z</time>
      </trkpt>
      <trkpt lat="45.66783" lon="6.26671">
        <ele>1546</ele>
        <time>2019-10-17T16:20:20.626Z</time>
      </trkpt>
      <trkpt lat="45.66785" lon="6.26666">
        <ele>1546</ele>
        <time>2019-10-17T16:20:25.000Z</time>
      </trkpt>
      <trkpt lat="45.66788" lon="6.26658">
        <ele>1547</ele>
        <time>2019-10-17T16:20:42.000Z</time>
      </trkpt>
      <trkpt lat="45.66786" lon="6.2665">
        <ele>1549</ele>
        <time>2019-10-17T16:20:54.886Z</time>
      </trkpt>
      <trkpt lat="45.66783" lon="6.26641">
        <ele>1550</ele>
        <time>2019-10-17T16:21:02.000Z</time>
      </trkpt>
      <trkpt lat="45.66784" lon="6.26634">
        <ele>1553</ele>
        <time>2019-10-17T16:21:09.000Z</time>
      </trkpt>
      <trkpt lat="45.66788" lon="6.26626">
        <ele>1553</ele>
        <time>2019-10-17T16:21:13.000Z</time>
      </trkpt>
      <trkpt lat="45.66791" lon="6.2662">
        <ele>1554</ele>
        <time>2019-10-17T16:21:19.140Z</time>
      </trkpt>
      <trkpt lat="45.66794" lon="6.26614">
        <ele>1555</ele>
        <time>2019-10-17T16:21:22.165Z</time>
      </trkpt>
      <trkpt lat="45.66796" lon="6.26605">
        <ele>1554</ele>
        <time>2019-10-17T16:21:29.000Z</time>
      </trkpt>
      <trkpt lat="45.66791" lon="6.26605">
        <ele>1553</ele>
        <time>2019-10-17T16:21:43.000Z</time>
      </trkpt>
      <trkpt lat="45.66786" lon="6.26615">
        <ele>1552</ele>
        <time>2019-10-17T16:21:50.000Z</time>
      </trkpt>
      <trkpt lat="45.66785" lon="6.26622">
        <ele>1553</ele>
        <time>2019-10-17T16:21:52.296Z</time>
      </trkpt>
      <trkpt lat="45.66785" lon="6.26635">
        <ele>1552</ele>
        <time>2019-10-17T16:21:55.341Z</time>
      </trkpt>
      <trkpt lat="45.66787" lon="6.26645">
        <ele>1552</ele>
        <time>2019-10-17T16:22:01.557Z</time>
      </trkpt>
      <trkpt lat="45.66788" lon="6.26653">
        <ele>1549</ele>
        <time>2019-10-17T16:22:09.000Z</time>
      </trkpt>
      <trkpt lat="45.66786" lon="6.26663">
        <ele>1548</ele>
        <time>2019-10-17T16:22:15.000Z</time>
      </trkpt>
      <trkpt lat="45.66784" lon="6.2667">
        <ele>1546</ele>
        <time>2019-10-17T16:22:18.317Z</time>
      </trkpt>
      <trkpt lat="45.66787" lon="6.26681">
        <ele>1546</ele>
        <time>2019-10-17T16:22:25.082Z</time>
      </trkpt>
      <trkpt lat="45.66792" lon="6.26689">
        <ele>1547</ele>
        <time>2019-10-17T16:22:33.000Z</time>
      </trkpt>
      <trkpt lat="45.66797" lon="6.26699">
        <ele>1546</ele>
        <time>2019-10-17T16:22:38.560Z</time>
      </trkpt>
      <trkpt lat="45.66799" lon="6.26705">
        <ele>1547</ele>
        <time>2019-10-17T16:22:45.619Z</time>
      </trkpt>
      <trkpt lat="45.66806" lon="6.26707">
        <ele>1545</ele>
        <time>2019-10-17T16:22:51.963Z</time>
      </trkpt>
      <trkpt lat="45.6681" lon="6.26705">
        <ele>1544</ele>
        <time>2019-10-17T16:22:55.160Z</time>
      </trkpt>
      <trkpt lat="45.66815" lon="6.267">
        <ele>1542</ele>
        <time>2019-10-17T16:23:03.000Z</time>
      </trkpt>
      <trkpt lat="45.66821" lon="6.26696">
        <ele>1538</ele>
        <time>2019-10-17T16:23:15.764Z</time>
      </trkpt>
      <trkpt lat="45.66826" lon="6.26697">
        <ele>1536</ele>
        <time>2019-10-17T16:23:19.418Z</time>
      </trkpt>
      <trkpt lat="45.66831" lon="6.267">
        <ele>1534</ele>
        <time>2019-10-17T16:23:23.013Z</time>
      </trkpt>
      <trkpt lat="45.66837" lon="6.26701">
        <ele>1534</ele>
        <time>2019-10-17T16:23:29.695Z</time>
      </trkpt>
      <trkpt lat="45.66841" lon="6.26706">
        <ele>1533</ele>
        <time>2019-10-17T16:23:36.524Z</time>
      </trkpt>
      <trkpt lat="45.66846" lon="6.26709">
        <ele>1528</ele>
        <time>2019-10-17T16:23:47.000Z</time>
      </trkpt>
      <trkpt lat="45.66852" lon="6.26705">
        <ele>1526</ele>
        <time>2019-10-17T16:23:53.000Z</time>
      </trkpt>
      <trkpt lat="45.66856" lon="6.26702">
        <ele>1525</ele>
        <time>2019-10-17T16:23:55.876Z</time>
      </trkpt>
      <trkpt lat="45.66863" lon="6.26696">
        <ele>1523</ele>
        <time>2019-10-17T16:24:02.751Z</time>
      </trkpt>
      <trkpt lat="45.66868" lon="6.26696">
        <ele>1522</ele>
        <time>2019-10-17T16:24:09.677Z</time>
      </trkpt>
      <trkpt lat="45.66874" lon="6.267">
        <ele>1520</ele>
        <time>2019-10-17T16:24:17.000Z</time>
      </trkpt>
      <trkpt lat="45.66881" lon="6.26701">
        <ele>1520</ele>
        <time>2019-10-17T16:24:22.738Z</time>
      </trkpt>
      <trkpt lat="45.66892" lon="6.26701">
        <ele>1517</ele>
        <time>2019-10-17T16:24:29.871Z</time>
      </trkpt>
      <trkpt lat="45.66899" lon="6.26701">
        <ele>1515</ele>
        <time>2019-10-17T16:24:38.000Z</time>
      </trkpt>
      <trkpt lat="45.66903" lon="6.26696">
        <ele>1515</ele>
        <time>2019-10-17T16:24:41.000Z</time>
      </trkpt>
      <trkpt lat="45.66905" lon="6.26688">
        <ele>1514</ele>
        <time>2019-10-17T16:24:44.038Z</time>
      </trkpt>
      <trkpt lat="45.66907" lon="6.26678">
        <ele>1512</ele>
        <time>2019-10-17T16:24:54.635Z</time>
      </trkpt>
      <trkpt lat="45.66911" lon="6.2667">
        <ele>1509</ele>
        <time>2019-10-17T16:25:02.000Z</time>
      </trkpt>
      <trkpt lat="45.66913" lon="6.26661">
        <ele>1509</ele>
        <time>2019-10-17T16:25:04.694Z</time>
      </trkpt>
      <trkpt lat="45.66915" lon="6.26655">
        <ele>1508</ele>
        <time>2019-10-17T16:25:09.000Z</time>
      </trkpt>
      <trkpt lat="45.66919" lon="6.26648">
        <ele>1504</ele>
        <time>2019-10-17T16:25:16.000Z</time>
      </trkpt>
      <trkpt lat="45.66918" lon="6.26639">
        <ele>1502</ele>
        <time>2019-10-17T16:25:21.880Z</time>
      </trkpt>
      <trkpt lat="45.6692" lon="6.26632">
        <ele>1501</ele>
        <time>2019-10-17T16:25:26.000Z</time>
      </trkpt>
      <trkpt lat="45.66926" lon="6.26627">
        <ele>1501</ele>
        <time>2019-10-17T16:25:28.601Z</time>
      </trkpt>
      <trkpt lat="45.66931" lon="6.26622">
        <ele>1499</ele>
        <time>2019-10-17T16:25:36.000Z</time>
      </trkpt>
      <trkpt lat="45.66933" lon="6.26612">
        <ele>1498</ele>
        <time>2019-10-17T16:25:41.655Z</time>
      </trkpt>
      <trkpt lat="45.66932" lon="6.26602">
        <ele>1497</ele>
        <time>2019-10-17T16:25:49.000Z</time>
      </trkpt>
      <trkpt lat="45.66933" lon="6.26595">
        <ele>1495</ele>
        <time>2019-10-17T16:25:55.118Z</time>
      </trkpt>
      <trkpt lat="45.66939" lon="6.26592">
        <ele>1497</ele>
        <time>2019-10-17T16:26:06.179Z</time>
      </trkpt>
      <trkpt lat="45.66943" lon="6.26595">
        <ele>1496</ele>
        <time>2019-10-17T16:26:10.000Z</time>
      </trkpt>
      <trkpt lat="45.66947" lon="6.26602">
        <ele>1496</ele>
        <time>2019-10-17T16:26:13.096Z</time>
      </trkpt>
      <trkpt lat="45.66949" lon="6.2661">
        <ele>1496</ele>
        <time>2019-10-17T16:26:16.160Z</time>
      </trkpt>
      <trkpt lat="45.6695" lon="6.26616">
        <ele>1496</ele>
        <time>2019-10-17T16:26:20.000Z</time>
      </trkpt>
      <trkpt lat="45.66956" lon="6.26624">
        <ele>1495</ele>
        <time>2019-10-17T16:26:27.000Z</time>
      </trkpt>
      <trkpt lat="45.66961" lon="6.26629">
        <ele>1495</ele>
        <time>2019-10-17T16:26:34.000Z</time>
      </trkpt>
      <trkpt lat="45.66965" lon="6.26634">
        <ele>1495</ele>
        <time>2019-10-17T16:26:37.062Z</time>
      </trkpt>
      <trkpt lat="45.66977" lon="6.26638">
        <ele>1493</ele>
        <time>2019-10-17T16:26:45.000Z</time>
      </trkpt>
      <trkpt lat="45.66982" lon="6.26647">
        <ele>1496</ele>
        <time>2019-10-17T16:26:52.000Z</time>
      </trkpt>
      <trkpt lat="45.66989" lon="6.26643">
        <ele>1494</ele>
        <time>2019-10-17T16:26:57.838Z</time>
      </trkpt>
      <trkpt lat="45.66993" lon="6.26638">
        <ele>1493</ele>
        <time>2019-10-17T16:27:04.162Z</time>
      </trkpt>
      <trkpt lat="45.67" lon="6.26634">
        <ele>1492</ele>
        <time>2019-10-17T16:27:11.076Z</time>
      </trkpt>
      <trkpt lat="45.67007" lon="6.2663">
        <ele>1490</ele>
        <time>2019-10-17T16:27:17.398Z</time>
      </trkpt>
      <trkpt lat="45.67012" lon="6.2663">
        <ele>1488</ele>
        <time>2019-10-17T16:27:22.000Z</time>
      </trkpt>
      <trkpt lat="45.67014" lon="6.26624">
        <ele>1487</ele>
        <time>2019-10-17T16:27:29.000Z</time>
      </trkpt>
      <trkpt lat="45.67021" lon="6.2662">
        <ele>1484</ele>
        <time>2019-10-17T16:27:41.422Z</time>
      </trkpt>
      <trkpt lat="45.67027" lon="6.26622">
        <ele>1483</ele>
        <time>2019-10-17T16:27:44.840Z</time>
      </trkpt>
      <trkpt lat="45.67032" lon="6.26624">
        <ele>1483</ele>
        <time>2019-10-17T16:27:48.256Z</time>
      </trkpt>
      <trkpt lat="45.67037" lon="6.26627">
        <ele>1482</ele>
        <time>2019-10-17T16:27:51.857Z</time>
      </trkpt>
      <trkpt lat="45.67042" lon="6.26634">
        <ele>1480</ele>
        <time>2019-10-17T16:27:58.293Z</time>
      </trkpt>
      <trkpt lat="45.67045" lon="6.26639">
        <ele>1477</ele>
        <time>2019-10-17T16:28:04.880Z</time>
      </trkpt>
      <trkpt lat="45.6705" lon="6.26641">
        <ele>1477</ele>
        <time>2019-10-17T16:28:13.000Z</time>
      </trkpt>
      <trkpt lat="45.67057" lon="6.26642">
        <ele>1478</ele>
        <time>2019-10-17T16:28:19.402Z</time>
      </trkpt>
      <trkpt lat="45.67062" lon="6.2664">
        <ele>1478</ele>
        <time>2019-10-17T16:28:26.000Z</time>
      </trkpt>
      <trkpt lat="45.67068" lon="6.2664">
        <ele>1477</ele>
        <time>2019-10-17T16:28:33.000Z</time>
      </trkpt>
      <trkpt lat="45.67073" lon="6.26641">
        <ele>1476</ele>
        <time>2019-10-17T16:28:39.172Z</time>
      </trkpt>
      <trkpt lat="45.67077" lon="6.26646">
        <ele>1476</ele>
        <time>2019-10-17T16:28:46.057Z</time>
      </trkpt>
      <trkpt lat="45.67082" lon="6.2665">
        <ele>1475</ele>
        <time>2019-10-17T16:28:53.000Z</time>
      </trkpt>
      <trkpt lat="45.67086" lon="6.26652">
        <ele>1474</ele>
        <time>2019-10-17T16:28:55.915Z</time>
      </trkpt>
      <trkpt lat="45.67093" lon="6.26654">
        <ele>1472</ele>
        <time>2019-10-17T16:29:03.000Z</time>
      </trkpt>
      <trkpt lat="45.67101" lon="6.26656">
        <ele>1471</ele>
        <time>2019-10-17T16:29:09.436Z</time>
      </trkpt>
      <trkpt lat="45.67109" lon="6.26658">
        <ele>1468</ele>
        <time>2019-10-17T16:29:16.092Z</time>
      </trkpt>
      <trkpt lat="45.67117" lon="6.26657">
        <ele>1469</ele>
        <time>2019-10-17T16:29:23.000Z</time>
      </trkpt>
      <trkpt lat="45.67122" lon="6.26656">
        <ele>1470</ele>
        <time>2019-10-17T16:29:25.970Z</time>
      </trkpt>
      <trkpt lat="45.67129" lon="6.26654">
        <ele>1469</ele>
        <time>2019-10-17T16:29:32.306Z</time>
      </trkpt>
      <trkpt lat="45.67137" lon="6.26651">
        <ele>1467</ele>
        <time>2019-10-17T16:29:40.237Z</time>
      </trkpt>
      <trkpt lat="45.67142" lon="6.2665">
        <ele>1466</ele>
        <time>2019-10-17T16:29:48.000Z</time>
      </trkpt>
      <trkpt lat="45.67147" lon="6.26647">
        <ele>1461</ele>
        <time>2019-10-17T16:30:00.609Z</time>
      </trkpt>
      <trkpt lat="45.67152" lon="6.2665">
        <ele>1457</ele>
        <time>2019-10-17T16:30:11.318Z</time>
      </trkpt>
      <trkpt lat="45.67156" lon="6.26645">
        <ele>1454</ele>
        <time>2019-10-17T16:30:39.092Z</time>
      </trkpt>
      <trkpt lat="45.6716" lon="6.26645">
        <ele>1454</ele>
        <time>2019-10-17T16:31:00.000Z</time>
      </trkpt>
      <trkpt lat="45.67167" lon="6.2664">
        <ele>1451</ele>
        <time>2019-10-17T16:31:13.316Z</time>
      </trkpt>
      <trkpt lat="45.6717" lon="6.26634">
        <ele>1450</ele>
        <time>2019-10-17T16:31:20.369Z</time>
      </trkpt>
      <trkpt lat="45.67174" lon="6.26629">
        <ele>1449</ele>
        <time>2019-10-17T16:31:30.250Z</time>
      </trkpt>
      <trkpt lat="45.67178" lon="6.26623">
        <ele>1449</ele>
        <time>2019-10-17T16:31:44.000Z</time>
      </trkpt>
      <trkpt lat="45.67184" lon="6.26623">
        <ele>1447</ele>
        <time>2019-10-17T16:31:52.000Z</time>
      </trkpt>
      <trkpt lat="45.67188" lon="6.26618">
        <ele>1446</ele>
        <time>2019-10-17T16:31:59.000Z</time>
      </trkpt>
      <trkpt lat="45.67192" lon="6.26615">
        <ele>1444</ele>
        <time>2019-10-17T16:32:11.933Z</time>
      </trkpt>
      <trkpt lat="45.67194" lon="6.26609">
        <ele>1441</ele>
        <time>2019-10-17T16:32:22.102Z</time>
      </trkpt>
      <trkpt lat="45.67191" lon="6.266">
        <ele>1442</ele>
        <time>2019-10-17T16:32:33.000Z</time>
      </trkpt>
      <trkpt lat="45.67188" lon="6.26594">
        <ele>1440</ele>
        <time>2019-10-17T16:32:40.000Z</time>
      </trkpt>
      <trkpt lat="45.67188" lon="6.26586">
        <ele>1442</ele>
        <time>2019-10-17T16:32:49.958Z</time>
      </trkpt>
      <trkpt lat="45.67186" lon="6.2658">
        <ele>1443</ele>
        <time>2019-10-17T16:32:56.621Z</time>
      </trkpt>
      <trkpt lat="45.6718" lon="6.26576">
        <ele>1445</ele>
        <time>2019-10-17T16:33:04.243Z</time>
      </trkpt>
      <trkpt lat="45.67174" lon="6.26574">
        <ele>1448</ele>
        <time>2019-10-17T16:33:14.104Z</time>
      </trkpt>
      <trkpt lat="45.67169" lon="6.2657">
        <ele>1451</ele>
        <time>2019-10-17T16:33:28.000Z</time>
      </trkpt>
      <trkpt lat="45.67164" lon="6.2657">
        <ele>1454</ele>
        <time>2019-10-17T16:33:40.386Z</time>
      </trkpt>
      <trkpt lat="45.67158" lon="6.26568">
        <ele>1456</ele>
        <time>2019-10-17T16:33:51.000Z</time>
      </trkpt>
      <trkpt lat="45.67153" lon="6.26561">
        <ele>1458</ele>
        <time>2019-10-17T16:33:57.390Z</time>
      </trkpt>
      <trkpt lat="45.67151" lon="6.26554">
        <ele>1459</ele>
        <time>2019-10-17T16:34:05.000Z</time>
      </trkpt>
      <trkpt lat="45.67149" lon="6.26548">
        <ele>1457</ele>
        <time>2019-10-17T16:34:12.000Z</time>
      </trkpt>
      <trkpt lat="45.67148" lon="6.26542">
        <ele>1459</ele>
        <time>2019-10-17T16:34:19.000Z</time>
      </trkpt>
      <trkpt lat="45.67147" lon="6.26533">
        <ele>1458</ele>
        <time>2019-10-17T16:34:26.000Z</time>
      </trkpt>
      <trkpt lat="45.67148" lon="6.26525">
        <ele>1458</ele>
        <time>2019-10-17T16:34:32.946Z</time>
      </trkpt>
      <trkpt lat="45.67146" lon="6.26518">
        <ele>1460</ele>
        <time>2019-10-17T16:34:40.000Z</time>
      </trkpt>
      <trkpt lat="45.67148" lon="6.26512">
        <ele>1462</ele>
        <time>2019-10-17T16:34:53.997Z</time>
      </trkpt>
      <trkpt lat="45.67148" lon="6.26505">
        <ele>1463</ele>
        <time>2019-10-17T16:35:00.305Z</time>
      </trkpt>
      <trkpt lat="45.67145" lon="6.26499">
        <ele>1462</ele>
        <time>2019-10-17T16:36:01.000Z</time>
      </trkpt>
      <trkpt lat="45.67142" lon="6.26492">
        <ele>1462</ele>
        <time>2019-10-17T16:36:11.000Z</time>
      </trkpt>
      <trkpt lat="45.67141" lon="6.26481">
        <ele>1463</ele>
        <time>2019-10-17T16:36:17.075Z</time>
      </trkpt>
      <trkpt lat="45.67141" lon="6.2647">
        <ele>1463</ele>
        <time>2019-10-17T16:36:24.596Z</time>
      </trkpt>
      <trkpt lat="45.6714" lon="6.26464">
        <ele>1465</ele>
        <time>2019-10-17T16:36:35.263Z</time>
      </trkpt>
      <trkpt lat="45.67137" lon="6.26454">
        <ele>1466</ele>
        <time>2019-10-17T16:36:42.017Z</time>
      </trkpt>
      <trkpt lat="45.67133" lon="6.26445">
        <ele>1466</ele>
        <time>2019-10-17T16:36:49.000Z</time>
      </trkpt>
      <trkpt lat="45.67131" lon="6.26437">
        <ele>1466</ele>
        <time>2019-10-17T16:36:54.878Z</time>
      </trkpt>
      <trkpt lat="45.67129" lon="6.26429">
        <ele>1465</ele>
        <time>2019-10-17T16:37:01.705Z</time>
      </trkpt>
      <trkpt lat="45.67131" lon="6.26421">
        <ele>1466</ele>
        <time>2019-10-17T16:37:10.000Z</time>
      </trkpt>
      <trkpt lat="45.67127" lon="6.26416">
        <ele>1468</ele>
        <time>2019-10-17T16:37:15.599Z</time>
      </trkpt>
      <trkpt lat="45.67127" lon="6.26406">
        <ele>1467</ele>
        <time>2019-10-17T16:37:21.886Z</time>
      </trkpt>
      <trkpt lat="45.67128" lon="6.26399">
        <ele>1466</ele>
        <time>2019-10-17T16:37:25.480Z</time>
      </trkpt>
      <trkpt lat="45.67131" lon="6.26389">
        <ele>1465</ele>
        <time>2019-10-17T16:37:31.874Z</time>
      </trkpt>
      <trkpt lat="45.67131" lon="6.26379">
        <ele>1465</ele>
        <time>2019-10-17T16:37:39.000Z</time>
      </trkpt>
      <trkpt lat="45.6713" lon="6.26371">
        <ele>1465</ele>
        <time>2019-10-17T16:37:45.123Z</time>
      </trkpt>
      <trkpt lat="45.67132" lon="6.26355">
        <ele>1468</ele>
        <time>2019-10-17T16:37:52.556Z</time>
      </trkpt>
      <trkpt lat="45.67133" lon="6.26347">
        <ele>1469</ele>
        <time>2019-10-17T16:37:56.120Z</time>
      </trkpt>
      <trkpt lat="45.67132" lon="6.26338">
        <ele>1469</ele>
        <time>2019-10-17T16:38:04.000Z</time>
      </trkpt>
      <trkpt lat="45.67131" lon="6.26331">
        <ele>1471</ele>
        <time>2019-10-17T16:38:10.201Z</time>
      </trkpt>
      <trkpt lat="45.67132" lon="6.26323">
        <ele>1472</ele>
        <time>2019-10-17T16:38:21.000Z</time>
      </trkpt>
      <trkpt lat="45.67135" lon="6.26313">
        <ele>1470</ele>
        <time>2019-10-17T16:38:31.000Z</time>
      </trkpt>
      <trkpt lat="45.67134" lon="6.26303">
        <ele>1470</ele>
        <time>2019-10-17T16:38:36.458Z</time>
      </trkpt>
      <trkpt lat="45.67133" lon="6.26292">
        <ele>1472</ele>
        <time>2019-10-17T16:38:42.791Z</time>
      </trkpt>
      <trkpt lat="45.67132" lon="6.26284">
        <ele>1473</ele>
        <time>2019-10-17T16:38:46.755Z</time>
      </trkpt>
      <trkpt lat="45.67132" lon="6.26277">
        <ele>1474</ele>
        <time>2019-10-17T16:38:50.520Z</time>
      </trkpt>
      <trkpt lat="45.67131" lon="6.26269">
        <ele>1475</ele>
        <time>2019-10-17T16:38:53.957Z</time>
      </trkpt>
      <trkpt lat="45.67132" lon="6.2626">
        <ele>1477</ele>
        <time>2019-10-17T16:39:02.000Z</time>
      </trkpt>
      <trkpt lat="45.67134" lon="6.26253">
        <ele>1478</ele>
        <time>2019-10-17T16:39:09.099Z</time>
      </trkpt>
      <trkpt lat="45.67135" lon="6.26245">
        <ele>1479</ele>
        <time>2019-10-17T16:39:15.238Z</time>
      </trkpt>
      <trkpt lat="45.67133" lon="6.26237">
        <ele>1480</ele>
        <time>2019-10-17T16:39:18.975Z</time>
      </trkpt>
      <trkpt lat="45.6713" lon="6.26231">
        <ele>1481</ele>
        <time>2019-10-17T16:39:23.000Z</time>
      </trkpt>
      <trkpt lat="45.67127" lon="6.26223">
        <ele>1483</ele>
        <time>2019-10-17T16:39:30.000Z</time>
      </trkpt>
      <trkpt lat="45.67121" lon="6.26218">
        <ele>1485</ele>
        <time>2019-10-17T16:39:36.079Z</time>
      </trkpt>
      <trkpt lat="45.67119" lon="6.26211">
        <ele>1487</ele>
        <time>2019-10-17T16:39:43.000Z</time>
      </trkpt>
      <trkpt lat="45.67118" lon="6.262">
        <ele>1489</ele>
        <time>2019-10-17T16:39:50.000Z</time>
      </trkpt>
      <trkpt lat="45.67112" lon="6.26189">
        <ele>1489</ele>
        <time>2019-10-17T16:39:55.638Z</time>
      </trkpt>
      <trkpt lat="45.67107" lon="6.26186">
        <ele>1489</ele>
        <time>2019-10-17T16:39:58.957Z</time>
      </trkpt>
      <trkpt lat="45.67102" lon="6.26181">
        <ele>1490</ele>
        <time>2019-10-17T16:40:06.000Z</time>
      </trkpt>
      <trkpt lat="45.67102" lon="6.26174">
        <ele>1491</ele>
        <time>2019-10-17T16:40:08.620Z</time>
      </trkpt>
      <trkpt lat="45.67101" lon="6.26162">
        <ele>1490</ele>
        <time>2019-10-17T16:40:13.000Z</time>
      </trkpt>
      <trkpt lat="45.671" lon="6.26153">
        <ele>1490</ele>
        <time>2019-10-17T16:40:19.000Z</time>
      </trkpt>
      <trkpt lat="45.67097" lon="6.26146">
        <ele>1491</ele>
        <time>2019-10-17T16:40:25.380Z</time>
      </trkpt>
      <trkpt lat="45.67091" lon="6.26141">
        <ele>1492</ele>
        <time>2019-10-17T16:40:33.000Z</time>
      </trkpt>
      <trkpt lat="45.67088" lon="6.26136">
        <ele>1492</ele>
        <time>2019-10-17T16:40:40.000Z</time>
      </trkpt>
      <trkpt lat="45.67086" lon="6.26126">
        <ele>1493</ele>
        <time>2019-10-17T16:40:46.715Z</time>
      </trkpt>
      <trkpt lat="45.6708" lon="6.26122">
        <ele>1493</ele>
        <time>2019-10-17T16:40:54.000Z</time>
      </trkpt>
      <trkpt lat="45.67071" lon="6.26118">
        <ele>1492</ele>
        <time>2019-10-17T16:40:58.000Z</time>
      </trkpt>
      <trkpt lat="45.67065" lon="6.26117">
        <ele>1492</ele>
        <time>2019-10-17T16:41:04.078Z</time>
      </trkpt>
      <trkpt lat="45.67062" lon="6.26107">
        <ele>1492</ele>
        <time>2019-10-17T16:41:08.000Z</time>
      </trkpt>
      <trkpt lat="45.67059" lon="6.26102">
        <ele>1491</ele>
        <time>2019-10-17T16:41:10.434Z</time>
      </trkpt>
      <trkpt lat="45.67053" lon="6.26096">
        <ele>1491</ele>
        <time>2019-10-17T16:41:17.133Z</time>
      </trkpt>
      <trkpt lat="45.67048" lon="6.26093">
        <ele>1491</ele>
        <time>2019-10-17T16:41:20.744Z</time>
      </trkpt>
      <trkpt lat="45.67042" lon="6.26092">
        <ele>1491</ele>
        <time>2019-10-17T16:41:27.389Z</time>
      </trkpt>
      <trkpt lat="45.67037" lon="6.26087">
        <ele>1488</ele>
        <time>2019-10-17T16:41:32.000Z</time>
      </trkpt>
      <trkpt lat="45.67033" lon="6.26082">
        <ele>1488</ele>
        <time>2019-10-17T16:41:36.000Z</time>
      </trkpt>
      <trkpt lat="45.6703" lon="6.26077">
        <ele>1486</ele>
        <time>2019-10-17T16:41:46.000Z</time>
      </trkpt>
      <trkpt lat="45.67028" lon="6.26069">
        <ele>1483</ele>
        <time>2019-10-17T16:41:56.000Z</time>
      </trkpt>
      <trkpt lat="45.67023" lon="6.26062">
        <ele>1483</ele>
        <time>2019-10-17T16:42:02.381Z</time>
      </trkpt>
      <trkpt lat="45.67015" lon="6.26061">
        <ele>1481</ele>
        <time>2019-10-17T16:42:11.000Z</time>
      </trkpt>
      <trkpt lat="45.67007" lon="6.26061">
        <ele>1479</ele>
        <time>2019-10-17T16:42:16.738Z</time>
      </trkpt>
      <trkpt lat="45.66999" lon="6.2606">
        <ele>1478</ele>
        <time>2019-10-17T16:42:34.000Z</time>
      </trkpt>
      <trkpt lat="45.66992" lon="6.26057">
        <ele>1476</ele>
        <time>2019-10-17T16:42:37.000Z</time>
      </trkpt>
      <trkpt lat="45.66984" lon="6.26049">
        <ele>1477</ele>
        <time>2019-10-17T16:42:41.000Z</time>
      </trkpt>
      <trkpt lat="45.6697" lon="6.26034">
        <ele>1475</ele>
        <time>2019-10-17T16:42:51.000Z</time>
      </trkpt>
      <trkpt lat="45.66964" lon="6.2603">
        <ele>1473</ele>
        <time>2019-10-17T16:42:56.916Z</time>
      </trkpt>
      <trkpt lat="45.66955" lon="6.26021">
        <ele>1468</ele>
        <time>2019-10-17T16:43:04.000Z</time>
      </trkpt>
      <trkpt lat="45.66951" lon="6.26019">
        <ele>1469</ele>
        <time>2019-10-17T16:43:07.000Z</time>
      </trkpt>
      <trkpt lat="45.66946" lon="6.26017">
        <ele>1469</ele>
        <time>2019-10-17T16:43:10.000Z</time>
      </trkpt>
      <trkpt lat="45.6694" lon="6.26017">
        <ele>1470</ele>
        <time>2019-10-17T16:43:13.075Z</time>
      </trkpt>
      <trkpt lat="45.66932" lon="6.26019">
        <ele>1468</ele>
        <time>2019-10-17T16:43:20.000Z</time>
      </trkpt>
      <trkpt lat="45.66925" lon="6.26021">
        <ele>1467</ele>
        <time>2019-10-17T16:43:27.000Z</time>
      </trkpt>
      <trkpt lat="45.66917" lon="6.26022">
        <ele>1467</ele>
        <time>2019-10-17T16:43:30.096Z</time>
      </trkpt>
      <trkpt lat="45.66911" lon="6.26019">
        <ele>1465</ele>
        <time>2019-10-17T16:43:36.684Z</time>
      </trkpt>
      <trkpt lat="45.66906" lon="6.26011">
        <ele>1464</ele>
        <time>2019-10-17T16:43:43.239Z</time>
      </trkpt>
      <trkpt lat="45.66898" lon="6.26004">
        <ele>1463</ele>
        <time>2019-10-17T16:43:49.984Z</time>
      </trkpt>
      <trkpt lat="45.66891" lon="6.25998">
        <ele>1461</ele>
        <time>2019-10-17T16:43:57.000Z</time>
      </trkpt>
      <trkpt lat="45.66887" lon="6.25995">
        <ele>1461</ele>
        <time>2019-10-17T16:44:00.062Z</time>
      </trkpt>
      <trkpt lat="45.66879" lon="6.25994">
        <ele>1462</ele>
        <time>2019-10-17T16:44:07.075Z</time>
      </trkpt>
      <trkpt lat="45.66873" lon="6.25996">
        <ele>1462</ele>
        <time>2019-10-17T16:44:11.000Z</time>
      </trkpt>
      <trkpt lat="45.66866" lon="6.25999">
        <ele>1462</ele>
        <time>2019-10-17T16:44:13.882Z</time>
      </trkpt>
      <trkpt lat="45.66859" lon="6.26001">
        <ele>1460</ele>
        <time>2019-10-17T16:44:21.000Z</time>
      </trkpt>
      <trkpt lat="45.66852" lon="6.26002">
        <ele>1461</ele>
        <time>2019-10-17T16:44:27.232Z</time>
      </trkpt>
      <trkpt lat="45.66844" lon="6.25999">
        <ele>1461</ele>
        <time>2019-10-17T16:44:34.000Z</time>
      </trkpt>
      <trkpt lat="45.66834" lon="6.25992">
        <ele>1458</ele>
        <time>2019-10-17T16:44:40.156Z</time>
      </trkpt>
      <trkpt lat="45.66829" lon="6.25989">
        <ele>1458</ele>
        <time>2019-10-17T16:44:43.370Z</time>
      </trkpt>
      <trkpt lat="45.66822" lon="6.25982">
        <ele>1455</ele>
        <time>2019-10-17T16:44:50.054Z</time>
      </trkpt>
      <trkpt lat="45.66814" lon="6.25979">
        <ele>1455</ele>
        <time>2019-10-17T16:44:57.415Z</time>
      </trkpt>
      <trkpt lat="45.66808" lon="6.25979">
        <ele>1455</ele>
        <time>2019-10-17T16:45:01.000Z</time>
      </trkpt>
      <trkpt lat="45.66803" lon="6.2598">
        <ele>1455</ele>
        <time>2019-10-17T16:45:04.032Z</time>
      </trkpt>
      <trkpt lat="45.66796" lon="6.25978">
        <ele>1454</ele>
        <time>2019-10-17T16:45:11.000Z</time>
      </trkpt>
      <trkpt lat="45.66791" lon="6.25977">
        <ele>1453</ele>
        <time>2019-10-17T16:45:13.953Z</time>
      </trkpt>
      <trkpt lat="45.66783" lon="6.25977">
        <ele>1452</ele>
        <time>2019-10-17T16:45:22.000Z</time>
      </trkpt>
      <trkpt lat="45.66776" lon="6.25974">
        <ele>1452</ele>
        <time>2019-10-17T16:45:24.651Z</time>
      </trkpt>
      <trkpt lat="45.66769" lon="6.25971">
        <ele>1451</ele>
        <time>2019-10-17T16:45:29.000Z</time>
      </trkpt>
      <trkpt lat="45.66761" lon="6.2597">
        <ele>1450</ele>
        <time>2019-10-17T16:45:35.034Z</time>
      </trkpt>
      <trkpt lat="45.66754" lon="6.25966">
        <ele>1450</ele>
        <time>2019-10-17T16:45:42.537Z</time>
      </trkpt>
      <trkpt lat="45.66746" lon="6.25964">
        <ele>1450</ele>
        <time>2019-10-17T16:45:47.000Z</time>
      </trkpt>
      <trkpt lat="45.66742" lon="6.25957">
        <ele>1448</ele>
        <time>2019-10-17T16:45:52.322Z</time>
      </trkpt>
      <trkpt lat="45.66735" lon="6.25949">
        <ele>1443</ele>
        <time>2019-10-17T16:45:59.326Z</time>
      </trkpt>
      <trkpt lat="45.6673" lon="6.25945">
        <ele>1441</ele>
        <time>2019-10-17T16:46:02.659Z</time>
      </trkpt>
      <trkpt lat="45.66723" lon="6.2594">
        <ele>1440</ele>
        <time>2019-10-17T16:46:10.000Z</time>
      </trkpt>
      <trkpt lat="45.66721" lon="6.25931">
        <ele>1440</ele>
        <time>2019-10-17T16:46:15.576Z</time>
      </trkpt>
      <trkpt lat="45.66718" lon="6.25924">
        <ele>1439</ele>
        <time>2019-10-17T16:46:20.000Z</time>
      </trkpt>
      <trkpt lat="45.66713" lon="6.25913">
        <ele>1440</ele>
        <time>2019-10-17T16:46:27.000Z</time>
      </trkpt>
      <trkpt lat="45.66708" lon="6.25909">
        <ele>1439</ele>
        <time>2019-10-17T16:46:34.000Z</time>
      </trkpt>
      <trkpt lat="45.667" lon="6.25906">
        <ele>1438</ele>
        <time>2019-10-17T16:46:36.617Z</time>
      </trkpt>
      <trkpt lat="45.66694" lon="6.25901">
        <ele>1438</ele>
        <time>2019-10-17T16:46:44.000Z</time>
      </trkpt>
      <trkpt lat="45.66689" lon="6.25896">
        <ele>1437</ele>
        <time>2019-10-17T16:46:51.000Z</time>
      </trkpt>
      <trkpt lat="45.66684" lon="6.25887">
        <ele>1434</ele>
        <time>2019-10-17T16:46:57.000Z</time>
      </trkpt>
      <trkpt lat="45.66679" lon="6.25885">
        <ele>1433</ele>
        <time>2019-10-17T16:46:59.436Z</time>
      </trkpt>
      <trkpt lat="45.66676" lon="6.25875">
        <ele>1432</ele>
        <time>2019-10-17T16:47:02.570Z</time>
      </trkpt>
      <trkpt lat="45.66673" lon="6.25867">
        <ele>1431</ele>
        <time>2019-10-17T16:47:05.714Z</time>
      </trkpt>
      <trkpt lat="45.66668" lon="6.25862">
        <ele>1430</ele>
        <time>2019-10-17T16:47:08.920Z</time>
      </trkpt>
      <trkpt lat="45.66663" lon="6.25853">
        <ele>1428</ele>
        <time>2019-10-17T16:47:16.430Z</time>
      </trkpt>
      <trkpt lat="45.66659" lon="6.25845">
        <ele>1429</ele>
        <time>2019-10-17T16:47:23.921Z</time>
      </trkpt>
      <trkpt lat="45.66653" lon="6.25842">
        <ele>1429</ele>
        <time>2019-10-17T16:47:31.075Z</time>
      </trkpt>
      <trkpt lat="45.66649" lon="6.25835">
        <ele>1429</ele>
        <time>2019-10-17T16:47:40.859Z</time>
      </trkpt>
      <trkpt lat="45.66644" lon="6.25825">
        <ele>1429</ele>
        <time>2019-10-17T16:47:44.902Z</time>
      </trkpt>
      <trkpt lat="45.66641" lon="6.25816">
        <ele>1428</ele>
        <time>2019-10-17T16:47:49.000Z</time>
      </trkpt>
      <trkpt lat="45.66636" lon="6.25808">
        <ele>1428</ele>
        <time>2019-10-17T16:47:51.707Z</time>
      </trkpt>
      <trkpt lat="45.66628" lon="6.25806">
        <ele>1427</ele>
        <time>2019-10-17T16:47:58.316Z</time>
      </trkpt>
      <trkpt lat="45.6662" lon="6.25804">
        <ele>1423</ele>
        <time>2019-10-17T16:48:06.131Z</time>
      </trkpt>
      <trkpt lat="45.66613" lon="6.25803">
        <ele>1418</ele>
        <time>2019-10-17T16:48:14.000Z</time>
      </trkpt>
      <trkpt lat="45.666" lon="6.25791">
        <ele>1416</ele>
        <time>2019-10-17T16:48:20.112Z</time>
      </trkpt>
      <trkpt lat="45.66596" lon="6.25784">
        <ele>1415</ele>
        <time>2019-10-17T16:48:24.000Z</time>
      </trkpt>
      <trkpt lat="45.66594" lon="6.25775">
        <ele>1413</ele>
        <time>2019-10-17T16:48:27.000Z</time>
      </trkpt>
      <trkpt lat="45.66589" lon="6.25766">
        <ele>1412</ele>
        <time>2019-10-17T16:48:34.000Z</time>
      </trkpt>
      <trkpt lat="45.66582" lon="6.25769">
        <ele>1411</ele>
        <time>2019-10-17T16:48:40.072Z</time>
      </trkpt>
      <trkpt lat="45.66574" lon="6.25771">
        <ele>1411</ele>
        <time>2019-10-17T16:48:47.000Z</time>
      </trkpt>
      <trkpt lat="45.66567" lon="6.25774">
        <ele>1410</ele>
        <time>2019-10-17T16:48:54.000Z</time>
      </trkpt>
      <trkpt lat="45.66562" lon="6.25773">
        <ele>1410</ele>
        <time>2019-10-17T16:48:56.221Z</time>
      </trkpt>
      <trkpt lat="45.66554" lon="6.25768">
        <ele>1408</ele>
        <time>2019-10-17T16:49:03.503Z</time>
      </trkpt>
      <trkpt lat="45.66548" lon="6.25762">
        <ele>1408</ele>
        <time>2019-10-17T16:49:06.859Z</time>
      </trkpt>
      <trkpt lat="45.66544" lon="6.25755">
        <ele>1407</ele>
        <time>2019-10-17T16:49:11.000Z</time>
      </trkpt>
      <trkpt lat="45.6654" lon="6.25749">
        <ele>1408</ele>
        <time>2019-10-17T16:49:14.000Z</time>
      </trkpt>
      <trkpt lat="45.66532" lon="6.25743">
        <ele>1408</ele>
        <time>2019-10-17T16:49:16.556Z</time>
      </trkpt>
      <trkpt lat="45.66529" lon="6.25735">
        <ele>1408</ele>
        <time>2019-10-17T16:49:24.000Z</time>
      </trkpt>
      <trkpt lat="45.66524" lon="6.25732">
        <ele>1408</ele>
        <time>2019-10-17T16:49:28.000Z</time>
      </trkpt>
      <trkpt lat="45.66503" lon="6.25731">
        <ele>1406</ele>
        <time>2019-10-17T16:49:38.000Z</time>
      </trkpt>
      <trkpt lat="45.66499" lon="6.25727">
        <ele>1405</ele>
        <time>2019-10-17T16:49:41.000Z</time>
      </trkpt>
      <trkpt lat="45.66495" lon="6.25721">
        <ele>1404</ele>
        <time>2019-10-17T16:49:44.246Z</time>
      </trkpt>
      <trkpt lat="45.66494" lon="6.2571">
        <ele>1403</ele>
        <time>2019-10-17T16:49:47.428Z</time>
      </trkpt>
      <trkpt lat="45.6649" lon="6.25703">
        <ele>1402</ele>
        <time>2019-10-17T16:49:50.614Z</time>
      </trkpt>
      <trkpt lat="45.6649" lon="6.25696">
        <ele>1402</ele>
        <time>2019-10-17T16:49:53.684Z</time>
      </trkpt>
      <trkpt lat="45.66486" lon="6.2569">
        <ele>1401</ele>
        <time>2019-10-17T16:49:58.000Z</time>
      </trkpt>
      <trkpt lat="45.66481" lon="6.25687">
        <ele>1399</ele>
        <time>2019-10-17T16:50:01.000Z</time>
      </trkpt>
      <trkpt lat="45.66477" lon="6.25679">
        <ele>1399</ele>
        <time>2019-10-17T16:50:06.774Z</time>
      </trkpt>
      <trkpt lat="45.66471" lon="6.25673">
        <ele>1400</ele>
        <time>2019-10-17T16:50:10.105Z</time>
      </trkpt>
      <trkpt lat="45.6647" lon="6.25667">
        <ele>1400</ele>
        <time>2019-10-17T16:50:14.000Z</time>
      </trkpt>
      <trkpt lat="45.66463" lon="6.25659">
        <ele>1400</ele>
        <time>2019-10-17T16:50:20.880Z</time>
      </trkpt>
      <trkpt lat="45.66459" lon="6.25656">
        <ele>1401</ele>
        <time>2019-10-17T16:50:25.000Z</time>
      </trkpt>
      <trkpt lat="45.66454" lon="6.2565">
        <ele>1401</ele>
        <time>2019-10-17T16:50:27.685Z</time>
      </trkpt>
      <trkpt lat="45.66452" lon="6.25643">
        <ele>1401</ele>
        <time>2019-10-17T16:50:32.000Z</time>
      </trkpt>
      <trkpt lat="45.66446" lon="6.25632">
        <ele>1400</ele>
        <time>2019-10-17T16:50:39.000Z</time>
      </trkpt>
      <trkpt lat="45.66444" lon="6.25626">
        <ele>1398</ele>
        <time>2019-10-17T16:50:41.152Z</time>
      </trkpt>
      <trkpt lat="45.66437" lon="6.25618">
        <ele>1396</ele>
        <time>2019-10-17T16:50:48.000Z</time>
      </trkpt>
      <trkpt lat="45.66434" lon="6.25612">
        <ele>1397</ele>
        <time>2019-10-17T16:50:50.638Z</time>
      </trkpt>
      <trkpt lat="45.66429" lon="6.25607">
        <ele>1396</ele>
        <time>2019-10-17T16:50:53.951Z</time>
      </trkpt>
      <trkpt lat="45.66424" lon="6.25599">
        <ele>1397</ele>
        <time>2019-10-17T16:51:00.738Z</time>
      </trkpt>
      <trkpt lat="45.66418" lon="6.25597">
        <ele>1397</ele>
        <time>2019-10-17T16:51:04.371Z</time>
      </trkpt>
      <trkpt lat="45.66413" lon="6.25589">
        <ele>1397</ele>
        <time>2019-10-17T16:51:12.000Z</time>
      </trkpt>
      <trkpt lat="45.66408" lon="6.25585">
        <ele>1395</ele>
        <time>2019-10-17T16:51:17.547Z</time>
      </trkpt>
      <trkpt lat="45.66405" lon="6.2558">
        <ele>1395</ele>
        <time>2019-10-17T16:51:24.333Z</time>
      </trkpt>
      <trkpt lat="45.66394" lon="6.25575">
        <ele>1391</ele>
        <time>2019-10-17T16:51:30.864Z</time>
      </trkpt>
      <trkpt lat="45.66388" lon="6.25573">
        <ele>1388</ele>
        <time>2019-10-17T16:51:35.000Z</time>
      </trkpt>
      <trkpt lat="45.66383" lon="6.25569">
        <ele>1387</ele>
        <time>2019-10-17T16:51:37.302Z</time>
      </trkpt>
      <trkpt lat="45.66378" lon="6.25563">
        <ele>1386</ele>
        <time>2019-10-17T16:51:40.559Z</time>
      </trkpt>
      <trkpt lat="45.66374" lon="6.25558">
        <ele>1385</ele>
        <time>2019-10-17T16:51:44.075Z</time>
      </trkpt>
      <trkpt lat="45.66365" lon="6.25544">
        <ele>1382</ele>
        <time>2019-10-17T16:51:51.000Z</time>
      </trkpt>
      <trkpt lat="45.66362" lon="6.25538">
        <ele>1381</ele>
        <time>2019-10-17T16:51:55.000Z</time>
      </trkpt>
      <trkpt lat="45.6636" lon="6.25531">
        <ele>1381</ele>
        <time>2019-10-17T16:51:57.534Z</time>
      </trkpt>
      <trkpt lat="45.66357" lon="6.25523">
        <ele>1380</ele>
        <time>2019-10-17T16:52:00.856Z</time>
      </trkpt>
      <trkpt lat="45.66352" lon="6.25515">
        <ele>1380</ele>
        <time>2019-10-17T16:52:09.000Z</time>
      </trkpt>
      <trkpt lat="45.66348" lon="6.2551">
        <ele>1380</ele>
        <time>2019-10-17T16:52:12.074Z</time>
      </trkpt>
      <trkpt lat="45.66337" lon="6.25505">
        <ele>1378</ele>
        <time>2019-10-17T16:52:20.000Z</time>
      </trkpt>
      <trkpt lat="45.66328" lon="6.25503">
        <ele>1378</ele>
        <time>2019-10-17T16:52:28.000Z</time>
      </trkpt>
      <trkpt lat="45.66322" lon="6.25499">
        <ele>1377</ele>
        <time>2019-10-17T16:52:33.515Z</time>
      </trkpt>
      <trkpt lat="45.6632" lon="6.25488">
        <ele>1378</ele>
        <time>2019-10-17T16:52:37.113Z</time>
      </trkpt>
      <trkpt lat="45.66315" lon="6.25485">
        <ele>1378</ele>
        <time>2019-10-17T16:52:40.437Z</time>
      </trkpt>
      <trkpt lat="45.66308" lon="6.2548">
        <ele>1377</ele>
        <time>2019-10-17T16:52:46.738Z</time>
      </trkpt>
      <trkpt lat="45.66305" lon="6.25475">
        <ele>1376</ele>
        <time>2019-10-17T16:52:50.521Z</time>
      </trkpt>
      <trkpt lat="45.66301" lon="6.25466">
        <ele>1376</ele>
        <time>2019-10-17T16:52:55.000Z</time>
      </trkpt>
      <trkpt lat="45.66294" lon="6.25461">
        <ele>1375</ele>
        <time>2019-10-17T16:53:02.000Z</time>
      </trkpt>
      <trkpt lat="45.66289" lon="6.25455">
        <ele>1375</ele>
        <time>2019-10-17T16:53:05.073Z</time>
      </trkpt>
      <trkpt lat="45.66285" lon="6.25451">
        <ele>1375</ele>
        <time>2019-10-17T16:53:08.993Z</time>
      </trkpt>
      <trkpt lat="45.6628" lon="6.25446">
        <ele>1374</ele>
        <time>2019-10-17T16:53:13.000Z</time>
      </trkpt>
      <trkpt lat="45.66277" lon="6.25439">
        <ele>1373</ele>
        <time>2019-10-17T16:53:15.202Z</time>
      </trkpt>
      <trkpt lat="45.66267" lon="6.25429">
        <ele>1370</ele>
        <time>2019-10-17T16:53:22.171Z</time>
      </trkpt>
      <trkpt lat="45.66264" lon="6.25425">
        <ele>1370</ele>
        <time>2019-10-17T16:53:25.437Z</time>
      </trkpt>
      <trkpt lat="45.66261" lon="6.2542">
        <ele>1369</ele>
        <time>2019-10-17T16:53:28.651Z</time>
      </trkpt>
      <trkpt lat="45.66255" lon="6.25412">
        <ele>1366</ele>
        <time>2019-10-17T16:53:36.000Z</time>
      </trkpt>
      <trkpt lat="45.66252" lon="6.25404">
        <ele>1366</ele>
        <time>2019-10-17T16:53:43.000Z</time>
      </trkpt>
      <trkpt lat="45.66243" lon="6.25399">
        <ele>1365</ele>
        <time>2019-10-17T16:53:46.073Z</time>
      </trkpt>
      <trkpt lat="45.6624" lon="6.25395">
        <ele>1365</ele>
        <time>2019-10-17T16:53:50.000Z</time>
      </trkpt>
      <trkpt lat="45.66234" lon="6.25387">
        <ele>1364</ele>
        <time>2019-10-17T16:53:56.138Z</time>
      </trkpt>
      <trkpt lat="45.66223" lon="6.25378">
        <ele>1363</ele>
        <time>2019-10-17T16:54:02.620Z</time>
      </trkpt>
      <trkpt lat="45.66218" lon="6.25376">
        <ele>1363</ele>
        <time>2019-10-17T16:54:05.637Z</time>
      </trkpt>
      <trkpt lat="45.66213" lon="6.25371">
        <ele>1360</ele>
        <time>2019-10-17T16:54:13.000Z</time>
      </trkpt>
      <trkpt lat="45.6621" lon="6.25366">
        <ele>1359</ele>
        <time>2019-10-17T16:54:16.000Z</time>
      </trkpt>
      <trkpt lat="45.66203" lon="6.25359">
        <ele>1358</ele>
        <time>2019-10-17T16:54:23.139Z</time>
      </trkpt>
      <trkpt lat="45.66194" lon="6.25354">
        <ele>1353</ele>
        <time>2019-10-17T16:54:29.709Z</time>
      </trkpt>
      <trkpt lat="45.66188" lon="6.25353">
        <ele>1352</ele>
        <time>2019-10-17T16:54:32.720Z</time>
      </trkpt>
      <trkpt lat="45.66189" lon="6.2536">
        <ele>1351</ele>
        <time>2019-10-17T16:54:39.076Z</time>
      </trkpt>
      <trkpt lat="45.66195" lon="6.25367">
        <ele>1350</ele>
        <time>2019-10-17T16:54:46.000Z</time>
      </trkpt>
      <trkpt lat="45.66199" lon="6.25372">
        <ele>1349</ele>
        <time>2019-10-17T16:54:48.715Z</time>
      </trkpt>
      <trkpt lat="45.66203" lon="6.25385">
        <ele>1348</ele>
        <time>2019-10-17T16:54:56.000Z</time>
      </trkpt>
      <trkpt lat="45.66207" lon="6.25396">
        <ele>1351</ele>
        <time>2019-10-17T16:55:03.000Z</time>
      </trkpt>
      <trkpt lat="45.66213" lon="6.25404">
        <ele>1352</ele>
        <time>2019-10-17T16:55:10.000Z</time>
      </trkpt>
      <trkpt lat="45.66218" lon="6.25413">
        <ele>1353</ele>
        <time>2019-10-17T16:55:17.000Z</time>
      </trkpt>
      <trkpt lat="45.66221" lon="6.25419">
        <ele>1354</ele>
        <time>2019-10-17T16:55:25.000Z</time>
      </trkpt>
      <trkpt lat="45.66226" lon="6.25428">
        <ele>1352</ele>
        <time>2019-10-17T16:55:30.559Z</time>
      </trkpt>
      <trkpt lat="45.66229" lon="6.25439">
        <ele>1350</ele>
        <time>2019-10-17T16:55:38.000Z</time>
      </trkpt>
      <trkpt lat="45.6623" lon="6.2545">
        <ele>1347</ele>
        <time>2019-10-17T16:55:45.000Z</time>
      </trkpt>
      <trkpt lat="45.66233" lon="6.25455">
        <ele>1346</ele>
        <time>2019-10-17T16:55:47.157Z</time>
      </trkpt>
      <trkpt lat="45.66236" lon="6.2546">
        <ele>1344</ele>
        <time>2019-10-17T16:55:50.481Z</time>
      </trkpt>
      <trkpt lat="45.66239" lon="6.25465">
        <ele>1345</ele>
        <time>2019-10-17T16:55:55.000Z</time>
      </trkpt>
      <trkpt lat="45.66248" lon="6.25471">
        <ele>1342</ele>
        <time>2019-10-17T16:55:59.000Z</time>
      </trkpt>
      <trkpt lat="45.66255" lon="6.25476">
        <ele>1341</ele>
        <time>2019-10-17T16:56:02.000Z</time>
      </trkpt>
      <trkpt lat="45.66259" lon="6.25482">
        <ele>1341</ele>
        <time>2019-10-17T16:56:05.000Z</time>
      </trkpt>
      <trkpt lat="45.66265" lon="6.25485">
        <ele>1339</ele>
        <time>2019-10-17T16:56:10.450Z</time>
      </trkpt>
      <trkpt lat="45.66259" lon="6.25487">
        <ele>1334</ele>
        <time>2019-10-17T16:56:21.155Z</time>
      </trkpt>
      <trkpt lat="45.66248" lon="6.2548">
        <ele>1333</ele>
        <time>2019-10-17T16:56:26.000Z</time>
      </trkpt>
      <trkpt lat="45.6624" lon="6.25474">
        <ele>1332</ele>
        <time>2019-10-17T16:56:33.000Z</time>
      </trkpt>
      <trkpt lat="45.66235" lon="6.2547">
        <ele>1333</ele>
        <time>2019-10-17T16:56:35.584Z</time>
      </trkpt>
      <trkpt lat="45.66228" lon="6.25468">
        <ele>1333</ele>
        <time>2019-10-17T16:56:42.138Z</time>
      </trkpt>
      <trkpt lat="45.66221" lon="6.25456">
        <ele>1335</ele>
        <time>2019-10-17T16:56:48.675Z</time>
      </trkpt>
      <trkpt lat="45.66218" lon="6.2545">
        <ele>1335</ele>
        <time>2019-10-17T16:56:52.101Z</time>
      </trkpt>
      <trkpt lat="45.66215" lon="6.25442">
        <ele>1334</ele>
        <time>2019-10-17T16:56:56.000Z</time>
      </trkpt>
      <trkpt lat="45.6621" lon="6.25443">
        <ele>1333</ele>
        <time>2019-10-17T16:56:58.593Z</time>
      </trkpt>
      <trkpt lat="45.66204" lon="6.25439">
        <ele>1333</ele>
        <time>2019-10-17T16:57:03.000Z</time>
      </trkpt>
      <trkpt lat="45.66192" lon="6.25432">
        <ele>1330</ele>
        <time>2019-10-17T16:57:12.579Z</time>
      </trkpt>
      <trkpt lat="45.66185" lon="6.25428">
        <ele>1331</ele>
        <time>2019-10-17T16:57:15.754Z</time>
      </trkpt>
      <trkpt lat="45.66179" lon="6.25432">
        <ele>1328</ele>
        <time>2019-10-17T16:57:22.153Z</time>
      </trkpt>
      <trkpt lat="45.66172" lon="6.25434">
        <ele>1324</ele>
        <time>2019-10-17T16:57:28.841Z</time>
      </trkpt>
      <trkpt lat="45.66165" lon="6.25432">
        <ele>1323</ele>
        <time>2019-10-17T16:57:35.076Z</time>
      </trkpt>
      <trkpt lat="45.66159" lon="6.25429">
        <ele>1320</ele>
        <time>2019-10-17T16:57:43.000Z</time>
      </trkpt>
      <trkpt lat="45.66149" lon="6.25408">
        <ele>1320</ele>
        <time>2019-10-17T16:57:48.702Z</time>
      </trkpt>
      <trkpt lat="45.66143" lon="6.25405">
        <ele>1317</ele>
        <time>2019-10-17T16:57:56.000Z</time>
      </trkpt>
      <trkpt lat="45.66135" lon="6.25406">
        <ele>1315</ele>
        <time>2019-10-17T16:58:03.000Z</time>
      </trkpt>
      <trkpt lat="45.66131" lon="6.2539">
        <ele>1315</ele>
        <time>2019-10-17T16:58:08.523Z</time>
      </trkpt>
      <trkpt lat="45.6613" lon="6.25381">
        <ele>1315</ele>
        <time>2019-10-17T16:58:12.114Z</time>
      </trkpt>
      <trkpt lat="45.66129" lon="6.25373">
        <ele>1315</ele>
        <time>2019-10-17T16:58:16.084Z</time>
      </trkpt>
      <trkpt lat="45.66125" lon="6.2536">
        <ele>1313</ele>
        <time>2019-10-17T16:58:22.618Z</time>
      </trkpt>
      <trkpt lat="45.66123" lon="6.25352">
        <ele>1313</ele>
        <time>2019-10-17T16:58:26.059Z</time>
      </trkpt>
      <trkpt lat="45.66118" lon="6.25341">
        <ele>1311</ele>
        <time>2019-10-17T16:58:32.751Z</time>
      </trkpt>
      <trkpt lat="45.66116" lon="6.25331">
        <ele>1312</ele>
        <time>2019-10-17T16:58:36.691Z</time>
      </trkpt>
      <trkpt lat="45.66118" lon="6.25324">
        <ele>1310</ele>
        <time>2019-10-17T16:58:40.074Z</time>
      </trkpt>
      <trkpt lat="45.66119" lon="6.25315">
        <ele>1309</ele>
        <time>2019-10-17T16:58:47.000Z</time>
      </trkpt>
      <trkpt lat="45.66123" lon="6.25311">
        <ele>1308</ele>
        <time>2019-10-17T16:58:49.297Z</time>
      </trkpt>
      <trkpt lat="45.66129" lon="6.25308">
        <ele>1306</ele>
        <time>2019-10-17T16:58:52.415Z</time>
      </trkpt>
      <trkpt lat="45.66137" lon="6.25303">
        <ele>1306</ele>
        <time>2019-10-17T16:58:58.794Z</time>
      </trkpt>
      <trkpt lat="45.66146" lon="6.25297">
        <ele>1304</ele>
        <time>2019-10-17T16:59:05.087Z</time>
      </trkpt>
      <trkpt lat="45.66152" lon="6.2529">
        <ele>1303</ele>
        <time>2019-10-17T16:59:11.474Z</time>
      </trkpt>
      <trkpt lat="45.66152" lon="6.25281">
        <ele>1304</ele>
        <time>2019-10-17T16:59:19.000Z</time>
      </trkpt>
      <trkpt lat="45.66144" lon="6.25273">
        <ele>1304</ele>
        <time>2019-10-17T16:59:26.000Z</time>
      </trkpt>
      <trkpt lat="45.66133" lon="6.25266">
        <ele>1301</ele>
        <time>2019-10-17T16:59:31.238Z</time>
      </trkpt>
      <trkpt lat="45.66127" lon="6.2526">
        <ele>1299</ele>
        <time>2019-10-17T16:59:39.000Z</time>
      </trkpt>
      <trkpt lat="45.6612" lon="6.25264">
        <ele>1300</ele>
        <time>2019-10-17T16:59:47.000Z</time>
      </trkpt>
      <trkpt lat="45.66115" lon="6.25272">
        <ele>1298</ele>
        <time>2019-10-17T17:00:05.000Z</time>
      </trkpt>
      <trkpt lat="45.66111" lon="6.25277">
        <ele>1298</ele>
        <time>2019-10-17T17:00:47.423Z</time>
      </trkpt>
      <trkpt lat="45.661" lon="6.25281">
        <ele>1299</ele>
        <time>2019-10-17T17:00:59.000Z</time>
      </trkpt>
      <trkpt lat="45.66095" lon="6.25284">
        <ele>1300</ele>
        <time>2019-10-17T17:01:01.682Z</time>
      </trkpt>
      <trkpt lat="45.6609" lon="6.25288">
        <ele>1300</ele>
        <time>2019-10-17T17:01:08.823Z</time>
      </trkpt>
      <trkpt lat="45.66085" lon="6.25292">
        <ele>1302</ele>
        <time>2019-10-17T17:01:13.000Z</time>
      </trkpt>
      <trkpt lat="45.66081" lon="6.25296">
        <ele>1304</ele>
        <time>2019-10-17T17:01:19.000Z</time>
      </trkpt>
      <trkpt lat="45.66076" lon="6.25303">
        <ele>1307</ele>
        <time>2019-10-17T17:01:25.109Z</time>
      </trkpt>
      <trkpt lat="45.66069" lon="6.25308">
        <ele>1310</ele>
        <time>2019-10-17T17:01:31.601Z</time>
      </trkpt>
      <trkpt lat="45.66064" lon="6.25315">
        <ele>1313</ele>
        <time>2019-10-17T17:01:38.365Z</time>
      </trkpt>
      <trkpt lat="45.66059" lon="6.25323">
        <ele>1315</ele>
        <time>2019-10-17T17:01:46.074Z</time>
      </trkpt>
      <trkpt lat="45.66053" lon="6.25326">
        <ele>1316</ele>
        <time>2019-10-17T17:01:57.000Z</time>
      </trkpt>
      <trkpt lat="45.66048" lon="6.25324">
        <ele>1317</ele>
        <time>2019-10-17T17:01:59.958Z</time>
      </trkpt>
      <trkpt lat="45.66043" lon="6.25322">
        <ele>1317</ele>
        <time>2019-10-17T17:02:04.000Z</time>
      </trkpt>
      <trkpt lat="45.66037" lon="6.25317">
        <ele>1317</ele>
        <time>2019-10-17T17:02:08.000Z</time>
      </trkpt>
      <trkpt lat="45.66032" lon="6.25317">
        <ele>1318</ele>
        <time>2019-10-17T17:02:10.434Z</time>
      </trkpt>
      <trkpt lat="45.66025" lon="6.25314">
        <ele>1318</ele>
        <time>2019-10-17T17:02:15.000Z</time>
      </trkpt>
      <trkpt lat="45.66019" lon="6.25314">
        <ele>1317</ele>
        <time>2019-10-17T17:02:22.000Z</time>
      </trkpt>
      <trkpt lat="45.66013" lon="6.25311">
        <ele>1316</ele>
        <time>2019-10-17T17:02:28.101Z</time>
      </trkpt>
      <trkpt lat="45.66005" lon="6.2531">
        <ele>1314</ele>
        <time>2019-10-17T17:02:35.000Z</time>
      </trkpt>
      <trkpt lat="45.66" lon="6.25309">
        <ele>1315</ele>
        <time>2019-10-17T17:02:39.000Z</time>
      </trkpt>
      <trkpt lat="45.65996" lon="6.25312">
        <ele>1315</ele>
        <time>2019-10-17T17:02:42.000Z</time>
      </trkpt>
      <trkpt lat="45.6599" lon="6.25314">
        <ele>1315</ele>
        <time>2019-10-17T17:02:44.878Z</time>
      </trkpt>
      <trkpt lat="45.65981" lon="6.25318">
        <ele>1316</ele>
        <time>2019-10-17T17:02:53.000Z</time>
      </trkpt>
      <trkpt lat="45.65967" lon="6.25315">
        <ele>1317</ele>
        <time>2019-10-17T17:02:58.643Z</time>
      </trkpt>
      <trkpt lat="45.65962" lon="6.25309">
        <ele>1315</ele>
        <time>2019-10-17T17:03:05.014Z</time>
      </trkpt>
      <trkpt lat="45.65957" lon="6.25306">
        <ele>1315</ele>
        <time>2019-10-17T17:03:11.412Z</time>
      </trkpt>
      <trkpt lat="45.65945" lon="6.25315">
        <ele>1313</ele>
        <time>2019-10-17T17:03:19.000Z</time>
      </trkpt>
      <trkpt lat="45.65941" lon="6.2532">
        <ele>1313</ele>
        <time>2019-10-17T17:03:22.079Z</time>
      </trkpt>
      <trkpt lat="45.65934" lon="6.25317">
        <ele>1312</ele>
        <time>2019-10-17T17:03:25.440Z</time>
      </trkpt>
      <trkpt lat="45.6593" lon="6.25317">
        <ele>1312</ele>
        <time>2019-10-17T17:03:30.000Z</time>
      </trkpt>
      <trkpt lat="45.65924" lon="6.25316">
        <ele>1311</ele>
        <time>2019-10-17T17:03:33.020Z</time>
      </trkpt>
      <trkpt lat="45.65916" lon="6.25319">
        <ele>1311</ele>
        <time>2019-10-17T17:03:39.864Z</time>
      </trkpt>
      <trkpt lat="45.65911" lon="6.25322">
        <ele>1310</ele>
        <time>2019-10-17T17:03:44.000Z</time>
      </trkpt>
      <trkpt lat="45.65904" lon="6.25324">
        <ele>1310</ele>
        <time>2019-10-17T17:03:46.512Z</time>
      </trkpt>
      <trkpt lat="45.65896" lon="6.25323">
        <ele>1311</ele>
        <time>2019-10-17T17:03:51.000Z</time>
      </trkpt>
      <trkpt lat="45.65887" lon="6.25324">
        <ele>1311</ele>
        <time>2019-10-17T17:03:57.317Z</time>
      </trkpt>
      <trkpt lat="45.6588" lon="6.25327">
        <ele>1311</ele>
        <time>2019-10-17T17:04:02.000Z</time>
      </trkpt>
      <trkpt lat="45.65875" lon="6.25331">
        <ele>1310</ele>
        <time>2019-10-17T17:04:06.000Z</time>
      </trkpt>
      <trkpt lat="45.6587" lon="6.25331">
        <ele>1308</ele>
        <time>2019-10-17T17:04:08.680Z</time>
      </trkpt>
      <trkpt lat="45.65863" lon="6.25327">
        <ele>1307</ele>
        <time>2019-10-17T17:04:12.238Z</time>
      </trkpt>
      <trkpt lat="45.65859" lon="6.25328">
        <ele>1306</ele>
        <time>2019-10-17T17:04:15.446Z</time>
      </trkpt>
      <trkpt lat="45.65849" lon="6.25333">
        <ele>1305</ele>
        <time>2019-10-17T17:04:21.660Z</time>
      </trkpt>
      <trkpt lat="45.65842" lon="6.25339">
        <ele>1305</ele>
        <time>2019-10-17T17:04:29.000Z</time>
      </trkpt>
      <trkpt lat="45.65838" lon="6.25344">
        <ele>1305</ele>
        <time>2019-10-17T17:04:34.760Z</time>
      </trkpt>
      <trkpt lat="45.65832" lon="6.25341">
        <ele>1306</ele>
        <time>2019-10-17T17:04:39.000Z</time>
      </trkpt>
      <trkpt lat="45.65827" lon="6.25338">
        <ele>1306</ele>
        <time>2019-10-17T17:04:41.782Z</time>
      </trkpt>
      <trkpt lat="45.65823" lon="6.25333">
        <ele>1304</ele>
        <time>2019-10-17T17:04:46.000Z</time>
      </trkpt>
      <trkpt lat="45.65807" lon="6.25338">
        <ele>1302</ele>
        <time>2019-10-17T17:04:52.259Z</time>
      </trkpt>
      <trkpt lat="45.65802" lon="6.25337">
        <ele>1302</ele>
        <time>2019-10-17T17:04:55.759Z</time>
      </trkpt>
      <trkpt lat="45.65794" lon="6.25331">
        <ele>1300</ele>
        <time>2019-10-17T17:05:03.078Z</time>
      </trkpt>
      <trkpt lat="45.65787" lon="6.25321">
        <ele>1300</ele>
        <time>2019-10-17T17:05:07.000Z</time>
      </trkpt>
      <trkpt lat="45.65783" lon="6.25317">
        <ele>1301</ele>
        <time>2019-10-17T17:05:09.674Z</time>
      </trkpt>
      <trkpt lat="45.65778" lon="6.25312">
        <ele>1301</ele>
        <time>2019-10-17T17:05:14.000Z</time>
      </trkpt>
      <trkpt lat="45.65773" lon="6.2531">
        <ele>1301</ele>
        <time>2019-10-17T17:05:16.417Z</time>
      </trkpt>
      <trkpt lat="45.65769" lon="6.25306">
        <ele>1300</ele>
        <time>2019-10-17T17:05:21.000Z</time>
      </trkpt>
      <trkpt lat="45.65762" lon="6.25296">
        <ele>1302</ele>
        <time>2019-10-17T17:05:28.000Z</time>
      </trkpt>
      <trkpt lat="45.65756" lon="6.25292">
        <ele>1302</ele>
        <time>2019-10-17T17:05:30.951Z</time>
      </trkpt>
      <trkpt lat="45.65753" lon="6.25285">
        <ele>1303</ele>
        <time>2019-10-17T17:05:35.000Z</time>
      </trkpt>
      <trkpt lat="45.65744" lon="6.25283">
        <ele>1301</ele>
        <time>2019-10-17T17:05:42.000Z</time>
      </trkpt>
      <trkpt lat="45.65737" lon="6.25277">
        <ele>1300</ele>
        <time>2019-10-17T17:05:47.818Z</time>
      </trkpt>
      <trkpt lat="45.65731" lon="6.25274">
        <ele>1300</ele>
        <time>2019-10-17T17:05:54.123Z</time>
      </trkpt>
      <trkpt lat="45.65728" lon="6.25268">
        <ele>1299</ele>
        <time>2019-10-17T17:05:58.000Z</time>
      </trkpt>
      <trkpt lat="45.65724" lon="6.25263">
        <ele>1300</ele>
        <time>2019-10-17T17:06:01.093Z</time>
      </trkpt>
      <trkpt lat="45.65718" lon="6.25258">
        <ele>1301</ele>
        <time>2019-10-17T17:06:07.820Z</time>
      </trkpt>
      <trkpt lat="45.65713" lon="6.25256">
        <ele>1302</ele>
        <time>2019-10-17T17:06:10.826Z</time>
      </trkpt>
      <trkpt lat="45.65708" lon="6.25254">
        <ele>1301</ele>
        <time>2019-10-17T17:06:13.898Z</time>
      </trkpt>
      <trkpt lat="45.65703" lon="6.25251">
        <ele>1300</ele>
        <time>2019-10-17T17:06:17.540Z</time>
      </trkpt>
      <trkpt lat="45.65699" lon="6.25248">
        <ele>1300</ele>
        <time>2019-10-17T17:06:20.716Z</time>
      </trkpt>
      <trkpt lat="45.65695" lon="6.25241">
        <ele>1298</ele>
        <time>2019-10-17T17:06:28.000Z</time>
      </trkpt>
      <trkpt lat="45.65681" lon="6.2524">
        <ele>1296</ele>
        <time>2019-10-17T17:06:35.000Z</time>
      </trkpt>
      <trkpt lat="45.65675" lon="6.25242">
        <ele>1298</ele>
        <time>2019-10-17T17:06:38.000Z</time>
      </trkpt>
      <trkpt lat="45.6567" lon="6.25243">
        <ele>1299</ele>
        <time>2019-10-17T17:06:40.813Z</time>
      </trkpt>
      <trkpt lat="45.65668" lon="6.2525">
        <ele>1300</ele>
        <time>2019-10-17T17:06:47.198Z</time>
      </trkpt>
      <trkpt lat="45.6565" lon="6.25237">
        <ele>1299</ele>
        <time>2019-10-17T17:06:58.074Z</time>
      </trkpt>
      <trkpt lat="45.65646" lon="6.2523">
        <ele>1299</ele>
        <time>2019-10-17T17:07:02.000Z</time>
      </trkpt>
      <trkpt lat="45.65639" lon="6.25222">
        <ele>1300</ele>
        <time>2019-10-17T17:07:09.000Z</time>
      </trkpt>
      <trkpt lat="45.65633" lon="6.25216">
        <ele>1300</ele>
        <time>2019-10-17T17:07:16.000Z</time>
      </trkpt>
      <trkpt lat="45.65628" lon="6.25208">
        <ele>1299</ele>
        <time>2019-10-17T17:07:18.960Z</time>
      </trkpt>
      <trkpt lat="45.65625" lon="6.25202">
        <ele>1299</ele>
        <time>2019-10-17T17:07:23.000Z</time>
      </trkpt>
      <trkpt lat="45.65619" lon="6.25196">
        <ele>1298</ele>
        <time>2019-10-17T17:07:25.536Z</time>
      </trkpt>
      <trkpt lat="45.65614" lon="6.25195">
        <ele>1298</ele>
        <time>2019-10-17T17:07:32.091Z</time>
      </trkpt>
      <trkpt lat="45.65608" lon="6.25192">
        <ele>1298</ele>
        <time>2019-10-17T17:07:39.000Z</time>
      </trkpt>
      <trkpt lat="45.65601" lon="6.25188">
        <ele>1299</ele>
        <time>2019-10-17T17:07:46.000Z</time>
      </trkpt>
      <trkpt lat="45.65595" lon="6.25187">
        <ele>1298</ele>
        <time>2019-10-17T17:07:53.000Z</time>
      </trkpt>
      <trkpt lat="45.6559" lon="6.25183">
        <ele>1298</ele>
        <time>2019-10-17T17:07:55.780Z</time>
      </trkpt>
      <trkpt lat="45.65584" lon="6.25175">
        <ele>1297</ele>
        <time>2019-10-17T17:07:58.976Z</time>
      </trkpt>
      <trkpt lat="45.65579" lon="6.25168">
        <ele>1297</ele>
        <time>2019-10-17T17:08:03.000Z</time>
      </trkpt>
      <trkpt lat="45.65561" lon="6.2515">
        <ele>1299</ele>
        <time>2019-10-17T17:08:12.849Z</time>
      </trkpt>
      <trkpt lat="45.65556" lon="6.25145">
        <ele>1299</ele>
        <time>2019-10-17T17:08:17.000Z</time>
      </trkpt>
      <trkpt lat="45.65548" lon="6.25131">
        <ele>1300</ele>
        <time>2019-10-17T17:08:22.383Z</time>
      </trkpt>
      <trkpt lat="45.65544" lon="6.25123">
        <ele>1301</ele>
        <time>2019-10-17T17:08:25.987Z</time>
      </trkpt>
      <trkpt lat="45.65539" lon="6.25119">
        <ele>1300</ele>
        <time>2019-10-17T17:08:29.135Z</time>
      </trkpt>
      <trkpt lat="45.65535" lon="6.25113">
        <ele>1301</ele>
        <time>2019-10-17T17:08:32.140Z</time>
      </trkpt>
      <trkpt lat="45.65533" lon="6.25106">
        <ele>1301</ele>
        <time>2019-10-17T17:08:35.395Z</time>
      </trkpt>
      <trkpt lat="45.65529" lon="6.25101">
        <ele>1300</ele>
        <time>2019-10-17T17:08:38.758Z</time>
      </trkpt>
      <trkpt lat="45.65526" lon="6.25097">
        <ele>1300</ele>
        <time>2019-10-17T17:08:41.767Z</time>
      </trkpt>
      <trkpt lat="45.65521" lon="6.25094">
        <ele>1300</ele>
        <time>2019-10-17T17:08:45.240Z</time>
      </trkpt>
      <trkpt lat="45.65514" lon="6.2509">
        <ele>1298</ele>
        <time>2019-10-17T17:08:48.734Z</time>
      </trkpt>
      <trkpt lat="45.65507" lon="6.25087">
        <ele>1300</ele>
        <time>2019-10-17T17:08:52.358Z</time>
      </trkpt>
      <trkpt lat="45.65502" lon="6.25084">
        <ele>1300</ele>
        <time>2019-10-17T17:08:55.699Z</time>
      </trkpt>
      <trkpt lat="45.65497" lon="6.2508">
        <ele>1299</ele>
        <time>2019-10-17T17:08:58.986Z</time>
      </trkpt>
      <trkpt lat="45.6549" lon="6.25077">
        <ele>1298</ele>
        <time>2019-10-17T17:09:03.000Z</time>
      </trkpt>
      <trkpt lat="45.65486" lon="6.25073">
        <ele>1297</ele>
        <time>2019-10-17T17:09:06.000Z</time>
      </trkpt>
      <trkpt lat="45.65484" lon="6.25066">
        <ele>1296</ele>
        <time>2019-10-17T17:09:08.453Z</time>
      </trkpt>
      <trkpt lat="45.65479" lon="6.2506">
        <ele>1296</ele>
        <time>2019-10-17T17:09:15.042Z</time>
      </trkpt>
      <trkpt lat="45.65477" lon="6.25051">
        <ele>1295</ele>
        <time>2019-10-17T17:09:19.000Z</time>
      </trkpt>
      <trkpt lat="45.65473" lon="6.25047">
        <ele>1292</ele>
        <time>2019-10-17T17:09:24.562Z</time>
      </trkpt>
      <trkpt lat="45.65469" lon="6.25044">
        <ele>1295</ele>
        <time>2019-10-17T17:09:29.000Z</time>
      </trkpt>
      <trkpt lat="45.65459" lon="6.25039">
        <ele>1294</ele>
        <time>2019-10-17T17:09:34.760Z</time>
      </trkpt>
      <trkpt lat="45.65453" lon="6.25033">
        <ele>1293</ele>
        <time>2019-10-17T17:09:37.906Z</time>
      </trkpt>
      <trkpt lat="45.65446" lon="6.25031">
        <ele>1292</ele>
        <time>2019-10-17T17:09:44.274Z</time>
      </trkpt>
      <trkpt lat="45.65439" lon="6.25025">
        <ele>1292</ele>
        <time>2019-10-17T17:09:47.434Z</time>
      </trkpt>
      <trkpt lat="45.65433" lon="6.2502">
        <ele>1290</ele>
        <time>2019-10-17T17:09:50.736Z</time>
      </trkpt>
      <trkpt lat="45.65428" lon="6.25018">
        <ele>1289</ele>
        <time>2019-10-17T17:09:53.901Z</time>
      </trkpt>
      <trkpt lat="45.65423" lon="6.25014">
        <ele>1288</ele>
        <time>2019-10-17T17:09:57.174Z</time>
      </trkpt>
      <trkpt lat="45.65419" lon="6.25008">
        <ele>1287</ele>
        <time>2019-10-17T17:10:00.258Z</time>
      </trkpt>
      <trkpt lat="45.65416" lon="6.25">
        <ele>1286</ele>
        <time>2019-10-17T17:10:03.459Z</time>
      </trkpt>
      <trkpt lat="45.65412" lon="6.24991">
        <ele>1286</ele>
        <time>2019-10-17T17:10:06.824Z</time>
      </trkpt>
      <trkpt lat="45.65409" lon="6.24983">
        <ele>1284</ele>
        <time>2019-10-17T17:10:09.838Z</time>
      </trkpt>
      <trkpt lat="45.65403" lon="6.24975">
        <ele>1285</ele>
        <time>2019-10-17T17:10:13.662Z</time>
      </trkpt>
      <trkpt lat="45.65396" lon="6.24972">
        <ele>1285</ele>
        <time>2019-10-17T17:10:17.075Z</time>
      </trkpt>
      <trkpt lat="45.65391" lon="6.24968">
        <ele>1285</ele>
        <time>2019-10-17T17:10:21.000Z</time>
      </trkpt>
      <trkpt lat="45.65388" lon="6.2496">
        <ele>1284</ele>
        <time>2019-10-17T17:10:23.857Z</time>
      </trkpt>
      <trkpt lat="45.65385" lon="6.24952">
        <ele>1284</ele>
        <time>2019-10-17T17:10:27.400Z</time>
      </trkpt>
      <trkpt lat="45.65379" lon="6.24941">
        <ele>1286</ele>
        <time>2019-10-17T17:10:33.561Z</time>
      </trkpt>
      <trkpt lat="45.65375" lon="6.24935">
        <ele>1285</ele>
        <time>2019-10-17T17:10:37.092Z</time>
      </trkpt>
      <trkpt lat="45.65372" lon="6.24928">
        <ele>1285</ele>
        <time>2019-10-17T17:10:40.773Z</time>
      </trkpt>
      <trkpt lat="45.65368" lon="6.24921">
        <ele>1285</ele>
        <time>2019-10-17T17:10:45.000Z</time>
      </trkpt>
      <trkpt lat="45.65367" lon="6.24912">
        <ele>1283</ele>
        <time>2019-10-17T17:10:47.379Z</time>
      </trkpt>
      <trkpt lat="45.65365" lon="6.24905">
        <ele>1283</ele>
        <time>2019-10-17T17:10:50.499Z</time>
      </trkpt>
      <trkpt lat="45.65362" lon="6.24897">
        <ele>1282</ele>
        <time>2019-10-17T17:10:53.637Z</time>
      </trkpt>
      <trkpt lat="45.65359" lon="6.2489">
        <ele>1281</ele>
        <time>2019-10-17T17:10:57.166Z</time>
      </trkpt>
      <trkpt lat="45.65356" lon="6.24884">
        <ele>1280</ele>
        <time>2019-10-17T17:11:00.635Z</time>
      </trkpt>
      <trkpt lat="45.65355" lon="6.24877">
        <ele>1279</ele>
        <time>2019-10-17T17:11:04.039Z</time>
      </trkpt>
      <trkpt lat="45.65354" lon="6.24869">
        <ele>1277</ele>
        <time>2019-10-17T17:11:08.000Z</time>
      </trkpt>
      <trkpt lat="45.65349" lon="6.24866">
        <ele>1275</ele>
        <time>2019-10-17T17:11:15.074Z</time>
      </trkpt>
      <trkpt lat="45.65349" lon="6.24856">
        <ele>1274</ele>
        <time>2019-10-17T17:11:19.000Z</time>
      </trkpt>
      <trkpt lat="45.65342" lon="6.2483">
        <ele>1272</ele>
        <time>2019-10-17T17:11:29.000Z</time>
      </trkpt>
      <trkpt lat="45.65341" lon="6.24819">
        <ele>1270</ele>
        <time>2019-10-17T17:11:32.000Z</time>
      </trkpt>
      <trkpt lat="45.65338" lon="6.24811">
        <ele>1270</ele>
        <time>2019-10-17T17:11:34.696Z</time>
      </trkpt>
      <trkpt lat="45.65336" lon="6.24805">
        <ele>1268</ele>
        <time>2019-10-17T17:11:37.838Z</time>
      </trkpt>
      <trkpt lat="45.65333" lon="6.24799">
        <ele>1266</ele>
        <time>2019-10-17T17:11:40.933Z</time>
      </trkpt>
      <trkpt lat="45.6533" lon="6.24793">
        <ele>1264</ele>
        <time>2019-10-17T17:11:45.000Z</time>
      </trkpt>
      <trkpt lat="45.65325" lon="6.24784">
        <ele>1263</ele>
        <time>2019-10-17T17:11:47.558Z</time>
      </trkpt>
      <trkpt lat="45.65321" lon="6.24779">
        <ele>1262</ele>
        <time>2019-10-17T17:11:50.679Z</time>
      </trkpt>
      <trkpt lat="45.65319" lon="6.24771">
        <ele>1262</ele>
        <time>2019-10-17T17:11:55.000Z</time>
      </trkpt>
      <trkpt lat="45.65317" lon="6.24763">
        <ele>1261</ele>
        <time>2019-10-17T17:11:57.575Z</time>
      </trkpt>
      <trkpt lat="45.65312" lon="6.24753">
        <ele>1262</ele>
        <time>2019-10-17T17:12:03.699Z</time>
      </trkpt>
      <trkpt lat="45.65309" lon="6.24747">
        <ele>1261</ele>
        <time>2019-10-17T17:12:06.737Z</time>
      </trkpt>
      <trkpt lat="45.65308" lon="6.2474">
        <ele>1260</ele>
        <time>2019-10-17T17:12:10.056Z</time>
      </trkpt>
      <trkpt lat="45.65304" lon="6.24729">
        <ele>1259</ele>
        <time>2019-10-17T17:12:16.263Z</time>
      </trkpt>
      <trkpt lat="45.653" lon="6.24724">
        <ele>1259</ele>
        <time>2019-10-17T17:12:20.117Z</time>
      </trkpt>
      <trkpt lat="45.65299" lon="6.24714">
        <ele>1258</ele>
        <time>2019-10-17T17:12:24.000Z</time>
      </trkpt>
      <trkpt lat="45.65299" lon="6.24707">
        <ele>1256</ele>
        <time>2019-10-17T17:12:27.000Z</time>
      </trkpt>
      <trkpt lat="45.65301" lon="6.24696">
        <ele>1255</ele>
        <time>2019-10-17T17:12:29.455Z</time>
      </trkpt>
      <trkpt lat="45.653" lon="6.24686">
        <ele>1254</ele>
        <time>2019-10-17T17:12:33.074Z</time>
      </trkpt>
      <trkpt lat="45.65296" lon="6.24675">
        <ele>1251</ele>
        <time>2019-10-17T17:12:39.096Z</time>
      </trkpt>
      <trkpt lat="45.65293" lon="6.24665">
        <ele>1251</ele>
        <time>2019-10-17T17:12:42.859Z</time>
      </trkpt>
      <trkpt lat="45.65297" lon="6.24657">
        <ele>1250</ele>
        <time>2019-10-17T17:12:50.000Z</time>
      </trkpt>
      <trkpt lat="45.65281" lon="6.24643">
        <ele>1247</ele>
        <time>2019-10-17T17:13:00.000Z</time>
      </trkpt>
      <trkpt lat="45.65275" lon="6.24649">
        <ele>1247</ele>
        <time>2019-10-17T17:13:08.000Z</time>
      </trkpt>
      <trkpt lat="45.65273" lon="6.24659">
        <ele>1245</ele>
        <time>2019-10-17T17:13:14.000Z</time>
      </trkpt>
      <trkpt lat="45.65271" lon="6.24666">
        <ele>1243</ele>
        <time>2019-10-17T17:13:16.973Z</time>
      </trkpt>
      <trkpt lat="45.65269" lon="6.24676">
        <ele>1241</ele>
        <time>2019-10-17T17:13:23.525Z</time>
      </trkpt>
      <trkpt lat="45.65267" lon="6.24682">
        <ele>1240</ele>
        <time>2019-10-17T17:13:26.621Z</time>
      </trkpt>
      <trkpt lat="45.65266" lon="6.24689">
        <ele>1241</ele>
        <time>2019-10-17T17:13:29.788Z</time>
      </trkpt>
      <trkpt lat="45.65267" lon="6.24703">
        <ele>1240</ele>
        <time>2019-10-17T17:13:37.116Z</time>
      </trkpt>
      <trkpt lat="45.65267" lon="6.24715">
        <ele>1238</ele>
        <time>2019-10-17T17:13:44.133Z</time>
      </trkpt>
      <trkpt lat="45.65269" lon="6.24723">
        <ele>1238</ele>
        <time>2019-10-17T17:13:47.974Z</time>
      </trkpt>
      <trkpt lat="45.65272" lon="6.24731">
        <ele>1238</ele>
        <time>2019-10-17T17:13:51.115Z</time>
      </trkpt>
      <trkpt lat="45.65273" lon="6.24738">
        <ele>1238</ele>
        <time>2019-10-17T17:13:54.151Z</time>
      </trkpt>
      <trkpt lat="45.65277" lon="6.2475">
        <ele>1233</ele>
        <time>2019-10-17T17:14:00.701Z</time>
      </trkpt>
      <trkpt lat="45.6528" lon="6.24756">
        <ele>1233</ele>
        <time>2019-10-17T17:14:05.000Z</time>
      </trkpt>
      <trkpt lat="45.65283" lon="6.24766">
        <ele>1233</ele>
        <time>2019-10-17T17:14:08.000Z</time>
      </trkpt>
      <trkpt lat="45.65285" lon="6.24773">
        <ele>1233</ele>
        <time>2019-10-17T17:14:11.000Z</time>
      </trkpt>
      <trkpt lat="45.65287" lon="6.2478">
        <ele>1234</ele>
        <time>2019-10-17T17:14:14.000Z</time>
      </trkpt>
      <trkpt lat="45.65287" lon="6.2479">
        <ele>1234</ele>
        <time>2019-10-17T17:14:16.858Z</time>
      </trkpt>
      <trkpt lat="45.65287" lon="6.24797">
        <ele>1234</ele>
        <time>2019-10-17T17:14:20.164Z</time>
      </trkpt>
      <trkpt lat="45.65288" lon="6.24809">
        <ele>1235</ele>
        <time>2019-10-17T17:14:25.000Z</time>
      </trkpt>
      <trkpt lat="45.65286" lon="6.24818">
        <ele>1234</ele>
        <time>2019-10-17T17:14:31.119Z</time>
      </trkpt>
      <trkpt lat="45.65286" lon="6.24829">
        <ele>1235</ele>
        <time>2019-10-17T17:14:35.000Z</time>
      </trkpt>
      <trkpt lat="45.65286" lon="6.2484">
        <ele>1235</ele>
        <time>2019-10-17T17:14:39.000Z</time>
      </trkpt>
      <trkpt lat="45.65286" lon="6.24851">
        <ele>1232</ele>
        <time>2019-10-17T17:14:46.000Z</time>
      </trkpt>
      <trkpt lat="45.65285" lon="6.24872">
        <ele>1230</ele>
        <time>2019-10-17T17:14:53.000Z</time>
      </trkpt>
      <trkpt lat="45.65289" lon="6.24887">
        <ele>1230</ele>
        <time>2019-10-17T17:14:57.000Z</time>
      </trkpt>
      <trkpt lat="45.65291" lon="6.24895">
        <ele>1230</ele>
        <time>2019-10-17T17:14:59.720Z</time>
      </trkpt>
      <trkpt lat="45.65292" lon="6.24902">
        <ele>1230</ele>
        <time>2019-10-17T17:15:04.000Z</time>
      </trkpt>
      <trkpt lat="45.65292" lon="6.24909">
        <ele>1228</ele>
        <time>2019-10-17T17:15:10.000Z</time>
      </trkpt>
      <trkpt lat="45.65286" lon="6.24891">
        <ele>1227</ele>
        <time>2019-10-17T17:15:16.078Z</time>
      </trkpt>
      <trkpt lat="45.65283" lon="6.24881">
        <ele>1226</ele>
        <time>2019-10-17T17:15:22.621Z</time>
      </trkpt>
      <trkpt lat="45.65284" lon="6.24872">
        <ele>1225</ele>
        <time>2019-10-17T17:15:26.123Z</time>
      </trkpt>
      <trkpt lat="45.65283" lon="6.24861">
        <ele>1225</ele>
        <time>2019-10-17T17:15:30.223Z</time>
      </trkpt>
      <trkpt lat="45.65283" lon="6.24854">
        <ele>1224</ele>
        <time>2019-10-17T17:15:33.317Z</time>
      </trkpt>
      <trkpt lat="45.65282" lon="6.24845">
        <ele>1225</ele>
        <time>2019-10-17T17:15:36.603Z</time>
      </trkpt>
      <trkpt lat="45.6528" lon="6.24836">
        <ele>1224</ele>
        <time>2019-10-17T17:15:40.083Z</time>
      </trkpt>
      <trkpt lat="45.65278" lon="6.2483">
        <ele>1224</ele>
        <time>2019-10-17T17:15:43.366Z</time>
      </trkpt>
      <trkpt lat="45.65278" lon="6.24823">
        <ele>1224</ele>
        <time>2019-10-17T17:15:47.079Z</time>
      </trkpt>
      <trkpt lat="45.65271" lon="6.24815">
        <ele>1221</ele>
        <time>2019-10-17T17:15:54.075Z</time>
      </trkpt>
      <trkpt lat="45.65268" lon="6.24809">
        <ele>1221</ele>
        <time>2019-10-17T17:15:57.656Z</time>
      </trkpt>
      <trkpt lat="45.65264" lon="6.24803">
        <ele>1220</ele>
        <time>2019-10-17T17:16:01.059Z</time>
      </trkpt>
      <trkpt lat="45.65261" lon="6.24797">
        <ele>1221</ele>
        <time>2019-10-17T17:16:05.000Z</time>
      </trkpt>
      <trkpt lat="45.65258" lon="6.24792">
        <ele>1220</ele>
        <time>2019-10-17T17:16:09.000Z</time>
      </trkpt>
      <trkpt lat="45.65255" lon="6.24787">
        <ele>1219</ele>
        <time>2019-10-17T17:16:11.558Z</time>
      </trkpt>
      <trkpt lat="45.65251" lon="6.24783">
        <ele>1218</ele>
        <time>2019-10-17T17:16:14.715Z</time>
      </trkpt>
      <trkpt lat="45.65245" lon="6.24781">
        <ele>1218</ele>
        <time>2019-10-17T17:16:17.778Z</time>
      </trkpt>
      <trkpt lat="45.6524" lon="6.24778">
        <ele>1218</ele>
        <time>2019-10-17T17:16:22.000Z</time>
      </trkpt>
      <trkpt lat="45.65236" lon="6.24769">
        <ele>1219</ele>
        <time>2019-10-17T17:16:24.461Z</time>
      </trkpt>
      <trkpt lat="45.65237" lon="6.24758">
        <ele>1217</ele>
        <time>2019-10-17T17:16:29.000Z</time>
      </trkpt>
      <trkpt lat="45.65236" lon="6.2475">
        <ele>1217</ele>
        <time>2019-10-17T17:16:32.000Z</time>
      </trkpt>
      <trkpt lat="45.65236" lon="6.24742">
        <ele>1216</ele>
        <time>2019-10-17T17:16:34.740Z</time>
      </trkpt>
      <trkpt lat="45.65235" lon="6.24732">
        <ele>1214</ele>
        <time>2019-10-17T17:16:38.141Z</time>
      </trkpt>
      <trkpt lat="45.65231" lon="6.24724">
        <ele>1212</ele>
        <time>2019-10-17T17:16:42.000Z</time>
      </trkpt>
      <trkpt lat="45.65229" lon="6.24716">
        <ele>1212</ele>
        <time>2019-10-17T17:16:46.000Z</time>
      </trkpt>
      <trkpt lat="45.65228" lon="6.24705">
        <ele>1211</ele>
        <time>2019-10-17T17:16:48.773Z</time>
      </trkpt>
      <trkpt lat="45.65227" lon="6.24697">
        <ele>1210</ele>
        <time>2019-10-17T17:16:55.075Z</time>
      </trkpt>
      <trkpt lat="45.65224" lon="6.24691">
        <ele>1210</ele>
        <time>2019-10-17T17:16:58.398Z</time>
      </trkpt>
      <trkpt lat="45.6522" lon="6.24684">
        <ele>1209</ele>
        <time>2019-10-17T17:17:01.522Z</time>
      </trkpt>
      <trkpt lat="45.65214" lon="6.24679">
        <ele>1207</ele>
        <time>2019-10-17T17:17:07.859Z</time>
      </trkpt>
      <trkpt lat="45.65212" lon="6.24667">
        <ele>1207</ele>
        <time>2019-10-17T17:17:11.237Z</time>
      </trkpt>
      <trkpt lat="45.6521" lon="6.2466">
        <ele>1205</ele>
        <time>2019-10-17T17:17:14.762Z</time>
      </trkpt>
      <trkpt lat="45.6521" lon="6.2465">
        <ele>1204</ele>
        <time>2019-10-17T17:17:18.152Z</time>
      </trkpt>
      <trkpt lat="45.65207" lon="6.24634">
        <ele>1201</ele>
        <time>2019-10-17T17:17:24.737Z</time>
      </trkpt>
      <trkpt lat="45.65202" lon="6.24623">
        <ele>1201</ele>
        <time>2019-10-17T17:17:29.000Z</time>
      </trkpt>
      <trkpt lat="45.65201" lon="6.24614">
        <ele>1200</ele>
        <time>2019-10-17T17:17:33.000Z</time>
      </trkpt>
      <trkpt lat="45.65203" lon="6.24605">
        <ele>1198</ele>
        <time>2019-10-17T17:17:38.660Z</time>
      </trkpt>
      <trkpt lat="45.65195" lon="6.24595">
        <ele>1198</ele>
        <time>2019-10-17T17:17:43.000Z</time>
      </trkpt>
      <trkpt lat="45.65191" lon="6.24586">
        <ele>1197</ele>
        <time>2019-10-17T17:17:45.616Z</time>
      </trkpt>
      <trkpt lat="45.65186" lon="6.2458">
        <ele>1196</ele>
        <time>2019-10-17T17:17:48.701Z</time>
      </trkpt>
      <trkpt lat="45.65182" lon="6.24573">
        <ele>1195</ele>
        <time>2019-10-17T17:17:51.705Z</time>
      </trkpt>
      <trkpt lat="45.65179" lon="6.24567">
        <ele>1194</ele>
        <time>2019-10-17T17:17:54.777Z</time>
      </trkpt>
      <trkpt lat="45.65175" lon="6.24559">
        <ele>1193</ele>
        <time>2019-10-17T17:17:59.000Z</time>
      </trkpt>
      <trkpt lat="45.65172" lon="6.24548">
        <ele>1191</ele>
        <time>2019-10-17T17:18:03.000Z</time>
      </trkpt>
      <trkpt lat="45.65167" lon="6.24543">
        <ele>1189</ele>
        <time>2019-10-17T17:18:05.735Z</time>
      </trkpt>
      <trkpt lat="45.65165" lon="6.24535">
        <ele>1188</ele>
        <time>2019-10-17T17:18:09.058Z</time>
      </trkpt>
      <trkpt lat="45.6516" lon="6.2453">
        <ele>1188</ele>
        <time>2019-10-17T17:18:13.000Z</time>
      </trkpt>
      <trkpt lat="45.65156" lon="6.24524">
        <ele>1187</ele>
        <time>2019-10-17T17:18:16.000Z</time>
      </trkpt>
      <trkpt lat="45.65153" lon="6.24516">
        <ele>1187</ele>
        <time>2019-10-17T17:18:19.000Z</time>
      </trkpt>
      <trkpt lat="45.65151" lon="6.24507">
        <ele>1185</ele>
        <time>2019-10-17T17:18:21.793Z</time>
      </trkpt>
      <trkpt lat="45.65149" lon="6.245">
        <ele>1184</ele>
        <time>2019-10-17T17:18:26.000Z</time>
      </trkpt>
      <trkpt lat="45.65149" lon="6.24486">
        <ele>1181</ele>
        <time>2019-10-17T17:18:33.000Z</time>
      </trkpt>
      <trkpt lat="45.65149" lon="6.24477">
        <ele>1180</ele>
        <time>2019-10-17T17:18:36.000Z</time>
      </trkpt>
      <trkpt lat="45.65146" lon="6.2447">
        <ele>1179</ele>
        <time>2019-10-17T17:18:39.000Z</time>
      </trkpt>
      <trkpt lat="45.65144" lon="6.24461">
        <ele>1178</ele>
        <time>2019-10-17T17:18:41.770Z</time>
      </trkpt>
      <trkpt lat="45.65142" lon="6.24451">
        <ele>1178</ele>
        <time>2019-10-17T17:18:49.000Z</time>
      </trkpt>
      <trkpt lat="45.65142" lon="6.24441">
        <ele>1177</ele>
        <time>2019-10-17T17:18:52.000Z</time>
      </trkpt>
      <trkpt lat="45.65141" lon="6.24435">
        <ele>1177</ele>
        <time>2019-10-17T17:18:54.223Z</time>
      </trkpt>
      <trkpt lat="45.6514" lon="6.24428">
        <ele>1176</ele>
        <time>2019-10-17T17:18:58.000Z</time>
      </trkpt>
      <trkpt lat="45.65141" lon="6.24419">
        <ele>1177</ele>
        <time>2019-10-17T17:19:01.000Z</time>
      </trkpt>
      <trkpt lat="45.6514" lon="6.24409">
        <ele>1176</ele>
        <time>2019-10-17T17:19:05.000Z</time>
      </trkpt>
      <trkpt lat="45.65136" lon="6.24391">
        <ele>1173</ele>
        <time>2019-10-17T17:19:13.522Z</time>
      </trkpt>
      <trkpt lat="45.65134" lon="6.24382">
        <ele>1172</ele>
        <time>2019-10-17T17:19:18.000Z</time>
      </trkpt>
      <trkpt lat="45.65131" lon="6.24376">
        <ele>1170</ele>
        <time>2019-10-17T17:19:20.418Z</time>
      </trkpt>
      <trkpt lat="45.65135" lon="6.24362">
        <ele>1167</ele>
        <time>2019-10-17T17:19:27.963Z</time>
      </trkpt>
      <trkpt lat="45.65136" lon="6.24356">
        <ele>1164</ele>
        <time>2019-10-17T17:19:31.300Z</time>
      </trkpt>
      <trkpt lat="45.65131" lon="6.24319">
        <ele>1160</ele>
        <time>2019-10-17T17:19:40.920Z</time>
      </trkpt>
      <trkpt lat="45.65125" lon="6.24309">
        <ele>1159</ele>
        <time>2019-10-17T17:19:47.082Z</time>
      </trkpt>
      <trkpt lat="45.6512" lon="6.24301">
        <ele>1158</ele>
        <time>2019-10-17T17:19:51.000Z</time>
      </trkpt>
      <trkpt lat="45.6511" lon="6.24284">
        <ele>1155</ele>
        <time>2019-10-17T17:19:56.364Z</time>
      </trkpt>
      <trkpt lat="45.65105" lon="6.24277">
        <ele>1154</ele>
        <time>2019-10-17T17:19:59.879Z</time>
      </trkpt>
      <trkpt lat="45.65101" lon="6.24272">
        <ele>1152</ele>
        <time>2019-10-17T17:20:03.214Z</time>
      </trkpt>
      <trkpt lat="45.65093" lon="6.24272">
        <ele>1151</ele>
        <time>2019-10-17T17:20:06.438Z</time>
      </trkpt>
      <trkpt lat="45.65088" lon="6.24272">
        <ele>1149</ele>
        <time>2019-10-17T17:20:10.000Z</time>
      </trkpt>
      <trkpt lat="45.65082" lon="6.24275">
        <ele>1148</ele>
        <time>2019-10-17T17:20:13.000Z</time>
      </trkpt>
      <trkpt lat="45.65082" lon="6.24285">
        <ele>1145</ele>
        <time>2019-10-17T17:20:16.091Z</time>
      </trkpt>
      <trkpt lat="45.65083" lon="6.24292">
        <ele>1144</ele>
        <time>2019-10-17T17:20:23.000Z</time>
      </trkpt>
      <trkpt lat="45.65088" lon="6.24302">
        <ele>1143</ele>
        <time>2019-10-17T17:20:25.773Z</time>
      </trkpt>
      <trkpt lat="45.65093" lon="6.24306">
        <ele>1142</ele>
        <time>2019-10-17T17:20:28.917Z</time>
      </trkpt>
      <trkpt lat="45.65099" lon="6.24315">
        <ele>1139</ele>
        <time>2019-10-17T17:20:36.023Z</time>
      </trkpt>
      <trkpt lat="45.65096" lon="6.24325">
        <ele>1137</ele>
        <time>2019-10-17T17:20:42.818Z</time>
      </trkpt>
      <trkpt lat="45.65089" lon="6.24324">
        <ele>1137</ele>
        <time>2019-10-17T17:20:50.000Z</time>
      </trkpt>
      <trkpt lat="45.65089" lon="6.24313">
        <ele>1135</ele>
        <time>2019-10-17T17:20:57.072Z</time>
      </trkpt>
      <trkpt lat="45.65084" lon="6.24309">
        <ele>1134</ele>
        <time>2019-10-17T17:21:01.000Z</time>
      </trkpt>
      <trkpt lat="45.65079" lon="6.24305">
        <ele>1133</ele>
        <time>2019-10-17T17:21:04.000Z</time>
      </trkpt>
      <trkpt lat="45.65075" lon="6.24299">
        <ele>1132</ele>
        <time>2019-10-17T17:21:08.000Z</time>
      </trkpt>
      <trkpt lat="45.6507" lon="6.24291">
        <ele>1132</ele>
        <time>2019-10-17T17:21:11.000Z</time>
      </trkpt>
      <trkpt lat="45.65067" lon="6.24282">
        <ele>1131</ele>
        <time>2019-10-17T17:21:15.000Z</time>
      </trkpt>
      <trkpt lat="45.65066" lon="6.24274">
        <ele>1130</ele>
        <time>2019-10-17T17:21:18.000Z</time>
      </trkpt>
      <trkpt lat="45.65069" lon="6.24265">
        <ele>1129</ele>
        <time>2019-10-17T17:21:25.000Z</time>
      </trkpt>
      <trkpt lat="45.65068" lon="6.24255">
        <ele>1127</ele>
        <time>2019-10-17T17:21:27.574Z</time>
      </trkpt>
      <trkpt lat="45.65063" lon="6.24244">
        <ele>1128</ele>
        <time>2019-10-17T17:21:31.257Z</time>
      </trkpt>
      <trkpt lat="45.65061" lon="6.24238">
        <ele>1125</ele>
        <time>2019-10-17T17:21:35.000Z</time>
      </trkpt>
      <trkpt lat="45.65048" lon="6.24248">
        <ele>1120</ele>
        <time>2019-10-17T17:21:40.541Z</time>
      </trkpt>
      <trkpt lat="45.65043" lon="6.24254">
        <ele>1117</ele>
        <time>2019-10-17T17:21:45.000Z</time>
      </trkpt>
      <trkpt lat="45.6504" lon="6.2426">
        <ele>1115</ele>
        <time>2019-10-17T17:21:48.000Z</time>
      </trkpt>
      <trkpt lat="45.65035" lon="6.24267">
        <ele>1113</ele>
        <time>2019-10-17T17:21:52.000Z</time>
      </trkpt>
      <trkpt lat="45.65032" lon="6.24273">
        <ele>1111</ele>
        <time>2019-10-17T17:21:54.463Z</time>
      </trkpt>
      <trkpt lat="45.65027" lon="6.2428">
        <ele>1110</ele>
        <time>2019-10-17T17:21:59.000Z</time>
      </trkpt>
      <trkpt lat="45.65023" lon="6.24284">
        <ele>1109</ele>
        <time>2019-10-17T17:22:02.000Z</time>
      </trkpt>
      <trkpt lat="45.65019" lon="6.2429">
        <ele>1108</ele>
        <time>2019-10-17T17:22:04.435Z</time>
      </trkpt>
      <trkpt lat="45.65015" lon="6.24294">
        <ele>1109</ele>
        <time>2019-10-17T17:22:08.124Z</time>
      </trkpt>
      <trkpt lat="45.65011" lon="6.24283">
        <ele>1109</ele>
        <time>2019-10-17T17:22:11.717Z</time>
      </trkpt>
      <trkpt lat="45.6501" lon="6.24274">
        <ele>1109</ele>
        <time>2019-10-17T17:22:14.859Z</time>
      </trkpt>
      <trkpt lat="45.65012" lon="6.24267">
        <ele>1108</ele>
        <time>2019-10-17T17:22:19.075Z</time>
      </trkpt>
      <trkpt lat="45.65016" lon="6.24255">
        <ele>1107</ele>
        <time>2019-10-17T17:22:25.126Z</time>
      </trkpt>
      <trkpt lat="45.6502" lon="6.2425">
        <ele>1107</ele>
        <time>2019-10-17T17:22:30.000Z</time>
      </trkpt>
      <trkpt lat="45.65019" lon="6.24243">
        <ele>1107</ele>
        <time>2019-10-17T17:22:32.124Z</time>
      </trkpt>
      <trkpt lat="45.65019" lon="6.24233">
        <ele>1106</ele>
        <time>2019-10-17T17:22:38.639Z</time>
      </trkpt>
      <trkpt lat="45.65017" lon="6.24224">
        <ele>1102</ele>
        <time>2019-10-17T17:22:46.000Z</time>
      </trkpt>
      <trkpt lat="45.6501" lon="6.2422">
        <ele>1099</ele>
        <time>2019-10-17T17:22:52.380Z</time>
      </trkpt>
      <trkpt lat="45.65001" lon="6.24217">
        <ele>1097</ele>
        <time>2019-10-17T17:23:00.000Z</time>
      </trkpt>
      <trkpt lat="45.64993" lon="6.2422">
        <ele>1096</ele>
        <time>2019-10-17T17:23:03.000Z</time>
      </trkpt>
      <trkpt lat="45.64987" lon="6.24222">
        <ele>1096</ele>
        <time>2019-10-17T17:23:05.197Z</time>
      </trkpt>
      <trkpt lat="45.64983" lon="6.24221">
        <ele>1095</ele>
        <time>2019-10-17T17:23:08.582Z</time>
      </trkpt>
      <trkpt lat="45.64978" lon="6.24218">
        <ele>1096</ele>
        <time>2019-10-17T17:23:12.039Z</time>
      </trkpt>
      <trkpt lat="45.64972" lon="6.24213">
        <ele>1096</ele>
        <time>2019-10-17T17:23:15.152Z</time>
      </trkpt>
      <trkpt lat="45.64956" lon="6.24199">
        <ele>1096</ele>
        <time>2019-10-17T17:23:22.030Z</time>
      </trkpt>
      <trkpt lat="45.64948" lon="6.24195">
        <ele>1096</ele>
        <time>2019-10-17T17:23:29.000Z</time>
      </trkpt>
      <trkpt lat="45.64942" lon="6.24189">
        <ele>1096</ele>
        <time>2019-10-17T17:23:31.754Z</time>
      </trkpt>
      <trkpt lat="45.64935" lon="6.24186">
        <ele>1096</ele>
        <time>2019-10-17T17:23:34.763Z</time>
      </trkpt>
      <trkpt lat="45.64928" lon="6.24179">
        <ele>1094</ele>
        <time>2019-10-17T17:23:42.000Z</time>
      </trkpt>
      <trkpt lat="45.64921" lon="6.24179">
        <ele>1094</ele>
        <time>2019-10-17T17:23:44.934Z</time>
      </trkpt>
      <trkpt lat="45.64911" lon="6.24173">
        <ele>1094</ele>
        <time>2019-10-17T17:23:51.319Z</time>
      </trkpt>
      <trkpt lat="45.64905" lon="6.24159">
        <ele>1094</ele>
        <time>2019-10-17T17:23:55.000Z</time>
      </trkpt>
      <trkpt lat="45.64897" lon="6.24154">
        <ele>1094</ele>
        <time>2019-10-17T17:23:58.272Z</time>
      </trkpt>
      <trkpt lat="45.64892" lon="6.2415">
        <ele>1095</ele>
        <time>2019-10-17T17:24:01.310Z</time>
      </trkpt>
      <trkpt lat="45.64887" lon="6.24142">
        <ele>1095</ele>
        <time>2019-10-17T17:24:04.393Z</time>
      </trkpt>
      <trkpt lat="45.64883" lon="6.24135">
        <ele>1095</ele>
        <time>2019-10-17T17:24:07.723Z</time>
      </trkpt>
      <trkpt lat="45.64882" lon="6.24127">
        <ele>1095</ele>
        <time>2019-10-17T17:24:12.000Z</time>
      </trkpt>
      <trkpt lat="45.64878" lon="6.24117">
        <ele>1096</ele>
        <time>2019-10-17T17:24:16.000Z</time>
      </trkpt>
      <trkpt lat="45.64873" lon="6.24119">
        <ele>1097</ele>
        <time>2019-10-17T17:24:19.000Z</time>
      </trkpt>
      <trkpt lat="45.64867" lon="6.24109">
        <ele>1096</ele>
        <time>2019-10-17T17:24:21.736Z</time>
      </trkpt>
      <trkpt lat="45.64862" lon="6.24099">
        <ele>1095</ele>
        <time>2019-10-17T17:24:26.000Z</time>
      </trkpt>
      <trkpt lat="45.64857" lon="6.24092">
        <ele>1096</ele>
        <time>2019-10-17T17:24:29.000Z</time>
      </trkpt>
      <trkpt lat="45.64854" lon="6.24086">
        <ele>1095</ele>
        <time>2019-10-17T17:24:32.000Z</time>
      </trkpt>
      <trkpt lat="45.64851" lon="6.2408">
        <ele>1095</ele>
        <time>2019-10-17T17:24:35.000Z</time>
      </trkpt>
      <trkpt lat="45.64846" lon="6.24072">
        <ele>1095</ele>
        <time>2019-10-17T17:24:38.104Z</time>
      </trkpt>
      <trkpt lat="45.64845" lon="6.24064">
        <ele>1094</ele>
        <time>2019-10-17T17:24:42.000Z</time>
      </trkpt>
      <trkpt lat="45.64845" lon="6.24054">
        <ele>1094</ele>
        <time>2019-10-17T17:24:44.624Z</time>
      </trkpt>
      <trkpt lat="45.64843" lon="6.24048">
        <ele>1093</ele>
        <time>2019-10-17T17:24:47.697Z</time>
      </trkpt>
      <trkpt lat="45.64838" lon="6.2404">
        <ele>1091</ele>
        <time>2019-10-17T17:24:54.749Z</time>
      </trkpt>
      <trkpt lat="45.64833" lon="6.24035">
        <ele>1090</ele>
        <time>2019-10-17T17:24:59.000Z</time>
      </trkpt>
      <trkpt lat="45.6483" lon="6.24028">
        <ele>1089</ele>
        <time>2019-10-17T17:25:02.000Z</time>
      </trkpt>
      <trkpt lat="45.64826" lon="6.24022">
        <ele>1089</ele>
        <time>2019-10-17T17:25:04.243Z</time>
      </trkpt>
      <trkpt lat="45.64822" lon="6.24016">
        <ele>1088</ele>
        <time>2019-10-17T17:25:07.426Z</time>
      </trkpt>
      <trkpt lat="45.64816" lon="6.24009">
        <ele>1088</ele>
        <time>2019-10-17T17:25:11.000Z</time>
      </trkpt>
      <trkpt lat="45.64811" lon="6.24004">
        <ele>1087</ele>
        <time>2019-10-17T17:25:13.625Z</time>
      </trkpt>
      <trkpt lat="45.64806" lon="6.24002">
        <ele>1086</ele>
        <time>2019-10-17T17:25:18.000Z</time>
      </trkpt>
      <trkpt lat="45.648" lon="6.24006">
        <ele>1084</ele>
        <time>2019-10-17T17:25:28.000Z</time>
      </trkpt>
      <trkpt lat="45.64794" lon="6.24001">
        <ele>1083</ele>
        <time>2019-10-17T17:25:30.659Z</time>
      </trkpt>
      <trkpt lat="45.64791" lon="6.23993">
        <ele>1081</ele>
        <time>2019-10-17T17:25:33.674Z</time>
      </trkpt>
      <trkpt lat="45.64764" lon="6.23952">
        <ele>1080</ele>
        <time>2019-10-17T17:25:46.900Z</time>
      </trkpt>
      <trkpt lat="45.64765" lon="6.23945">
        <ele>1079</ele>
        <time>2019-10-17T17:25:50.087Z</time>
      </trkpt>
      <trkpt lat="45.6476" lon="6.23936">
        <ele>1079</ele>
        <time>2019-10-17T17:25:55.000Z</time>
      </trkpt>
      <trkpt lat="45.64755" lon="6.23929">
        <ele>1078</ele>
        <time>2019-10-17T17:25:58.094Z</time>
      </trkpt>
      <trkpt lat="45.64747" lon="6.2392">
        <ele>1076</ele>
        <time>2019-10-17T17:26:05.000Z</time>
      </trkpt>
      <trkpt lat="45.64743" lon="6.23916">
        <ele>1076</ele>
        <time>2019-10-17T17:26:08.000Z</time>
      </trkpt>
      <trkpt lat="45.64738" lon="6.2391">
        <ele>1075</ele>
        <time>2019-10-17T17:26:10.620Z</time>
      </trkpt>
      <trkpt lat="45.64733" lon="6.23905">
        <ele>1074</ele>
        <time>2019-10-17T17:26:15.000Z</time>
      </trkpt>
      <trkpt lat="45.64731" lon="6.23897">
        <ele>1074</ele>
        <time>2019-10-17T17:26:18.000Z</time>
      </trkpt>
      <trkpt lat="45.64729" lon="6.23889">
        <ele>1074</ele>
        <time>2019-10-17T17:26:21.000Z</time>
      </trkpt>
      <trkpt lat="45.64725" lon="6.23882">
        <ele>1073</ele>
        <time>2019-10-17T17:26:24.000Z</time>
      </trkpt>
      <trkpt lat="45.64722" lon="6.23877">
        <ele>1073</ele>
        <time>2019-10-17T17:26:26.399Z</time>
      </trkpt>
      <trkpt lat="45.64718" lon="6.23872">
        <ele>1074</ele>
        <time>2019-10-17T17:26:29.735Z</time>
      </trkpt>
      <trkpt lat="45.64712" lon="6.23861">
        <ele>1074</ele>
        <time>2019-10-17T17:26:37.000Z</time>
      </trkpt>
      <trkpt lat="45.64708" lon="6.23854">
        <ele>1073</ele>
        <time>2019-10-17T17:26:39.376Z</time>
      </trkpt>
      <trkpt lat="45.64705" lon="6.23848">
        <ele>1073</ele>
        <time>2019-10-17T17:26:42.649Z</time>
      </trkpt>
      <trkpt lat="45.64699" lon="6.23844">
        <ele>1072</ele>
        <time>2019-10-17T17:26:45.778Z</time>
      </trkpt>
      <trkpt lat="45.64695" lon="6.23838">
        <ele>1071</ele>
        <time>2019-10-17T17:26:49.144Z</time>
      </trkpt>
      <trkpt lat="45.6469" lon="6.23832">
        <ele>1070</ele>
        <time>2019-10-17T17:26:52.717Z</time>
      </trkpt>
      <trkpt lat="45.64685" lon="6.23826">
        <ele>1070</ele>
        <time>2019-10-17T17:26:56.121Z</time>
      </trkpt>
      <trkpt lat="45.6468" lon="6.23823">
        <ele>1069</ele>
        <time>2019-10-17T17:26:59.682Z</time>
      </trkpt>
      <trkpt lat="45.64676" lon="6.23819">
        <ele>1068</ele>
        <time>2019-10-17T17:27:04.000Z</time>
      </trkpt>
      <trkpt lat="45.64673" lon="6.23811">
        <ele>1066</ele>
        <time>2019-10-17T17:27:09.814Z</time>
      </trkpt>
      <trkpt lat="45.64663" lon="6.23807">
        <ele>1065</ele>
        <time>2019-10-17T17:27:14.000Z</time>
      </trkpt>
      <trkpt lat="45.64646" lon="6.23798">
        <ele>1063</ele>
        <time>2019-10-17T17:27:23.133Z</time>
      </trkpt>
      <trkpt lat="45.64638" lon="6.23791">
        <ele>1061</ele>
        <time>2019-10-17T17:27:29.682Z</time>
      </trkpt>
      <trkpt lat="45.64631" lon="6.23784">
        <ele>1060</ele>
        <time>2019-10-17T17:27:34.000Z</time>
      </trkpt>
      <trkpt lat="45.64627" lon="6.23776">
        <ele>1059</ele>
        <time>2019-10-17T17:27:36.736Z</time>
      </trkpt>
      <trkpt lat="45.64623" lon="6.23771">
        <ele>1059</ele>
        <time>2019-10-17T17:27:41.000Z</time>
      </trkpt>
      <trkpt lat="45.6462" lon="6.23764">
        <ele>1060</ele>
        <time>2019-10-17T17:27:43.435Z</time>
      </trkpt>
      <trkpt lat="45.64618" lon="6.23759">
        <ele>1059</ele>
        <time>2019-10-17T17:27:46.821Z</time>
      </trkpt>
      <trkpt lat="45.64616" lon="6.23753">
        <ele>1057</ele>
        <time>2019-10-17T17:27:51.000Z</time>
      </trkpt>
      <trkpt lat="45.64612" lon="6.23744">
        <ele>1056</ele>
        <time>2019-10-17T17:27:53.500Z</time>
      </trkpt>
      <trkpt lat="45.64608" lon="6.23737">
        <ele>1057</ele>
        <time>2019-10-17T17:27:56.582Z</time>
      </trkpt>
      <trkpt lat="45.64604" lon="6.2373">
        <ele>1055</ele>
        <time>2019-10-17T17:28:01.000Z</time>
      </trkpt>
      <trkpt lat="45.64598" lon="6.23723">
        <ele>1055</ele>
        <time>2019-10-17T17:28:04.000Z</time>
      </trkpt>
      <trkpt lat="45.64592" lon="6.23713">
        <ele>1054</ele>
        <time>2019-10-17T17:28:10.000Z</time>
      </trkpt>
      <trkpt lat="45.64587" lon="6.23708">
        <ele>1054</ele>
        <time>2019-10-17T17:28:13.000Z</time>
      </trkpt>
      <trkpt lat="45.64583" lon="6.23701">
        <ele>1053</ele>
        <time>2019-10-17T17:28:16.366Z</time>
      </trkpt>
      <trkpt lat="45.64574" lon="6.23699">
        <ele>1052</ele>
        <time>2019-10-17T17:28:21.000Z</time>
      </trkpt>
      <trkpt lat="45.64559" lon="6.23697">
        <ele>1055</ele>
        <time>2019-10-17T17:28:33.364Z</time>
      </trkpt>
    </trkseg>
  </trk>
</gpx>